<?xml version="1.0" encoding="UTF-8" standalone="no" ?>
<gpx xmlns="http://www.topografix.com/GPX/1/1" xmlns:xsi="http://www.w3.org/2001/XMLSchema-instance" xsi:schemaLocation="http://www.topografix.com/GPX/1/1 http://www.topografix.com/GPX/1/1/gpx.xsd" version="1.1" creator="VisuGPX - https://www.visugpx.com">
  <metadata>
    <name>Lac du Sainte Croix ? Gorges du Verdon Circuit à partir de Sainte-Croix-du-Verdon</name>
  </metadata>
  <trk>
    <name><![CDATA[Lac du Sainte Croix – Gorges du Verdon Circuit à partir de Sainte-Croix-du-Verdon]]></name>
    <trkseg>
      <trkpt lat="43.76972" lon="6.15856">
        <ele>705.283759</ele>
        <time>2022-05-26T08:00:17.942Z</time>
      </trkpt>
      <trkpt lat="43.76967" lon="6.15844">
        <ele>705.283759</ele>
        <time>2022-05-26T08:00:19.943Z</time>
      </trkpt>
      <trkpt lat="43.76963" lon="6.15829">
        <ele>705.283759</ele>
        <time>2022-05-26T08:00:21.943Z</time>
      </trkpt>
      <trkpt lat="43.76957" lon="6.15814">
        <ele>705.283759</ele>
        <time>2022-05-26T08:00:23.941Z</time>
      </trkpt>
      <trkpt lat="43.76953" lon="6.158">
        <ele>705.283759</ele>
        <time>2022-05-26T08:00:25.942Z</time>
      </trkpt>
      <trkpt lat="43.76949" lon="6.15786">
        <ele>705.283759</ele>
        <time>2022-05-26T08:00:27.943Z</time>
      </trkpt>
      <trkpt lat="43.76945" lon="6.15772">
        <ele>705.283759</ele>
        <time>2022-05-26T08:00:29.942Z</time>
      </trkpt>
      <trkpt lat="43.76942" lon="6.15757">
        <ele>705.283759</ele>
        <time>2022-05-26T08:00:31.943Z</time>
      </trkpt>
      <trkpt lat="43.7694" lon="6.15741">
        <ele>705.283759</ele>
        <time>2022-05-26T08:00:33.943Z</time>
      </trkpt>
      <trkpt lat="43.76936" lon="6.15726">
        <ele>705.142278</ele>
        <time>2022-05-26T08:00:35.943Z</time>
      </trkpt>
      <trkpt lat="43.76932" lon="6.15709">
        <ele>704.985144</ele>
        <time>2022-05-26T08:00:37.939Z</time>
      </trkpt>
      <trkpt lat="43.76929" lon="6.15692">
        <ele>704.829951</ele>
        <time>2022-05-26T08:00:39.944Z</time>
      </trkpt>
      <trkpt lat="43.76925" lon="6.15677">
        <ele>704.6805</ele>
        <time>2022-05-26T08:00:41.943Z</time>
      </trkpt>
      <trkpt lat="43.76922" lon="6.1566">
        <ele>704.524095</ele>
        <time>2022-05-26T08:00:43.945Z</time>
      </trkpt>
      <trkpt lat="43.76918" lon="6.15644">
        <ele>704.37131</ele>
        <time>2022-05-26T08:00:45.942Z</time>
      </trkpt>
      <trkpt lat="43.76915" lon="6.15626">
        <ele>704.211641</ele>
        <time>2022-05-26T08:00:47.942Z</time>
      </trkpt>
      <trkpt lat="43.76912" lon="6.15609">
        <ele>704.053861</ele>
        <time>2022-05-26T08:00:49.938Z</time>
      </trkpt>
      <trkpt lat="43.76909" lon="6.15593">
        <ele>703.90638</ele>
        <time>2022-05-26T08:00:51.944Z</time>
      </trkpt>
      <trkpt lat="43.76906" lon="6.15578">
        <ele>703.767625</ele>
        <time>2022-05-26T08:00:53.943Z</time>
      </trkpt>
      <trkpt lat="43.76903" lon="6.15561">
        <ele>703.607367</ele>
        <time>2022-05-26T08:00:55.941Z</time>
      </trkpt>
      <trkpt lat="43.769" lon="6.15544">
        <ele>703.452623</ele>
        <time>2022-05-26T08:00:57.939Z</time>
      </trkpt>
      <trkpt lat="43.76897" lon="6.15527">
        <ele>703.295271</ele>
        <time>2022-05-26T08:00:59.942Z</time>
      </trkpt>
      <trkpt lat="43.76894" lon="6.15511">
        <ele>703.145077</ele>
        <time>2022-05-26T08:01:01.946Z</time>
      </trkpt>
      <trkpt lat="43.76891" lon="6.15494">
        <ele>703.079827</ele>
        <time>2022-05-26T08:01:03.942Z</time>
      </trkpt>
      <trkpt lat="43.76887" lon="6.15478">
        <ele>703.16575</ele>
        <time>2022-05-26T08:01:05.939Z</time>
      </trkpt>
      <trkpt lat="43.76884" lon="6.15461">
        <ele>703.2511</ele>
        <time>2022-05-26T08:01:07.940Z</time>
      </trkpt>
      <trkpt lat="43.7688" lon="6.15444">
        <ele>703.335594</ele>
        <time>2022-05-26T08:01:09.943Z</time>
      </trkpt>
      <trkpt lat="43.76875" lon="6.15428">
        <ele>703.418802</ele>
        <time>2022-05-26T08:01:11.945Z</time>
      </trkpt>
      <trkpt lat="43.76871" lon="6.15412">
        <ele>703.502235</ele>
        <time>2022-05-26T08:01:13.947Z</time>
      </trkpt>
      <trkpt lat="43.76864" lon="6.15398">
        <ele>703.584116</ele>
        <time>2022-05-26T08:01:15.946Z</time>
      </trkpt>
      <trkpt lat="43.76858" lon="6.15382">
        <ele>703.66989</ele>
        <time>2022-05-26T08:01:17.944Z</time>
      </trkpt>
      <trkpt lat="43.76853" lon="6.15367">
        <ele>703.753222</ele>
        <time>2022-05-26T08:01:19.941Z</time>
      </trkpt>
      <trkpt lat="43.76846" lon="6.15352">
        <ele>703.840692</ele>
        <time>2022-05-26T08:01:21.939Z</time>
      </trkpt>
      <trkpt lat="43.76838" lon="6.15338">
        <ele>703.927771</ele>
        <time>2022-05-26T08:01:23.943Z</time>
      </trkpt>
      <trkpt lat="43.76829" lon="6.15323">
        <ele>704.018945</ele>
        <time>2022-05-26T08:01:25.944Z</time>
      </trkpt>
      <trkpt lat="43.7682" lon="6.15309">
        <ele>704.108767</ele>
        <time>2022-05-26T08:01:27.942Z</time>
      </trkpt>
      <trkpt lat="43.76813" lon="6.15296">
        <ele>704.193507</ele>
        <time>2022-05-26T08:01:29.939Z</time>
      </trkpt>
      <trkpt lat="43.76805" lon="6.15282">
        <ele>704.226394</ele>
        <time>2022-05-26T08:01:31.936Z</time>
      </trkpt>
      <trkpt lat="43.76797" lon="6.15269">
        <ele>704.08994</ele>
        <time>2022-05-26T08:01:33.947Z</time>
      </trkpt>
      <trkpt lat="43.76787" lon="6.15254">
        <ele>703.929721</ele>
        <time>2022-05-26T08:01:35.943Z</time>
      </trkpt>
      <trkpt lat="43.76778" lon="6.1524">
        <ele>703.772906</ele>
        <time>2022-05-26T08:01:37.950Z</time>
      </trkpt>
      <trkpt lat="43.76771" lon="6.15226">
        <ele>703.632276</ele>
        <time>2022-05-26T08:01:39.944Z</time>
      </trkpt>
      <trkpt lat="43.76763" lon="6.15211">
        <ele>703.485678</ele>
        <time>2022-05-26T08:01:41.942Z</time>
      </trkpt>
      <trkpt lat="43.76758" lon="6.15193">
        <ele>703.330966</ele>
        <time>2022-05-26T08:01:43.951Z</time>
      </trkpt>
      <trkpt lat="43.7675" lon="6.15178">
        <ele>703.177871</ele>
        <time>2022-05-26T08:01:45.947Z</time>
      </trkpt>
      <trkpt lat="43.7674" lon="6.15169">
        <ele>703.043748</ele>
        <time>2022-05-26T08:01:47.941Z</time>
      </trkpt>
      <trkpt lat="43.7673" lon="6.1516">
        <ele>702.9137</ele>
        <time>2022-05-26T08:01:49.945Z</time>
      </trkpt>
      <trkpt lat="43.76718" lon="6.15149">
        <ele>702.752877</ele>
        <time>2022-05-26T08:01:51.944Z</time>
      </trkpt>
      <trkpt lat="43.76709" lon="6.15137">
        <ele>702.61274</ele>
        <time>2022-05-26T08:01:53.944Z</time>
      </trkpt>
      <trkpt lat="43.767" lon="6.15124">
        <ele>702.468033</ele>
        <time>2022-05-26T08:01:55.942Z</time>
      </trkpt>
      <trkpt lat="43.76692" lon="6.1511">
        <ele>702.324773</ele>
        <time>2022-05-26T08:01:57.942Z</time>
      </trkpt>
      <trkpt lat="43.76684" lon="6.15096">
        <ele>702.05662</ele>
        <time>2022-05-26T08:01:59.942Z</time>
      </trkpt>
      <trkpt lat="43.76675" lon="6.15082">
        <ele>701.633374</ele>
        <time>2022-05-26T08:02:01.944Z</time>
      </trkpt>
      <trkpt lat="43.76667" lon="6.1507">
        <ele>701.264098</ele>
        <time>2022-05-26T08:02:03.941Z</time>
      </trkpt>
      <trkpt lat="43.7666" lon="6.15056">
        <ele>700.851598</ele>
        <time>2022-05-26T08:02:05.941Z</time>
      </trkpt>
      <trkpt lat="43.76651" lon="6.15041">
        <ele>700.42407</ele>
        <time>2022-05-26T08:02:07.941Z</time>
      </trkpt>
      <trkpt lat="43.76642" lon="6.15028">
        <ele>700.012981</ele>
        <time>2022-05-26T08:02:09.938Z</time>
      </trkpt>
      <trkpt lat="43.76633" lon="6.15015">
        <ele>699.60024</ele>
        <time>2022-05-26T08:02:11.943Z</time>
      </trkpt>
      <trkpt lat="43.76624" lon="6.15003">
        <ele>699.195057</ele>
        <time>2022-05-26T08:02:13.946Z</time>
      </trkpt>
      <trkpt lat="43.76616" lon="6.14991">
        <ele>698.814234</ele>
        <time>2022-05-26T08:02:15.944Z</time>
      </trkpt>
      <trkpt lat="43.76607" lon="6.1498">
        <ele>698.43196</ele>
        <time>2022-05-26T08:02:17.945Z</time>
      </trkpt>
      <trkpt lat="43.76597" lon="6.14967">
        <ele>698.00766</ele>
        <time>2022-05-26T08:02:19.939Z</time>
      </trkpt>
      <trkpt lat="43.76589" lon="6.14954">
        <ele>697.602709</ele>
        <time>2022-05-26T08:02:21.941Z</time>
      </trkpt>
      <trkpt lat="43.7658" lon="6.14939">
        <ele>697.17178</ele>
        <time>2022-05-26T08:02:23.948Z</time>
      </trkpt>
      <trkpt lat="43.76572" lon="6.14922">
        <ele>696.703364</ele>
        <time>2022-05-26T08:02:25.942Z</time>
      </trkpt>
      <trkpt lat="43.76564" lon="6.14906">
        <ele>696.47097</ele>
        <time>2022-05-26T08:02:27.943Z</time>
      </trkpt>
      <trkpt lat="43.76556" lon="6.14889">
        <ele>696.366888</ele>
        <time>2022-05-26T08:02:29.945Z</time>
      </trkpt>
      <trkpt lat="43.76547" lon="6.14874">
        <ele>696.258486</ele>
        <time>2022-05-26T08:02:31.943Z</time>
      </trkpt>
      <trkpt lat="43.76538" lon="6.14863">
        <ele>696.169288</ele>
        <time>2022-05-26T08:02:33.942Z</time>
      </trkpt>
      <trkpt lat="43.76526" lon="6.14856">
        <ele>696.07045</ele>
        <time>2022-05-26T08:02:35.938Z</time>
      </trkpt>
      <trkpt lat="43.76513" lon="6.14854">
        <ele>695.973822</ele>
        <time>2022-05-26T08:02:37.942Z</time>
      </trkpt>
      <trkpt lat="43.76499" lon="6.1485">
        <ele>695.866445</ele>
        <time>2022-05-26T08:02:39.942Z</time>
      </trkpt>
      <trkpt lat="43.76485" lon="6.14846">
        <ele>695.763083</ele>
        <time>2022-05-26T08:02:41.945Z</time>
      </trkpt>
      <trkpt lat="43.76474" lon="6.14843">
        <ele>695.67606</ele>
        <time>2022-05-26T08:02:43.942Z</time>
      </trkpt>
      <trkpt lat="43.76461" lon="6.1484">
        <ele>695.581418</ele>
        <time>2022-05-26T08:02:45.943Z</time>
      </trkpt>
      <trkpt lat="43.7645" lon="6.14837">
        <ele>695.496691</ele>
        <time>2022-05-26T08:02:47.942Z</time>
      </trkpt>
      <trkpt lat="43.7644" lon="6.14833">
        <ele>695.418107</ele>
        <time>2022-05-26T08:02:49.942Z</time>
      </trkpt>
      <trkpt lat="43.76429" lon="6.1483">
        <ele>695.332877</ele>
        <time>2022-05-26T08:02:51.941Z</time>
      </trkpt>
      <trkpt lat="43.76418" lon="6.14827">
        <ele>695.251085</ele>
        <time>2022-05-26T08:02:53.938Z</time>
      </trkpt>
      <trkpt lat="43.76407" lon="6.14824">
        <ele>695.090173</ele>
        <time>2022-05-26T08:02:55.943Z</time>
      </trkpt>
      <trkpt lat="43.76397" lon="6.1482">
        <ele>694.835703</ele>
        <time>2022-05-26T08:02:57.949Z</time>
      </trkpt>
      <trkpt lat="43.76387" lon="6.14817">
        <ele>694.583216</ele>
        <time>2022-05-26T08:02:59.952Z</time>
      </trkpt>
      <trkpt lat="43.76378" lon="6.14813">
        <ele>694.354656</ele>
        <time>2022-05-26T08:03:01.949Z</time>
      </trkpt>
      <trkpt lat="43.76366" lon="6.14815">
        <ele>694.037979</ele>
        <time>2022-05-26T08:03:04.951Z</time>
      </trkpt>
      <trkpt lat="43.76356" lon="6.14817">
        <ele>693.786008</ele>
        <time>2022-05-26T08:03:08.968Z</time>
      </trkpt>
      <trkpt lat="43.76343" lon="6.14806">
        <ele>693.404257</ele>
        <time>2022-05-26T08:04:17.951Z</time>
      </trkpt>
      <trkpt lat="43.76337" lon="6.14795">
        <ele>693.153925</ele>
        <time>2022-05-26T08:04:21.945Z</time>
      </trkpt>
      <trkpt lat="43.76329" lon="6.14785">
        <ele>692.901264</ele>
        <time>2022-05-26T08:04:25.948Z</time>
      </trkpt>
      <trkpt lat="43.76318" lon="6.14785">
        <ele>692.622588</ele>
        <time>2022-05-26T08:04:28.952Z</time>
      </trkpt>
      <trkpt lat="43.76308" lon="6.14783">
        <ele>692.38739</ele>
        <time>2022-05-26T08:04:30.947Z</time>
      </trkpt>
      <trkpt lat="43.76299" lon="6.14781">
        <ele>692.155324</ele>
        <time>2022-05-26T08:04:32.950Z</time>
      </trkpt>
      <trkpt lat="43.7629" lon="6.14778">
        <ele>691.90974</ele>
        <time>2022-05-26T08:04:34.947Z</time>
      </trkpt>
      <trkpt lat="43.7628" lon="6.14774">
        <ele>691.670051</ele>
        <time>2022-05-26T08:04:36.952Z</time>
      </trkpt>
      <trkpt lat="43.76271" lon="6.1477">
        <ele>691.414606</ele>
        <time>2022-05-26T08:04:38.945Z</time>
      </trkpt>
      <trkpt lat="43.76261" lon="6.14762">
        <ele>691.143611</ele>
        <time>2022-05-26T08:04:40.951Z</time>
      </trkpt>
      <trkpt lat="43.76251" lon="6.14753">
        <ele>690.838767</ele>
        <time>2022-05-26T08:04:42.955Z</time>
      </trkpt>
      <trkpt lat="43.76242" lon="6.14743">
        <ele>690.639293</ele>
        <time>2022-05-26T08:04:44.950Z</time>
      </trkpt>
      <trkpt lat="43.76233" lon="6.14733">
        <ele>690.472655</ele>
        <time>2022-05-26T08:04:46.942Z</time>
      </trkpt>
      <trkpt lat="43.76224" lon="6.14726">
        <ele>690.327393</ele>
        <time>2022-05-26T08:04:48.950Z</time>
      </trkpt>
      <trkpt lat="43.76215" lon="6.1472">
        <ele>690.181888</ele>
        <time>2022-05-26T08:04:50.949Z</time>
      </trkpt>
      <trkpt lat="43.76204" lon="6.14715">
        <ele>690.02645</ele>
        <time>2022-05-26T08:04:52.949Z</time>
      </trkpt>
      <trkpt lat="43.76194" lon="6.14711">
        <ele>689.87227</ele>
        <time>2022-05-26T08:04:54.951Z</time>
      </trkpt>
      <trkpt lat="43.76182" lon="6.14707">
        <ele>689.703099</ele>
        <time>2022-05-26T08:04:56.947Z</time>
      </trkpt>
      <trkpt lat="43.7617" lon="6.14703">
        <ele>689.528905</ele>
        <time>2022-05-26T08:04:58.946Z</time>
      </trkpt>
      <trkpt lat="43.76158" lon="6.14701">
        <ele>689.356206</ele>
        <time>2022-05-26T08:05:00.945Z</time>
      </trkpt>
      <trkpt lat="43.76147" lon="6.14695">
        <ele>689.184963</ele>
        <time>2022-05-26T08:05:02.946Z</time>
      </trkpt>
      <trkpt lat="43.76137" lon="6.14684">
        <ele>689.013254</ele>
        <time>2022-05-26T08:05:04.944Z</time>
      </trkpt>
      <trkpt lat="43.76129" lon="6.14668">
        <ele>688.818109</ele>
        <time>2022-05-26T08:05:06.949Z</time>
      </trkpt>
      <trkpt lat="43.76122" lon="6.1465">
        <ele>688.604515</ele>
        <time>2022-05-26T08:05:08.944Z</time>
      </trkpt>
      <trkpt lat="43.76116" lon="6.14632">
        <ele>688.402916</ele>
        <time>2022-05-26T08:05:10.937Z</time>
      </trkpt>
      <trkpt lat="43.76109" lon="6.14611">
        <ele>687.811554</ele>
        <time>2022-05-26T08:05:12.945Z</time>
      </trkpt>
      <trkpt lat="43.76103" lon="6.14589">
        <ele>685.047591</ele>
        <time>2022-05-26T08:05:14.943Z</time>
      </trkpt>
      <trkpt lat="43.76097" lon="6.14565">
        <ele>681.952098</ele>
        <time>2022-05-26T08:05:16.947Z</time>
      </trkpt>
      <trkpt lat="43.76095" lon="6.14552">
        <ele>680.373385</ele>
        <time>2022-05-26T08:05:17.942Z</time>
      </trkpt>
      <trkpt lat="43.76092" lon="6.14532">
        <ele>677.99116</ele>
        <time>2022-05-26T08:05:19.947Z</time>
      </trkpt>
      <trkpt lat="43.76087" lon="6.14521">
        <ele>676.391491</ele>
        <time>2022-05-26T08:05:21.945Z</time>
      </trkpt>
      <trkpt lat="43.76076" lon="6.14518">
        <ele>674.589581</ele>
        <time>2022-05-26T08:05:23.945Z</time>
      </trkpt>
      <trkpt lat="43.76068" lon="6.14527">
        <ele>672.845941</ele>
        <time>2022-05-26T08:05:25.938Z</time>
      </trkpt>
      <trkpt lat="43.76061" lon="6.14538">
        <ele>671.058454</ele>
        <time>2022-05-26T08:05:29.948Z</time>
      </trkpt>
      <trkpt lat="43.76053" lon="6.14531">
        <ele>669.56839</ele>
        <time>2022-05-26T08:07:22.938Z</time>
      </trkpt>
      <trkpt lat="43.76044" lon="6.14525">
        <ele>667.99134</ele>
        <time>2022-05-26T08:07:27.957Z</time>
      </trkpt>
      <trkpt lat="43.76035" lon="6.1452">
        <ele>666.408929</ele>
        <time>2022-05-26T08:07:32.946Z</time>
      </trkpt>
      <trkpt lat="43.76025" lon="6.14513">
        <ele>664.418291</ele>
        <time>2022-05-26T08:07:36.947Z</time>
      </trkpt>
      <trkpt lat="43.76013" lon="6.14505">
        <ele>662.300874</ele>
        <time>2022-05-26T08:07:39.946Z</time>
      </trkpt>
      <trkpt lat="43.76003" lon="6.14499">
        <ele>660.495265</ele>
        <time>2022-05-26T08:07:42.948Z</time>
      </trkpt>
      <trkpt lat="43.75994" lon="6.14492">
        <ele>658.724118</ele>
        <time>2022-05-26T08:07:45.950Z</time>
      </trkpt>
      <trkpt lat="43.75983" lon="6.14483">
        <ele>657.02941</ele>
        <time>2022-05-26T08:07:48.946Z</time>
      </trkpt>
      <trkpt lat="43.75973" lon="6.14478">
        <ele>655.653591</ele>
        <time>2022-05-26T08:07:50.952Z</time>
      </trkpt>
      <trkpt lat="43.75962" lon="6.14471">
        <ele>654.101181</ele>
        <time>2022-05-26T08:07:52.950Z</time>
      </trkpt>
      <trkpt lat="43.75952" lon="6.14464">
        <ele>652.616985</ele>
        <time>2022-05-26T08:07:54.945Z</time>
      </trkpt>
      <trkpt lat="43.75942" lon="6.14456">
        <ele>651.122298</ele>
        <time>2022-05-26T08:07:57.954Z</time>
      </trkpt>
      <trkpt lat="43.75934" lon="6.1445">
        <ele>649.919957</ele>
        <time>2022-05-26T08:08:00.952Z</time>
      </trkpt>
      <trkpt lat="43.75925" lon="6.1444">
        <ele>648.357642</ele>
        <time>2022-05-26T08:08:03.946Z</time>
      </trkpt>
      <trkpt lat="43.75917" lon="6.14432">
        <ele>647.10404</ele>
        <time>2022-05-26T08:08:05.959Z</time>
      </trkpt>
      <trkpt lat="43.75912" lon="6.1442">
        <ele>645.834619</ele>
        <time>2022-05-26T08:08:07.948Z</time>
      </trkpt>
      <trkpt lat="43.75906" lon="6.14406">
        <ele>644.268588</ele>
        <time>2022-05-26T08:08:09.947Z</time>
      </trkpt>
      <trkpt lat="43.75898" lon="6.14394">
        <ele>642.761725</ele>
        <time>2022-05-26T08:08:11.947Z</time>
      </trkpt>
      <trkpt lat="43.75893" lon="6.14383">
        <ele>641.511318</ele>
        <time>2022-05-26T08:08:13.951Z</time>
      </trkpt>
      <trkpt lat="43.75888" lon="6.14371">
        <ele>640.233815</ele>
        <time>2022-05-26T08:08:16.950Z</time>
      </trkpt>
      <trkpt lat="43.75882" lon="6.14358">
        <ele>638.809917</ele>
        <time>2022-05-26T08:09:47.944Z</time>
      </trkpt>
      <trkpt lat="43.75877" lon="6.14345">
        <ele>637.413457</ele>
        <time>2022-05-26T08:09:52.948Z</time>
      </trkpt>
      <trkpt lat="43.75875" lon="6.14331">
        <ele>636.053639</ele>
        <time>2022-05-26T08:09:58.942Z</time>
      </trkpt>
      <trkpt lat="43.75871" lon="6.14319">
        <ele>634.821485</ele>
        <time>2022-05-26T08:10:03.949Z</time>
      </trkpt>
      <trkpt lat="43.7587" lon="6.14305">
        <ele>633.22102</ele>
        <time>2022-05-26T08:10:08.950Z</time>
      </trkpt>
      <trkpt lat="43.75866" lon="6.14293">
        <ele>631.706998</ele>
        <time>2022-05-26T08:10:12.948Z</time>
      </trkpt>
      <trkpt lat="43.7586" lon="6.14282">
        <ele>630.128954</ele>
        <time>2022-05-26T08:10:16.952Z</time>
      </trkpt>
      <trkpt lat="43.75855" lon="6.14269">
        <ele>628.444582</ele>
        <time>2022-05-26T08:10:20.948Z</time>
      </trkpt>
      <trkpt lat="43.75851" lon="6.14256">
        <ele>626.869862</ele>
        <time>2022-05-26T08:10:24.952Z</time>
      </trkpt>
      <trkpt lat="43.75848" lon="6.14244">
        <ele>625.470989</ele>
        <time>2022-05-26T08:10:27.955Z</time>
      </trkpt>
      <trkpt lat="43.75844" lon="6.14232">
        <ele>623.916496</ele>
        <time>2022-05-26T08:10:31.947Z</time>
      </trkpt>
      <trkpt lat="43.7584" lon="6.1422">
        <ele>622.497488</ele>
        <time>2022-05-26T08:10:36.949Z</time>
      </trkpt>
      <trkpt lat="43.75833" lon="6.14209">
        <ele>620.866668</ele>
        <time>2022-05-26T08:10:42.943Z</time>
      </trkpt>
      <trkpt lat="43.75829" lon="6.14197">
        <ele>619.386066</ele>
        <time>2022-05-26T08:10:48.945Z</time>
      </trkpt>
      <trkpt lat="43.75825" lon="6.14185">
        <ele>617.895797</ele>
        <time>2022-05-26T08:11:07.942Z</time>
      </trkpt>
      <trkpt lat="43.75823" lon="6.14172">
        <ele>616.381363</ele>
        <time>2022-05-26T08:11:11.946Z</time>
      </trkpt>
      <trkpt lat="43.7582" lon="6.1416">
        <ele>614.925529</ele>
        <time>2022-05-26T08:11:15.937Z</time>
      </trkpt>
      <trkpt lat="43.75815" lon="6.14147">
        <ele>613.307924</ele>
        <time>2022-05-26T08:11:20.945Z</time>
      </trkpt>
      <trkpt lat="43.75815" lon="6.14134">
        <ele>611.853442</ele>
        <time>2022-05-26T08:11:25.942Z</time>
      </trkpt>
      <trkpt lat="43.7581" lon="6.14124">
        <ele>610.420359</ele>
        <time>2022-05-26T08:11:30.946Z</time>
      </trkpt>
      <trkpt lat="43.75804" lon="6.14112">
        <ele>608.885426</ele>
        <time>2022-05-26T08:11:34.947Z</time>
      </trkpt>
      <trkpt lat="43.75801" lon="6.14099">
        <ele>607.292455</ele>
        <time>2022-05-26T08:11:39.946Z</time>
      </trkpt>
      <trkpt lat="43.75797" lon="6.14086">
        <ele>605.458628</ele>
        <time>2022-05-26T08:11:47.948Z</time>
      </trkpt>
      <trkpt lat="43.75799" lon="6.14074">
        <ele>603.647495</ele>
        <time>2022-05-26T08:11:57.942Z</time>
      </trkpt>
      <trkpt lat="43.75799" lon="6.14061">
        <ele>601.907398</ele>
        <time>2022-05-26T08:12:08.945Z</time>
      </trkpt>
      <trkpt lat="43.75801" lon="6.14049">
        <ele>600.164948</ele>
        <time>2022-05-26T08:12:44.941Z</time>
      </trkpt>
      <trkpt lat="43.7581" lon="6.14044">
        <ele>598.298939</ele>
        <time>2022-05-26T08:12:50.948Z</time>
      </trkpt>
      <trkpt lat="43.75821" lon="6.14036">
        <ele>596.042263</ele>
        <time>2022-05-26T08:12:53.944Z</time>
      </trkpt>
      <trkpt lat="43.75827" lon="6.14027">
        <ele>594.285075</ele>
        <time>2022-05-26T08:12:55.946Z</time>
      </trkpt>
      <trkpt lat="43.75832" lon="6.14015">
        <ele>592.368859</ele>
        <time>2022-05-26T08:12:59.951Z</time>
      </trkpt>
      <trkpt lat="43.75832" lon="6.13999">
        <ele>590.258316</ele>
        <time>2022-05-26T08:14:36.945Z</time>
      </trkpt>
      <trkpt lat="43.75831" lon="6.13983">
        <ele>588.025866</ele>
        <time>2022-05-26T08:14:40.959Z</time>
      </trkpt>
      <trkpt lat="43.75829" lon="6.13971">
        <ele>586.275004</ele>
        <time>2022-05-26T08:14:43.951Z</time>
      </trkpt>
      <trkpt lat="43.75825" lon="6.13958">
        <ele>584.335176</ele>
        <time>2022-05-26T08:14:47.951Z</time>
      </trkpt>
      <trkpt lat="43.75816" lon="6.13951">
        <ele>582.389023</ele>
        <time>2022-05-26T08:14:51.948Z</time>
      </trkpt>
      <trkpt lat="43.75803" lon="6.1396">
        <ele>579.597182</ele>
        <time>2022-05-26T08:15:19.945Z</time>
      </trkpt>
      <trkpt lat="43.75793" lon="6.1396">
        <ele>577.631963</ele>
        <time>2022-05-26T08:15:25.945Z</time>
      </trkpt>
      <trkpt lat="43.75782" lon="6.13953">
        <ele>575.350906</ele>
        <time>2022-05-26T08:15:30.952Z</time>
      </trkpt>
      <trkpt lat="43.75776" lon="6.13942">
        <ele>573.484554</ele>
        <time>2022-05-26T08:15:33.947Z</time>
      </trkpt>
      <trkpt lat="43.75773" lon="6.13928">
        <ele>571.957527</ele>
        <time>2022-05-26T08:15:38.955Z</time>
      </trkpt>
      <trkpt lat="43.75766" lon="6.13916">
        <ele>570.666929</ele>
        <time>2022-05-26T08:15:43.956Z</time>
      </trkpt>
      <trkpt lat="43.7576" lon="6.13902">
        <ele>569.294535</ele>
        <time>2022-05-26T08:15:47.953Z</time>
      </trkpt>
      <trkpt lat="43.75756" lon="6.1389">
        <ele>568.185916</ele>
        <time>2022-05-26T08:15:50.957Z</time>
      </trkpt>
      <trkpt lat="43.75749" lon="6.13878">
        <ele>566.938877</ele>
        <time>2022-05-26T08:15:53.952Z</time>
      </trkpt>
      <trkpt lat="43.75743" lon="6.13867">
        <ele>565.791175</ele>
        <time>2022-05-26T08:15:56.956Z</time>
      </trkpt>
      <trkpt lat="43.75734" lon="6.13861">
        <ele>564.629034</ele>
        <time>2022-05-26T08:16:01.951Z</time>
      </trkpt>
      <trkpt lat="43.75724" lon="6.13866">
        <ele>563.372678</ele>
        <time>2022-05-26T08:16:05.952Z</time>
      </trkpt>
      <trkpt lat="43.75715" lon="6.13858">
        <ele>562.150496</ele>
        <time>2022-05-26T08:16:08.950Z</time>
      </trkpt>
      <trkpt lat="43.75705" lon="6.13848">
        <ele>560.744785</ele>
        <time>2022-05-26T08:16:11.947Z</time>
      </trkpt>
      <trkpt lat="43.75695" lon="6.13837">
        <ele>559.300888</ele>
        <time>2022-05-26T08:16:14.949Z</time>
      </trkpt>
      <trkpt lat="43.75688" lon="6.13827">
        <ele>558.091339</ele>
        <time>2022-05-26T08:16:17.951Z</time>
      </trkpt>
      <trkpt lat="43.75681" lon="6.13814">
        <ele>556.756536</ele>
        <time>2022-05-26T08:16:20.956Z</time>
      </trkpt>
      <trkpt lat="43.75674" lon="6.13803">
        <ele>555.541063</ele>
        <time>2022-05-26T08:16:22.955Z</time>
      </trkpt>
      <trkpt lat="43.75663" lon="6.13792">
        <ele>553.983782</ele>
        <time>2022-05-26T08:16:25.951Z</time>
      </trkpt>
      <trkpt lat="43.75654" lon="6.13786">
        <ele>552.87366</ele>
        <time>2022-05-26T08:16:27.954Z</time>
      </trkpt>
      <trkpt lat="43.75645" lon="6.13773">
        <ele>551.438746</ele>
        <time>2022-05-26T08:16:30.957Z</time>
      </trkpt>
      <trkpt lat="43.75636" lon="6.13761">
        <ele>550.280513</ele>
        <time>2022-05-26T08:16:33.952Z</time>
      </trkpt>
      <trkpt lat="43.75631" lon="6.1375">
        <ele>549.385169</ele>
        <time>2022-05-26T08:16:36.955Z</time>
      </trkpt>
      <trkpt lat="43.75628" lon="6.13737">
        <ele>548.396738</ele>
        <time>2022-05-26T08:16:40.955Z</time>
      </trkpt>
      <trkpt lat="43.75623" lon="6.13722">
        <ele>547.262687</ele>
        <time>2022-05-26T08:16:44.955Z</time>
      </trkpt>
      <trkpt lat="43.75618" lon="6.13709">
        <ele>546.242215</ele>
        <time>2022-05-26T08:16:48.957Z</time>
      </trkpt>
      <trkpt lat="43.75614" lon="6.13698">
        <ele>545.339193</ele>
        <time>2022-05-26T08:16:52.956Z</time>
      </trkpt>
      <trkpt lat="43.75611" lon="6.13685">
        <ele>544.371915</ele>
        <time>2022-05-26T08:16:57.955Z</time>
      </trkpt>
      <trkpt lat="43.75605" lon="6.13674">
        <ele>543.41987</ele>
        <time>2022-05-26T08:17:03.948Z</time>
      </trkpt>
      <trkpt lat="43.75595" lon="6.13668">
        <ele>542.391792</ele>
        <time>2022-05-26T08:17:08.952Z</time>
      </trkpt>
      <trkpt lat="43.75586" lon="6.13658">
        <ele>541.273397</ele>
        <time>2022-05-26T08:17:12.952Z</time>
      </trkpt>
      <trkpt lat="43.75578" lon="6.13651">
        <ele>540.385326</ele>
        <time>2022-05-26T08:17:14.954Z</time>
      </trkpt>
      <trkpt lat="43.75569" lon="6.13639">
        <ele>539.193045</ele>
        <time>2022-05-26T08:17:17.952Z</time>
      </trkpt>
      <trkpt lat="43.75565" lon="6.13627">
        <ele>538.273575</ele>
        <time>2022-05-26T08:17:21.948Z</time>
      </trkpt>
      <trkpt lat="43.75565" lon="6.13615">
        <ele>537.392042</ele>
        <time>2022-05-26T08:17:28.953Z</time>
      </trkpt>
      <trkpt lat="43.75536" lon="6.13593">
        <ele>534.356576</ele>
        <time>2022-05-26T08:18:58.955Z</time>
      </trkpt>
      <trkpt lat="43.75527" lon="6.13583">
        <ele>533.762367</ele>
        <time>2022-05-26T08:19:03.947Z</time>
      </trkpt>
      <trkpt lat="43.75519" lon="6.13574">
        <ele>533.230143</ele>
        <time>2022-05-26T08:19:07.949Z</time>
      </trkpt>
      <trkpt lat="43.75513" lon="6.13561">
        <ele>532.623309</ele>
        <time>2022-05-26T08:19:12.945Z</time>
      </trkpt>
      <trkpt lat="43.75508" lon="6.1355">
        <ele>532.137313</ele>
        <time>2022-05-26T08:19:15.958Z</time>
      </trkpt>
      <trkpt lat="43.75498" lon="6.1354">
        <ele>531.465011</ele>
        <time>2022-05-26T08:19:18.953Z</time>
      </trkpt>
      <trkpt lat="43.75491" lon="6.13529">
        <ele>530.896688</ele>
        <time>2022-05-26T08:19:20.951Z</time>
      </trkpt>
      <trkpt lat="43.75486" lon="6.13516">
        <ele>530.313051</ele>
        <time>2022-05-26T08:19:22.950Z</time>
      </trkpt>
      <trkpt lat="43.75482" lon="6.13502">
        <ele>529.756515</ele>
        <time>2022-05-26T08:19:24.954Z</time>
      </trkpt>
      <trkpt lat="43.7548" lon="6.13487">
        <ele>529.17848</ele>
        <time>2022-05-26T08:19:26.959Z</time>
      </trkpt>
      <trkpt lat="43.75479" lon="6.13473">
        <ele>528.627071</ele>
        <time>2022-05-26T08:19:28.951Z</time>
      </trkpt>
      <trkpt lat="43.75475" lon="6.13459">
        <ele>528.064375</ele>
        <time>2022-05-26T08:19:30.950Z</time>
      </trkpt>
      <trkpt lat="43.7547" lon="6.13449">
        <ele>527.568595</ele>
        <time>2022-05-26T08:19:32.959Z</time>
      </trkpt>
      <trkpt lat="43.75461" lon="6.13443">
        <ele>527.074024</ele>
        <time>2022-05-26T08:19:37.954Z</time>
      </trkpt>
      <trkpt lat="43.75451" lon="6.13441">
        <ele>526.504947</ele>
        <time>2022-05-26T08:19:53.950Z</time>
      </trkpt>
      <trkpt lat="43.75444" lon="6.13449">
        <ele>526.014422</ele>
        <time>2022-05-26T08:20:00.950Z</time>
      </trkpt>
      <trkpt lat="43.75432" lon="6.13453">
        <ele>525.396156</ele>
        <time>2022-05-26T08:20:19.949Z</time>
      </trkpt>
      <trkpt lat="43.75424" lon="6.13447">
        <ele>525.120035</ele>
        <time>2022-05-26T08:20:26.944Z</time>
      </trkpt>
      <trkpt lat="43.75413" lon="6.13444">
        <ele>525.914473</ele>
        <time>2022-05-26T08:20:31.951Z</time>
      </trkpt>
      <trkpt lat="43.75403" lon="6.13448">
        <ele>526.602575</ele>
        <time>2022-05-26T08:20:39.946Z</time>
      </trkpt>
      <trkpt lat="43.75393" lon="6.13452">
        <ele>527.345019</ele>
        <time>2022-05-26T08:20:44.953Z</time>
      </trkpt>
      <trkpt lat="43.75384" lon="6.13454">
        <ele>528.000316</ele>
        <time>2022-05-26T08:20:47.955Z</time>
      </trkpt>
      <trkpt lat="43.75374" lon="6.13457">
        <ele>528.70702</ele>
        <time>2022-05-26T08:20:54.949Z</time>
      </trkpt>
      <trkpt lat="43.75363" lon="6.13456">
        <ele>529.464278</ele>
        <time>2022-05-26T08:20:58.953Z</time>
      </trkpt>
      <trkpt lat="43.75355" lon="6.13461">
        <ele>530.119097</ele>
        <time>2022-05-26T08:21:02.949Z</time>
      </trkpt>
      <trkpt lat="43.75346" lon="6.13466">
        <ele>530.822375</ele>
        <time>2022-05-26T08:21:06.955Z</time>
      </trkpt>
      <trkpt lat="43.75337" lon="6.13461">
        <ele>531.485204</ele>
        <time>2022-05-26T08:21:13.948Z</time>
      </trkpt>
      <trkpt lat="43.7533" lon="6.13453">
        <ele>532.15745</ele>
        <time>2022-05-26T08:21:38.947Z</time>
      </trkpt>
      <trkpt lat="43.7532" lon="6.13448">
        <ele>532.847937</ele>
        <time>2022-05-26T08:21:48.943Z</time>
      </trkpt>
      <trkpt lat="43.75311" lon="6.13445">
        <ele>533.505244</ele>
        <time>2022-05-26T08:22:06.948Z</time>
      </trkpt>
      <trkpt lat="43.75304" lon="6.13455">
        <ele>534.241963</ele>
        <time>2022-05-26T08:22:17.953Z</time>
      </trkpt>
      <trkpt lat="43.75296" lon="6.13466">
        <ele>535.026217</ele>
        <time>2022-05-26T08:22:21.949Z</time>
      </trkpt>
      <trkpt lat="43.7529" lon="6.13476">
        <ele>535.703973</ele>
        <time>2022-05-26T08:22:25.951Z</time>
      </trkpt>
      <trkpt lat="43.75283" lon="6.13485">
        <ele>536.344121</ele>
        <time>2022-05-26T08:22:28.955Z</time>
      </trkpt>
      <trkpt lat="43.75276" lon="6.13494">
        <ele>537.085787</ele>
        <time>2022-05-26T08:22:31.953Z</time>
      </trkpt>
      <trkpt lat="43.75268" lon="6.13503">
        <ele>537.680063</ele>
        <time>2022-05-26T08:22:35.949Z</time>
      </trkpt>
      <trkpt lat="43.75259" lon="6.13514">
        <ele>537.87204</ele>
        <time>2022-05-26T08:22:39.950Z</time>
      </trkpt>
      <trkpt lat="43.75252" lon="6.13523">
        <ele>538.028923</ele>
        <time>2022-05-26T08:22:42.957Z</time>
      </trkpt>
      <trkpt lat="43.75242" lon="6.13532">
        <ele>538.215687</ele>
        <time>2022-05-26T08:22:46.951Z</time>
      </trkpt>
      <trkpt lat="43.75233" lon="6.13537">
        <ele>538.370455</ele>
        <time>2022-05-26T08:22:50.956Z</time>
      </trkpt>
      <trkpt lat="43.75225" lon="6.13549">
        <ele>538.54751</ele>
        <time>2022-05-26T08:22:55.953Z</time>
      </trkpt>
      <trkpt lat="43.75219" lon="6.13559">
        <ele>538.703997</ele>
        <time>2022-05-26T08:22:59.956Z</time>
      </trkpt>
      <trkpt lat="43.7522" lon="6.13573">
        <ele>538.865567</ele>
        <time>2022-05-26T08:23:06.957Z</time>
      </trkpt>
      <trkpt lat="43.75215" lon="6.13584">
        <ele>539.01557</ele>
        <time>2022-05-26T08:23:11.951Z</time>
      </trkpt>
      <trkpt lat="43.75208" lon="6.13596">
        <ele>539.187008</ele>
        <time>2022-05-26T08:23:16.946Z</time>
      </trkpt>
      <trkpt lat="43.75204" lon="6.13608">
        <ele>539.340497</ele>
        <time>2022-05-26T08:23:20.940Z</time>
      </trkpt>
      <trkpt lat="43.75198" lon="6.13618">
        <ele>539.490944</ele>
        <time>2022-05-26T08:23:24.948Z</time>
      </trkpt>
      <trkpt lat="43.7519" lon="6.13626">
        <ele>539.658627</ele>
        <time>2022-05-26T08:23:28.951Z</time>
      </trkpt>
      <trkpt lat="43.75181" lon="6.13634">
        <ele>539.819052</ele>
        <time>2022-05-26T08:23:32.956Z</time>
      </trkpt>
      <trkpt lat="43.75173" lon="6.13639">
        <ele>539.966147</ele>
        <time>2022-05-26T08:23:36.961Z</time>
      </trkpt>
      <trkpt lat="43.75165" lon="6.13646">
        <ele>540.116161</ele>
        <time>2022-05-26T08:23:40.951Z</time>
      </trkpt>
      <trkpt lat="43.75156" lon="6.13655">
        <ele>540.286408</ele>
        <time>2022-05-26T08:23:44.960Z</time>
      </trkpt>
      <trkpt lat="43.75149" lon="6.13663">
        <ele>540.438373</ele>
        <time>2022-05-26T08:23:47.958Z</time>
      </trkpt>
      <trkpt lat="43.75138" lon="6.13663">
        <ele>540.512435</ele>
        <time>2022-05-26T08:23:52.953Z</time>
      </trkpt>
      <trkpt lat="43.75129" lon="6.13663">
        <ele>540.504604</ele>
        <time>2022-05-26T08:23:57.946Z</time>
      </trkpt>
      <trkpt lat="43.75113" lon="6.13667">
        <ele>540.491159</ele>
        <time>2022-05-26T08:24:45.947Z</time>
      </trkpt>
      <trkpt lat="43.75103" lon="6.1367">
        <ele>540.483568</ele>
        <time>2022-05-26T08:25:38.947Z</time>
      </trkpt>
      <trkpt lat="43.75095" lon="6.13674">
        <ele>540.476071</ele>
        <time>2022-05-26T08:25:47.949Z</time>
      </trkpt>
      <trkpt lat="43.75087" lon="6.13681">
        <ele>540.468659</ele>
        <time>2022-05-26T08:26:20.948Z</time>
      </trkpt>
      <trkpt lat="43.75075" lon="6.13692">
        <ele>540.457047</ele>
        <time>2022-05-26T08:27:58.944Z</time>
      </trkpt>
      <trkpt lat="43.75066" lon="6.13699">
        <ele>540.448223</ele>
        <time>2022-05-26T08:28:02.958Z</time>
      </trkpt>
      <trkpt lat="43.75059" lon="6.1371">
        <ele>540.439602</ele>
        <time>2022-05-26T08:28:07.945Z</time>
      </trkpt>
      <trkpt lat="43.75051" lon="6.1372">
        <ele>540.431209</ele>
        <time>2022-05-26T08:28:14.953Z</time>
      </trkpt>
      <trkpt lat="43.75044" lon="6.13728">
        <ele>540.423529</ele>
        <time>2022-05-26T08:28:18.951Z</time>
      </trkpt>
      <trkpt lat="43.75039" lon="6.13738">
        <ele>540.416216</ele>
        <time>2022-05-26T08:28:22.951Z</time>
      </trkpt>
      <trkpt lat="43.75035" lon="6.1375">
        <ele>540.408473</ele>
        <time>2022-05-26T08:28:26.951Z</time>
      </trkpt>
      <trkpt lat="43.75029" lon="6.13763">
        <ele>540.399392</ele>
        <time>2022-05-26T08:28:30.954Z</time>
      </trkpt>
      <trkpt lat="43.75023" lon="6.13777">
        <ele>540.389915</ele>
        <time>2022-05-26T08:28:34.955Z</time>
      </trkpt>
      <trkpt lat="43.75013" lon="6.13779">
        <ele>540.381636</ele>
        <time>2022-05-26T08:28:38.960Z</time>
      </trkpt>
      <trkpt lat="43.75003" lon="6.1378">
        <ele>540.373639</ele>
        <time>2022-05-26T08:28:42.954Z</time>
      </trkpt>
      <trkpt lat="43.74994" lon="6.13776">
        <ele>540.407077</ele>
        <time>2022-05-26T08:28:46.961Z</time>
      </trkpt>
      <trkpt lat="43.74985" lon="6.13772">
        <ele>540.48206</ele>
        <time>2022-05-26T08:28:50.958Z</time>
      </trkpt>
      <trkpt lat="43.74974" lon="6.13769">
        <ele>540.561529</ele>
        <time>2022-05-26T08:28:56.957Z</time>
      </trkpt>
      <trkpt lat="43.74964" lon="6.13765">
        <ele>540.640099</ele>
        <time>2022-05-26T08:29:01.955Z</time>
      </trkpt>
      <trkpt lat="43.74954" lon="6.1376">
        <ele>540.71843</ele>
        <time>2022-05-26T08:29:06.956Z</time>
      </trkpt>
      <trkpt lat="43.74945" lon="6.13757">
        <ele>540.788727</ele>
        <time>2022-05-26T08:29:12.958Z</time>
      </trkpt>
      <trkpt lat="43.74938" lon="6.13748">
        <ele>540.861087</ele>
        <time>2022-05-26T08:29:20.959Z</time>
      </trkpt>
      <trkpt lat="43.74936" lon="6.13734">
        <ele>540.937135</ele>
        <time>2022-05-26T08:29:25.955Z</time>
      </trkpt>
      <trkpt lat="43.7493" lon="6.13724">
        <ele>541.00607</ele>
        <time>2022-05-26T08:29:35.956Z</time>
      </trkpt>
      <trkpt lat="43.74924" lon="6.13714">
        <ele>541.075692</ele>
        <time>2022-05-26T08:41:31.949Z</time>
      </trkpt>
      <trkpt lat="43.74918" lon="6.13704">
        <ele>541.143875</ele>
        <time>2022-05-26T08:41:37.947Z</time>
      </trkpt>
      <trkpt lat="43.74912" lon="6.13693">
        <ele>541.220009</ele>
        <time>2022-05-26T08:41:43.951Z</time>
      </trkpt>
      <trkpt lat="43.74907" lon="6.13681">
        <ele>541.293254</ele>
        <time>2022-05-26T08:41:48.950Z</time>
      </trkpt>
      <trkpt lat="43.74904" lon="6.13665">
        <ele>541.384359</ele>
        <time>2022-05-26T08:41:54.956Z</time>
      </trkpt>
      <trkpt lat="43.74896" lon="6.13639">
        <ele>541.535566</ele>
        <time>2022-05-26T08:41:56.947Z</time>
      </trkpt>
      <trkpt lat="43.74897" lon="6.13622">
        <ele>541.629101</ele>
        <time>2022-05-26T08:41:59.946Z</time>
      </trkpt>
      <trkpt lat="43.749" lon="6.13608">
        <ele>541.706451</ele>
        <time>2022-05-26T08:42:02.947Z</time>
      </trkpt>
      <trkpt lat="43.74901" lon="6.13595">
        <ele>541.801941</ele>
        <time>2022-05-26T08:42:04.949Z</time>
      </trkpt>
      <trkpt lat="43.74902" lon="6.1358">
        <ele>541.908406</ele>
        <time>2022-05-26T08:42:06.952Z</time>
      </trkpt>
      <trkpt lat="43.74899" lon="6.13566">
        <ele>542.011912</ele>
        <time>2022-05-26T08:42:08.947Z</time>
      </trkpt>
      <trkpt lat="43.74897" lon="6.1355">
        <ele>542.1293</ele>
        <time>2022-05-26T08:42:10.945Z</time>
      </trkpt>
      <trkpt lat="43.74897" lon="6.13536">
        <ele>542.233556</ele>
        <time>2022-05-26T08:42:12.950Z</time>
      </trkpt>
      <trkpt lat="43.74896" lon="6.13519">
        <ele>542.359125</ele>
        <time>2022-05-26T08:42:14.952Z</time>
      </trkpt>
      <trkpt lat="43.74897" lon="6.13505">
        <ele>542.458556</ele>
        <time>2022-05-26T08:42:16.954Z</time>
      </trkpt>
      <trkpt lat="43.74894" lon="6.13491">
        <ele>542.563582</ele>
        <time>2022-05-26T08:42:19.950Z</time>
      </trkpt>
      <trkpt lat="43.74893" lon="6.13478">
        <ele>542.656902</ele>
        <time>2022-05-26T08:42:23.951Z</time>
      </trkpt>
      <trkpt lat="43.74898" lon="6.13466">
        <ele>542.756697</ele>
        <time>2022-05-26T08:42:42.943Z</time>
      </trkpt>
      <trkpt lat="43.74896" lon="6.13449">
        <ele>542.883813</ele>
        <time>2022-05-26T08:42:46.953Z</time>
      </trkpt>
      <trkpt lat="43.74899" lon="6.13435">
        <ele>542.990515</ele>
        <time>2022-05-26T08:42:50.949Z</time>
      </trkpt>
      <trkpt lat="43.74906" lon="6.13425">
        <ele>543.088252</ele>
        <time>2022-05-26T08:42:54.956Z</time>
      </trkpt>
      <trkpt lat="43.74915" lon="6.13418">
        <ele>543.188822</ele>
        <time>2022-05-26T08:43:01.944Z</time>
      </trkpt>
      <trkpt lat="43.7492" lon="6.13407">
        <ele>543.28108</ele>
        <time>2022-05-26T08:43:07.951Z</time>
      </trkpt>
      <trkpt lat="43.74927" lon="6.134">
        <ele>543.373078</ele>
        <time>2022-05-26T08:43:19.949Z</time>
      </trkpt>
      <trkpt lat="43.74933" lon="6.1339">
        <ele>543.46639</ele>
        <time>2022-05-26T08:43:33.949Z</time>
      </trkpt>
      <trkpt lat="43.74937" lon="6.13379">
        <ele>543.590672</ele>
        <time>2022-05-26T08:43:48.951Z</time>
      </trkpt>
      <trkpt lat="43.74949" lon="6.13373">
        <ele>543.795804</ele>
        <time>2022-05-26T08:46:05.943Z</time>
      </trkpt>
      <trkpt lat="43.74954" lon="6.13362">
        <ele>543.95207</ele>
        <time>2022-05-26T08:46:10.951Z</time>
      </trkpt>
      <trkpt lat="43.74958" lon="6.13351">
        <ele>544.116329</ele>
        <time>2022-05-26T08:46:14.947Z</time>
      </trkpt>
      <trkpt lat="43.74961" lon="6.13336">
        <ele>544.296932</ele>
        <time>2022-05-26T08:46:18.953Z</time>
      </trkpt>
      <trkpt lat="43.74963" lon="6.13322">
        <ele>544.479593</ele>
        <time>2022-05-26T08:46:21.964Z</time>
      </trkpt>
      <trkpt lat="43.74965" lon="6.13305">
        <ele>544.681243</ele>
        <time>2022-05-26T08:46:24.948Z</time>
      </trkpt>
      <trkpt lat="43.74964" lon="6.13287">
        <ele>544.908866</ele>
        <time>2022-05-26T08:46:27.943Z</time>
      </trkpt>
      <trkpt lat="43.74961" lon="6.1327">
        <ele>545.12648</ele>
        <time>2022-05-26T08:46:30.954Z</time>
      </trkpt>
      <trkpt lat="43.74955" lon="6.13258">
        <ele>545.292945</ele>
        <time>2022-05-26T08:46:32.947Z</time>
      </trkpt>
      <trkpt lat="43.74948" lon="6.13249">
        <ele>545.462026</ele>
        <time>2022-05-26T08:46:34.952Z</time>
      </trkpt>
      <trkpt lat="43.74938" lon="6.13243">
        <ele>545.637353</ele>
        <time>2022-05-26T08:46:36.947Z</time>
      </trkpt>
      <trkpt lat="43.74929" lon="6.13239">
        <ele>545.804752</ele>
        <time>2022-05-26T08:46:38.948Z</time>
      </trkpt>
      <trkpt lat="43.74919" lon="6.13238">
        <ele>545.981608</ele>
        <time>2022-05-26T08:46:40.947Z</time>
      </trkpt>
      <trkpt lat="43.74909" lon="6.13238">
        <ele>546.153177</ele>
        <time>2022-05-26T08:46:43.944Z</time>
      </trkpt>
      <trkpt lat="43.74899" lon="6.13247">
        <ele>546.345922</ele>
        <time>2022-05-26T08:46:52.949Z</time>
      </trkpt>
      <trkpt lat="43.74889" lon="6.13259">
        <ele>546.567341</ele>
        <time>2022-05-26T08:46:55.941Z</time>
      </trkpt>
      <trkpt lat="43.74882" lon="6.13269">
        <ele>546.521196</ele>
        <time>2022-05-26T08:46:57.949Z</time>
      </trkpt>
      <trkpt lat="43.74872" lon="6.13281">
        <ele>546.459276</ele>
        <time>2022-05-26T08:47:00.952Z</time>
      </trkpt>
      <trkpt lat="43.74865" lon="6.13291">
        <ele>546.410899</ele>
        <time>2022-05-26T08:47:02.946Z</time>
      </trkpt>
      <trkpt lat="43.74857" lon="6.13301">
        <ele>546.363704</ele>
        <time>2022-05-26T08:47:04.948Z</time>
      </trkpt>
      <trkpt lat="43.7485" lon="6.13311">
        <ele>546.317528</ele>
        <time>2022-05-26T08:47:06.952Z</time>
      </trkpt>
      <trkpt lat="43.74842" lon="6.1332">
        <ele>546.268278</ele>
        <time>2022-05-26T08:47:08.950Z</time>
      </trkpt>
      <trkpt lat="43.74835" lon="6.1333">
        <ele>546.223678</ele>
        <time>2022-05-26T08:47:10.952Z</time>
      </trkpt>
      <trkpt lat="43.74826" lon="6.13338">
        <ele>546.177064</ele>
        <time>2022-05-26T08:47:12.949Z</time>
      </trkpt>
      <trkpt lat="43.74818" lon="6.13346">
        <ele>546.132374</ele>
        <time>2022-05-26T08:47:14.952Z</time>
      </trkpt>
      <trkpt lat="43.7481" lon="6.13353">
        <ele>546.086282</ele>
        <time>2022-05-26T08:47:16.950Z</time>
      </trkpt>
      <trkpt lat="43.74802" lon="6.13358">
        <ele>546.044495</ele>
        <time>2022-05-26T08:47:18.948Z</time>
      </trkpt>
      <trkpt lat="43.74793" lon="6.13366">
        <ele>545.999054</ele>
        <time>2022-05-26T08:47:20.943Z</time>
      </trkpt>
      <trkpt lat="43.74785" lon="6.13373">
        <ele>545.954309</ele>
        <time>2022-05-26T08:47:22.952Z</time>
      </trkpt>
      <trkpt lat="43.74777" lon="6.1338">
        <ele>545.909683</ele>
        <time>2022-05-26T08:47:24.944Z</time>
      </trkpt>
      <trkpt lat="43.74769" lon="6.13387">
        <ele>545.868362</ele>
        <time>2022-05-26T08:47:26.950Z</time>
      </trkpt>
      <trkpt lat="43.74762" lon="6.13394">
        <ele>545.826105</ele>
        <time>2022-05-26T08:47:28.951Z</time>
      </trkpt>
      <trkpt lat="43.74754" lon="6.13401">
        <ele>545.783492</ele>
        <time>2022-05-26T08:47:30.949Z</time>
      </trkpt>
      <trkpt lat="43.74746" lon="6.1341">
        <ele>545.748623</ele>
        <time>2022-05-26T08:47:32.947Z</time>
      </trkpt>
      <trkpt lat="43.74736" lon="6.13421">
        <ele>545.847083</ele>
        <time>2022-05-26T08:47:35.948Z</time>
      </trkpt>
      <trkpt lat="43.74729" lon="6.1343">
        <ele>545.915185</ele>
        <time>2022-05-26T08:47:37.943Z</time>
      </trkpt>
      <trkpt lat="43.74719" lon="6.13441">
        <ele>546.014648</ele>
        <time>2022-05-26T08:47:40.946Z</time>
      </trkpt>
      <trkpt lat="43.74712" lon="6.1345">
        <ele>546.088234</ele>
        <time>2022-05-26T08:47:42.949Z</time>
      </trkpt>
      <trkpt lat="43.74704" lon="6.13461">
        <ele>546.169761</ele>
        <time>2022-05-26T08:47:44.947Z</time>
      </trkpt>
      <trkpt lat="43.74697" lon="6.13471">
        <ele>546.248177</ele>
        <time>2022-05-26T08:47:46.946Z</time>
      </trkpt>
      <trkpt lat="43.74689" lon="6.13481">
        <ele>546.325831</ele>
        <time>2022-05-26T08:47:48.946Z</time>
      </trkpt>
      <trkpt lat="43.74682" lon="6.13491">
        <ele>546.4007</ele>
        <time>2022-05-26T08:47:50.946Z</time>
      </trkpt>
      <trkpt lat="43.74674" lon="6.13503">
        <ele>546.48845</ele>
        <time>2022-05-26T08:47:52.945Z</time>
      </trkpt>
      <trkpt lat="43.74666" lon="6.13514">
        <ele>546.572484</ele>
        <time>2022-05-26T08:47:54.953Z</time>
      </trkpt>
      <trkpt lat="43.74658" lon="6.13527">
        <ele>546.661028</ele>
        <time>2022-05-26T08:47:56.946Z</time>
      </trkpt>
      <trkpt lat="43.7465" lon="6.13539">
        <ele>546.750194</ele>
        <time>2022-05-26T08:47:58.948Z</time>
      </trkpt>
      <trkpt lat="43.74642" lon="6.1355">
        <ele>546.835469</ele>
        <time>2022-05-26T08:48:00.953Z</time>
      </trkpt>
      <trkpt lat="43.74635" lon="6.13564">
        <ele>546.92963</ele>
        <time>2022-05-26T08:48:02.948Z</time>
      </trkpt>
      <trkpt lat="43.74626" lon="6.13572">
        <ele>547.006505</ele>
        <time>2022-05-26T08:48:04.949Z</time>
      </trkpt>
      <trkpt lat="43.74619" lon="6.13582">
        <ele>547.080668</ele>
        <time>2022-05-26T08:48:06.948Z</time>
      </trkpt>
      <trkpt lat="43.74611" lon="6.13593">
        <ele>547.193308</ele>
        <time>2022-05-26T08:48:08.948Z</time>
      </trkpt>
      <trkpt lat="43.74604" lon="6.13603">
        <ele>547.300038</ele>
        <time>2022-05-26T08:48:10.949Z</time>
      </trkpt>
      <trkpt lat="43.74597" lon="6.13612">
        <ele>547.390393</ele>
        <time>2022-05-26T08:48:12.947Z</time>
      </trkpt>
      <trkpt lat="43.74591" lon="6.13623">
        <ele>547.495969</ele>
        <time>2022-05-26T08:48:14.951Z</time>
      </trkpt>
      <trkpt lat="43.74584" lon="6.13632">
        <ele>547.587541</ele>
        <time>2022-05-26T08:48:16.952Z</time>
      </trkpt>
      <trkpt lat="43.74576" lon="6.13645">
        <ele>547.713665</ele>
        <time>2022-05-26T08:48:19.946Z</time>
      </trkpt>
      <trkpt lat="43.74566" lon="6.13656">
        <ele>547.838719</ele>
        <time>2022-05-26T08:48:22.953Z</time>
      </trkpt>
      <trkpt lat="43.74559" lon="6.13666">
        <ele>547.938642</ele>
        <time>2022-05-26T08:48:24.952Z</time>
      </trkpt>
      <trkpt lat="43.74549" lon="6.13678">
        <ele>548.076315</ele>
        <time>2022-05-26T08:48:27.945Z</time>
      </trkpt>
      <trkpt lat="43.7454" lon="6.13691">
        <ele>548.205054</ele>
        <time>2022-05-26T08:48:30.951Z</time>
      </trkpt>
      <trkpt lat="43.74535" lon="6.13701">
        <ele>548.297796</ele>
        <time>2022-05-26T08:48:32.949Z</time>
      </trkpt>
      <trkpt lat="43.74528" lon="6.1371">
        <ele>548.391311</ele>
        <time>2022-05-26T08:48:34.947Z</time>
      </trkpt>
      <trkpt lat="43.7452" lon="6.13719">
        <ele>548.490495</ele>
        <time>2022-05-26T08:48:36.954Z</time>
      </trkpt>
      <trkpt lat="43.74512" lon="6.13729">
        <ele>548.60563</ele>
        <time>2022-05-26T08:48:38.951Z</time>
      </trkpt>
      <trkpt lat="43.74502" lon="6.13739">
        <ele>548.731123</ele>
        <time>2022-05-26T08:48:40.948Z</time>
      </trkpt>
      <trkpt lat="43.74491" lon="6.13747">
        <ele>548.848687</ele>
        <time>2022-05-26T08:48:42.950Z</time>
      </trkpt>
      <trkpt lat="43.74482" lon="6.13754">
        <ele>549.097039</ele>
        <time>2022-05-26T08:48:44.947Z</time>
      </trkpt>
      <trkpt lat="43.74472" lon="6.1376">
        <ele>549.439494</ele>
        <time>2022-05-26T08:48:46.948Z</time>
      </trkpt>
      <trkpt lat="43.74462" lon="6.13766">
        <ele>549.773193</ele>
        <time>2022-05-26T08:48:48.949Z</time>
      </trkpt>
      <trkpt lat="43.74453" lon="6.13772">
        <ele>550.103996</ele>
        <time>2022-05-26T08:48:50.951Z</time>
      </trkpt>
      <trkpt lat="43.74444" lon="6.13779">
        <ele>550.431396</ele>
        <time>2022-05-26T08:48:52.950Z</time>
      </trkpt>
      <trkpt lat="43.74436" lon="6.13788">
        <ele>550.747631</ele>
        <time>2022-05-26T08:48:54.948Z</time>
      </trkpt>
      <trkpt lat="43.7443" lon="6.13797">
        <ele>551.050356</ele>
        <time>2022-05-26T08:48:56.947Z</time>
      </trkpt>
      <trkpt lat="43.74423" lon="6.13805">
        <ele>551.343161</ele>
        <time>2022-05-26T08:48:58.946Z</time>
      </trkpt>
      <trkpt lat="43.74415" lon="6.13817">
        <ele>551.721691</ele>
        <time>2022-05-26T08:49:01.940Z</time>
      </trkpt>
      <trkpt lat="43.74405" lon="6.1383">
        <ele>552.17068</ele>
        <time>2022-05-26T08:49:04.949Z</time>
      </trkpt>
      <trkpt lat="43.74398" lon="6.1384">
        <ele>552.489091</ele>
        <time>2022-05-26T08:49:06.949Z</time>
      </trkpt>
      <trkpt lat="43.74387" lon="6.1385">
        <ele>552.900216</ele>
        <time>2022-05-26T08:49:09.944Z</time>
      </trkpt>
      <trkpt lat="43.74379" lon="6.13856">
        <ele>553.193793</ele>
        <time>2022-05-26T08:49:11.945Z</time>
      </trkpt>
      <trkpt lat="43.74371" lon="6.13861">
        <ele>553.4877</ele>
        <time>2022-05-26T08:49:13.944Z</time>
      </trkpt>
      <trkpt lat="43.74361" lon="6.13867">
        <ele>553.842837</ele>
        <time>2022-05-26T08:49:15.950Z</time>
      </trkpt>
      <trkpt lat="43.74351" lon="6.13871">
        <ele>554.18249</ele>
        <time>2022-05-26T08:49:17.937Z</time>
      </trkpt>
      <trkpt lat="43.74341" lon="6.13875">
        <ele>554.493522</ele>
        <time>2022-05-26T08:49:19.948Z</time>
      </trkpt>
      <trkpt lat="43.74332" lon="6.13876">
        <ele>554.700069</ele>
        <time>2022-05-26T08:49:21.949Z</time>
      </trkpt>
      <trkpt lat="43.74322" lon="6.13878">
        <ele>554.754115</ele>
        <time>2022-05-26T08:49:23.947Z</time>
      </trkpt>
      <trkpt lat="43.74313" lon="6.13881">
        <ele>554.807385</ele>
        <time>2022-05-26T08:49:25.948Z</time>
      </trkpt>
      <trkpt lat="43.74302" lon="6.13883">
        <ele>554.86663</ele>
        <time>2022-05-26T08:49:27.945Z</time>
      </trkpt>
      <trkpt lat="43.74293" lon="6.13884">
        <ele>554.919759</ele>
        <time>2022-05-26T08:49:29.946Z</time>
      </trkpt>
      <trkpt lat="43.74283" lon="6.13888">
        <ele>554.975296</ele>
        <time>2022-05-26T08:49:31.943Z</time>
      </trkpt>
      <trkpt lat="43.74275" lon="6.13893">
        <ele>555.026755</ele>
        <time>2022-05-26T08:49:33.947Z</time>
      </trkpt>
      <trkpt lat="43.74267" lon="6.13901">
        <ele>555.080603</ele>
        <time>2022-05-26T08:49:35.948Z</time>
      </trkpt>
      <trkpt lat="43.74255" lon="6.13909">
        <ele>555.155913</ele>
        <time>2022-05-26T08:49:38.949Z</time>
      </trkpt>
      <trkpt lat="43.74247" lon="6.13918">
        <ele>555.211654</ele>
        <time>2022-05-26T08:49:40.951Z</time>
      </trkpt>
      <trkpt lat="43.74239" lon="6.13928">
        <ele>555.272619</ele>
        <time>2022-05-26T08:49:42.947Z</time>
      </trkpt>
      <trkpt lat="43.74231" lon="6.13937">
        <ele>555.330678</ele>
        <time>2022-05-26T08:49:44.951Z</time>
      </trkpt>
      <trkpt lat="43.74223" lon="6.13945">
        <ele>555.38364</ele>
        <time>2022-05-26T08:49:46.945Z</time>
      </trkpt>
      <trkpt lat="43.74215" lon="6.13954">
        <ele>555.444274</ele>
        <time>2022-05-26T08:49:48.948Z</time>
      </trkpt>
      <trkpt lat="43.74206" lon="6.13963">
        <ele>555.505594</ele>
        <time>2022-05-26T08:49:50.944Z</time>
      </trkpt>
      <trkpt lat="43.74198" lon="6.1397">
        <ele>555.558867</ele>
        <time>2022-05-26T08:49:52.945Z</time>
      </trkpt>
      <trkpt lat="43.7419" lon="6.13979">
        <ele>555.615634</ele>
        <time>2022-05-26T08:49:54.948Z</time>
      </trkpt>
      <trkpt lat="43.74182" lon="6.13987">
        <ele>555.670875</ele>
        <time>2022-05-26T08:49:56.952Z</time>
      </trkpt>
      <trkpt lat="43.74173" lon="6.13993">
        <ele>555.771297</ele>
        <time>2022-05-26T08:49:58.946Z</time>
      </trkpt>
      <trkpt lat="43.74164" lon="6.13998">
        <ele>555.886711</ele>
        <time>2022-05-26T08:50:00.952Z</time>
      </trkpt>
      <trkpt lat="43.74155" lon="6.14008">
        <ele>556.030065</ele>
        <time>2022-05-26T08:50:02.954Z</time>
      </trkpt>
      <trkpt lat="43.74146" lon="6.14015">
        <ele>556.154714</ele>
        <time>2022-05-26T08:50:04.950Z</time>
      </trkpt>
      <trkpt lat="43.74136" lon="6.14023">
        <ele>556.292027</ele>
        <time>2022-05-26T08:50:06.950Z</time>
      </trkpt>
      <trkpt lat="43.74126" lon="6.14028">
        <ele>556.421729</ele>
        <time>2022-05-26T08:50:08.949Z</time>
      </trkpt>
      <trkpt lat="43.74116" lon="6.14032">
        <ele>556.55233</ele>
        <time>2022-05-26T08:50:10.956Z</time>
      </trkpt>
      <trkpt lat="43.74106" lon="6.14035">
        <ele>556.671636</ele>
        <time>2022-05-26T08:50:12.949Z</time>
      </trkpt>
      <trkpt lat="43.74096" lon="6.14037">
        <ele>556.797045</ele>
        <time>2022-05-26T08:50:14.947Z</time>
      </trkpt>
      <trkpt lat="43.74086" lon="6.1404">
        <ele>556.92215</ele>
        <time>2022-05-26T08:50:16.951Z</time>
      </trkpt>
      <trkpt lat="43.74075" lon="6.14041">
        <ele>557.052591</ele>
        <time>2022-05-26T08:50:18.951Z</time>
      </trkpt>
      <trkpt lat="43.74064" lon="6.14043">
        <ele>557.189774</ele>
        <time>2022-05-26T08:50:20.941Z</time>
      </trkpt>
      <trkpt lat="43.74053" lon="6.14045">
        <ele>557.323709</ele>
        <time>2022-05-26T08:50:22.959Z</time>
      </trkpt>
      <trkpt lat="43.74043" lon="6.14046">
        <ele>557.441261</ele>
        <time>2022-05-26T08:50:24.947Z</time>
      </trkpt>
      <trkpt lat="43.74031" lon="6.14049">
        <ele>557.584115</ele>
        <time>2022-05-26T08:50:26.952Z</time>
      </trkpt>
      <trkpt lat="43.7402" lon="6.14049">
        <ele>557.723304</ele>
        <time>2022-05-26T08:50:28.948Z</time>
      </trkpt>
      <trkpt lat="43.74009" lon="6.14048">
        <ele>557.854248</ele>
        <time>2022-05-26T08:50:30.952Z</time>
      </trkpt>
      <trkpt lat="43.73998" lon="6.14046">
        <ele>557.89565</ele>
        <time>2022-05-26T08:50:32.950Z</time>
      </trkpt>
      <trkpt lat="43.73987" lon="6.14043">
        <ele>557.93499</ele>
        <time>2022-05-26T08:50:34.959Z</time>
      </trkpt>
      <trkpt lat="43.73977" lon="6.1404">
        <ele>557.973088</ele>
        <time>2022-05-26T08:50:36.945Z</time>
      </trkpt>
      <trkpt lat="43.73965" lon="6.14037">
        <ele>558.016037</ele>
        <time>2022-05-26T08:50:38.948Z</time>
      </trkpt>
      <trkpt lat="43.73955" lon="6.14032">
        <ele>558.055242</ele>
        <time>2022-05-26T08:50:40.950Z</time>
      </trkpt>
      <trkpt lat="43.73943" lon="6.14027">
        <ele>558.100198</ele>
        <time>2022-05-26T08:50:42.947Z</time>
      </trkpt>
      <trkpt lat="43.73933" lon="6.14019">
        <ele>558.141372</ele>
        <time>2022-05-26T08:50:44.954Z</time>
      </trkpt>
      <trkpt lat="43.73924" lon="6.1401">
        <ele>558.18128</ele>
        <time>2022-05-26T08:50:46.948Z</time>
      </trkpt>
      <trkpt lat="43.73915" lon="6.14001">
        <ele>558.222598</ele>
        <time>2022-05-26T08:50:48.948Z</time>
      </trkpt>
      <trkpt lat="43.73908" lon="6.13987">
        <ele>558.264691</ele>
        <time>2022-05-26T08:50:50.949Z</time>
      </trkpt>
      <trkpt lat="43.73903" lon="6.13972">
        <ele>558.307983</ele>
        <time>2022-05-26T08:50:52.947Z</time>
      </trkpt>
      <trkpt lat="43.73898" lon="6.13958">
        <ele>558.347906</ele>
        <time>2022-05-26T08:50:54.947Z</time>
      </trkpt>
      <trkpt lat="43.73893" lon="6.13944">
        <ele>558.388486</ele>
        <time>2022-05-26T08:50:56.943Z</time>
      </trkpt>
      <trkpt lat="43.73887" lon="6.1393">
        <ele>558.430855</ele>
        <time>2022-05-26T08:50:58.946Z</time>
      </trkpt>
      <trkpt lat="43.7388" lon="6.13917">
        <ele>558.473586</ele>
        <time>2022-05-26T08:51:00.943Z</time>
      </trkpt>
      <trkpt lat="43.73867" lon="6.13914">
        <ele>558.534833</ele>
        <time>2022-05-26T08:51:02.952Z</time>
      </trkpt>
      <trkpt lat="43.73855" lon="6.13917">
        <ele>558.618337</ele>
        <time>2022-05-26T08:51:04.949Z</time>
      </trkpt>
      <trkpt lat="43.73845" lon="6.1392">
        <ele>558.692253</ele>
        <time>2022-05-26T08:51:06.956Z</time>
      </trkpt>
      <trkpt lat="43.73833" lon="6.13926">
        <ele>558.775232</ele>
        <time>2022-05-26T08:51:08.945Z</time>
      </trkpt>
      <trkpt lat="43.73823" lon="6.13931">
        <ele>558.85144</ele>
        <time>2022-05-26T08:51:10.952Z</time>
      </trkpt>
      <trkpt lat="43.73811" lon="6.13936">
        <ele>558.933304</ele>
        <time>2022-05-26T08:51:12.952Z</time>
      </trkpt>
      <trkpt lat="43.73801" lon="6.1394">
        <ele>559.006163</ele>
        <time>2022-05-26T08:51:14.948Z</time>
      </trkpt>
      <trkpt lat="43.73791" lon="6.13945">
        <ele>559.07951</ele>
        <time>2022-05-26T08:51:16.948Z</time>
      </trkpt>
      <trkpt lat="43.7378" lon="6.1395">
        <ele>559.162894</ele>
        <time>2022-05-26T08:51:19.954Z</time>
      </trkpt>
      <trkpt lat="43.73768" lon="6.13955">
        <ele>559.243378</ele>
        <time>2022-05-26T08:51:23.945Z</time>
      </trkpt>
      <trkpt lat="43.73745" lon="6.13961">
        <ele>559.403312</ele>
        <time>2022-05-26T08:52:49.941Z</time>
      </trkpt>
      <trkpt lat="43.73734" lon="6.13966">
        <ele>559.482923</ele>
        <time>2022-05-26T08:52:52.950Z</time>
      </trkpt>
      <trkpt lat="43.73721" lon="6.1397">
        <ele>559.573148</ele>
        <time>2022-05-26T08:52:55.938Z</time>
      </trkpt>
      <trkpt lat="43.73708" lon="6.13975">
        <ele>559.66482</ele>
        <time>2022-05-26T08:52:58.944Z</time>
      </trkpt>
      <trkpt lat="43.73699" lon="6.13979">
        <ele>559.729099</ele>
        <time>2022-05-26T08:53:00.940Z</time>
      </trkpt>
      <trkpt lat="43.73691" lon="6.13983">
        <ele>559.983775</ele>
        <time>2022-05-26T08:53:02.940Z</time>
      </trkpt>
      <trkpt lat="43.73681" lon="6.13987">
        <ele>560.253871</ele>
        <time>2022-05-26T08:53:04.941Z</time>
      </trkpt>
      <trkpt lat="43.73672" lon="6.13991">
        <ele>560.514874</ele>
        <time>2022-05-26T08:53:06.941Z</time>
      </trkpt>
      <trkpt lat="43.73663" lon="6.13995">
        <ele>560.773251</ele>
        <time>2022-05-26T08:53:08.943Z</time>
      </trkpt>
      <trkpt lat="43.73651" lon="6.14001">
        <ele>561.138051</ele>
        <time>2022-05-26T08:53:11.945Z</time>
      </trkpt>
      <trkpt lat="43.73638" lon="6.14006">
        <ele>561.503182</ele>
        <time>2022-05-26T08:53:14.940Z</time>
      </trkpt>
      <trkpt lat="43.73626" lon="6.1401">
        <ele>561.855201</ele>
        <time>2022-05-26T08:53:17.946Z</time>
      </trkpt>
      <trkpt lat="43.73614" lon="6.14008">
        <ele>562.182391</ele>
        <time>2022-05-26T08:53:20.948Z</time>
      </trkpt>
      <trkpt lat="43.73606" lon="6.13999">
        <ele>562.461517</ele>
        <time>2022-05-26T08:53:23.944Z</time>
      </trkpt>
      <trkpt lat="43.73602" lon="6.13986">
        <ele>562.759939</ele>
        <time>2022-05-26T08:53:27.950Z</time>
      </trkpt>
      <trkpt lat="43.73598" lon="6.1397">
        <ele>563.090266</ele>
        <time>2022-05-26T08:53:31.945Z</time>
      </trkpt>
      <trkpt lat="43.73596" lon="6.13958">
        <ele>563.337301</ele>
        <time>2022-05-26T08:53:34.956Z</time>
      </trkpt>
      <trkpt lat="43.73592" lon="6.13943">
        <ele>563.647856</ele>
        <time>2022-05-26T08:53:38.957Z</time>
      </trkpt>
      <trkpt lat="43.7359" lon="6.1393">
        <ele>563.917811</ele>
        <time>2022-05-26T08:53:43.951Z</time>
      </trkpt>
      <trkpt lat="43.7359" lon="6.13917">
        <ele>564.18516</ele>
        <time>2022-05-26T08:54:10.955Z</time>
      </trkpt>
      <trkpt lat="43.7359" lon="6.13901">
        <ele>564.498576</ele>
        <time>2022-05-26T08:54:15.947Z</time>
      </trkpt>
      <trkpt lat="43.73588" lon="6.13887">
        <ele>564.797216</ele>
        <time>2022-05-26T08:54:19.946Z</time>
      </trkpt>
      <trkpt lat="43.73589" lon="6.13871">
        <ele>565.194176</ele>
        <time>2022-05-26T08:54:23.949Z</time>
      </trkpt>
      <trkpt lat="43.73587" lon="6.13855">
        <ele>565.574978</ele>
        <time>2022-05-26T08:54:27.948Z</time>
      </trkpt>
      <trkpt lat="43.73582" lon="6.13841">
        <ele>565.952912</ele>
        <time>2022-05-26T08:54:31.956Z</time>
      </trkpt>
      <trkpt lat="43.73581" lon="6.13826">
        <ele>566.305447</ele>
        <time>2022-05-26T08:54:34.949Z</time>
      </trkpt>
      <trkpt lat="43.73581" lon="6.13814">
        <ele>566.618038</ele>
        <time>2022-05-26T08:54:37.947Z</time>
      </trkpt>
      <trkpt lat="43.73582" lon="6.138">
        <ele>566.95278</ele>
        <time>2022-05-26T08:54:41.949Z</time>
      </trkpt>
      <trkpt lat="43.73582" lon="6.13784">
        <ele>567.340165</ele>
        <time>2022-05-26T08:54:45.947Z</time>
      </trkpt>
      <trkpt lat="43.73582" lon="6.13771">
        <ele>567.660426</ele>
        <time>2022-05-26T08:54:48.950Z</time>
      </trkpt>
      <trkpt lat="43.73583" lon="6.13755">
        <ele>568.048289</ele>
        <time>2022-05-26T08:54:52.951Z</time>
      </trkpt>
      <trkpt lat="43.73583" lon="6.13738">
        <ele>568.442758</ele>
        <time>2022-05-26T08:54:56.949Z</time>
      </trkpt>
      <trkpt lat="43.73582" lon="6.13725">
        <ele>568.777105</ele>
        <time>2022-05-26T08:54:59.951Z</time>
      </trkpt>
      <trkpt lat="43.7358" lon="6.13711">
        <ele>569.111033</ele>
        <time>2022-05-26T08:55:02.938Z</time>
      </trkpt>
      <trkpt lat="43.73577" lon="6.13699">
        <ele>569.422925</ele>
        <time>2022-05-26T08:55:05.950Z</time>
      </trkpt>
      <trkpt lat="43.7357" lon="6.13689">
        <ele>569.761829</ele>
        <time>2022-05-26T08:55:08.952Z</time>
      </trkpt>
      <trkpt lat="43.73562" lon="6.13682">
        <ele>570.07029</ele>
        <time>2022-05-26T08:55:11.949Z</time>
      </trkpt>
      <trkpt lat="43.73554" lon="6.13674">
        <ele>570.385615</ele>
        <time>2022-05-26T08:55:14.950Z</time>
      </trkpt>
      <trkpt lat="43.73547" lon="6.13667">
        <ele>570.692992</ele>
        <time>2022-05-26T08:55:17.950Z</time>
      </trkpt>
      <trkpt lat="43.7354" lon="6.13659">
        <ele>571.150542</ele>
        <time>2022-05-26T08:55:20.966Z</time>
      </trkpt>
      <trkpt lat="43.73532" lon="6.13651">
        <ele>571.670992</ele>
        <time>2022-05-26T08:55:23.943Z</time>
      </trkpt>
      <trkpt lat="43.73524" lon="6.13641">
        <ele>572.202472</ele>
        <time>2022-05-26T08:55:26.951Z</time>
      </trkpt>
      <trkpt lat="43.73516" lon="6.13633">
        <ele>572.730111</ele>
        <time>2022-05-26T08:55:29.950Z</time>
      </trkpt>
      <trkpt lat="43.73507" lon="6.13627">
        <ele>573.246588</ele>
        <time>2022-05-26T08:55:32.956Z</time>
      </trkpt>
      <trkpt lat="43.73497" lon="6.13624">
        <ele>573.765536</ele>
        <time>2022-05-26T08:55:35.950Z</time>
      </trkpt>
      <trkpt lat="43.73488" lon="6.13624">
        <ele>574.258721</ele>
        <time>2022-05-26T08:55:38.949Z</time>
      </trkpt>
      <trkpt lat="43.73478" lon="6.13622">
        <ele>574.755989</ele>
        <time>2022-05-26T08:55:41.949Z</time>
      </trkpt>
      <trkpt lat="43.73469" lon="6.13618">
        <ele>575.247862</ele>
        <time>2022-05-26T08:55:44.943Z</time>
      </trkpt>
      <trkpt lat="43.73461" lon="6.13613">
        <ele>575.723741</ele>
        <time>2022-05-26T08:55:47.945Z</time>
      </trkpt>
      <trkpt lat="43.73458" lon="6.136">
        <ele>576.229468</ele>
        <time>2022-05-26T08:55:50.946Z</time>
      </trkpt>
      <trkpt lat="43.73458" lon="6.13587">
        <ele>576.70674</ele>
        <time>2022-05-26T08:55:53.946Z</time>
      </trkpt>
      <trkpt lat="43.73463" lon="6.13576">
        <ele>577.19736</ele>
        <time>2022-05-26T08:55:56.948Z</time>
      </trkpt>
      <trkpt lat="43.73469" lon="6.13565">
        <ele>577.702217</ele>
        <time>2022-05-26T08:55:59.946Z</time>
      </trkpt>
      <trkpt lat="43.73477" lon="6.13557">
        <ele>578.229857</ele>
        <time>2022-05-26T08:56:02.951Z</time>
      </trkpt>
      <trkpt lat="43.73486" lon="6.13548">
        <ele>578.788697</ele>
        <time>2022-05-26T08:56:05.947Z</time>
      </trkpt>
      <trkpt lat="43.73494" lon="6.13541">
        <ele>579.305518</ele>
        <time>2022-05-26T08:56:08.948Z</time>
      </trkpt>
      <trkpt lat="43.73503" lon="6.13537">
        <ele>579.783363</ele>
        <time>2022-05-26T08:56:11.944Z</time>
      </trkpt>
      <trkpt lat="43.73512" lon="6.13532">
        <ele>580.508698</ele>
        <time>2022-05-26T08:56:14.953Z</time>
      </trkpt>
      <trkpt lat="43.73521" lon="6.13526">
        <ele>581.491448</ele>
        <time>2022-05-26T08:56:18.949Z</time>
      </trkpt>
      <trkpt lat="43.7353" lon="6.1352">
        <ele>582.48004</ele>
        <time>2022-05-26T08:56:21.950Z</time>
      </trkpt>
      <trkpt lat="43.73538" lon="6.13511">
        <ele>583.518954</ele>
        <time>2022-05-26T08:56:24.950Z</time>
      </trkpt>
      <trkpt lat="43.73543" lon="6.13496">
        <ele>584.666861</ele>
        <time>2022-05-26T08:56:28.952Z</time>
      </trkpt>
      <trkpt lat="43.73546" lon="6.13484">
        <ele>585.619775</ele>
        <time>2022-05-26T08:56:31.949Z</time>
      </trkpt>
      <trkpt lat="43.7355" lon="6.13472">
        <ele>586.557023</ele>
        <time>2022-05-26T08:56:34.952Z</time>
      </trkpt>
      <trkpt lat="43.73554" lon="6.1346">
        <ele>587.49944</ele>
        <time>2022-05-26T08:56:37.944Z</time>
      </trkpt>
      <trkpt lat="43.73557" lon="6.13447">
        <ele>588.46417</ele>
        <time>2022-05-26T08:56:40.941Z</time>
      </trkpt>
      <trkpt lat="43.73559" lon="6.13435">
        <ele>589.361476</ele>
        <time>2022-05-26T08:56:43.945Z</time>
      </trkpt>
      <trkpt lat="43.73562" lon="6.13423">
        <ele>590.255674</ele>
        <time>2022-05-26T08:56:46.943Z</time>
      </trkpt>
      <trkpt lat="43.73568" lon="6.13408">
        <ele>591.466231</ele>
        <time>2022-05-26T08:56:50.947Z</time>
      </trkpt>
      <trkpt lat="43.73571" lon="6.13396">
        <ele>592.391219</ele>
        <time>2022-05-26T08:56:53.943Z</time>
      </trkpt>
      <trkpt lat="43.7357" lon="6.13383">
        <ele>593.317821</ele>
        <time>2022-05-26T08:56:56.946Z</time>
      </trkpt>
      <trkpt lat="43.73571" lon="6.1337">
        <ele>594.234141</ele>
        <time>2022-05-26T08:56:59.946Z</time>
      </trkpt>
      <trkpt lat="43.73573" lon="6.13357">
        <ele>595.174678</ele>
        <time>2022-05-26T08:57:02.947Z</time>
      </trkpt>
      <trkpt lat="43.73574" lon="6.13344">
        <ele>596.136049</ele>
        <time>2022-05-26T08:57:05.950Z</time>
      </trkpt>
      <trkpt lat="43.73574" lon="6.13329">
        <ele>597.241039</ele>
        <time>2022-05-26T08:57:09.948Z</time>
      </trkpt>
      <trkpt lat="43.73575" lon="6.13313">
        <ele>598.050818</ele>
        <time>2022-05-26T08:57:13.950Z</time>
      </trkpt>
      <trkpt lat="43.73574" lon="6.13297">
        <ele>598.395494</ele>
        <time>2022-05-26T08:57:17.950Z</time>
      </trkpt>
      <trkpt lat="43.73574" lon="6.13284">
        <ele>598.672489</ele>
        <time>2022-05-26T08:57:20.949Z</time>
      </trkpt>
      <trkpt lat="43.73571" lon="6.13269">
        <ele>599.008093</ele>
        <time>2022-05-26T08:57:24.948Z</time>
      </trkpt>
      <trkpt lat="43.73568" lon="6.13257">
        <ele>599.28115</ele>
        <time>2022-05-26T08:57:27.944Z</time>
      </trkpt>
      <trkpt lat="43.73564" lon="6.13243">
        <ele>599.617996</ele>
        <time>2022-05-26T08:57:31.946Z</time>
      </trkpt>
      <trkpt lat="43.7356" lon="6.13231">
        <ele>599.89427</ele>
        <time>2022-05-26T08:57:34.950Z</time>
      </trkpt>
      <trkpt lat="43.73556" lon="6.13219">
        <ele>600.190834</ele>
        <time>2022-05-26T08:57:38.953Z</time>
      </trkpt>
      <trkpt lat="43.73553" lon="6.13206">
        <ele>600.496655</ele>
        <time>2022-05-26T08:57:43.948Z</time>
      </trkpt>
      <trkpt lat="43.73549" lon="6.13192">
        <ele>600.811848</ele>
        <time>2022-05-26T08:57:48.952Z</time>
      </trkpt>
      <trkpt lat="43.73545" lon="6.13181">
        <ele>601.098455</ele>
        <time>2022-05-26T08:57:52.951Z</time>
      </trkpt>
      <trkpt lat="43.7354" lon="6.13168">
        <ele>601.398889</ele>
        <time>2022-05-26T08:57:56.951Z</time>
      </trkpt>
      <trkpt lat="43.73533" lon="6.13156">
        <ele>601.739395</ele>
        <time>2022-05-26T08:58:00.952Z</time>
      </trkpt>
      <trkpt lat="43.73527" lon="6.13143">
        <ele>602.071214</ele>
        <time>2022-05-26T08:58:04.951Z</time>
      </trkpt>
      <trkpt lat="43.7352" lon="6.13131">
        <ele>602.415148</ele>
        <time>2022-05-26T08:58:08.951Z</time>
      </trkpt>
      <trkpt lat="43.73515" lon="6.1312">
        <ele>602.686699</ele>
        <time>2022-05-26T08:58:11.946Z</time>
      </trkpt>
      <trkpt lat="43.73509" lon="6.1311">
        <ele>602.960131</ele>
        <time>2022-05-26T08:58:14.949Z</time>
      </trkpt>
      <trkpt lat="43.73505" lon="6.13099">
        <ele>603.234556</ele>
        <time>2022-05-26T08:58:17.947Z</time>
      </trkpt>
      <trkpt lat="43.735" lon="6.13089">
        <ele>603.423191</ele>
        <time>2022-05-26T08:58:20.946Z</time>
      </trkpt>
      <trkpt lat="43.73494" lon="6.13077">
        <ele>603.599719</ele>
        <time>2022-05-26T08:58:23.945Z</time>
      </trkpt>
      <trkpt lat="43.73488" lon="6.13067">
        <ele>603.758741</ele>
        <time>2022-05-26T08:58:26.943Z</time>
      </trkpt>
      <trkpt lat="43.7348" lon="6.13056">
        <ele>603.94884</ele>
        <time>2022-05-26T08:58:29.943Z</time>
      </trkpt>
      <trkpt lat="43.73472" lon="6.13046">
        <ele>604.126359</ele>
        <time>2022-05-26T08:58:32.949Z</time>
      </trkpt>
      <trkpt lat="43.73466" lon="6.13036">
        <ele>604.287391</ele>
        <time>2022-05-26T08:58:35.945Z</time>
      </trkpt>
      <trkpt lat="43.73459" lon="6.13024">
        <ele>604.470269</ele>
        <time>2022-05-26T08:58:38.946Z</time>
      </trkpt>
      <trkpt lat="43.73452" lon="6.13013">
        <ele>604.652171</ele>
        <time>2022-05-26T08:58:41.945Z</time>
      </trkpt>
      <trkpt lat="43.73445" lon="6.13003">
        <ele>604.821432</ele>
        <time>2022-05-26T08:58:44.945Z</time>
      </trkpt>
      <trkpt lat="43.73439" lon="6.12992">
        <ele>604.981159</ele>
        <time>2022-05-26T08:58:47.946Z</time>
      </trkpt>
      <trkpt lat="43.73433" lon="6.12983">
        <ele>605.140692</ele>
        <time>2022-05-26T08:58:50.944Z</time>
      </trkpt>
      <trkpt lat="43.73427" lon="6.12973">
        <ele>605.294355</ele>
        <time>2022-05-26T08:58:53.943Z</time>
      </trkpt>
      <trkpt lat="43.7342" lon="6.12962">
        <ele>605.475109</ele>
        <time>2022-05-26T08:58:56.944Z</time>
      </trkpt>
      <trkpt lat="43.73414" lon="6.12953">
        <ele>605.633528</ele>
        <time>2022-05-26T08:58:59.944Z</time>
      </trkpt>
      <trkpt lat="43.73407" lon="6.1294">
        <ele>605.819962</ele>
        <time>2022-05-26T08:59:03.947Z</time>
      </trkpt>
      <trkpt lat="43.73401" lon="6.1293">
        <ele>605.987723</ele>
        <time>2022-05-26T08:59:06.945Z</time>
      </trkpt>
      <trkpt lat="43.73394" lon="6.1292">
        <ele>606.150051</ele>
        <time>2022-05-26T08:59:09.946Z</time>
      </trkpt>
      <trkpt lat="43.73387" lon="6.12911">
        <ele>606.302764</ele>
        <time>2022-05-26T08:59:12.945Z</time>
      </trkpt>
      <trkpt lat="43.73381" lon="6.12901">
        <ele>606.666661</ele>
        <time>2022-05-26T08:59:15.947Z</time>
      </trkpt>
      <trkpt lat="43.73373" lon="6.12889">
        <ele>607.243514</ele>
        <time>2022-05-26T08:59:19.944Z</time>
      </trkpt>
      <trkpt lat="43.73365" lon="6.12881">
        <ele>607.70576</ele>
        <time>2022-05-26T08:59:22.946Z</time>
      </trkpt>
      <trkpt lat="43.73358" lon="6.12874">
        <ele>608.144601</ele>
        <time>2022-05-26T08:59:25.947Z</time>
      </trkpt>
      <trkpt lat="43.73348" lon="6.12867">
        <ele>608.663416</ele>
        <time>2022-05-26T08:59:28.946Z</time>
      </trkpt>
      <trkpt lat="43.7334" lon="6.12859">
        <ele>609.108172</ele>
        <time>2022-05-26T08:59:31.944Z</time>
      </trkpt>
      <trkpt lat="43.73331" lon="6.12852">
        <ele>609.598936</ele>
        <time>2022-05-26T08:59:34.946Z</time>
      </trkpt>
      <trkpt lat="43.73322" lon="6.12846">
        <ele>610.064137</ele>
        <time>2022-05-26T08:59:37.950Z</time>
      </trkpt>
      <trkpt lat="43.73313" lon="6.12841">
        <ele>610.560105</ele>
        <time>2022-05-26T08:59:40.952Z</time>
      </trkpt>
      <trkpt lat="43.73302" lon="6.12837">
        <ele>611.091346</ele>
        <time>2022-05-26T08:59:44.956Z</time>
      </trkpt>
      <trkpt lat="43.7329" lon="6.12833">
        <ele>611.667645</ele>
        <time>2022-05-26T08:59:48.955Z</time>
      </trkpt>
      <trkpt lat="43.7328" lon="6.1283">
        <ele>612.163701</ele>
        <time>2022-05-26T08:59:51.949Z</time>
      </trkpt>
      <trkpt lat="43.7327" lon="6.12828">
        <ele>612.656981</ele>
        <time>2022-05-26T08:59:54.954Z</time>
      </trkpt>
      <trkpt lat="43.7326" lon="6.12826">
        <ele>613.101128</ele>
        <time>2022-05-26T08:59:57.953Z</time>
      </trkpt>
      <trkpt lat="43.73251" lon="6.12826">
        <ele>613.532856</ele>
        <time>2022-05-26T09:00:00.953Z</time>
      </trkpt>
      <trkpt lat="43.73241" lon="6.12826">
        <ele>614.021647</ele>
        <time>2022-05-26T09:00:03.952Z</time>
      </trkpt>
      <trkpt lat="43.73232" lon="6.12825">
        <ele>614.454679</ele>
        <time>2022-05-26T09:00:06.958Z</time>
      </trkpt>
      <trkpt lat="43.73222" lon="6.12824">
        <ele>614.910701</ele>
        <time>2022-05-26T09:00:09.949Z</time>
      </trkpt>
      <trkpt lat="43.73213" lon="6.12822">
        <ele>615.23018</ele>
        <time>2022-05-26T09:00:12.948Z</time>
      </trkpt>
      <trkpt lat="43.73202" lon="6.1282">
        <ele>615.574956</ele>
        <time>2022-05-26T09:00:15.951Z</time>
      </trkpt>
      <trkpt lat="43.73193" lon="6.1282">
        <ele>615.883083</ele>
        <time>2022-05-26T09:00:18.953Z</time>
      </trkpt>
      <trkpt lat="43.73183" lon="6.12818">
        <ele>616.232372</ele>
        <time>2022-05-26T09:00:21.945Z</time>
      </trkpt>
      <trkpt lat="43.73171" lon="6.12816">
        <ele>616.645095</ele>
        <time>2022-05-26T09:00:25.948Z</time>
      </trkpt>
      <trkpt lat="43.7316" lon="6.12815">
        <ele>617.004694</ele>
        <time>2022-05-26T09:00:28.953Z</time>
      </trkpt>
      <trkpt lat="43.73151" lon="6.12811">
        <ele>617.338189</ele>
        <time>2022-05-26T09:00:31.951Z</time>
      </trkpt>
      <trkpt lat="43.73141" lon="6.12807">
        <ele>617.693525</ele>
        <time>2022-05-26T09:00:34.950Z</time>
      </trkpt>
      <trkpt lat="43.73131" lon="6.12803">
        <ele>618.036256</ele>
        <time>2022-05-26T09:00:37.948Z</time>
      </trkpt>
      <trkpt lat="43.73122" lon="6.12798">
        <ele>618.380361</ele>
        <time>2022-05-26T09:00:40.954Z</time>
      </trkpt>
      <trkpt lat="43.73112" lon="6.12793">
        <ele>618.715684</ele>
        <time>2022-05-26T09:00:43.950Z</time>
      </trkpt>
      <trkpt lat="43.73102" lon="6.1279">
        <ele>619.071367</ele>
        <time>2022-05-26T09:00:46.959Z</time>
      </trkpt>
      <trkpt lat="43.73092" lon="6.12788">
        <ele>619.412823</ele>
        <time>2022-05-26T09:00:49.948Z</time>
      </trkpt>
      <trkpt lat="43.73083" lon="6.12786">
        <ele>619.716767</ele>
        <time>2022-05-26T09:00:52.953Z</time>
      </trkpt>
      <trkpt lat="43.73073" lon="6.12783">
        <ele>620.076263</ele>
        <time>2022-05-26T09:00:55.947Z</time>
      </trkpt>
      <trkpt lat="43.73064" lon="6.12779">
        <ele>620.392475</ele>
        <time>2022-05-26T09:00:58.956Z</time>
      </trkpt>
      <trkpt lat="43.73053" lon="6.12777">
        <ele>620.744654</ele>
        <time>2022-05-26T09:01:01.949Z</time>
      </trkpt>
      <trkpt lat="43.73043" lon="6.12775">
        <ele>621.082447</ele>
        <time>2022-05-26T09:01:04.951Z</time>
      </trkpt>
      <trkpt lat="43.73033" lon="6.12773">
        <ele>621.395751</ele>
        <time>2022-05-26T09:01:07.952Z</time>
      </trkpt>
      <trkpt lat="43.73023" lon="6.12771">
        <ele>621.716147</ele>
        <time>2022-05-26T09:01:10.955Z</time>
      </trkpt>
      <trkpt lat="43.73014" lon="6.12769">
        <ele>622.025885</ele>
        <time>2022-05-26T09:01:13.952Z</time>
      </trkpt>
      <trkpt lat="43.73003" lon="6.12766">
        <ele>622.353201</ele>
        <time>2022-05-26T09:01:16.940Z</time>
      </trkpt>
      <trkpt lat="43.72993" lon="6.12762">
        <ele>622.682201</ele>
        <time>2022-05-26T09:01:19.937Z</time>
      </trkpt>
      <trkpt lat="43.72982" lon="6.12758">
        <ele>623.042746</ele>
        <time>2022-05-26T09:01:22.944Z</time>
      </trkpt>
      <trkpt lat="43.72972" lon="6.12755">
        <ele>623.363906</ele>
        <time>2022-05-26T09:01:25.944Z</time>
      </trkpt>
      <trkpt lat="43.72962" lon="6.12753">
        <ele>623.683739</ele>
        <time>2022-05-26T09:01:28.945Z</time>
      </trkpt>
      <trkpt lat="43.72952" lon="6.12751">
        <ele>624.013481</ele>
        <time>2022-05-26T09:01:31.941Z</time>
      </trkpt>
      <trkpt lat="43.72942" lon="6.12748">
        <ele>624.324051</ele>
        <time>2022-05-26T09:01:34.941Z</time>
      </trkpt>
      <trkpt lat="43.72933" lon="6.12743">
        <ele>624.638997</ele>
        <time>2022-05-26T09:01:37.942Z</time>
      </trkpt>
      <trkpt lat="43.72923" lon="6.12739">
        <ele>624.956508</ele>
        <time>2022-05-26T09:01:41.947Z</time>
      </trkpt>
      <trkpt lat="43.72914" lon="6.12734">
        <ele>625.263875</ele>
        <time>2022-05-26T09:01:45.949Z</time>
      </trkpt>
      <trkpt lat="43.72905" lon="6.12726">
        <ele>625.609941</ele>
        <time>2022-05-26T09:01:50.951Z</time>
      </trkpt>
      <trkpt lat="43.72896" lon="6.12717">
        <ele>625.944795</ele>
        <time>2022-05-26T09:01:55.944Z</time>
      </trkpt>
      <trkpt lat="43.72889" lon="6.12709">
        <ele>626.248081</ele>
        <time>2022-05-26T09:01:59.945Z</time>
      </trkpt>
      <trkpt lat="43.72879" lon="6.12701">
        <ele>626.581011</ele>
        <time>2022-05-26T09:02:04.943Z</time>
      </trkpt>
      <trkpt lat="43.72871" lon="6.12694">
        <ele>626.908895</ele>
        <time>2022-05-26T09:02:09.946Z</time>
      </trkpt>
      <trkpt lat="43.72864" lon="6.12683">
        <ele>627.263544</ele>
        <time>2022-05-26T09:02:14.949Z</time>
      </trkpt>
      <trkpt lat="43.72862" lon="6.12671">
        <ele>627.577457</ele>
        <time>2022-05-26T09:04:09.947Z</time>
      </trkpt>
      <trkpt lat="43.72853" lon="6.12665">
        <ele>627.924792</ele>
        <time>2022-05-26T09:04:44.967Z</time>
      </trkpt>
      <trkpt lat="43.72843" lon="6.12656">
        <ele>628.324935</ele>
        <time>2022-05-26T09:04:48.949Z</time>
      </trkpt>
      <trkpt lat="43.72835" lon="6.12648">
        <ele>628.636411</ele>
        <time>2022-05-26T09:04:51.942Z</time>
      </trkpt>
      <trkpt lat="43.72826" lon="6.12639">
        <ele>629.018091</ele>
        <time>2022-05-26T09:04:55.944Z</time>
      </trkpt>
      <trkpt lat="43.72819" lon="6.12631">
        <ele>629.331783</ele>
        <time>2022-05-26T09:04:58.947Z</time>
      </trkpt>
      <trkpt lat="43.72811" lon="6.1262">
        <ele>629.71423</ele>
        <time>2022-05-26T09:05:02.945Z</time>
      </trkpt>
      <trkpt lat="43.72805" lon="6.12611">
        <ele>630.023739</ele>
        <time>2022-05-26T09:05:06.956Z</time>
      </trkpt>
      <trkpt lat="43.72798" lon="6.12601">
        <ele>630.354567</ele>
        <time>2022-05-26T09:05:10.940Z</time>
      </trkpt>
      <trkpt lat="43.72791" lon="6.12594">
        <ele>630.659374</ele>
        <time>2022-05-26T09:05:13.947Z</time>
      </trkpt>
      <trkpt lat="43.72783" lon="6.12583">
        <ele>631.033503</ele>
        <time>2022-05-26T09:05:17.948Z</time>
      </trkpt>
      <trkpt lat="43.72775" lon="6.12572">
        <ele>631.416343</ele>
        <time>2022-05-26T09:05:21.947Z</time>
      </trkpt>
      <trkpt lat="43.72768" lon="6.1256">
        <ele>631.799004</ele>
        <time>2022-05-26T09:05:25.948Z</time>
      </trkpt>
      <trkpt lat="43.72763" lon="6.12545">
        <ele>632.190588</ele>
        <time>2022-05-26T09:05:29.948Z</time>
      </trkpt>
      <trkpt lat="43.72759" lon="6.12534">
        <ele>632.496186</ele>
        <time>2022-05-26T09:05:32.948Z</time>
      </trkpt>
      <trkpt lat="43.72754" lon="6.12522">
        <ele>632.850213</ele>
        <time>2022-05-26T09:05:35.943Z</time>
      </trkpt>
      <trkpt lat="43.72748" lon="6.12509">
        <ele>633.323961</ele>
        <time>2022-05-26T09:05:39.946Z</time>
      </trkpt>
      <trkpt lat="43.7274" lon="6.12497">
        <ele>633.812392</ele>
        <time>2022-05-26T09:05:43.955Z</time>
      </trkpt>
      <trkpt lat="43.72731" lon="6.12491">
        <ele>634.20555</ele>
        <time>2022-05-26T09:05:46.948Z</time>
      </trkpt>
      <trkpt lat="43.72722" lon="6.1249">
        <ele>634.598102</ele>
        <time>2022-05-26T09:05:49.947Z</time>
      </trkpt>
      <trkpt lat="43.7271" lon="6.12493">
        <ele>635.086612</ele>
        <time>2022-05-26T09:05:53.944Z</time>
      </trkpt>
      <trkpt lat="43.72702" lon="6.12496">
        <ele>635.456967</ele>
        <time>2022-05-26T09:05:56.944Z</time>
      </trkpt>
      <trkpt lat="43.72692" lon="6.12501">
        <ele>635.885025</ele>
        <time>2022-05-26T09:06:00.948Z</time>
      </trkpt>
      <trkpt lat="43.72682" lon="6.12507">
        <ele>636.314508</ele>
        <time>2022-05-26T09:06:04.949Z</time>
      </trkpt>
      <trkpt lat="43.72674" lon="6.12516">
        <ele>636.767183</ele>
        <time>2022-05-26T09:06:08.951Z</time>
      </trkpt>
      <trkpt lat="43.72664" lon="6.12523">
        <ele>637.200806</ele>
        <time>2022-05-26T09:06:12.957Z</time>
      </trkpt>
      <trkpt lat="43.72655" lon="6.12526">
        <ele>637.614644</ele>
        <time>2022-05-26T09:07:28.947Z</time>
      </trkpt>
      <trkpt lat="43.72665" lon="6.12527">
        <ele>638.048978</ele>
        <time>2022-05-26T09:07:35.946Z</time>
      </trkpt>
      <trkpt lat="43.72674" lon="6.12519">
        <ele>638.47125</ele>
        <time>2022-05-26T09:07:38.948Z</time>
      </trkpt>
      <trkpt lat="43.72684" lon="6.12511">
        <ele>638.956726</ele>
        <time>2022-05-26T09:07:41.942Z</time>
      </trkpt>
      <trkpt lat="43.72692" lon="6.12507">
        <ele>639.326844</ele>
        <time>2022-05-26T09:07:43.948Z</time>
      </trkpt>
      <trkpt lat="43.72702" lon="6.12506">
        <ele>639.73978</ele>
        <time>2022-05-26T09:07:45.943Z</time>
      </trkpt>
      <trkpt lat="43.72714" lon="6.12499">
        <ele>640.083523</ele>
        <time>2022-05-26T09:07:48.946Z</time>
      </trkpt>
      <trkpt lat="43.72723" lon="6.12496">
        <ele>640.004405</ele>
        <time>2022-05-26T09:07:50.945Z</time>
      </trkpt>
      <trkpt lat="43.72735" lon="6.12496">
        <ele>639.909738</ele>
        <time>2022-05-26T09:07:53.944Z</time>
      </trkpt>
      <trkpt lat="43.72745" lon="6.12506">
        <ele>639.817445</ele>
        <time>2022-05-26T09:07:56.945Z</time>
      </trkpt>
      <trkpt lat="43.72751" lon="6.12518">
        <ele>639.729369</ele>
        <time>2022-05-26T09:07:59.947Z</time>
      </trkpt>
      <trkpt lat="43.72758" lon="6.12535">
        <ele>639.618648</ele>
        <time>2022-05-26T09:08:02.946Z</time>
      </trkpt>
      <trkpt lat="43.72762" lon="6.12547">
        <ele>639.539588</ele>
        <time>2022-05-26T09:08:05.946Z</time>
      </trkpt>
      <trkpt lat="43.72768" lon="6.1256">
        <ele>639.45607</ele>
        <time>2022-05-26T09:08:09.949Z</time>
      </trkpt>
      <trkpt lat="43.72766" lon="6.12544">
        <ele>639.367419</ele>
        <time>2022-05-26T09:08:19.951Z</time>
      </trkpt>
      <trkpt lat="43.72761" lon="6.12532">
        <ele>639.281816</ele>
        <time>2022-05-26T09:08:23.945Z</time>
      </trkpt>
      <trkpt lat="43.72754" lon="6.12519">
        <ele>639.190423</ele>
        <time>2022-05-26T09:08:27.945Z</time>
      </trkpt>
      <trkpt lat="43.72746" lon="6.12507">
        <ele>639.101046</ele>
        <time>2022-05-26T09:08:31.949Z</time>
      </trkpt>
      <trkpt lat="43.72737" lon="6.12497">
        <ele>639.010713</ele>
        <time>2022-05-26T09:08:35.947Z</time>
      </trkpt>
      <trkpt lat="43.72727" lon="6.12495">
        <ele>638.92396</ele>
        <time>2022-05-26T09:08:39.944Z</time>
      </trkpt>
      <trkpt lat="43.72717" lon="6.12497">
        <ele>638.849262</ele>
        <time>2022-05-26T09:08:42.944Z</time>
      </trkpt>
      <trkpt lat="43.72708" lon="6.125">
        <ele>638.775755</ele>
        <time>2022-05-26T09:08:45.948Z</time>
      </trkpt>
      <trkpt lat="43.72697" lon="6.12504">
        <ele>638.683584</ele>
        <time>2022-05-26T09:08:49.948Z</time>
      </trkpt>
      <trkpt lat="43.72688" lon="6.12511">
        <ele>638.580235</ele>
        <time>2022-05-26T09:08:53.946Z</time>
      </trkpt>
      <trkpt lat="43.72677" lon="6.12518">
        <ele>638.461929</ele>
        <time>2022-05-26T09:08:57.946Z</time>
      </trkpt>
      <trkpt lat="43.72669" lon="6.12522">
        <ele>638.371924</ele>
        <time>2022-05-26T09:09:00.948Z</time>
      </trkpt>
      <trkpt lat="43.7266" lon="6.12529">
        <ele>638.276125</ele>
        <time>2022-05-26T09:09:03.946Z</time>
      </trkpt>
      <trkpt lat="43.72652" lon="6.12534">
        <ele>638.18552</ele>
        <time>2022-05-26T09:09:06.946Z</time>
      </trkpt>
      <trkpt lat="43.72642" lon="6.1254">
        <ele>638.073823</ele>
        <time>2022-05-26T09:09:10.950Z</time>
      </trkpt>
      <trkpt lat="43.72633" lon="6.12546">
        <ele>637.980128</ele>
        <time>2022-05-26T09:09:13.942Z</time>
      </trkpt>
      <trkpt lat="43.72625" lon="6.12552">
        <ele>637.887749</ele>
        <time>2022-05-26T09:09:16.946Z</time>
      </trkpt>
      <trkpt lat="43.72616" lon="6.12558">
        <ele>637.790186</ele>
        <time>2022-05-26T09:09:19.948Z</time>
      </trkpt>
      <trkpt lat="43.72608" lon="6.12563">
        <ele>637.698442</ele>
        <time>2022-05-26T09:09:22.947Z</time>
      </trkpt>
      <trkpt lat="43.726" lon="6.12568">
        <ele>637.606076</ele>
        <time>2022-05-26T09:09:26.944Z</time>
      </trkpt>
      <trkpt lat="43.72589" lon="6.12573">
        <ele>637.497653</ele>
        <time>2022-05-26T09:09:45.939Z</time>
      </trkpt>
      <trkpt lat="43.72579" lon="6.12574">
        <ele>637.397641</ele>
        <time>2022-05-26T09:09:51.946Z</time>
      </trkpt>
      <trkpt lat="43.72571" lon="6.12578">
        <ele>637.306719</ele>
        <time>2022-05-26T09:09:55.939Z</time>
      </trkpt>
      <trkpt lat="43.72562" lon="6.12583">
        <ele>637.213151</ele>
        <time>2022-05-26T09:09:59.944Z</time>
      </trkpt>
      <trkpt lat="43.72552" lon="6.12587">
        <ele>637.111876</ele>
        <time>2022-05-26T09:10:04.951Z</time>
      </trkpt>
      <trkpt lat="43.72541" lon="6.12588">
        <ele>637.000875</ele>
        <time>2022-05-26T09:10:09.944Z</time>
      </trkpt>
      <trkpt lat="43.72531" lon="6.12592">
        <ele>636.892487</ele>
        <time>2022-05-26T09:10:13.944Z</time>
      </trkpt>
      <trkpt lat="43.72522" lon="6.12597">
        <ele>636.12491</ele>
        <time>2022-05-26T09:10:16.947Z</time>
      </trkpt>
      <trkpt lat="43.72513" lon="6.12605">
        <ele>635.2782</ele>
        <time>2022-05-26T09:10:19.945Z</time>
      </trkpt>
      <trkpt lat="43.72504" lon="6.12605">
        <ele>634.50803</ele>
        <time>2022-05-26T09:10:22.951Z</time>
      </trkpt>
      <trkpt lat="43.72495" lon="6.126">
        <ele>633.693382</ele>
        <time>2022-05-26T09:10:25.942Z</time>
      </trkpt>
      <trkpt lat="43.72485" lon="6.12602">
        <ele>632.826604</ele>
        <time>2022-05-26T09:10:28.950Z</time>
      </trkpt>
      <trkpt lat="43.72474" lon="6.12596">
        <ele>631.857057</ele>
        <time>2022-05-26T09:10:32.948Z</time>
      </trkpt>
      <trkpt lat="43.72463" lon="6.12589">
        <ele>630.886506</ele>
        <time>2022-05-26T09:10:35.944Z</time>
      </trkpt>
      <trkpt lat="43.72454" lon="6.12585">
        <ele>630.100748</ele>
        <time>2022-05-26T09:10:38.949Z</time>
      </trkpt>
      <trkpt lat="43.72445" lon="6.12578">
        <ele>629.224968</ele>
        <time>2022-05-26T09:10:42.946Z</time>
      </trkpt>
      <trkpt lat="43.72435" lon="6.12573">
        <ele>628.297585</ele>
        <time>2022-05-26T09:10:45.948Z</time>
      </trkpt>
      <trkpt lat="43.72427" lon="6.12566">
        <ele>627.508738</ele>
        <time>2022-05-26T09:10:48.948Z</time>
      </trkpt>
      <trkpt lat="43.72416" lon="6.12561">
        <ele>626.491913</ele>
        <time>2022-05-26T09:10:52.950Z</time>
      </trkpt>
      <trkpt lat="43.72408" lon="6.12554">
        <ele>625.729886</ele>
        <time>2022-05-26T09:10:54.948Z</time>
      </trkpt>
      <trkpt lat="43.72399" lon="6.12549">
        <ele>624.90913</ele>
        <time>2022-05-26T09:10:56.953Z</time>
      </trkpt>
      <trkpt lat="43.7239" lon="6.12545">
        <ele>624.123968</ele>
        <time>2022-05-26T09:10:58.947Z</time>
      </trkpt>
      <trkpt lat="43.72384" lon="6.12535">
        <ele>623.336213</ele>
        <time>2022-05-26T09:11:00.944Z</time>
      </trkpt>
      <trkpt lat="43.72377" lon="6.12524">
        <ele>622.445194</ele>
        <time>2022-05-26T09:11:03.946Z</time>
      </trkpt>
      <trkpt lat="43.72371" lon="6.12512">
        <ele>621.729285</ele>
        <time>2022-05-26T09:11:07.944Z</time>
      </trkpt>
      <trkpt lat="43.72368" lon="6.125">
        <ele>621.404737</ele>
        <time>2022-05-26T09:11:13.948Z</time>
      </trkpt>
      <trkpt lat="43.72367" lon="6.12485">
        <ele>621.044543</ele>
        <time>2022-05-26T09:11:19.946Z</time>
      </trkpt>
      <trkpt lat="43.72364" lon="6.12474">
        <ele>620.730653</ele>
        <time>2022-05-26T09:11:43.941Z</time>
      </trkpt>
      <trkpt lat="43.72366" lon="6.12451">
        <ele>620.171462</ele>
        <time>2022-05-26T09:12:00.960Z</time>
      </trkpt>
      <trkpt lat="43.72356" lon="6.12441">
        <ele>619.749948</ele>
        <time>2022-05-26T09:12:03.947Z</time>
      </trkpt>
      <trkpt lat="43.72347" lon="6.1244">
        <ele>619.419311</ele>
        <time>2022-05-26T09:12:07.949Z</time>
      </trkpt>
      <trkpt lat="43.72337" lon="6.12438">
        <ele>619.067939</ele>
        <time>2022-05-26T09:12:11.951Z</time>
      </trkpt>
      <trkpt lat="43.72329" lon="6.1243">
        <ele>618.743841</ele>
        <time>2022-05-26T09:12:15.947Z</time>
      </trkpt>
      <trkpt lat="43.72319" lon="6.12425">
        <ele>618.382095</ele>
        <time>2022-05-26T09:12:19.948Z</time>
      </trkpt>
      <trkpt lat="43.7231" lon="6.12424">
        <ele>618.064916</ele>
        <time>2022-05-26T09:12:22.946Z</time>
      </trkpt>
      <trkpt lat="43.72301" lon="6.12417">
        <ele>617.711904</ele>
        <time>2022-05-26T09:12:26.946Z</time>
      </trkpt>
      <trkpt lat="43.72295" lon="6.12407">
        <ele>617.372069</ele>
        <time>2022-05-26T09:12:30.947Z</time>
      </trkpt>
      <trkpt lat="43.72287" lon="6.12399">
        <ele>617.032254</ele>
        <time>2022-05-26T09:12:33.950Z</time>
      </trkpt>
      <trkpt lat="43.72277" lon="6.12397">
        <ele>616.677983</ele>
        <time>2022-05-26T09:12:36.948Z</time>
      </trkpt>
      <trkpt lat="43.72266" lon="6.12395">
        <ele>616.317805</ele>
        <time>2022-05-26T09:12:39.948Z</time>
      </trkpt>
      <trkpt lat="43.72255" lon="6.12396">
        <ele>615.921768</ele>
        <time>2022-05-26T09:12:43.944Z</time>
      </trkpt>
      <trkpt lat="43.72244" lon="6.12396">
        <ele>615.600883</ele>
        <time>2022-05-26T09:12:47.947Z</time>
      </trkpt>
      <trkpt lat="43.72234" lon="6.124">
        <ele>615.705399</ele>
        <time>2022-05-26T09:12:52.952Z</time>
      </trkpt>
      <trkpt lat="43.72223" lon="6.12402">
        <ele>615.810641</ele>
        <time>2022-05-26T09:12:57.948Z</time>
      </trkpt>
      <trkpt lat="43.72214" lon="6.12401">
        <ele>615.903733</ele>
        <time>2022-05-26T09:13:02.942Z</time>
      </trkpt>
      <trkpt lat="43.72205" lon="6.124">
        <ele>615.993546</ele>
        <time>2022-05-26T09:13:06.948Z</time>
      </trkpt>
      <trkpt lat="43.72195" lon="6.12399">
        <ele>616.094423</ele>
        <time>2022-05-26T09:13:19.972Z</time>
      </trkpt>
      <trkpt lat="43.72185" lon="6.1239">
        <ele>616.208296</ele>
        <time>2022-05-26T09:13:23.944Z</time>
      </trkpt>
      <trkpt lat="43.72174" lon="6.12381">
        <ele>616.340408</ele>
        <time>2022-05-26T09:13:26.947Z</time>
      </trkpt>
      <trkpt lat="43.72165" lon="6.12373">
        <ele>616.441044</ele>
        <time>2022-05-26T09:13:28.946Z</time>
      </trkpt>
      <trkpt lat="43.72154" lon="6.12369">
        <ele>616.547607</ele>
        <time>2022-05-26T09:13:30.946Z</time>
      </trkpt>
      <trkpt lat="43.72145" lon="6.12367">
        <ele>616.642893</ele>
        <time>2022-05-26T09:13:32.960Z</time>
      </trkpt>
      <trkpt lat="43.72135" lon="6.12365">
        <ele>616.740728</ele>
        <time>2022-05-26T09:13:34.947Z</time>
      </trkpt>
      <trkpt lat="43.72125" lon="6.12363">
        <ele>616.841079</ele>
        <time>2022-05-26T09:13:36.946Z</time>
      </trkpt>
      <trkpt lat="43.72113" lon="6.12365">
        <ele>616.954906</ele>
        <time>2022-05-26T09:13:38.946Z</time>
      </trkpt>
      <trkpt lat="43.72101" lon="6.12364">
        <ele>617.074247</ele>
        <time>2022-05-26T09:13:41.943Z</time>
      </trkpt>
      <trkpt lat="43.72094" lon="6.12356">
        <ele>617.172975</ele>
        <time>2022-05-26T09:13:48.945Z</time>
      </trkpt>
      <trkpt lat="43.72096" lon="6.12342">
        <ele>617.275011</ele>
        <time>2022-05-26T09:13:51.946Z</time>
      </trkpt>
      <trkpt lat="43.72099" lon="6.12327">
        <ele>617.321805</ele>
        <time>2022-05-26T09:13:54.949Z</time>
      </trkpt>
      <trkpt lat="43.72103" lon="6.12313">
        <ele>617.119815</ele>
        <time>2022-05-26T09:13:57.945Z</time>
      </trkpt>
      <trkpt lat="43.72107" lon="6.12302">
        <ele>616.952627</ele>
        <time>2022-05-26T09:13:59.945Z</time>
      </trkpt>
      <trkpt lat="43.72113" lon="6.12292">
        <ele>616.783991</ele>
        <time>2022-05-26T09:14:01.947Z</time>
      </trkpt>
      <trkpt lat="43.72117" lon="6.12279">
        <ele>616.609207</ele>
        <time>2022-05-26T09:14:03.948Z</time>
      </trkpt>
      <trkpt lat="43.72122" lon="6.12269">
        <ele>616.434685</ele>
        <time>2022-05-26T09:14:05.945Z</time>
      </trkpt>
      <trkpt lat="43.72128" lon="6.12255">
        <ele>616.226755</ele>
        <time>2022-05-26T09:14:07.947Z</time>
      </trkpt>
      <trkpt lat="43.72133" lon="6.12241">
        <ele>616.026454</ele>
        <time>2022-05-26T09:14:09.948Z</time>
      </trkpt>
      <trkpt lat="43.72137" lon="6.12228">
        <ele>615.838004</ele>
        <time>2022-05-26T09:14:11.947Z</time>
      </trkpt>
      <trkpt lat="43.72141" lon="6.12215">
        <ele>615.650889</ele>
        <time>2022-05-26T09:14:13.947Z</time>
      </trkpt>
      <trkpt lat="43.72144" lon="6.12197">
        <ele>615.411768</ele>
        <time>2022-05-26T09:14:15.947Z</time>
      </trkpt>
      <trkpt lat="43.72152" lon="6.1218">
        <ele>615.142324</ele>
        <time>2022-05-26T09:14:17.949Z</time>
      </trkpt>
      <trkpt lat="43.72159" lon="6.12164">
        <ele>614.895969</ele>
        <time>2022-05-26T09:14:19.947Z</time>
      </trkpt>
      <trkpt lat="43.72162" lon="6.12145">
        <ele>614.635621</ele>
        <time>2022-05-26T09:14:21.942Z</time>
      </trkpt>
      <trkpt lat="43.72165" lon="6.12127">
        <ele>614.392671</ele>
        <time>2022-05-26T09:14:23.947Z</time>
      </trkpt>
      <trkpt lat="43.72167" lon="6.12107">
        <ele>614.134841</ele>
        <time>2022-05-26T09:14:25.943Z</time>
      </trkpt>
      <trkpt lat="43.72173" lon="6.12091">
        <ele>613.885922</ele>
        <time>2022-05-26T09:14:27.941Z</time>
      </trkpt>
      <trkpt lat="43.72175" lon="6.12069">
        <ele>613.585261</ele>
        <time>2022-05-26T09:14:29.942Z</time>
      </trkpt>
      <trkpt lat="43.72178" lon="6.12051">
        <ele>613.327648</ele>
        <time>2022-05-26T09:14:31.947Z</time>
      </trkpt>
      <trkpt lat="43.72184" lon="6.12039">
        <ele>613.12221</ele>
        <time>2022-05-26T09:14:33.951Z</time>
      </trkpt>
      <trkpt lat="43.72191" lon="6.12026">
        <ele>612.900217</ele>
        <time>2022-05-26T09:14:35.943Z</time>
      </trkpt>
      <trkpt lat="43.72196" lon="6.12011">
        <ele>612.669702</ele>
        <time>2022-05-26T09:14:37.950Z</time>
      </trkpt>
      <trkpt lat="43.72202" lon="6.11997">
        <ele>612.449663</ele>
        <time>2022-05-26T09:14:39.945Z</time>
      </trkpt>
      <trkpt lat="43.72208" lon="6.11986">
        <ele>612.256943</ele>
        <time>2022-05-26T09:14:41.944Z</time>
      </trkpt>
      <trkpt lat="43.72212" lon="6.11973">
        <ele>612.070536</ele>
        <time>2022-05-26T09:14:43.945Z</time>
      </trkpt>
      <trkpt lat="43.72219" lon="6.11964">
        <ele>611.877401</ele>
        <time>2022-05-26T09:14:45.948Z</time>
      </trkpt>
      <trkpt lat="43.72227" lon="6.11954">
        <ele>611.685302</ele>
        <time>2022-05-26T09:14:47.944Z</time>
      </trkpt>
      <trkpt lat="43.72232" lon="6.11942">
        <ele>611.482851</ele>
        <time>2022-05-26T09:14:49.954Z</time>
      </trkpt>
      <trkpt lat="43.72234" lon="6.11925">
        <ele>611.25539</ele>
        <time>2022-05-26T09:14:51.944Z</time>
      </trkpt>
      <trkpt lat="43.72239" lon="6.11913">
        <ele>611.062761</ele>
        <time>2022-05-26T09:14:53.943Z</time>
      </trkpt>
      <trkpt lat="43.72243" lon="6.11901">
        <ele>610.872913</ele>
        <time>2022-05-26T09:14:55.942Z</time>
      </trkpt>
      <trkpt lat="43.72252" lon="6.11888">
        <ele>610.587028</ele>
        <time>2022-05-26T09:14:58.952Z</time>
      </trkpt>
      <trkpt lat="43.72259" lon="6.11879">
        <ele>610.042027</ele>
        <time>2022-05-26T09:15:01.946Z</time>
      </trkpt>
      <trkpt lat="43.7226" lon="6.11866">
        <ele>609.518899</ele>
        <time>2022-05-26T09:15:06.950Z</time>
      </trkpt>
      <trkpt lat="43.7226" lon="6.11849">
        <ele>608.885923</ele>
        <time>2022-05-26T09:15:09.944Z</time>
      </trkpt>
      <trkpt lat="43.7226" lon="6.11835">
        <ele>608.335421</ele>
        <time>2022-05-26T09:15:12.951Z</time>
      </trkpt>
      <trkpt lat="43.72261" lon="6.1182">
        <ele>607.720174</ele>
        <time>2022-05-26T09:15:15.949Z</time>
      </trkpt>
      <trkpt lat="43.72265" lon="6.11805">
        <ele>607.108239</ele>
        <time>2022-05-26T09:15:18.949Z</time>
      </trkpt>
      <trkpt lat="43.72267" lon="6.11792">
        <ele>606.579506</ele>
        <time>2022-05-26T09:15:20.948Z</time>
      </trkpt>
      <trkpt lat="43.72269" lon="6.1178">
        <ele>606.081178</ele>
        <time>2022-05-26T09:15:22.952Z</time>
      </trkpt>
      <trkpt lat="43.7227" lon="6.11761">
        <ele>605.35095</ele>
        <time>2022-05-26T09:15:25.950Z</time>
      </trkpt>
      <trkpt lat="43.72269" lon="6.11747">
        <ele>604.790652</ele>
        <time>2022-05-26T09:15:27.944Z</time>
      </trkpt>
      <trkpt lat="43.72267" lon="6.11733">
        <ele>604.228592</ele>
        <time>2022-05-26T09:15:29.942Z</time>
      </trkpt>
      <trkpt lat="43.72271" lon="6.11719">
        <ele>603.640495</ele>
        <time>2022-05-26T09:15:31.950Z</time>
      </trkpt>
      <trkpt lat="43.72275" lon="6.11705">
        <ele>603.068927</ele>
        <time>2022-05-26T09:15:33.940Z</time>
      </trkpt>
      <trkpt lat="43.72276" lon="6.11692">
        <ele>602.550452</ele>
        <time>2022-05-26T09:15:36.944Z</time>
      </trkpt>
      <trkpt lat="43.72279" lon="6.11676">
        <ele>601.894804</ele>
        <time>2022-05-26T09:15:40.949Z</time>
      </trkpt>
      <trkpt lat="43.72286" lon="6.11663">
        <ele>601.257517</ele>
        <time>2022-05-26T09:15:44.943Z</time>
      </trkpt>
      <trkpt lat="43.72294" lon="6.11651">
        <ele>600.746799</ele>
        <time>2022-05-26T09:15:47.944Z</time>
      </trkpt>
      <trkpt lat="43.72301" lon="6.11635">
        <ele>600.39663</ele>
        <time>2022-05-26T09:15:50.943Z</time>
      </trkpt>
      <trkpt lat="43.72307" lon="6.11619">
        <ele>600.059384</ele>
        <time>2022-05-26T09:15:53.948Z</time>
      </trkpt>
      <trkpt lat="43.72312" lon="6.11607">
        <ele>599.814222</ele>
        <time>2022-05-26T09:15:56.944Z</time>
      </trkpt>
      <trkpt lat="43.72314" lon="6.11593">
        <ele>599.544483</ele>
        <time>2022-05-26T09:16:01.944Z</time>
      </trkpt>
      <trkpt lat="43.72307" lon="6.11583">
        <ele>599.279071</ele>
        <time>2022-05-26T09:16:05.943Z</time>
      </trkpt>
      <trkpt lat="43.72297" lon="6.11575">
        <ele>598.964049</ele>
        <time>2022-05-26T09:16:09.941Z</time>
      </trkpt>
      <trkpt lat="43.72287" lon="6.11569">
        <ele>598.702424</ele>
        <time>2022-05-26T09:16:12.947Z</time>
      </trkpt>
      <trkpt lat="43.72278" lon="6.11563">
        <ele>598.447231</ele>
        <time>2022-05-26T09:16:15.947Z</time>
      </trkpt>
      <trkpt lat="43.72268" lon="6.11556">
        <ele>598.14037</ele>
        <time>2022-05-26T09:16:19.946Z</time>
      </trkpt>
      <trkpt lat="43.72258" lon="6.11547">
        <ele>597.847716</ele>
        <time>2022-05-26T09:16:23.948Z</time>
      </trkpt>
      <trkpt lat="43.7225" lon="6.11542">
        <ele>597.60188</ele>
        <time>2022-05-26T09:16:26.950Z</time>
      </trkpt>
      <trkpt lat="43.72242" lon="6.11534">
        <ele>597.342635</ele>
        <time>2022-05-26T09:16:31.950Z</time>
      </trkpt>
      <trkpt lat="43.72234" lon="6.11523">
        <ele>597.057719</ele>
        <time>2022-05-26T09:16:36.952Z</time>
      </trkpt>
      <trkpt lat="43.72226" lon="6.11516">
        <ele>596.815462</ele>
        <time>2022-05-26T09:16:41.950Z</time>
      </trkpt>
      <trkpt lat="43.7222" lon="6.11506">
        <ele>596.578938</ele>
        <time>2022-05-26T09:16:46.955Z</time>
      </trkpt>
      <trkpt lat="43.72213" lon="6.11497">
        <ele>596.318942</ele>
        <time>2022-05-26T09:16:51.947Z</time>
      </trkpt>
      <trkpt lat="43.72205" lon="6.11489">
        <ele>596.764028</ele>
        <time>2022-05-26T09:16:56.949Z</time>
      </trkpt>
      <trkpt lat="43.72197" lon="6.11481">
        <ele>597.789373</ele>
        <time>2022-05-26T09:17:01.950Z</time>
      </trkpt>
      <trkpt lat="43.72189" lon="6.11474">
        <ele>598.83723</ele>
        <time>2022-05-26T09:17:06.951Z</time>
      </trkpt>
      <trkpt lat="43.7218" lon="6.11466">
        <ele>599.98526</ele>
        <time>2022-05-26T09:17:11.945Z</time>
      </trkpt>
      <trkpt lat="43.72173" lon="6.11457">
        <ele>601.002544</ele>
        <time>2022-05-26T09:17:16.946Z</time>
      </trkpt>
      <trkpt lat="43.72167" lon="6.11444">
        <ele>602.187061</ele>
        <time>2022-05-26T09:17:21.947Z</time>
      </trkpt>
      <trkpt lat="43.7216" lon="6.11436">
        <ele>603.169882</ele>
        <time>2022-05-26T09:17:25.949Z</time>
      </trkpt>
      <trkpt lat="43.72151" lon="6.11428">
        <ele>604.279483</ele>
        <time>2022-05-26T09:17:30.949Z</time>
      </trkpt>
      <trkpt lat="43.72142" lon="6.11421">
        <ele>605.44561</ele>
        <time>2022-05-26T09:17:35.943Z</time>
      </trkpt>
      <trkpt lat="43.72133" lon="6.11411">
        <ele>606.630906</ele>
        <time>2022-05-26T09:17:40.947Z</time>
      </trkpt>
      <trkpt lat="43.72126" lon="6.114">
        <ele>607.731207</ele>
        <time>2022-05-26T09:17:45.942Z</time>
      </trkpt>
      <trkpt lat="43.72128" lon="6.11387">
        <ele>608.71075</ele>
        <time>2022-05-26T09:17:51.943Z</time>
      </trkpt>
      <trkpt lat="43.72135" lon="6.11378">
        <ele>609.723885</ele>
        <time>2022-05-26T09:17:56.943Z</time>
      </trkpt>
      <trkpt lat="43.72141" lon="6.11367">
        <ele>610.827153</ele>
        <time>2022-05-26T09:18:00.946Z</time>
      </trkpt>
      <trkpt lat="43.72149" lon="6.11355">
        <ele>612.035121</ele>
        <time>2022-05-26T09:18:04.946Z</time>
      </trkpt>
      <trkpt lat="43.72156" lon="6.11344">
        <ele>613.226426</ele>
        <time>2022-05-26T09:18:08.953Z</time>
      </trkpt>
      <trkpt lat="43.72162" lon="6.11331">
        <ele>614.432817</ele>
        <time>2022-05-26T09:18:12.951Z</time>
      </trkpt>
      <trkpt lat="43.72169" lon="6.11318">
        <ele>615.378909</ele>
        <time>2022-05-26T09:18:16.949Z</time>
      </trkpt>
      <trkpt lat="43.72177" lon="6.11306">
        <ele>615.016111</ele>
        <time>2022-05-26T09:18:20.948Z</time>
      </trkpt>
      <trkpt lat="43.72184" lon="6.11297">
        <ele>614.700015</ele>
        <time>2022-05-26T09:18:23.948Z</time>
      </trkpt>
      <trkpt lat="43.7219" lon="6.11287">
        <ele>614.387206</ele>
        <time>2022-05-26T09:18:26.948Z</time>
      </trkpt>
      <trkpt lat="43.72197" lon="6.11273">
        <ele>614.008302</ele>
        <time>2022-05-26T09:18:30.948Z</time>
      </trkpt>
      <trkpt lat="43.72203" lon="6.11263">
        <ele>613.694119</ele>
        <time>2022-05-26T09:18:33.949Z</time>
      </trkpt>
      <trkpt lat="43.7221" lon="6.1125">
        <ele>613.33417</ele>
        <time>2022-05-26T09:18:37.949Z</time>
      </trkpt>
      <trkpt lat="43.72217" lon="6.11238">
        <ele>612.952511</ele>
        <time>2022-05-26T09:18:41.950Z</time>
      </trkpt>
      <trkpt lat="43.72224" lon="6.11228">
        <ele>612.647005</ele>
        <time>2022-05-26T09:18:45.947Z</time>
      </trkpt>
      <trkpt lat="43.7223" lon="6.11218">
        <ele>612.330727</ele>
        <time>2022-05-26T09:18:49.951Z</time>
      </trkpt>
      <trkpt lat="43.72237" lon="6.11206">
        <ele>611.991398</ele>
        <time>2022-05-26T09:18:54.947Z</time>
      </trkpt>
      <trkpt lat="43.72244" lon="6.11195">
        <ele>611.650657</ele>
        <time>2022-05-26T09:18:59.950Z</time>
      </trkpt>
      <trkpt lat="43.72252" lon="6.11186">
        <ele>611.320677</ele>
        <time>2022-05-26T09:19:03.936Z</time>
      </trkpt>
      <trkpt lat="43.72261" lon="6.11177">
        <ele>610.965361</ele>
        <time>2022-05-26T09:19:07.949Z</time>
      </trkpt>
      <trkpt lat="43.72269" lon="6.11165">
        <ele>610.586729</ele>
        <time>2022-05-26T09:19:10.952Z</time>
      </trkpt>
      <trkpt lat="43.72275" lon="6.11155">
        <ele>610.280769</ele>
        <time>2022-05-26T09:19:12.946Z</time>
      </trkpt>
      <trkpt lat="43.72283" lon="6.11147">
        <ele>609.972601</ele>
        <time>2022-05-26T09:19:14.955Z</time>
      </trkpt>
      <trkpt lat="43.7229" lon="6.11139">
        <ele>609.644566</ele>
        <time>2022-05-26T09:19:16.948Z</time>
      </trkpt>
      <trkpt lat="43.72296" lon="6.11128">
        <ele>608.979258</ele>
        <time>2022-05-26T09:19:19.950Z</time>
      </trkpt>
      <trkpt lat="43.72302" lon="6.11118">
        <ele>608.370899</ele>
        <time>2022-05-26T09:19:22.951Z</time>
      </trkpt>
      <trkpt lat="43.72309" lon="6.11109">
        <ele>607.754193</ele>
        <time>2022-05-26T09:19:25.949Z</time>
      </trkpt>
      <trkpt lat="43.72315" lon="6.11096">
        <ele>606.950485</ele>
        <time>2022-05-26T09:19:29.945Z</time>
      </trkpt>
      <trkpt lat="43.72319" lon="6.11083">
        <ele>606.29262</ele>
        <time>2022-05-26T09:19:32.951Z</time>
      </trkpt>
      <trkpt lat="43.72323" lon="6.11072">
        <ele>605.672769</ele>
        <time>2022-05-26T09:19:35.947Z</time>
      </trkpt>
      <trkpt lat="43.72327" lon="6.1106">
        <ele>605.037715</ele>
        <time>2022-05-26T09:19:38.947Z</time>
      </trkpt>
      <trkpt lat="43.72331" lon="6.11046">
        <ele>604.293549</ele>
        <time>2022-05-26T09:19:41.943Z</time>
      </trkpt>
      <trkpt lat="43.72336" lon="6.1103">
        <ele>603.491725</ele>
        <time>2022-05-26T09:19:44.948Z</time>
      </trkpt>
      <trkpt lat="43.72338" lon="6.11017">
        <ele>602.850647</ele>
        <time>2022-05-26T09:19:47.954Z</time>
      </trkpt>
      <trkpt lat="43.72343" lon="6.11005">
        <ele>602.150273</ele>
        <time>2022-05-26T09:19:50.943Z</time>
      </trkpt>
      <trkpt lat="43.72346" lon="6.10992">
        <ele>601.4856</ele>
        <time>2022-05-26T09:19:53.941Z</time>
      </trkpt>
      <trkpt lat="43.72351" lon="6.10978">
        <ele>600.722635</ele>
        <time>2022-05-26T09:19:56.947Z</time>
      </trkpt>
      <trkpt lat="43.72356" lon="6.10961">
        <ele>599.881809</ele>
        <time>2022-05-26T09:19:59.946Z</time>
      </trkpt>
      <trkpt lat="43.72361" lon="6.10945">
        <ele>599.017328</ele>
        <time>2022-05-26T09:20:02.948Z</time>
      </trkpt>
      <trkpt lat="43.72366" lon="6.10933">
        <ele>598.327194</ele>
        <time>2022-05-26T09:20:04.949Z</time>
      </trkpt>
      <trkpt lat="43.72374" lon="6.10921">
        <ele>597.578429</ele>
        <time>2022-05-26T09:20:06.948Z</time>
      </trkpt>
      <trkpt lat="43.72378" lon="6.10906">
        <ele>597.345543</ele>
        <time>2022-05-26T09:20:08.949Z</time>
      </trkpt>
      <trkpt lat="43.72384" lon="6.10893">
        <ele>597.117855</ele>
        <time>2022-05-26T09:20:10.944Z</time>
      </trkpt>
      <trkpt lat="43.72389" lon="6.10878">
        <ele>596.872427</ele>
        <time>2022-05-26T09:20:13.939Z</time>
      </trkpt>
      <trkpt lat="43.7238" lon="6.10859">
        <ele>596.525373</ele>
        <time>2022-05-26T09:21:02.941Z</time>
      </trkpt>
      <trkpt lat="43.72369" lon="6.10856">
        <ele>596.302616</ele>
        <time>2022-05-26T09:21:07.963Z</time>
      </trkpt>
      <trkpt lat="43.7236" lon="6.10855">
        <ele>596.111258</ele>
        <time>2022-05-26T09:21:11.945Z</time>
      </trkpt>
      <trkpt lat="43.72349" lon="6.10854">
        <ele>595.89701</ele>
        <time>2022-05-26T09:21:15.950Z</time>
      </trkpt>
      <trkpt lat="43.7234" lon="6.10852">
        <ele>595.69694</ele>
        <time>2022-05-26T09:21:19.938Z</time>
      </trkpt>
      <trkpt lat="43.72329" lon="6.1085">
        <ele>595.474303</ele>
        <time>2022-05-26T09:21:23.949Z</time>
      </trkpt>
      <trkpt lat="43.72319" lon="6.10844">
        <ele>595.261236</ele>
        <time>2022-05-26T09:21:27.946Z</time>
      </trkpt>
      <trkpt lat="43.72309" lon="6.10843">
        <ele>595.03653</ele>
        <time>2022-05-26T09:21:30.945Z</time>
      </trkpt>
      <trkpt lat="43.72297" lon="6.10843">
        <ele>594.795806</ele>
        <time>2022-05-26T09:21:33.950Z</time>
      </trkpt>
      <trkpt lat="43.72287" lon="6.10842">
        <ele>594.585562</ele>
        <time>2022-05-26T09:21:36.955Z</time>
      </trkpt>
      <trkpt lat="43.72276" lon="6.10844">
        <ele>594.368778</ele>
        <time>2022-05-26T09:21:39.948Z</time>
      </trkpt>
      <trkpt lat="43.72266" lon="6.10846">
        <ele>594.145665</ele>
        <time>2022-05-26T09:21:42.947Z</time>
      </trkpt>
      <trkpt lat="43.72256" lon="6.10847">
        <ele>593.939625</ele>
        <time>2022-05-26T09:21:45.948Z</time>
      </trkpt>
      <trkpt lat="43.72245" lon="6.10847">
        <ele>594.090733</ele>
        <time>2022-05-26T09:21:49.944Z</time>
      </trkpt>
      <trkpt lat="43.72235" lon="6.10845">
        <ele>594.317632</ele>
        <time>2022-05-26T09:21:55.940Z</time>
      </trkpt>
      <trkpt lat="43.72223" lon="6.10846">
        <ele>594.578836</ele>
        <time>2022-05-26T09:21:59.948Z</time>
      </trkpt>
      <trkpt lat="43.72213" lon="6.10844">
        <ele>594.792407</ele>
        <time>2022-05-26T09:22:02.948Z</time>
      </trkpt>
      <trkpt lat="43.72201" lon="6.10845">
        <ele>595.060184</ele>
        <time>2022-05-26T09:22:06.947Z</time>
      </trkpt>
      <trkpt lat="43.72192" lon="6.1085">
        <ele>595.279568</ele>
        <time>2022-05-26T09:22:09.945Z</time>
      </trkpt>
      <trkpt lat="43.72182" lon="6.10847">
        <ele>595.495575</ele>
        <time>2022-05-26T09:22:12.947Z</time>
      </trkpt>
      <trkpt lat="43.72171" lon="6.10845">
        <ele>595.744241</ele>
        <time>2022-05-26T09:22:15.947Z</time>
      </trkpt>
      <trkpt lat="43.72159" lon="6.10844">
        <ele>595.997555</ele>
        <time>2022-05-26T09:22:18.945Z</time>
      </trkpt>
      <trkpt lat="43.72149" lon="6.10843">
        <ele>596.21914</ele>
        <time>2022-05-26T09:22:21.944Z</time>
      </trkpt>
      <trkpt lat="43.7214" lon="6.1084">
        <ele>596.431058</ele>
        <time>2022-05-26T09:22:24.945Z</time>
      </trkpt>
      <trkpt lat="43.7213" lon="6.10842">
        <ele>596.653999</ele>
        <time>2022-05-26T09:22:27.945Z</time>
      </trkpt>
      <trkpt lat="43.72119" lon="6.10849">
        <ele>596.908915</ele>
        <time>2022-05-26T09:22:31.942Z</time>
      </trkpt>
      <trkpt lat="43.72109" lon="6.10852">
        <ele>597.145874</ele>
        <time>2022-05-26T09:22:35.946Z</time>
      </trkpt>
      <trkpt lat="43.72098" lon="6.10857">
        <ele>597.385947</ele>
        <time>2022-05-26T09:22:39.946Z</time>
      </trkpt>
      <trkpt lat="43.72089" lon="6.10865">
        <ele>597.632709</ele>
        <time>2022-05-26T09:22:42.943Z</time>
      </trkpt>
      <trkpt lat="43.72079" lon="6.10868">
        <ele>597.790737</ele>
        <time>2022-05-26T09:22:44.945Z</time>
      </trkpt>
      <trkpt lat="43.72069" lon="6.10868">
        <ele>596.945745</ele>
        <time>2022-05-26T09:22:46.945Z</time>
      </trkpt>
      <trkpt lat="43.72059" lon="6.10873">
        <ele>596.047877</ele>
        <time>2022-05-26T09:22:48.948Z</time>
      </trkpt>
      <trkpt lat="43.7205" lon="6.10877">
        <ele>595.206157</ele>
        <time>2022-05-26T09:22:50.945Z</time>
      </trkpt>
      <trkpt lat="43.72039" lon="6.10881">
        <ele>594.200386</ele>
        <time>2022-05-26T09:22:52.947Z</time>
      </trkpt>
      <trkpt lat="43.72027" lon="6.10887">
        <ele>593.044538</ele>
        <time>2022-05-26T09:22:55.949Z</time>
      </trkpt>
      <trkpt lat="43.72019" lon="6.10896">
        <ele>592.158344</ele>
        <time>2022-05-26T09:22:57.939Z</time>
      </trkpt>
      <trkpt lat="43.72009" lon="6.10907">
        <ele>591.04974</ele>
        <time>2022-05-26T09:23:00.942Z</time>
      </trkpt>
      <trkpt lat="43.72005" lon="6.10919">
        <ele>590.228526</ele>
        <time>2022-05-26T09:23:02.944Z</time>
      </trkpt>
      <trkpt lat="43.72" lon="6.10937">
        <ele>588.963902</ele>
        <time>2022-05-26T09:23:05.947Z</time>
      </trkpt>
      <trkpt lat="43.71998" lon="6.10953">
        <ele>587.959755</ele>
        <time>2022-05-26T09:23:08.946Z</time>
      </trkpt>
      <trkpt lat="43.71999" lon="6.10966">
        <ele>587.132946</ele>
        <time>2022-05-26T09:23:11.944Z</time>
      </trkpt>
      <trkpt lat="43.72002" lon="6.10982">
        <ele>586.092337</ele>
        <time>2022-05-26T09:23:14.948Z</time>
      </trkpt>
      <trkpt lat="43.72003" lon="6.10995">
        <ele>585.217007</ele>
        <time>2022-05-26T09:23:17.946Z</time>
      </trkpt>
      <trkpt lat="43.7201" lon="6.11021">
        <ele>583.476674</ele>
        <time>2022-05-26T09:24:07.947Z</time>
      </trkpt>
      <trkpt lat="43.72012" lon="6.11033">
        <ele>582.66444</ele>
        <time>2022-05-26T09:24:10.945Z</time>
      </trkpt>
      <trkpt lat="43.72008" lon="6.11052">
        <ele>581.464349</ele>
        <time>2022-05-26T09:24:13.945Z</time>
      </trkpt>
      <trkpt lat="43.72009" lon="6.11069">
        <ele>580.507904</ele>
        <time>2022-05-26T09:24:15.944Z</time>
      </trkpt>
      <trkpt lat="43.72008" lon="6.11083">
        <ele>579.710942</ele>
        <time>2022-05-26T09:24:20.945Z</time>
      </trkpt>
      <trkpt lat="43.72011" lon="6.11096">
        <ele>578.91136</ele>
        <time>2022-05-26T09:24:26.948Z</time>
      </trkpt>
      <trkpt lat="43.72012" lon="6.11111">
        <ele>578.051472</ele>
        <time>2022-05-26T09:24:30.946Z</time>
      </trkpt>
      <trkpt lat="43.72006" lon="6.11125">
        <ele>577.097145</ele>
        <time>2022-05-26T09:24:34.948Z</time>
      </trkpt>
      <trkpt lat="43.72001" lon="6.11136">
        <ele>576.316252</ele>
        <time>2022-05-26T09:24:37.946Z</time>
      </trkpt>
      <trkpt lat="43.71995" lon="6.11149">
        <ele>575.451338</ele>
        <time>2022-05-26T09:24:40.948Z</time>
      </trkpt>
      <trkpt lat="43.71988" lon="6.11161">
        <ele>574.582612</ele>
        <time>2022-05-26T09:24:43.952Z</time>
      </trkpt>
      <trkpt lat="43.71981" lon="6.11168">
        <ele>573.859967</ele>
        <time>2022-05-26T09:24:45.954Z</time>
      </trkpt>
      <trkpt lat="43.71972" lon="6.11171">
        <ele>573.136132</ele>
        <time>2022-05-26T09:24:49.947Z</time>
      </trkpt>
      <trkpt lat="43.71961" lon="6.11163">
        <ele>572.152613</ele>
        <time>2022-05-26T09:24:53.945Z</time>
      </trkpt>
      <trkpt lat="43.71952" lon="6.11156">
        <ele>571.290542</ele>
        <time>2022-05-26T09:24:56.943Z</time>
      </trkpt>
      <trkpt lat="43.71942" lon="6.11156">
        <ele>570.517258</ele>
        <time>2022-05-26T09:24:59.938Z</time>
      </trkpt>
      <trkpt lat="43.71931" lon="6.1116">
        <ele>569.604477</ele>
        <time>2022-05-26T09:25:03.944Z</time>
      </trkpt>
      <trkpt lat="43.71924" lon="6.11151">
        <ele>568.82803</ele>
        <time>2022-05-26T09:25:08.948Z</time>
      </trkpt>
      <trkpt lat="43.71921" lon="6.11136">
        <ele>567.91695</ele>
        <time>2022-05-26T09:25:14.947Z</time>
      </trkpt>
      <trkpt lat="43.71918" lon="6.11121">
        <ele>567.000351</ele>
        <time>2022-05-26T09:25:17.948Z</time>
      </trkpt>
      <trkpt lat="43.71912" lon="6.11106">
        <ele>565.928821</ele>
        <time>2022-05-26T09:25:20.951Z</time>
      </trkpt>
      <trkpt lat="43.71906" lon="6.11098">
        <ele>565.098106</ele>
        <time>2022-05-26T09:25:22.954Z</time>
      </trkpt>
      <trkpt lat="43.71897" lon="6.11091">
        <ele>564.222648</ele>
        <time>2022-05-26T09:25:27.944Z</time>
      </trkpt>
      <trkpt lat="43.71896" lon="6.11078">
        <ele>563.385909</ele>
        <time>2022-05-26T09:25:32.947Z</time>
      </trkpt>
      <trkpt lat="43.71896" lon="6.11064">
        <ele>562.525961</ele>
        <time>2022-05-26T09:25:36.947Z</time>
      </trkpt>
      <trkpt lat="43.71888" lon="6.11056">
        <ele>561.649658</ele>
        <time>2022-05-26T09:25:39.946Z</time>
      </trkpt>
      <trkpt lat="43.71878" lon="6.11049">
        <ele>560.691059</ele>
        <time>2022-05-26T09:25:42.947Z</time>
      </trkpt>
      <trkpt lat="43.71868" lon="6.11039">
        <ele>559.595634</ele>
        <time>2022-05-26T09:25:45.948Z</time>
      </trkpt>
      <trkpt lat="43.71861" lon="6.11029">
        <ele>558.727688</ele>
        <time>2022-05-26T09:25:47.947Z</time>
      </trkpt>
      <trkpt lat="43.71853" lon="6.11018">
        <ele>557.762133</ele>
        <time>2022-05-26T09:25:49.945Z</time>
      </trkpt>
      <trkpt lat="43.71847" lon="6.11006">
        <ele>556.807685</ele>
        <time>2022-05-26T09:25:51.949Z</time>
      </trkpt>
      <trkpt lat="43.71843" lon="6.1099">
        <ele>555.718094</ele>
        <time>2022-05-26T09:25:54.948Z</time>
      </trkpt>
      <trkpt lat="43.71841" lon="6.10976">
        <ele>554.812594</ele>
        <time>2022-05-26T09:25:58.949Z</time>
      </trkpt>
      <trkpt lat="43.71838" lon="6.10963">
        <ele>553.953389</ele>
        <time>2022-05-26T09:26:01.945Z</time>
      </trkpt>
      <trkpt lat="43.71836" lon="6.10948">
        <ele>553.009199</ele>
        <time>2022-05-26T09:26:04.947Z</time>
      </trkpt>
      <trkpt lat="43.71834" lon="6.10935">
        <ele>552.122943</ele>
        <time>2022-05-26T09:26:07.944Z</time>
      </trkpt>
      <trkpt lat="43.71833" lon="6.1092">
        <ele>551.338448</ele>
        <time>2022-05-26T09:26:10.945Z</time>
      </trkpt>
      <trkpt lat="43.71833" lon="6.10905">
        <ele>550.576098</ele>
        <time>2022-05-26T09:26:14.948Z</time>
      </trkpt>
      <trkpt lat="43.71832" lon="6.10889">
        <ele>549.814485</ele>
        <time>2022-05-26T09:26:18.947Z</time>
      </trkpt>
      <trkpt lat="43.71834" lon="6.10876">
        <ele>549.12923</ele>
        <time>2022-05-26T09:26:21.945Z</time>
      </trkpt>
      <trkpt lat="43.71836" lon="6.10863">
        <ele>548.489638</ele>
        <time>2022-05-26T09:26:24.946Z</time>
      </trkpt>
      <trkpt lat="43.71837" lon="6.10849">
        <ele>547.781025</ele>
        <time>2022-05-26T09:26:29.948Z</time>
      </trkpt>
      <trkpt lat="43.71836" lon="6.10836">
        <ele>547.148597</ele>
        <time>2022-05-26T09:26:33.947Z</time>
      </trkpt>
      <trkpt lat="43.71839" lon="6.1082">
        <ele>546.320854</ele>
        <time>2022-05-26T09:26:37.952Z</time>
      </trkpt>
      <trkpt lat="43.71843" lon="6.10805">
        <ele>545.579621</ele>
        <time>2022-05-26T09:26:41.944Z</time>
      </trkpt>
      <trkpt lat="43.71849" lon="6.10795">
        <ele>544.922528</ele>
        <time>2022-05-26T09:26:45.949Z</time>
      </trkpt>
      <trkpt lat="43.71853" lon="6.10781">
        <ele>544.176226</ele>
        <time>2022-05-26T09:26:50.954Z</time>
      </trkpt>
      <trkpt lat="43.71854" lon="6.10769">
        <ele>543.557188</ele>
        <time>2022-05-26T09:26:54.952Z</time>
      </trkpt>
      <trkpt lat="43.7185" lon="6.10754">
        <ele>542.80445</ele>
        <time>2022-05-26T09:26:58.947Z</time>
      </trkpt>
      <trkpt lat="43.71849" lon="6.10735">
        <ele>541.827114</ele>
        <time>2022-05-26T09:27:01.947Z</time>
      </trkpt>
      <trkpt lat="43.71852" lon="6.10721">
        <ele>541.119875</ele>
        <time>2022-05-26T09:27:04.947Z</time>
      </trkpt>
      <trkpt lat="43.71855" lon="6.10707">
        <ele>540.394446</ele>
        <time>2022-05-26T09:27:09.944Z</time>
      </trkpt>
      <trkpt lat="43.71848" lon="6.10697">
        <ele>539.73866</ele>
        <time>2022-05-26T09:27:32.936Z</time>
      </trkpt>
      <trkpt lat="43.7185" lon="6.10672">
        <ele>538.709943</ele>
        <time>2022-05-26T09:28:15.952Z</time>
      </trkpt>
      <trkpt lat="43.7185" lon="6.10657">
        <ele>538.100249</ele>
        <time>2022-05-26T09:28:18.955Z</time>
      </trkpt>
      <trkpt lat="43.71847" lon="6.10641">
        <ele>537.450728</ele>
        <time>2022-05-26T09:28:22.941Z</time>
      </trkpt>
      <trkpt lat="43.71848" lon="6.10629">
        <ele>536.954748</ele>
        <time>2022-05-26T09:28:25.946Z</time>
      </trkpt>
      <trkpt lat="43.71853" lon="6.10617">
        <ele>536.419477</ele>
        <time>2022-05-26T09:28:29.944Z</time>
      </trkpt>
      <trkpt lat="43.71858" lon="6.10605">
        <ele>535.886931</ele>
        <time>2022-05-26T09:28:32.950Z</time>
      </trkpt>
      <trkpt lat="43.71865" lon="6.10593">
        <ele>535.273054</ele>
        <time>2022-05-26T09:28:36.947Z</time>
      </trkpt>
      <trkpt lat="43.71872" lon="6.10583">
        <ele>534.718164</ele>
        <time>2022-05-26T09:28:40.953Z</time>
      </trkpt>
      <trkpt lat="43.71879" lon="6.10573">
        <ele>534.1679</ele>
        <time>2022-05-26T09:28:44.945Z</time>
      </trkpt>
      <trkpt lat="43.71883" lon="6.10558">
        <ele>533.540188</ele>
        <time>2022-05-26T09:28:48.938Z</time>
      </trkpt>
      <trkpt lat="43.71885" lon="6.10544">
        <ele>532.963484</ele>
        <time>2022-05-26T09:28:52.948Z</time>
      </trkpt>
      <trkpt lat="43.71885" lon="6.10531">
        <ele>532.460292</ele>
        <time>2022-05-26T09:28:55.944Z</time>
      </trkpt>
      <trkpt lat="43.71888" lon="6.10518">
        <ele>531.917665</ele>
        <time>2022-05-26T09:28:59.950Z</time>
      </trkpt>
      <trkpt lat="43.71885" lon="6.10505">
        <ele>531.396637</ele>
        <time>2022-05-26T09:29:05.939Z</time>
      </trkpt>
      <trkpt lat="43.71896" lon="6.105">
        <ele>530.753518</ele>
        <time>2022-05-26T09:29:10.947Z</time>
      </trkpt>
      <trkpt lat="43.71905" lon="6.10493">
        <ele>530.197485</ele>
        <time>2022-05-26T09:29:19.945Z</time>
      </trkpt>
      <trkpt lat="43.71915" lon="6.10491">
        <ele>529.658453</ele>
        <time>2022-05-26T09:29:23.947Z</time>
      </trkpt>
      <trkpt lat="43.71926" lon="6.1049">
        <ele>529.10554</ele>
        <time>2022-05-26T09:29:28.944Z</time>
      </trkpt>
      <trkpt lat="43.71935" lon="6.10485">
        <ele>528.566724</ele>
        <time>2022-05-26T09:29:32.950Z</time>
      </trkpt>
      <trkpt lat="43.71945" lon="6.10484">
        <ele>528.055962</ele>
        <time>2022-05-26T09:29:36.950Z</time>
      </trkpt>
      <trkpt lat="43.71954" lon="6.10479">
        <ele>527.53925</ele>
        <time>2022-05-26T09:29:41.956Z</time>
      </trkpt>
      <trkpt lat="43.71962" lon="6.1047">
        <ele>526.977127</ele>
        <time>2022-05-26T09:29:46.948Z</time>
      </trkpt>
      <trkpt lat="43.7197" lon="6.10463">
        <ele>526.461146</ele>
        <time>2022-05-26T09:29:50.947Z</time>
      </trkpt>
      <trkpt lat="43.71978" lon="6.10453">
        <ele>525.882816</ele>
        <time>2022-05-26T09:29:54.946Z</time>
      </trkpt>
      <trkpt lat="43.71989" lon="6.10448">
        <ele>525.299627</ele>
        <time>2022-05-26T09:29:58.944Z</time>
      </trkpt>
      <trkpt lat="43.71996" lon="6.10441">
        <ele>524.810652</ele>
        <time>2022-05-26T09:30:01.945Z</time>
      </trkpt>
      <trkpt lat="43.72005" lon="6.10436">
        <ele>524.306331</ele>
        <time>2022-05-26T09:30:05.942Z</time>
      </trkpt>
      <trkpt lat="43.72015" lon="6.10435">
        <ele>523.760974</ele>
        <time>2022-05-26T09:30:09.948Z</time>
      </trkpt>
      <trkpt lat="43.72023" lon="6.10426">
        <ele>523.237375</ele>
        <time>2022-05-26T09:30:12.946Z</time>
      </trkpt>
      <trkpt lat="43.72033" lon="6.1042">
        <ele>522.648514</ele>
        <time>2022-05-26T09:30:15.945Z</time>
      </trkpt>
      <trkpt lat="43.72041" lon="6.10413">
        <ele>522.150123</ele>
        <time>2022-05-26T09:30:20.945Z</time>
      </trkpt>
      <trkpt lat="43.7204" lon="6.10401">
        <ele>521.67243</ele>
        <time>2022-05-26T09:30:39.940Z</time>
      </trkpt>
      <trkpt lat="43.72043" lon="6.10385">
        <ele>521.049565</ele>
        <time>2022-05-26T09:30:43.946Z</time>
      </trkpt>
      <trkpt lat="43.72049" lon="6.10376">
        <ele>520.551323</ele>
        <time>2022-05-26T09:31:00.947Z</time>
      </trkpt>
      <trkpt lat="43.7204" lon="6.10371">
        <ele>519.933545</ele>
        <time>2022-05-26T09:31:17.944Z</time>
      </trkpt>
      <trkpt lat="43.72031" lon="6.10371">
        <ele>519.058641</ele>
        <time>2022-05-26T09:31:22.941Z</time>
      </trkpt>
      <trkpt lat="43.72021" lon="6.10369">
        <ele>518.083839</ele>
        <time>2022-05-26T09:31:28.946Z</time>
      </trkpt>
      <trkpt lat="43.72018" lon="6.10356">
        <ele>517.132396</ele>
        <time>2022-05-26T09:31:32.946Z</time>
      </trkpt>
      <trkpt lat="43.72015" lon="6.10343">
        <ele>516.195507</ele>
        <time>2022-05-26T09:31:35.949Z</time>
      </trkpt>
      <trkpt lat="43.72007" lon="6.10334">
        <ele>515.223023</ele>
        <time>2022-05-26T09:31:40.946Z</time>
      </trkpt>
      <trkpt lat="43.72004" lon="6.1032">
        <ele>514.204516</ele>
        <time>2022-05-26T09:31:46.959Z</time>
      </trkpt>
      <trkpt lat="43.71996" lon="6.10308">
        <ele>513.059266</ele>
        <time>2022-05-26T09:31:50.947Z</time>
      </trkpt>
      <trkpt lat="43.71987" lon="6.10299">
        <ele>512.035592</ele>
        <time>2022-05-26T09:31:54.949Z</time>
      </trkpt>
      <trkpt lat="43.71983" lon="6.10285">
        <ele>510.962194</ele>
        <time>2022-05-26T09:31:58.947Z</time>
      </trkpt>
      <trkpt lat="43.71979" lon="6.10271">
        <ele>509.960091</ele>
        <time>2022-05-26T09:32:03.947Z</time>
      </trkpt>
      <trkpt lat="43.71972" lon="6.1026">
        <ele>508.918571</ele>
        <time>2022-05-26T09:32:07.948Z</time>
      </trkpt>
      <trkpt lat="43.71974" lon="6.10247">
        <ele>508.043473</ele>
        <time>2022-05-26T09:32:10.947Z</time>
      </trkpt>
      <trkpt lat="43.71971" lon="6.10233">
        <ele>507.003319</ele>
        <time>2022-05-26T09:32:13.943Z</time>
      </trkpt>
      <trkpt lat="43.7197" lon="6.10217">
        <ele>505.866132</ele>
        <time>2022-05-26T09:32:16.954Z</time>
      </trkpt>
      <trkpt lat="43.71968" lon="6.10204">
        <ele>504.927325</ele>
        <time>2022-05-26T09:32:18.945Z</time>
      </trkpt>
      <trkpt lat="43.71965" lon="6.10186">
        <ele>503.672292</ele>
        <time>2022-05-26T09:32:21.951Z</time>
      </trkpt>
      <trkpt lat="43.71963" lon="6.10171">
        <ele>502.718983</ele>
        <time>2022-05-26T09:32:25.947Z</time>
      </trkpt>
      <trkpt lat="43.71964" lon="6.10158">
        <ele>502.159567</ele>
        <time>2022-05-26T09:38:11.938Z</time>
      </trkpt>
      <trkpt lat="43.71968" lon="6.10143">
        <ele>501.474978</ele>
        <time>2022-05-26T09:38:15.944Z</time>
      </trkpt>
      <trkpt lat="43.71971" lon="6.1013">
        <ele>500.918506</ele>
        <time>2022-05-26T09:38:18.942Z</time>
      </trkpt>
      <trkpt lat="43.71974" lon="6.10115">
        <ele>500.270427</ele>
        <time>2022-05-26T09:38:21.945Z</time>
      </trkpt>
      <trkpt lat="43.71976" lon="6.10101">
        <ele>499.625254</ele>
        <time>2022-05-26T09:38:24.944Z</time>
      </trkpt>
      <trkpt lat="43.71976" lon="6.10083">
        <ele>498.898326</ele>
        <time>2022-05-26T09:38:27.945Z</time>
      </trkpt>
      <trkpt lat="43.71977" lon="6.10067">
        <ele>498.188206</ele>
        <time>2022-05-26T09:38:29.945Z</time>
      </trkpt>
      <trkpt lat="43.71978" lon="6.10054">
        <ele>497.660209</ele>
        <time>2022-05-26T09:38:31.947Z</time>
      </trkpt>
      <trkpt lat="43.71978" lon="6.10039">
        <ele>497.029807</ele>
        <time>2022-05-26T09:38:33.945Z</time>
      </trkpt>
      <trkpt lat="43.71979" lon="6.10025">
        <ele>496.432863</ele>
        <time>2022-05-26T09:38:35.944Z</time>
      </trkpt>
      <trkpt lat="43.71982" lon="6.10011">
        <ele>495.798549</ele>
        <time>2022-05-26T09:38:37.948Z</time>
      </trkpt>
      <trkpt lat="43.71985" lon="6.09999">
        <ele>495.267917</ele>
        <time>2022-05-26T09:38:39.943Z</time>
      </trkpt>
      <trkpt lat="43.7199" lon="6.09981">
        <ele>494.470445</ele>
        <time>2022-05-26T09:38:42.951Z</time>
      </trkpt>
      <trkpt lat="43.71993" lon="6.09969">
        <ele>493.919062</ele>
        <time>2022-05-26T09:38:44.947Z</time>
      </trkpt>
      <trkpt lat="43.71999" lon="6.09957">
        <ele>493.327067</ele>
        <time>2022-05-26T09:38:47.940Z</time>
      </trkpt>
      <trkpt lat="43.72003" lon="6.09945">
        <ele>492.721361</ele>
        <time>2022-05-26T09:38:50.946Z</time>
      </trkpt>
      <trkpt lat="43.72008" lon="6.09932">
        <ele>492.190892</ele>
        <time>2022-05-26T09:38:53.945Z</time>
      </trkpt>
      <trkpt lat="43.72013" lon="6.09917">
        <ele>491.643936</ele>
        <time>2022-05-26T09:38:56.948Z</time>
      </trkpt>
      <trkpt lat="43.72021" lon="6.09904">
        <ele>491.083166</ele>
        <time>2022-05-26T09:38:59.947Z</time>
      </trkpt>
      <trkpt lat="43.72028" lon="6.09893">
        <ele>490.629351</ele>
        <time>2022-05-26T09:39:02.946Z</time>
      </trkpt>
      <trkpt lat="43.72031" lon="6.09881">
        <ele>490.207378</ele>
        <time>2022-05-26T09:39:04.945Z</time>
      </trkpt>
      <trkpt lat="43.72036" lon="6.09868">
        <ele>489.733895</ele>
        <time>2022-05-26T09:39:06.943Z</time>
      </trkpt>
      <trkpt lat="43.72042" lon="6.09849">
        <ele>489.040546</ele>
        <time>2022-05-26T09:39:09.945Z</time>
      </trkpt>
      <trkpt lat="43.72046" lon="6.09833">
        <ele>488.482911</ele>
        <time>2022-05-26T09:39:12.948Z</time>
      </trkpt>
      <trkpt lat="43.72055" lon="6.09824">
        <ele>487.994954</ele>
        <time>2022-05-26T09:39:14.944Z</time>
      </trkpt>
      <trkpt lat="43.72064" lon="6.09816">
        <ele>487.512028</ele>
        <time>2022-05-26T09:39:16.948Z</time>
      </trkpt>
      <trkpt lat="43.72074" lon="6.09808">
        <ele>486.988122</ele>
        <time>2022-05-26T09:39:18.945Z</time>
      </trkpt>
      <trkpt lat="43.72081" lon="6.09797">
        <ele>486.522813</ele>
        <time>2022-05-26T09:39:20.942Z</time>
      </trkpt>
      <trkpt lat="43.72084" lon="6.09782">
        <ele>485.997733</ele>
        <time>2022-05-26T09:39:22.946Z</time>
      </trkpt>
      <trkpt lat="43.72093" lon="6.0977">
        <ele>485.432153</ele>
        <time>2022-05-26T09:39:24.946Z</time>
      </trkpt>
      <trkpt lat="43.72104" lon="6.09762">
        <ele>484.891839</ele>
        <time>2022-05-26T09:39:26.945Z</time>
      </trkpt>
      <trkpt lat="43.72115" lon="6.09757">
        <ele>484.37112</ele>
        <time>2022-05-26T09:39:28.940Z</time>
      </trkpt>
      <trkpt lat="43.72124" lon="6.09753">
        <ele>484.191299</ele>
        <time>2022-05-26T09:39:30.946Z</time>
      </trkpt>
      <trkpt lat="43.72132" lon="6.09746">
        <ele>484.10452</ele>
        <time>2022-05-26T09:39:32.941Z</time>
      </trkpt>
      <trkpt lat="43.72138" lon="6.09731">
        <ele>483.988366</ele>
        <time>2022-05-26T09:39:35.943Z</time>
      </trkpt>
      <trkpt lat="43.72143" lon="6.09718">
        <ele>483.891314</ele>
        <time>2022-05-26T09:39:37.942Z</time>
      </trkpt>
      <trkpt lat="43.7215" lon="6.09703">
        <ele>483.778131</ele>
        <time>2022-05-26T09:39:40.943Z</time>
      </trkpt>
      <trkpt lat="43.72153" lon="6.09684">
        <ele>483.652213</ele>
        <time>2022-05-26T09:39:42.944Z</time>
      </trkpt>
      <trkpt lat="43.72158" lon="6.09672">
        <ele>483.561622</ele>
        <time>2022-05-26T09:39:44.943Z</time>
      </trkpt>
      <trkpt lat="43.72159" lon="6.09656">
        <ele>483.453507</ele>
        <time>2022-05-26T09:39:47.941Z</time>
      </trkpt>
      <trkpt lat="43.72157" lon="6.09641">
        <ele>483.357887</ele>
        <time>2022-05-26T09:39:50.948Z</time>
      </trkpt>
      <trkpt lat="43.72154" lon="6.09627">
        <ele>483.263983</ele>
        <time>2022-05-26T09:39:53.943Z</time>
      </trkpt>
      <trkpt lat="43.72152" lon="6.09613">
        <ele>483.165341</ele>
        <time>2022-05-26T09:39:56.943Z</time>
      </trkpt>
      <trkpt lat="43.72154" lon="6.096">
        <ele>483.077582</ele>
        <time>2022-05-26T09:39:59.948Z</time>
      </trkpt>
      <trkpt lat="43.72158" lon="6.09585">
        <ele>482.9776</ele>
        <time>2022-05-26T09:40:02.948Z</time>
      </trkpt>
      <trkpt lat="43.72159" lon="6.09569">
        <ele>482.874723</ele>
        <time>2022-05-26T09:40:05.945Z</time>
      </trkpt>
      <trkpt lat="43.72155" lon="6.09557">
        <ele>482.789528</ele>
        <time>2022-05-26T09:40:07.943Z</time>
      </trkpt>
      <trkpt lat="43.7215" lon="6.09541">
        <ele>482.671283</ele>
        <time>2022-05-26T09:40:10.944Z</time>
      </trkpt>
      <trkpt lat="43.72148" lon="6.09527">
        <ele>482.509319</ele>
        <time>2022-05-26T09:40:12.946Z</time>
      </trkpt>
      <trkpt lat="43.72152" lon="6.09514">
        <ele>482.282618</ele>
        <time>2022-05-26T09:40:15.944Z</time>
      </trkpt>
      <trkpt lat="43.72153" lon="6.09498">
        <ele>482.043479</ele>
        <time>2022-05-26T09:40:18.945Z</time>
      </trkpt>
      <trkpt lat="43.72148" lon="6.09453">
        <ele>481.323773</ele>
        <time>2022-05-26T09:42:22.952Z</time>
      </trkpt>
      <trkpt lat="43.72146" lon="6.09437">
        <ele>481.068479</ele>
        <time>2022-05-26T09:42:27.941Z</time>
      </trkpt>
      <trkpt lat="43.72144" lon="6.09424">
        <ele>480.845273</ele>
        <time>2022-05-26T09:42:31.947Z</time>
      </trkpt>
      <trkpt lat="43.7214" lon="6.0941">
        <ele>480.61874</ele>
        <time>2022-05-26T09:42:36.940Z</time>
      </trkpt>
      <trkpt lat="43.72138" lon="6.09397">
        <ele>480.407264</ele>
        <time>2022-05-26T09:42:40.943Z</time>
      </trkpt>
      <trkpt lat="43.72137" lon="6.09384">
        <ele>480.192379</ele>
        <time>2022-05-26T09:42:44.949Z</time>
      </trkpt>
      <trkpt lat="43.72133" lon="6.09371">
        <ele>479.978782</ele>
        <time>2022-05-26T09:42:48.946Z</time>
      </trkpt>
      <trkpt lat="43.72128" lon="6.0936">
        <ele>479.768358</ele>
        <time>2022-05-26T09:42:51.947Z</time>
      </trkpt>
      <trkpt lat="43.72122" lon="6.0935">
        <ele>479.56979</ele>
        <time>2022-05-26T09:42:55.948Z</time>
      </trkpt>
      <trkpt lat="43.72121" lon="6.09335">
        <ele>479.333952</ele>
        <time>2022-05-26T09:42:59.947Z</time>
      </trkpt>
      <trkpt lat="43.72122" lon="6.09319">
        <ele>479.085359</ele>
        <time>2022-05-26T09:43:02.947Z</time>
      </trkpt>
      <trkpt lat="43.72125" lon="6.09304">
        <ele>478.84222</ele>
        <time>2022-05-26T09:43:05.942Z</time>
      </trkpt>
      <trkpt lat="43.72125" lon="6.09291">
        <ele>478.459709</ele>
        <time>2022-05-26T09:43:07.956Z</time>
      </trkpt>
      <trkpt lat="43.72129" lon="6.0928">
        <ele>477.659288</ele>
        <time>2022-05-26T09:43:09.942Z</time>
      </trkpt>
      <trkpt lat="43.72136" lon="6.09267">
        <ele>476.665054</ele>
        <time>2022-05-26T09:43:11.944Z</time>
      </trkpt>
      <trkpt lat="43.72143" lon="6.09251">
        <ele>475.586969</ele>
        <time>2022-05-26T09:43:13.945Z</time>
      </trkpt>
      <trkpt lat="43.72148" lon="6.0924">
        <ele>474.73983</ele>
        <time>2022-05-26T09:43:15.943Z</time>
      </trkpt>
      <trkpt lat="43.72151" lon="6.09223">
        <ele>473.717457</ele>
        <time>2022-05-26T09:43:18.945Z</time>
      </trkpt>
      <trkpt lat="43.72143" lon="6.09213">
        <ele>472.845122</ele>
        <time>2022-05-26T09:43:21.948Z</time>
      </trkpt>
      <trkpt lat="43.72131" lon="6.09206">
        <ele>471.711829</ele>
        <time>2022-05-26T09:43:24.948Z</time>
      </trkpt>
      <trkpt lat="43.72121" lon="6.09199">
        <ele>470.79935</ele>
        <time>2022-05-26T09:43:27.950Z</time>
      </trkpt>
      <trkpt lat="43.72111" lon="6.09191">
        <ele>469.830264</ele>
        <time>2022-05-26T09:43:31.944Z</time>
      </trkpt>
      <trkpt lat="43.721" lon="6.09184">
        <ele>468.859312</ele>
        <time>2022-05-26T09:43:34.945Z</time>
      </trkpt>
      <trkpt lat="43.72089" lon="6.09176">
        <ele>467.807065</ele>
        <time>2022-05-26T09:43:37.947Z</time>
      </trkpt>
      <trkpt lat="43.72077" lon="6.09171">
        <ele>466.768516</ele>
        <time>2022-05-26T09:43:40.939Z</time>
      </trkpt>
      <trkpt lat="43.72068" lon="6.09167">
        <ele>465.996974</ele>
        <time>2022-05-26T09:43:42.946Z</time>
      </trkpt>
      <trkpt lat="43.7206" lon="6.09162">
        <ele>465.20779</ele>
        <time>2022-05-26T09:43:44.947Z</time>
      </trkpt>
      <trkpt lat="43.7205" lon="6.09157">
        <ele>464.344892</ele>
        <time>2022-05-26T09:43:46.939Z</time>
      </trkpt>
      <trkpt lat="43.72042" lon="6.09151">
        <ele>463.658424</ele>
        <time>2022-05-26T09:43:48.943Z</time>
      </trkpt>
      <trkpt lat="43.7203" lon="6.09146">
        <ele>463.554989</ele>
        <time>2022-05-26T09:43:50.942Z</time>
      </trkpt>
      <trkpt lat="43.72021" lon="6.09139">
        <ele>463.468459</ele>
        <time>2022-05-26T09:43:52.944Z</time>
      </trkpt>
      <trkpt lat="43.72011" lon="6.09135">
        <ele>463.374277</ele>
        <time>2022-05-26T09:43:54.940Z</time>
      </trkpt>
      <trkpt lat="43.72" lon="6.09128">
        <ele>463.275472</ele>
        <time>2022-05-26T09:43:57.944Z</time>
      </trkpt>
      <trkpt lat="43.71989" lon="6.09124">
        <ele>463.181062</ele>
        <time>2022-05-26T09:43:59.948Z</time>
      </trkpt>
      <trkpt lat="43.71979" lon="6.09119">
        <ele>463.093431</ele>
        <time>2022-05-26T09:44:01.946Z</time>
      </trkpt>
      <trkpt lat="43.71968" lon="6.09117">
        <ele>462.996792</ele>
        <time>2022-05-26T09:44:04.944Z</time>
      </trkpt>
      <trkpt lat="43.7196" lon="6.09123">
        <ele>462.91938</ele>
        <time>2022-05-26T09:44:07.947Z</time>
      </trkpt>
      <trkpt lat="43.71954" lon="6.09134">
        <ele>462.837079</ele>
        <time>2022-05-26T09:44:10.945Z</time>
      </trkpt>
      <trkpt lat="43.71947" lon="6.09144">
        <ele>462.753594</ele>
        <time>2022-05-26T09:44:13.948Z</time>
      </trkpt>
      <trkpt lat="43.71939" lon="6.09152">
        <ele>462.671622</ele>
        <time>2022-05-26T09:44:16.945Z</time>
      </trkpt>
      <trkpt lat="43.7193" lon="6.09153">
        <ele>462.595312</ele>
        <time>2022-05-26T09:44:20.947Z</time>
      </trkpt>
      <trkpt lat="43.7192" lon="6.09154">
        <ele>462.512046</ele>
        <time>2022-05-26T09:44:23.949Z</time>
      </trkpt>
      <trkpt lat="43.71912" lon="6.0915">
        <ele>462.436182</ele>
        <time>2022-05-26T09:44:26.948Z</time>
      </trkpt>
      <trkpt lat="43.71904" lon="6.09143">
        <ele>462.354887</ele>
        <time>2022-05-26T09:44:30.947Z</time>
      </trkpt>
      <trkpt lat="43.71897" lon="6.09134">
        <ele>462.273274</ele>
        <time>2022-05-26T09:44:34.947Z</time>
      </trkpt>
      <trkpt lat="43.71889" lon="6.09124">
        <ele>462.188171</ele>
        <time>2022-05-26T09:44:38.941Z</time>
      </trkpt>
      <trkpt lat="43.71884" lon="6.09112">
        <ele>462.548597</ele>
        <time>2022-05-26T09:44:42.941Z</time>
      </trkpt>
      <trkpt lat="43.7188" lon="6.09101">
        <ele>463.151304</ele>
        <time>2022-05-26T09:44:45.945Z</time>
      </trkpt>
      <trkpt lat="43.71875" lon="6.09087">
        <ele>463.903134</ele>
        <time>2022-05-26T09:44:49.947Z</time>
      </trkpt>
      <trkpt lat="43.7187" lon="6.09075">
        <ele>464.551281</ele>
        <time>2022-05-26T09:44:52.940Z</time>
      </trkpt>
      <trkpt lat="43.71865" lon="6.09064">
        <ele>465.182786</ele>
        <time>2022-05-26T09:44:55.945Z</time>
      </trkpt>
      <trkpt lat="43.71862" lon="6.09051">
        <ele>465.826912</ele>
        <time>2022-05-26T09:44:59.945Z</time>
      </trkpt>
      <trkpt lat="43.71859" lon="6.09037">
        <ele>466.535102</ele>
        <time>2022-05-26T09:45:02.944Z</time>
      </trkpt>
      <trkpt lat="43.71857" lon="6.09022">
        <ele>467.229116</ele>
        <time>2022-05-26T09:45:05.948Z</time>
      </trkpt>
      <trkpt lat="43.71854" lon="6.09009">
        <ele>467.889833</ele>
        <time>2022-05-26T09:45:08.945Z</time>
      </trkpt>
      <trkpt lat="43.71852" lon="6.08993">
        <ele>468.672611</ele>
        <time>2022-05-26T09:45:12.944Z</time>
      </trkpt>
      <trkpt lat="43.7185" lon="6.08979">
        <ele>469.344232</ele>
        <time>2022-05-26T09:45:15.951Z</time>
      </trkpt>
      <trkpt lat="43.71849" lon="6.08966">
        <ele>469.950537</ele>
        <time>2022-05-26T09:45:18.946Z</time>
      </trkpt>
      <trkpt lat="43.71847" lon="6.0895">
        <ele>470.724393</ele>
        <time>2022-05-26T09:45:22.948Z</time>
      </trkpt>
      <trkpt lat="43.71847" lon="6.08937">
        <ele>471.338068</ele>
        <time>2022-05-26T09:45:25.949Z</time>
      </trkpt>
      <trkpt lat="43.71845" lon="6.08925">
        <ele>471.943408</ele>
        <time>2022-05-26T09:45:28.946Z</time>
      </trkpt>
      <trkpt lat="43.71843" lon="6.08912">
        <ele>472.553942</ele>
        <time>2022-05-26T09:45:31.946Z</time>
      </trkpt>
      <trkpt lat="43.71838" lon="6.08901">
        <ele>473.180048</ele>
        <time>2022-05-26T09:45:34.944Z</time>
      </trkpt>
      <trkpt lat="43.71828" lon="6.08892">
        <ele>473.96749</ele>
        <time>2022-05-26T09:45:38.947Z</time>
      </trkpt>
      <trkpt lat="43.71818" lon="6.08884">
        <ele>474.347138</ele>
        <time>2022-05-26T09:45:42.951Z</time>
      </trkpt>
      <trkpt lat="43.71807" lon="6.08876">
        <ele>474.71156</ele>
        <time>2022-05-26T09:45:46.948Z</time>
      </trkpt>
      <trkpt lat="43.718" lon="6.08868">
        <ele>474.999887</ele>
        <time>2022-05-26T09:45:49.945Z</time>
      </trkpt>
      <trkpt lat="43.71791" lon="6.0886">
        <ele>475.357838</ele>
        <time>2022-05-26T09:45:53.945Z</time>
      </trkpt>
      <trkpt lat="43.71782" lon="6.08853">
        <ele>475.675891</ele>
        <time>2022-05-26T09:45:57.945Z</time>
      </trkpt>
      <trkpt lat="43.71771" lon="6.08846">
        <ele>476.030717</ele>
        <time>2022-05-26T09:46:01.945Z</time>
      </trkpt>
      <trkpt lat="43.71761" lon="6.0884">
        <ele>476.379455</ele>
        <time>2022-05-26T09:46:05.945Z</time>
      </trkpt>
      <trkpt lat="43.7175" lon="6.08835">
        <ele>476.75216</ele>
        <time>2022-05-26T09:46:09.944Z</time>
      </trkpt>
      <trkpt lat="43.71741" lon="6.08832">
        <ele>477.038838</ele>
        <time>2022-05-26T09:46:12.943Z</time>
      </trkpt>
      <trkpt lat="43.71731" lon="6.0883">
        <ele>477.344922</ele>
        <time>2022-05-26T09:46:15.946Z</time>
      </trkpt>
      <trkpt lat="43.7172" lon="6.0883">
        <ele>477.700581</ele>
        <time>2022-05-26T09:46:19.950Z</time>
      </trkpt>
      <trkpt lat="43.71709" lon="6.08834">
        <ele>478.030186</ele>
        <time>2022-05-26T09:46:23.943Z</time>
      </trkpt>
      <trkpt lat="43.71699" lon="6.08837">
        <ele>478.377105</ele>
        <time>2022-05-26T09:46:27.953Z</time>
      </trkpt>
      <trkpt lat="43.71689" lon="6.0884">
        <ele>478.674566</ele>
        <time>2022-05-26T09:46:30.944Z</time>
      </trkpt>
      <trkpt lat="43.7168" lon="6.08844">
        <ele>478.985487</ele>
        <time>2022-05-26T09:46:33.947Z</time>
      </trkpt>
      <trkpt lat="43.7167" lon="6.0885">
        <ele>479.302794</ele>
        <time>2022-05-26T09:46:37.947Z</time>
      </trkpt>
      <trkpt lat="43.71661" lon="6.08846">
        <ele>479.598193</ele>
        <time>2022-05-26T09:46:42.947Z</time>
      </trkpt>
      <trkpt lat="43.71666" lon="6.08834">
        <ele>479.438041</ele>
        <time>2022-05-26T09:46:45.945Z</time>
      </trkpt>
      <trkpt lat="43.71672" lon="6.08822">
        <ele>479.258779</ele>
        <time>2022-05-26T09:46:48.940Z</time>
      </trkpt>
      <trkpt lat="43.71678" lon="6.08809">
        <ele>479.068076</ele>
        <time>2022-05-26T09:46:51.944Z</time>
      </trkpt>
      <trkpt lat="43.71684" lon="6.08796">
        <ele>478.871864</ele>
        <time>2022-05-26T09:46:54.943Z</time>
      </trkpt>
      <trkpt lat="43.71693" lon="6.08783">
        <ele>478.654635</ele>
        <time>2022-05-26T09:46:57.947Z</time>
      </trkpt>
      <trkpt lat="43.71702" lon="6.08772">
        <ele>478.453701</ele>
        <time>2022-05-26T09:47:00.950Z</time>
      </trkpt>
      <trkpt lat="43.7171" lon="6.08763">
        <ele>478.277848</ele>
        <time>2022-05-26T09:47:03.947Z</time>
      </trkpt>
      <trkpt lat="43.71717" lon="6.08753">
        <ele>478.096619</ele>
        <time>2022-05-26T09:47:07.948Z</time>
      </trkpt>
      <trkpt lat="43.71724" lon="6.08742">
        <ele>477.925014</ele>
        <time>2022-05-26T09:47:11.946Z</time>
      </trkpt>
      <trkpt lat="43.7173" lon="6.08733">
        <ele>477.772243</ele>
        <time>2022-05-26T09:47:15.948Z</time>
      </trkpt>
      <trkpt lat="43.71739" lon="6.08724">
        <ele>477.57998</ele>
        <time>2022-05-26T09:47:20.940Z</time>
      </trkpt>
      <trkpt lat="43.71746" lon="6.08715">
        <ele>477.421575</ele>
        <time>2022-05-26T09:47:24.944Z</time>
      </trkpt>
      <trkpt lat="43.71755" lon="6.08705">
        <ele>477.229313</ele>
        <time>2022-05-26T09:47:28.945Z</time>
      </trkpt>
      <trkpt lat="43.71763" lon="6.08695">
        <ele>477.035204</ele>
        <time>2022-05-26T09:47:32.947Z</time>
      </trkpt>
      <trkpt lat="43.71772" lon="6.08685">
        <ele>476.843921</ele>
        <time>2022-05-26T09:47:36.938Z</time>
      </trkpt>
      <trkpt lat="43.7178" lon="6.08675">
        <ele>476.664384</ele>
        <time>2022-05-26T09:47:40.943Z</time>
      </trkpt>
      <trkpt lat="43.71787" lon="6.08663">
        <ele>476.597065</ele>
        <time>2022-05-26T09:47:44.943Z</time>
      </trkpt>
      <trkpt lat="43.71794" lon="6.08654">
        <ele>476.751775</ele>
        <time>2022-05-26T09:47:48.946Z</time>
      </trkpt>
      <trkpt lat="43.71802" lon="6.08644">
        <ele>476.915099</ele>
        <time>2022-05-26T09:47:53.943Z</time>
      </trkpt>
      <trkpt lat="43.71794" lon="6.08651">
        <ele>477.060426</ele>
        <time>2022-05-26T09:48:32.938Z</time>
      </trkpt>
      <trkpt lat="43.71803" lon="6.08657">
        <ele>477.206288</ele>
        <time>2022-05-26T09:48:51.939Z</time>
      </trkpt>
      <trkpt lat="43.71816" lon="6.08646">
        <ele>477.435101</ele>
        <time>2022-05-26T09:49:08.945Z</time>
      </trkpt>
      <trkpt lat="43.71826" lon="6.08645">
        <ele>477.590398</ele>
        <time>2022-05-26T09:49:12.941Z</time>
      </trkpt>
      <trkpt lat="43.71836" lon="6.08641">
        <ele>477.748563</ele>
        <time>2022-05-26T09:49:17.950Z</time>
      </trkpt>
      <trkpt lat="43.71854" lon="6.08645">
        <ele>478.021913</ele>
        <time>2022-05-26T09:50:08.945Z</time>
      </trkpt>
      <trkpt lat="43.71862" lon="6.08637">
        <ele>478.169649</ele>
        <time>2022-05-26T09:50:13.950Z</time>
      </trkpt>
      <trkpt lat="43.71866" lon="6.08626">
        <ele>478.307687</ele>
        <time>2022-05-26T09:50:20.943Z</time>
      </trkpt>
      <trkpt lat="43.71863" lon="6.08614">
        <ele>478.451695</ele>
        <time>2022-05-26T09:50:39.938Z</time>
      </trkpt>
      <trkpt lat="43.71862" lon="6.08597">
        <ele>478.633549</ele>
        <time>2022-05-26T09:50:44.944Z</time>
      </trkpt>
      <trkpt lat="43.71861" lon="6.08582">
        <ele>478.806353</ele>
        <time>2022-05-26T09:50:48.939Z</time>
      </trkpt>
      <trkpt lat="43.71862" lon="6.08566">
        <ele>478.97707</ele>
        <time>2022-05-26T09:50:51.944Z</time>
      </trkpt>
      <trkpt lat="43.71862" lon="6.0855">
        <ele>479.151818</ele>
        <time>2022-05-26T09:50:55.946Z</time>
      </trkpt>
      <trkpt lat="43.7186" lon="6.08536">
        <ele>479.322119</ele>
        <time>2022-05-26T09:50:59.946Z</time>
      </trkpt>
      <trkpt lat="43.7186" lon="6.0852">
        <ele>479.545479</ele>
        <time>2022-05-26T09:51:02.944Z</time>
      </trkpt>
      <trkpt lat="43.7186" lon="6.08506">
        <ele>479.732576</ele>
        <time>2022-05-26T09:51:04.943Z</time>
      </trkpt>
      <trkpt lat="43.7186" lon="6.08494">
        <ele>479.908465</ele>
        <time>2022-05-26T09:51:06.947Z</time>
      </trkpt>
      <trkpt lat="43.7186" lon="6.08472">
        <ele>480.21141</ele>
        <time>2022-05-26T09:51:09.937Z</time>
      </trkpt>
      <trkpt lat="43.7186" lon="6.08454">
        <ele>480.46992</ele>
        <time>2022-05-26T09:51:12.942Z</time>
      </trkpt>
      <trkpt lat="43.71859" lon="6.08435">
        <ele>480.732614</ele>
        <time>2022-05-26T09:51:15.941Z</time>
      </trkpt>
      <trkpt lat="43.71859" lon="6.0842">
        <ele>480.935109</ele>
        <time>2022-05-26T09:51:17.941Z</time>
      </trkpt>
      <trkpt lat="43.71859" lon="6.08407">
        <ele>481.11807</ele>
        <time>2022-05-26T09:51:19.944Z</time>
      </trkpt>
      <trkpt lat="43.71859" lon="6.08391">
        <ele>481.348604</ele>
        <time>2022-05-26T09:51:22.940Z</time>
      </trkpt>
      <trkpt lat="43.71858" lon="6.08372">
        <ele>481.60976</ele>
        <time>2022-05-26T09:51:25.947Z</time>
      </trkpt>
      <trkpt lat="43.71858" lon="6.08354">
        <ele>481.856851</ele>
        <time>2022-05-26T09:51:28.951Z</time>
      </trkpt>
      <trkpt lat="43.71858" lon="6.08338">
        <ele>482.088868</ele>
        <time>2022-05-26T09:51:31.947Z</time>
      </trkpt>
      <trkpt lat="43.71857" lon="6.08321">
        <ele>482.31949</ele>
        <time>2022-05-26T09:51:34.944Z</time>
      </trkpt>
      <trkpt lat="43.71856" lon="6.08304">
        <ele>482.561367</ele>
        <time>2022-05-26T09:51:37.946Z</time>
      </trkpt>
      <trkpt lat="43.71855" lon="6.08287">
        <ele>482.871764</ele>
        <time>2022-05-26T09:51:40.942Z</time>
      </trkpt>
      <trkpt lat="43.71856" lon="6.08272">
        <ele>483.593352</ele>
        <time>2022-05-26T09:51:44.944Z</time>
      </trkpt>
      <trkpt lat="43.71862" lon="6.08259">
        <ele>484.294522</ele>
        <time>2022-05-26T09:51:47.948Z</time>
      </trkpt>
      <trkpt lat="43.71862" lon="6.08246">
        <ele>484.938595</ele>
        <time>2022-05-26T09:51:51.944Z</time>
      </trkpt>
      <trkpt lat="43.71855" lon="6.08235">
        <ele>485.547399</ele>
        <time>2022-05-26T09:51:54.943Z</time>
      </trkpt>
      <trkpt lat="43.7185" lon="6.08222">
        <ele>486.2474</ele>
        <time>2022-05-26T09:51:58.941Z</time>
      </trkpt>
      <trkpt lat="43.7185" lon="6.08208">
        <ele>486.90433</ele>
        <time>2022-05-26T09:52:02.944Z</time>
      </trkpt>
      <trkpt lat="43.71852" lon="6.08192">
        <ele>487.677145</ele>
        <time>2022-05-26T09:52:06.942Z</time>
      </trkpt>
      <trkpt lat="43.7185" lon="6.08179">
        <ele>488.254996</ele>
        <time>2022-05-26T09:52:11.942Z</time>
      </trkpt>
      <trkpt lat="43.71846" lon="6.08166">
        <ele>488.934342</ele>
        <time>2022-05-26T09:52:25.941Z</time>
      </trkpt>
      <trkpt lat="43.71845" lon="6.08153">
        <ele>489.539039</ele>
        <time>2022-05-26T09:52:28.944Z</time>
      </trkpt>
      <trkpt lat="43.71844" lon="6.08139">
        <ele>490.216798</ele>
        <time>2022-05-26T09:52:31.943Z</time>
      </trkpt>
      <trkpt lat="43.71845" lon="6.08126">
        <ele>490.825456</ele>
        <time>2022-05-26T09:52:34.953Z</time>
      </trkpt>
      <trkpt lat="43.71843" lon="6.08111">
        <ele>491.507552</ele>
        <time>2022-05-26T09:52:37.941Z</time>
      </trkpt>
      <trkpt lat="43.71842" lon="6.08095">
        <ele>492.249228</ele>
        <time>2022-05-26T09:52:40.946Z</time>
      </trkpt>
      <trkpt lat="43.71843" lon="6.0808">
        <ele>492.935038</ele>
        <time>2022-05-26T09:52:43.944Z</time>
      </trkpt>
      <trkpt lat="43.71852" lon="6.08076">
        <ele>493.546358</ele>
        <time>2022-05-26T09:52:47.947Z</time>
      </trkpt>
      <trkpt lat="43.71858" lon="6.08085">
        <ele>494.141846</ele>
        <time>2022-05-26T09:52:50.945Z</time>
      </trkpt>
      <trkpt lat="43.71866" lon="6.08095">
        <ele>494.367103</ele>
        <time>2022-05-26T09:52:54.945Z</time>
      </trkpt>
      <trkpt lat="43.71875" lon="6.08101">
        <ele>494.482878</ele>
        <time>2022-05-26T09:52:58.945Z</time>
      </trkpt>
      <trkpt lat="43.71883" lon="6.08106">
        <ele>494.587585</ele>
        <time>2022-05-26T09:53:02.946Z</time>
      </trkpt>
      <trkpt lat="43.71892" lon="6.08111">
        <ele>494.691864</ele>
        <time>2022-05-26T09:53:06.942Z</time>
      </trkpt>
      <trkpt lat="43.71902" lon="6.0811">
        <ele>494.803312</ele>
        <time>2022-05-26T09:53:10.943Z</time>
      </trkpt>
      <trkpt lat="43.71913" lon="6.08107">
        <ele>494.936861</ele>
        <time>2022-05-26T09:53:14.944Z</time>
      </trkpt>
      <trkpt lat="43.71923" lon="6.08105">
        <ele>495.046431</ele>
        <time>2022-05-26T09:53:17.945Z</time>
      </trkpt>
      <trkpt lat="43.71934" lon="6.08105">
        <ele>495.174718</ele>
        <time>2022-05-26T09:53:20.941Z</time>
      </trkpt>
      <trkpt lat="43.71946" lon="6.08104">
        <ele>495.313145</ele>
        <time>2022-05-26T09:53:23.944Z</time>
      </trkpt>
      <trkpt lat="43.71955" lon="6.081">
        <ele>495.417717</ele>
        <time>2022-05-26T09:53:25.945Z</time>
      </trkpt>
      <trkpt lat="43.71964" lon="6.08098">
        <ele>495.520851</ele>
        <time>2022-05-26T09:53:27.946Z</time>
      </trkpt>
      <trkpt lat="43.71976" lon="6.08095">
        <ele>495.664213</ele>
        <time>2022-05-26T09:53:30.947Z</time>
      </trkpt>
      <trkpt lat="43.71986" lon="6.08095">
        <ele>495.768554</ele>
        <time>2022-05-26T09:53:32.944Z</time>
      </trkpt>
      <trkpt lat="43.71997" lon="6.08094">
        <ele>495.893636</ele>
        <time>2022-05-26T09:53:35.943Z</time>
      </trkpt>
      <trkpt lat="43.72008" lon="6.08094">
        <ele>496.021819</ele>
        <time>2022-05-26T09:53:38.946Z</time>
      </trkpt>
      <trkpt lat="43.72018" lon="6.08088">
        <ele>496.143694</ele>
        <time>2022-05-26T09:53:41.947Z</time>
      </trkpt>
      <trkpt lat="43.72026" lon="6.08081">
        <ele>496.256856</ele>
        <time>2022-05-26T09:53:44.946Z</time>
      </trkpt>
      <trkpt lat="43.72036" lon="6.08074">
        <ele>496.183457</ele>
        <time>2022-05-26T09:53:47.944Z</time>
      </trkpt>
      <trkpt lat="43.72045" lon="6.08065">
        <ele>495.934853</ele>
        <time>2022-05-26T09:53:50.943Z</time>
      </trkpt>
      <trkpt lat="43.72052" lon="6.08055">
        <ele>495.697084</ele>
        <time>2022-05-26T09:53:53.946Z</time>
      </trkpt>
      <trkpt lat="43.72061" lon="6.08044">
        <ele>495.432529</ele>
        <time>2022-05-26T09:53:57.944Z</time>
      </trkpt>
      <trkpt lat="43.72068" lon="6.08034">
        <ele>495.202552</ele>
        <time>2022-05-26T09:54:00.945Z</time>
      </trkpt>
      <trkpt lat="43.72076" lon="6.08026">
        <ele>494.978548</ele>
        <time>2022-05-26T09:54:03.946Z</time>
      </trkpt>
      <trkpt lat="43.72086" lon="6.08022">
        <ele>494.731002</ele>
        <time>2022-05-26T09:54:06.944Z</time>
      </trkpt>
      <trkpt lat="43.72096" lon="6.08021">
        <ele>494.503184</ele>
        <time>2022-05-26T09:54:09.944Z</time>
      </trkpt>
      <trkpt lat="43.72106" lon="6.08022">
        <ele>494.277643</ele>
        <time>2022-05-26T09:54:12.946Z</time>
      </trkpt>
      <trkpt lat="43.72116" lon="6.08024">
        <ele>494.05898</ele>
        <time>2022-05-26T09:54:16.941Z</time>
      </trkpt>
      <trkpt lat="43.72125" lon="6.08032">
        <ele>493.82333</ele>
        <time>2022-05-26T09:54:20.949Z</time>
      </trkpt>
      <trkpt lat="43.72131" lon="6.08041">
        <ele>493.596934</ele>
        <time>2022-05-26T09:54:24.944Z</time>
      </trkpt>
      <trkpt lat="43.72141" lon="6.08051">
        <ele>493.331892</ele>
        <time>2022-05-26T09:54:28.944Z</time>
      </trkpt>
      <trkpt lat="43.72151" lon="6.08059">
        <ele>493.071505</ele>
        <time>2022-05-26T09:54:31.942Z</time>
      </trkpt>
      <trkpt lat="43.72158" lon="6.08069">
        <ele>492.840985</ele>
        <time>2022-05-26T09:54:34.941Z</time>
      </trkpt>
      <trkpt lat="43.72166" lon="6.0808">
        <ele>492.58036</ele>
        <time>2022-05-26T09:54:37.943Z</time>
      </trkpt>
      <trkpt lat="43.72176" lon="6.08088">
        <ele>492.328139</ele>
        <time>2022-05-26T09:54:40.943Z</time>
      </trkpt>
      <trkpt lat="43.72185" lon="6.08091">
        <ele>492.26308</ele>
        <time>2022-05-26T09:54:43.945Z</time>
      </trkpt>
      <trkpt lat="43.72196" lon="6.0809">
        <ele>492.366964</ele>
        <time>2022-05-26T09:54:46.947Z</time>
      </trkpt>
      <trkpt lat="43.72207" lon="6.08082">
        <ele>492.479862</ele>
        <time>2022-05-26T09:54:49.946Z</time>
      </trkpt>
      <trkpt lat="43.72215" lon="6.0807">
        <ele>492.588356</ele>
        <time>2022-05-26T09:54:52.944Z</time>
      </trkpt>
      <trkpt lat="43.72222" lon="6.08058">
        <ele>492.689348</ele>
        <time>2022-05-26T09:54:55.948Z</time>
      </trkpt>
      <trkpt lat="43.72229" lon="6.08046">
        <ele>492.790858</ele>
        <time>2022-05-26T09:54:58.950Z</time>
      </trkpt>
      <trkpt lat="43.72235" lon="6.08035">
        <ele>492.882057</ele>
        <time>2022-05-26T09:55:01.943Z</time>
      </trkpt>
      <trkpt lat="43.7224" lon="6.08025">
        <ele>492.966835</ele>
        <time>2022-05-26T09:55:04.944Z</time>
      </trkpt>
      <trkpt lat="43.72246" lon="6.08013">
        <ele>493.062505</ele>
        <time>2022-05-26T09:55:08.941Z</time>
      </trkpt>
      <trkpt lat="43.72251" lon="6.08">
        <ele>493.162461</ele>
        <time>2022-05-26T09:55:11.941Z</time>
      </trkpt>
      <trkpt lat="43.72258" lon="6.07985">
        <ele>493.277122</ele>
        <time>2022-05-26T09:55:14.944Z</time>
      </trkpt>
      <trkpt lat="43.72264" lon="6.07973">
        <ele>493.375806</ele>
        <time>2022-05-26T09:55:17.942Z</time>
      </trkpt>
      <trkpt lat="43.72272" lon="6.07961">
        <ele>493.487397</ele>
        <time>2022-05-26T09:55:20.937Z</time>
      </trkpt>
      <trkpt lat="43.72278" lon="6.07948">
        <ele>493.588855</ele>
        <time>2022-05-26T09:55:22.946Z</time>
      </trkpt>
      <trkpt lat="43.72285" lon="6.07938">
        <ele>493.678837</ele>
        <time>2022-05-26T09:55:24.943Z</time>
      </trkpt>
      <trkpt lat="43.7229" lon="6.07925">
        <ele>493.775211</ele>
        <time>2022-05-26T09:55:26.945Z</time>
      </trkpt>
      <trkpt lat="43.72296" lon="6.07909">
        <ele>493.953914</ele>
        <time>2022-05-26T09:55:29.946Z</time>
      </trkpt>
      <trkpt lat="43.72296" lon="6.07895">
        <ele>494.274689</ele>
        <time>2022-05-26T09:55:31.948Z</time>
      </trkpt>
      <trkpt lat="43.72298" lon="6.0788">
        <ele>494.643252</ele>
        <time>2022-05-26T09:55:33.945Z</time>
      </trkpt>
      <trkpt lat="43.72301" lon="6.07866">
        <ele>495.001901</ele>
        <time>2022-05-26T09:55:35.946Z</time>
      </trkpt>
      <trkpt lat="43.72307" lon="6.07854">
        <ele>495.323962</ele>
        <time>2022-05-26T09:55:37.945Z</time>
      </trkpt>
      <trkpt lat="43.72314" lon="6.07843">
        <ele>495.683797</ele>
        <time>2022-05-26T09:55:40.940Z</time>
      </trkpt>
      <trkpt lat="43.7232" lon="6.07833">
        <ele>495.988211</ele>
        <time>2022-05-26T09:55:43.944Z</time>
      </trkpt>
      <trkpt lat="43.72325" lon="6.07822">
        <ele>496.300753</ele>
        <time>2022-05-26T09:55:46.946Z</time>
      </trkpt>
      <trkpt lat="43.72331" lon="6.07811">
        <ele>496.622447</ele>
        <time>2022-05-26T09:55:49.945Z</time>
      </trkpt>
      <trkpt lat="43.72337" lon="6.07802">
        <ele>496.921095</ele>
        <time>2022-05-26T09:55:52.942Z</time>
      </trkpt>
      <trkpt lat="43.72342" lon="6.07788">
        <ele>497.279737</ele>
        <time>2022-05-26T09:55:55.944Z</time>
      </trkpt>
      <trkpt lat="43.72347" lon="6.07776">
        <ele>497.609885</ele>
        <time>2022-05-26T09:55:58.944Z</time>
      </trkpt>
      <trkpt lat="43.72352" lon="6.07765">
        <ele>497.929401</ele>
        <time>2022-05-26T09:56:01.943Z</time>
      </trkpt>
      <trkpt lat="43.72359" lon="6.07757">
        <ele>498.22722</ele>
        <time>2022-05-26T09:56:04.943Z</time>
      </trkpt>
      <trkpt lat="43.72364" lon="6.07742">
        <ele>498.612346</ele>
        <time>2022-05-26T09:56:07.945Z</time>
      </trkpt>
      <trkpt lat="43.72368" lon="6.07731">
        <ele>498.909805</ele>
        <time>2022-05-26T09:56:10.940Z</time>
      </trkpt>
      <trkpt lat="43.72373" lon="6.07717">
        <ele>499.276125</ele>
        <time>2022-05-26T09:56:14.942Z</time>
      </trkpt>
      <trkpt lat="43.72379" lon="6.07703">
        <ele>499.653076</ele>
        <time>2022-05-26T09:56:18.944Z</time>
      </trkpt>
      <trkpt lat="43.72382" lon="6.07689">
        <ele>499.991674</ele>
        <time>2022-05-26T09:56:22.947Z</time>
      </trkpt>
      <trkpt lat="43.72386" lon="6.07678">
        <ele>500.283579</ele>
        <time>2022-05-26T09:56:25.944Z</time>
      </trkpt>
      <trkpt lat="43.7239" lon="6.07663">
        <ele>500.63579</ele>
        <time>2022-05-26T09:56:29.951Z</time>
      </trkpt>
      <trkpt lat="43.72394" lon="6.0765">
        <ele>500.968609</ele>
        <time>2022-05-26T09:56:34.940Z</time>
      </trkpt>
      <trkpt lat="43.72398" lon="6.07635">
        <ele>501.321802</ele>
        <time>2022-05-26T09:56:39.948Z</time>
      </trkpt>
      <trkpt lat="43.724" lon="6.0762">
        <ele>501.665462</ele>
        <time>2022-05-26T09:56:43.949Z</time>
      </trkpt>
      <trkpt lat="43.72405" lon="6.07607">
        <ele>501.9969</ele>
        <time>2022-05-26T09:56:47.952Z</time>
      </trkpt>
      <trkpt lat="43.72409" lon="6.07595">
        <ele>502.299695</ele>
        <time>2022-05-26T09:56:51.950Z</time>
      </trkpt>
      <trkpt lat="43.72413" lon="6.07582">
        <ele>502.62977</ele>
        <time>2022-05-26T09:56:55.951Z</time>
      </trkpt>
      <trkpt lat="43.72417" lon="6.07567">
        <ele>502.983173</ele>
        <time>2022-05-26T09:56:59.951Z</time>
      </trkpt>
      <trkpt lat="43.72423" lon="6.07554">
        <ele>503.349361</ele>
        <time>2022-05-26T09:57:03.952Z</time>
      </trkpt>
      <trkpt lat="43.72427" lon="6.07541">
        <ele>503.663058</ele>
        <time>2022-05-26T09:57:07.951Z</time>
      </trkpt>
      <trkpt lat="43.72433" lon="6.07528">
        <ele>504.00356</ele>
        <time>2022-05-26T09:57:11.947Z</time>
      </trkpt>
      <trkpt lat="43.72435" lon="6.07513">
        <ele>504.363509</ele>
        <time>2022-05-26T09:57:15.950Z</time>
      </trkpt>
      <trkpt lat="43.72437" lon="6.075">
        <ele>504.658109</ele>
        <time>2022-05-26T09:57:18.951Z</time>
      </trkpt>
      <trkpt lat="43.72438" lon="6.07485">
        <ele>504.999278</ele>
        <time>2022-05-26T09:57:22.950Z</time>
      </trkpt>
      <trkpt lat="43.72439" lon="6.0747">
        <ele>505.353139</ele>
        <time>2022-05-26T09:57:26.946Z</time>
      </trkpt>
      <trkpt lat="43.7244" lon="6.07454">
        <ele>505.77025</ele>
        <time>2022-05-26T09:57:30.948Z</time>
      </trkpt>
      <trkpt lat="43.72441" lon="6.07438">
        <ele>506.215644</ele>
        <time>2022-05-26T09:57:34.945Z</time>
      </trkpt>
      <trkpt lat="43.72443" lon="6.07423">
        <ele>506.647949</ele>
        <time>2022-05-26T09:57:38.942Z</time>
      </trkpt>
      <trkpt lat="43.72446" lon="6.07408">
        <ele>507.083604</ele>
        <time>2022-05-26T09:57:42.944Z</time>
      </trkpt>
      <trkpt lat="43.7245" lon="6.07393">
        <ele>507.503242</ele>
        <time>2022-05-26T09:57:46.946Z</time>
      </trkpt>
      <trkpt lat="43.72454" lon="6.07379">
        <ele>507.924425</ele>
        <time>2022-05-26T09:57:50.939Z</time>
      </trkpt>
      <trkpt lat="43.72456" lon="6.07367">
        <ele>508.273804</ele>
        <time>2022-05-26T09:57:53.949Z</time>
      </trkpt>
      <trkpt lat="43.7246" lon="6.07355">
        <ele>508.628348</ele>
        <time>2022-05-26T09:57:56.939Z</time>
      </trkpt>
      <trkpt lat="43.72464" lon="6.07342">
        <ele>509.021144</ele>
        <time>2022-05-26T09:58:00.945Z</time>
      </trkpt>
      <trkpt lat="43.72468" lon="6.07327">
        <ele>509.466821</ele>
        <time>2022-05-26T09:58:04.947Z</time>
      </trkpt>
      <trkpt lat="43.72471" lon="6.07312">
        <ele>509.891753</ele>
        <time>2022-05-26T09:58:08.948Z</time>
      </trkpt>
      <trkpt lat="43.72476" lon="6.073">
        <ele>510.286223</ele>
        <time>2022-05-26T09:58:12.945Z</time>
      </trkpt>
      <trkpt lat="43.7248" lon="6.07287">
        <ele>510.685905</ele>
        <time>2022-05-26T09:58:16.942Z</time>
      </trkpt>
      <trkpt lat="43.72486" lon="6.07274">
        <ele>511.091858</ele>
        <time>2022-05-26T09:58:20.948Z</time>
      </trkpt>
      <trkpt lat="43.72488" lon="6.07261">
        <ele>511.474184</ele>
        <time>2022-05-26T09:58:24.944Z</time>
      </trkpt>
      <trkpt lat="43.72495" lon="6.07248">
        <ele>511.926031</ele>
        <time>2022-05-26T09:58:28.945Z</time>
      </trkpt>
      <trkpt lat="43.72502" lon="6.07238">
        <ele>512.295872</ele>
        <time>2022-05-26T09:58:32.942Z</time>
      </trkpt>
      <trkpt lat="43.72509" lon="6.07229">
        <ele>512.782916</ele>
        <time>2022-05-26T09:58:36.946Z</time>
      </trkpt>
      <trkpt lat="43.72516" lon="6.0722">
        <ele>513.257952</ele>
        <time>2022-05-26T09:58:40.951Z</time>
      </trkpt>
      <trkpt lat="43.72523" lon="6.07211">
        <ele>513.766526</ele>
        <time>2022-05-26T09:58:44.952Z</time>
      </trkpt>
      <trkpt lat="43.7253" lon="6.07202">
        <ele>514.237963</ele>
        <time>2022-05-26T09:58:48.936Z</time>
      </trkpt>
      <trkpt lat="43.72536" lon="6.07191">
        <ele>514.759102</ele>
        <time>2022-05-26T09:58:52.949Z</time>
      </trkpt>
      <trkpt lat="43.72544" lon="6.0718">
        <ele>515.310143</ele>
        <time>2022-05-26T09:58:57.949Z</time>
      </trkpt>
      <trkpt lat="43.72551" lon="6.07169">
        <ele>515.849617</ele>
        <time>2022-05-26T09:59:02.944Z</time>
      </trkpt>
      <trkpt lat="43.72557" lon="6.07158">
        <ele>516.372824</ele>
        <time>2022-05-26T09:59:07.949Z</time>
      </trkpt>
      <trkpt lat="43.72561" lon="6.07145">
        <ele>516.891447</ele>
        <time>2022-05-26T09:59:11.950Z</time>
      </trkpt>
      <trkpt lat="43.72565" lon="6.07132">
        <ele>517.399146</ele>
        <time>2022-05-26T09:59:15.949Z</time>
      </trkpt>
      <trkpt lat="43.72567" lon="6.07119">
        <ele>517.900661</ele>
        <time>2022-05-26T09:59:20.945Z</time>
      </trkpt>
      <trkpt lat="43.7257" lon="6.07104">
        <ele>518.485437</ele>
        <time>2022-05-26T09:59:25.948Z</time>
      </trkpt>
      <trkpt lat="43.72574" lon="6.07089">
        <ele>519.057295</ele>
        <time>2022-05-26T09:59:29.954Z</time>
      </trkpt>
      <trkpt lat="43.72577" lon="6.07077">
        <ele>519.547713</ele>
        <time>2022-05-26T09:59:33.948Z</time>
      </trkpt>
      <trkpt lat="43.72582" lon="6.07065">
        <ele>520.019185</ele>
        <time>2022-05-26T09:59:37.951Z</time>
      </trkpt>
      <trkpt lat="43.72586" lon="6.07052">
        <ele>520.562767</ele>
        <time>2022-05-26T09:59:42.942Z</time>
      </trkpt>
      <trkpt lat="43.72588" lon="6.07038">
        <ele>521.088582</ele>
        <time>2022-05-26T09:59:48.941Z</time>
      </trkpt>
      <trkpt lat="43.72593" lon="6.07026">
        <ele>521.538788</ele>
        <time>2022-05-26T09:59:54.944Z</time>
      </trkpt>
      <trkpt lat="43.72596" lon="6.07013">
        <ele>521.701159</ele>
        <time>2022-05-26T09:59:59.948Z</time>
      </trkpt>
      <trkpt lat="43.72596" lon="6.07001">
        <ele>521.846902</ele>
        <time>2022-05-26T10:00:17.948Z</time>
      </trkpt>
      <trkpt lat="43.72589" lon="6.06989">
        <ele>522.026293</ele>
        <time>2022-05-26T10:00:31.946Z</time>
      </trkpt>
      <trkpt lat="43.72581" lon="6.06978">
        <ele>522.201044</ele>
        <time>2022-05-26T10:00:35.956Z</time>
      </trkpt>
      <trkpt lat="43.72573" lon="6.06967">
        <ele>522.382185</ele>
        <time>2022-05-26T10:00:38.943Z</time>
      </trkpt>
      <trkpt lat="43.72564" lon="6.06958">
        <ele>522.570005</ele>
        <time>2022-05-26T10:00:41.941Z</time>
      </trkpt>
      <trkpt lat="43.72555" lon="6.0695">
        <ele>522.743708</ele>
        <time>2022-05-26T10:00:44.946Z</time>
      </trkpt>
      <trkpt lat="43.72547" lon="6.06937">
        <ele>522.936054</ele>
        <time>2022-05-26T10:00:47.946Z</time>
      </trkpt>
      <trkpt lat="43.72539" lon="6.06924">
        <ele>523.136714</ele>
        <time>2022-05-26T10:00:50.947Z</time>
      </trkpt>
      <trkpt lat="43.72532" lon="6.06914">
        <ele>523.304443</ele>
        <time>2022-05-26T10:00:53.944Z</time>
      </trkpt>
      <trkpt lat="43.72526" lon="6.06901">
        <ele>523.489209</ele>
        <time>2022-05-26T10:00:57.957Z</time>
      </trkpt>
      <trkpt lat="43.72521" lon="6.0689">
        <ele>523.641795</ele>
        <time>2022-05-26T10:01:01.956Z</time>
      </trkpt>
      <trkpt lat="43.72515" lon="6.06877">
        <ele>523.814212</ele>
        <time>2022-05-26T10:01:06.942Z</time>
      </trkpt>
      <trkpt lat="43.7251" lon="6.06867">
        <ele>523.965699</ele>
        <time>2022-05-26T10:01:10.947Z</time>
      </trkpt>
      <trkpt lat="43.72516" lon="6.06879">
        <ele>524.140123</ele>
        <time>2022-05-26T10:01:25.949Z</time>
      </trkpt>
      <trkpt lat="43.72519" lon="6.06894">
        <ele>524.322184</ele>
        <time>2022-05-26T10:01:30.952Z</time>
      </trkpt>
      <trkpt lat="43.72525" lon="6.06904">
        <ele>524.432707</ele>
        <time>2022-05-26T10:02:10.945Z</time>
      </trkpt>
      <trkpt lat="43.72532" lon="6.06915">
        <ele>524.413839</ele>
        <time>2022-05-26T10:02:25.947Z</time>
      </trkpt>
      <trkpt lat="43.72539" lon="6.06927">
        <ele>524.393867</ele>
        <time>2022-05-26T10:02:30.944Z</time>
      </trkpt>
      <trkpt lat="43.72544" lon="6.06937">
        <ele>524.377677</ele>
        <time>2022-05-26T10:02:34.943Z</time>
      </trkpt>
      <trkpt lat="43.72552" lon="6.06949">
        <ele>524.357614</ele>
        <time>2022-05-26T10:02:38.943Z</time>
      </trkpt>
      <trkpt lat="43.7256" lon="6.0696">
        <ele>524.337651</ele>
        <time>2022-05-26T10:02:42.955Z</time>
      </trkpt>
      <trkpt lat="43.72567" lon="6.06969">
        <ele>524.319566</ele>
        <time>2022-05-26T10:02:46.947Z</time>
      </trkpt>
      <trkpt lat="43.72575" lon="6.06979">
        <ele>524.299912</ele>
        <time>2022-05-26T10:02:50.943Z</time>
      </trkpt>
      <trkpt lat="43.72584" lon="6.0699">
        <ele>524.278767</ele>
        <time>2022-05-26T10:02:54.942Z</time>
      </trkpt>
      <trkpt lat="43.72591" lon="6.06999">
        <ele>524.262057</ele>
        <time>2022-05-26T10:02:57.953Z</time>
      </trkpt>
      <trkpt lat="43.72599" lon="6.07006">
        <ele>524.243757</ele>
        <time>2022-05-26T10:03:02.947Z</time>
      </trkpt>
      <trkpt lat="43.72607" lon="6.07014">
        <ele>524.226988</ele>
        <time>2022-05-26T10:03:38.940Z</time>
      </trkpt>
      <trkpt lat="43.72615" lon="6.07023">
        <ele>524.207907</ele>
        <time>2022-05-26T10:03:44.941Z</time>
      </trkpt>
      <trkpt lat="43.72623" lon="6.07032">
        <ele>524.189367</ele>
        <time>2022-05-26T10:03:47.949Z</time>
      </trkpt>
      <trkpt lat="43.72633" lon="6.0704">
        <ele>524.169458</ele>
        <time>2022-05-26T10:03:50.948Z</time>
      </trkpt>
      <trkpt lat="43.72643" lon="6.07044">
        <ele>524.149984</ele>
        <time>2022-05-26T10:03:53.958Z</time>
      </trkpt>
      <trkpt lat="43.72656" lon="6.07045">
        <ele>524.127091</ele>
        <time>2022-05-26T10:03:56.944Z</time>
      </trkpt>
      <trkpt lat="43.72668" lon="6.07048">
        <ele>524.231325</ele>
        <time>2022-05-26T10:03:59.946Z</time>
      </trkpt>
      <trkpt lat="43.7268" lon="6.07051">
        <ele>524.513677</ele>
        <time>2022-05-26T10:04:02.945Z</time>
      </trkpt>
      <trkpt lat="43.72691" lon="6.07054">
        <ele>524.782006</ele>
        <time>2022-05-26T10:04:06.943Z</time>
      </trkpt>
      <trkpt lat="43.727" lon="6.07057">
        <ele>525.018561</ele>
        <time>2022-05-26T10:04:09.951Z</time>
      </trkpt>
      <trkpt lat="43.72713" lon="6.0706">
        <ele>525.317014</ele>
        <time>2022-05-26T10:04:12.945Z</time>
      </trkpt>
      <trkpt lat="43.72724" lon="6.07064">
        <ele>525.603903</ele>
        <time>2022-05-26T10:04:16.945Z</time>
      </trkpt>
      <trkpt lat="43.72734" lon="6.07067">
        <ele>525.849465</ele>
        <time>2022-05-26T10:04:19.947Z</time>
      </trkpt>
      <trkpt lat="43.72744" lon="6.0707">
        <ele>526.082076</ele>
        <time>2022-05-26T10:04:22.945Z</time>
      </trkpt>
      <trkpt lat="43.72755" lon="6.07074">
        <ele>526.353611</ele>
        <time>2022-05-26T10:04:25.949Z</time>
      </trkpt>
      <trkpt lat="43.72765" lon="6.07078">
        <ele>526.611755</ele>
        <time>2022-05-26T10:04:28.948Z</time>
      </trkpt>
      <trkpt lat="43.72775" lon="6.07082">
        <ele>526.846436</ele>
        <time>2022-05-26T10:04:31.947Z</time>
      </trkpt>
      <trkpt lat="43.72784" lon="6.07085">
        <ele>527.088045</ele>
        <time>2022-05-26T10:04:34.944Z</time>
      </trkpt>
      <trkpt lat="43.72793" lon="6.07089">
        <ele>527.311686</ele>
        <time>2022-05-26T10:04:37.946Z</time>
      </trkpt>
      <trkpt lat="43.72802" lon="6.07093">
        <ele>527.540125</ele>
        <time>2022-05-26T10:04:40.946Z</time>
      </trkpt>
      <trkpt lat="43.72812" lon="6.07097">
        <ele>527.785378</ele>
        <time>2022-05-26T10:04:43.944Z</time>
      </trkpt>
      <trkpt lat="43.72822" lon="6.07102">
        <ele>528.040393</ele>
        <time>2022-05-26T10:04:46.942Z</time>
      </trkpt>
      <trkpt lat="43.72832" lon="6.07107">
        <ele>528.286341</ele>
        <time>2022-05-26T10:04:49.962Z</time>
      </trkpt>
      <trkpt lat="43.72842" lon="6.0711">
        <ele>528.250625</ele>
        <time>2022-05-26T10:04:52.940Z</time>
      </trkpt>
      <trkpt lat="43.72851" lon="6.07113">
        <ele>527.915257</ele>
        <time>2022-05-26T10:04:55.945Z</time>
      </trkpt>
      <trkpt lat="43.7286" lon="6.07116">
        <ele>527.605323</ele>
        <time>2022-05-26T10:04:58.954Z</time>
      </trkpt>
      <trkpt lat="43.72869" lon="6.07119">
        <ele>527.29519</ele>
        <time>2022-05-26T10:05:01.949Z</time>
      </trkpt>
      <trkpt lat="43.7288" lon="6.07123">
        <ele>526.880387</ele>
        <time>2022-05-26T10:05:05.958Z</time>
      </trkpt>
      <trkpt lat="43.7289" lon="6.07126">
        <ele>526.546659</ele>
        <time>2022-05-26T10:05:08.949Z</time>
      </trkpt>
      <trkpt lat="43.729" lon="6.0713">
        <ele>526.17725</ele>
        <time>2022-05-26T10:05:11.959Z</time>
      </trkpt>
      <trkpt lat="43.72914" lon="6.07136">
        <ele>525.672946</ele>
        <time>2022-05-26T10:05:14.941Z</time>
      </trkpt>
      <trkpt lat="43.72926" lon="6.07143">
        <ele>525.229319</ele>
        <time>2022-05-26T10:05:17.947Z</time>
      </trkpt>
      <trkpt lat="43.72933" lon="6.07152">
        <ele>524.914023</ele>
        <time>2022-05-26T10:05:22.952Z</time>
      </trkpt>
      <trkpt lat="43.72925" lon="6.07161">
        <ele>524.582728</ele>
        <time>2022-05-26T10:05:27.937Z</time>
      </trkpt>
      <trkpt lat="43.72915" lon="6.07165">
        <ele>524.223722</ele>
        <time>2022-05-26T10:05:44.940Z</time>
      </trkpt>
      <trkpt lat="43.72906" lon="6.07172">
        <ele>523.874909</ele>
        <time>2022-05-26T10:05:48.951Z</time>
      </trkpt>
      <trkpt lat="43.72899" lon="6.07181">
        <ele>523.529889</ele>
        <time>2022-05-26T10:05:52.943Z</time>
      </trkpt>
      <trkpt lat="43.72892" lon="6.07192">
        <ele>523.170471</ele>
        <time>2022-05-26T10:05:56.952Z</time>
      </trkpt>
      <trkpt lat="43.72879" lon="6.07217">
        <ele>522.414884</ele>
        <time>2022-05-26T10:06:38.947Z</time>
      </trkpt>
      <trkpt lat="43.72872" lon="6.07227">
        <ele>521.906111</ele>
        <time>2022-05-26T10:06:41.949Z</time>
      </trkpt>
      <trkpt lat="43.72861" lon="6.07236">
        <ele>521.112534</ele>
        <time>2022-05-26T10:06:44.959Z</time>
      </trkpt>
      <trkpt lat="43.72854" lon="6.07249">
        <ele>520.312971</ele>
        <time>2022-05-26T10:06:47.951Z</time>
      </trkpt>
      <trkpt lat="43.72849" lon="6.0726">
        <ele>519.72508</ele>
        <time>2022-05-26T10:06:49.949Z</time>
      </trkpt>
      <trkpt lat="43.72846" lon="6.07273">
        <ele>519.080876</ele>
        <time>2022-05-26T10:06:51.947Z</time>
      </trkpt>
      <trkpt lat="43.72844" lon="6.07289">
        <ele>518.31093</ele>
        <time>2022-05-26T10:06:53.950Z</time>
      </trkpt>
      <trkpt lat="43.72844" lon="6.07304">
        <ele>517.623408</ele>
        <time>2022-05-26T10:06:55.959Z</time>
      </trkpt>
      <trkpt lat="43.72844" lon="6.07317">
        <ele>516.992228</ele>
        <time>2022-05-26T10:06:57.945Z</time>
      </trkpt>
      <trkpt lat="43.72843" lon="6.07333">
        <ele>516.267511</ele>
        <time>2022-05-26T10:06:59.954Z</time>
      </trkpt>
      <trkpt lat="43.72837" lon="6.07348">
        <ele>515.45313</ele>
        <time>2022-05-26T10:07:01.952Z</time>
      </trkpt>
      <trkpt lat="43.7283" lon="6.07366">
        <ele>514.513945</ele>
        <time>2022-05-26T10:07:03.949Z</time>
      </trkpt>
      <trkpt lat="43.72822" lon="6.07382">
        <ele>513.600699</ele>
        <time>2022-05-26T10:07:05.958Z</time>
      </trkpt>
      <trkpt lat="43.72818" lon="6.07398">
        <ele>512.81725</ele>
        <time>2022-05-26T10:07:07.951Z</time>
      </trkpt>
      <trkpt lat="43.72819" lon="6.07417">
        <ele>511.897632</ele>
        <time>2022-05-26T10:07:09.949Z</time>
      </trkpt>
      <trkpt lat="43.72823" lon="6.07436">
        <ele>510.96411</ele>
        <time>2022-05-26T10:07:11.950Z</time>
      </trkpt>
      <trkpt lat="43.72829" lon="6.07456">
        <ele>510.151634</ele>
        <time>2022-05-26T10:07:13.951Z</time>
      </trkpt>
      <trkpt lat="43.72833" lon="6.07478">
        <ele>509.434781</ele>
        <time>2022-05-26T10:07:15.955Z</time>
      </trkpt>
      <trkpt lat="43.72836" lon="6.07499">
        <ele>508.715656</ele>
        <time>2022-05-26T10:07:17.948Z</time>
      </trkpt>
      <trkpt lat="43.72839" lon="6.07523">
        <ele>507.94334</ele>
        <time>2022-05-26T10:07:19.956Z</time>
      </trkpt>
      <trkpt lat="43.72839" lon="6.07535">
        <ele>507.539867</ele>
        <time>2022-05-26T10:07:20.955Z</time>
      </trkpt>
      <trkpt lat="43.72847" lon="6.07554">
        <ele>506.85486</ele>
        <time>2022-05-26T10:07:22.945Z</time>
      </trkpt>
      <trkpt lat="43.72851" lon="6.07575">
        <ele>506.144836</ele>
        <time>2022-05-26T10:07:24.947Z</time>
      </trkpt>
      <trkpt lat="43.72858" lon="6.07596">
        <ele>505.375029</ele>
        <time>2022-05-26T10:07:26.946Z</time>
      </trkpt>
      <trkpt lat="43.72867" lon="6.07616">
        <ele>504.600293</ele>
        <time>2022-05-26T10:07:28.945Z</time>
      </trkpt>
      <trkpt lat="43.72877" lon="6.07627">
        <ele>504.028754</ele>
        <time>2022-05-26T10:07:30.953Z</time>
      </trkpt>
      <trkpt lat="43.72886" lon="6.07639">
        <ele>503.47666</ele>
        <time>2022-05-26T10:07:32.948Z</time>
      </trkpt>
      <trkpt lat="43.72889" lon="6.07654">
        <ele>502.994118</ele>
        <time>2022-05-26T10:07:34.948Z</time>
      </trkpt>
      <trkpt lat="43.72888" lon="6.07667">
        <ele>502.539719</ele>
        <time>2022-05-26T10:07:36.943Z</time>
      </trkpt>
      <trkpt lat="43.72889" lon="6.07682">
        <ele>502.173431</ele>
        <time>2022-05-26T10:07:38.950Z</time>
      </trkpt>
      <trkpt lat="43.72892" lon="6.07694">
        <ele>501.875574</ele>
        <time>2022-05-26T10:07:40.955Z</time>
      </trkpt>
      <trkpt lat="43.72899" lon="6.07706">
        <ele>501.489775</ele>
        <time>2022-05-26T10:07:42.945Z</time>
      </trkpt>
      <trkpt lat="43.7291" lon="6.07716">
        <ele>501.069612</ele>
        <time>2022-05-26T10:07:44.948Z</time>
      </trkpt>
      <trkpt lat="43.72924" lon="6.07727">
        <ele>500.536153</ele>
        <time>2022-05-26T10:07:46.945Z</time>
      </trkpt>
      <trkpt lat="43.72935" lon="6.07738">
        <ele>500.077599</ele>
        <time>2022-05-26T10:07:48.942Z</time>
      </trkpt>
      <trkpt lat="43.72941" lon="6.07754">
        <ele>499.647</ele>
        <time>2022-05-26T10:07:50.946Z</time>
      </trkpt>
      <trkpt lat="43.72943" lon="6.0777">
        <ele>499.275649</ele>
        <time>2022-05-26T10:07:52.951Z</time>
      </trkpt>
      <trkpt lat="43.72946" lon="6.07786">
        <ele>498.863406</ele>
        <time>2022-05-26T10:07:54.947Z</time>
      </trkpt>
      <trkpt lat="43.72948" lon="6.07801">
        <ele>498.505431</ele>
        <time>2022-05-26T10:07:56.945Z</time>
      </trkpt>
      <trkpt lat="43.72949" lon="6.07816">
        <ele>498.141277</ele>
        <time>2022-05-26T10:07:58.944Z</time>
      </trkpt>
      <trkpt lat="43.72951" lon="6.07831">
        <ele>497.779144</ele>
        <time>2022-05-26T10:08:00.946Z</time>
      </trkpt>
      <trkpt lat="43.72948" lon="6.07847">
        <ele>497.383379</ele>
        <time>2022-05-26T10:08:03.958Z</time>
      </trkpt>
      <trkpt lat="43.72954" lon="6.0786">
        <ele>497.036325</ele>
        <time>2022-05-26T10:08:49.947Z</time>
      </trkpt>
      <trkpt lat="43.72962" lon="6.07866">
        <ele>496.715972</ele>
        <time>2022-05-26T10:09:13.943Z</time>
      </trkpt>
      <trkpt lat="43.72971" lon="6.07868">
        <ele>496.24209</ele>
        <time>2022-05-26T10:09:25.952Z</time>
      </trkpt>
      <trkpt lat="43.72979" lon="6.07878">
        <ele>495.440633</ele>
        <time>2022-05-26T10:09:42.942Z</time>
      </trkpt>
      <trkpt lat="43.72987" lon="6.07888">
        <ele>494.622995</ele>
        <time>2022-05-26T10:09:46.945Z</time>
      </trkpt>
      <trkpt lat="43.72997" lon="6.07891">
        <ele>493.821115</ele>
        <time>2022-05-26T10:09:51.952Z</time>
      </trkpt>
      <trkpt lat="43.73007" lon="6.07889">
        <ele>493.019378</ele>
        <time>2022-05-26T10:09:54.947Z</time>
      </trkpt>
      <trkpt lat="43.73015" lon="6.07881">
        <ele>492.278373</ele>
        <time>2022-05-26T10:09:56.944Z</time>
      </trkpt>
      <trkpt lat="43.73021" lon="6.07871">
        <ele>491.565546</ele>
        <time>2022-05-26T10:09:59.958Z</time>
      </trkpt>
      <trkpt lat="43.73032" lon="6.0787">
        <ele>490.671153</ele>
        <time>2022-05-26T10:10:02.954Z</time>
      </trkpt>
      <trkpt lat="43.73042" lon="6.07876">
        <ele>489.850676</ele>
        <time>2022-05-26T10:10:04.950Z</time>
      </trkpt>
      <trkpt lat="43.73051" lon="6.07883">
        <ele>489.063436</ele>
        <time>2022-05-26T10:10:06.946Z</time>
      </trkpt>
      <trkpt lat="43.73058" lon="6.07891">
        <ele>488.370253</ele>
        <time>2022-05-26T10:10:08.948Z</time>
      </trkpt>
      <trkpt lat="43.73061" lon="6.07904">
        <ele>487.603496</ele>
        <time>2022-05-26T10:10:10.940Z</time>
      </trkpt>
      <trkpt lat="43.7307" lon="6.0792">
        <ele>486.49813</ele>
        <time>2022-05-26T10:10:13.950Z</time>
      </trkpt>
      <trkpt lat="43.73078" lon="6.07928">
        <ele>485.725293</ele>
        <time>2022-05-26T10:10:15.950Z</time>
      </trkpt>
      <trkpt lat="43.73086" lon="6.07935">
        <ele>485.012773</ele>
        <time>2022-05-26T10:10:24.949Z</time>
      </trkpt>
      <trkpt lat="43.73077" lon="6.07928">
        <ele>484.244454</ele>
        <time>2022-05-26T10:11:28.939Z</time>
      </trkpt>
      <trkpt lat="43.73072" lon="6.07919">
        <ele>483.554238</ele>
        <time>2022-05-26T10:12:02.942Z</time>
      </trkpt>
      <trkpt lat="43.73075" lon="6.07907">
        <ele>482.83637</ele>
        <time>2022-05-26T10:12:27.943Z</time>
      </trkpt>
      <trkpt lat="43.7307" lon="6.07917">
        <ele>482.917227</ele>
        <time>2022-05-26T10:13:41.945Z</time>
      </trkpt>
      <trkpt lat="43.73063" lon="6.0791">
        <ele>483.211675</ele>
        <time>2022-05-26T10:14:29.939Z</time>
      </trkpt>
      <trkpt lat="43.73057" lon="6.07899">
        <ele>483.513044</ele>
        <time>2022-05-26T10:14:33.940Z</time>
      </trkpt>
      <trkpt lat="43.73053" lon="6.07885">
        <ele>483.849322</ele>
        <time>2022-05-26T10:14:37.940Z</time>
      </trkpt>
      <trkpt lat="43.73045" lon="6.0788">
        <ele>484.129854</ele>
        <time>2022-05-26T10:14:41.945Z</time>
      </trkpt>
      <trkpt lat="43.73036" lon="6.07877">
        <ele>484.408325</ele>
        <time>2022-05-26T10:14:45.941Z</time>
      </trkpt>
      <trkpt lat="43.73025" lon="6.07875">
        <ele>484.743971</ele>
        <time>2022-05-26T10:14:50.944Z</time>
      </trkpt>
      <trkpt lat="43.73016" lon="6.07879">
        <ele>485.054547</ele>
        <time>2022-05-26T10:14:56.944Z</time>
      </trkpt>
      <trkpt lat="43.73008" lon="6.07889">
        <ele>485.365907</ele>
        <time>2022-05-26T10:15:03.945Z</time>
      </trkpt>
      <trkpt lat="43.72999" lon="6.07889">
        <ele>485.66369</ele>
        <time>2022-05-26T10:15:09.934Z</time>
      </trkpt>
      <trkpt lat="43.72989" lon="6.07886">
        <ele>485.974329</ele>
        <time>2022-05-26T10:15:14.944Z</time>
      </trkpt>
      <trkpt lat="43.72981" lon="6.0788">
        <ele>486.254274</ele>
        <time>2022-05-26T10:15:19.938Z</time>
      </trkpt>
      <trkpt lat="43.7297" lon="6.07878">
        <ele>486.59265</ele>
        <time>2022-05-26T10:15:26.941Z</time>
      </trkpt>
      <trkpt lat="43.72961" lon="6.07874">
        <ele>486.886351</ele>
        <time>2022-05-26T10:15:57.941Z</time>
      </trkpt>
      <trkpt lat="43.72971" lon="6.07874">
        <ele>487.19633</ele>
        <time>2022-05-26T10:19:02.946Z</time>
      </trkpt>
      <trkpt lat="43.7298" lon="6.07882">
        <ele>487.521553</ele>
        <time>2022-05-26T10:19:06.943Z</time>
      </trkpt>
      <trkpt lat="43.72989" lon="6.07889">
        <ele>487.840477</ele>
        <time>2022-05-26T10:19:12.937Z</time>
      </trkpt>
      <trkpt lat="43.72998" lon="6.07891">
        <ele>488.137697</ele>
        <time>2022-05-26T10:19:16.942Z</time>
      </trkpt>
      <trkpt lat="43.73008" lon="6.07886">
        <ele>487.481475</ele>
        <time>2022-05-26T10:19:21.942Z</time>
      </trkpt>
      <trkpt lat="43.73016" lon="6.07876">
        <ele>486.161861</ele>
        <time>2022-05-26T10:19:26.937Z</time>
      </trkpt>
      <trkpt lat="43.73024" lon="6.07866">
        <ele>484.996926</ele>
        <time>2022-05-26T10:19:29.944Z</time>
      </trkpt>
      <trkpt lat="43.73037" lon="6.07874">
        <ele>483.232608</ele>
        <time>2022-05-26T10:19:32.941Z</time>
      </trkpt>
      <trkpt lat="43.73047" lon="6.07881">
        <ele>481.882696</ele>
        <time>2022-05-26T10:19:34.945Z</time>
      </trkpt>
      <trkpt lat="43.73056" lon="6.07891">
        <ele>480.573499</ele>
        <time>2022-05-26T10:19:36.940Z</time>
      </trkpt>
      <trkpt lat="43.73061" lon="6.07903">
        <ele>479.382167</ele>
        <time>2022-05-26T10:19:38.938Z</time>
      </trkpt>
      <trkpt lat="43.73063" lon="6.07916">
        <ele>478.274372</ele>
        <time>2022-05-26T10:19:40.946Z</time>
      </trkpt>
      <trkpt lat="43.73071" lon="6.07922">
        <ele>477.1483</ele>
        <time>2022-05-26T10:19:43.933Z</time>
      </trkpt>
      <trkpt lat="43.73078" lon="6.07932">
        <ele>475.977269</ele>
        <time>2022-05-26T10:20:58.936Z</time>
      </trkpt>
      <trkpt lat="43.73085" lon="6.07943">
        <ele>474.716494</ele>
        <time>2022-05-26T10:21:02.940Z</time>
      </trkpt>
      <trkpt lat="43.73093" lon="6.0795">
        <ele>473.59663</ele>
        <time>2022-05-26T10:21:05.940Z</time>
      </trkpt>
      <trkpt lat="43.73103" lon="6.07956">
        <ele>472.319663</ele>
        <time>2022-05-26T10:21:08.944Z</time>
      </trkpt>
      <trkpt lat="43.73109" lon="6.07965">
        <ele>471.223998</ele>
        <time>2022-05-26T10:21:10.944Z</time>
      </trkpt>
      <trkpt lat="43.73111" lon="6.0798">
        <ele>469.836196</ele>
        <time>2022-05-26T10:21:12.941Z</time>
      </trkpt>
      <trkpt lat="43.73112" lon="6.07999">
        <ele>468.221618</ele>
        <time>2022-05-26T10:21:15.936Z</time>
      </trkpt>
      <trkpt lat="43.73117" lon="6.08011">
        <ele>467.078668</ele>
        <time>2022-05-26T10:21:17.940Z</time>
      </trkpt>
      <trkpt lat="43.73123" lon="6.08022">
        <ele>466.660276</ele>
        <time>2022-05-26T10:21:19.942Z</time>
      </trkpt>
      <trkpt lat="43.73131" lon="6.08036">
        <ele>466.394556</ele>
        <time>2022-05-26T10:21:21.938Z</time>
      </trkpt>
      <trkpt lat="43.73135" lon="6.08052">
        <ele>466.127814</ele>
        <time>2022-05-26T10:21:23.938Z</time>
      </trkpt>
      <trkpt lat="43.7314" lon="6.08069">
        <ele>465.856077</ele>
        <time>2022-05-26T10:21:25.937Z</time>
      </trkpt>
      <trkpt lat="43.73147" lon="6.08088">
        <ele>465.532623</ele>
        <time>2022-05-26T10:21:27.948Z</time>
      </trkpt>
      <trkpt lat="43.73155" lon="6.08105">
        <ele>465.221597</ele>
        <time>2022-05-26T10:21:29.945Z</time>
      </trkpt>
      <trkpt lat="43.73166" lon="6.08121">
        <ele>464.879165</ele>
        <time>2022-05-26T10:21:31.945Z</time>
      </trkpt>
      <trkpt lat="43.73177" lon="6.08136">
        <ele>464.566776</ele>
        <time>2022-05-26T10:21:33.939Z</time>
      </trkpt>
      <trkpt lat="43.73187" lon="6.08152">
        <ele>464.245938</ele>
        <time>2022-05-26T10:21:35.937Z</time>
      </trkpt>
      <trkpt lat="43.73192" lon="6.08173">
        <ele>463.912164</ele>
        <time>2022-05-26T10:21:37.937Z</time>
      </trkpt>
      <trkpt lat="43.73193" lon="6.08191">
        <ele>463.647073</ele>
        <time>2022-05-26T10:21:39.936Z</time>
      </trkpt>
      <trkpt lat="43.73192" lon="6.08212">
        <ele>463.320028</ele>
        <time>2022-05-26T10:21:41.937Z</time>
      </trkpt>
      <trkpt lat="43.73194" lon="6.0823">
        <ele>463.054004</ele>
        <time>2022-05-26T10:21:43.942Z</time>
      </trkpt>
      <trkpt lat="43.73198" lon="6.08249">
        <ele>462.978365</ele>
        <time>2022-05-26T10:21:45.935Z</time>
      </trkpt>
      <trkpt lat="43.73203" lon="6.08266">
        <ele>462.911205</ele>
        <time>2022-05-26T10:21:47.939Z</time>
      </trkpt>
      <trkpt lat="43.7321" lon="6.0828">
        <ele>462.848182</ele>
        <time>2022-05-26T10:21:49.941Z</time>
      </trkpt>
      <trkpt lat="43.73215" lon="6.08295">
        <ele>462.784765</ele>
        <time>2022-05-26T10:21:51.943Z</time>
      </trkpt>
      <trkpt lat="43.73219" lon="6.08313">
        <ele>462.715258</ele>
        <time>2022-05-26T10:21:54.943Z</time>
      </trkpt>
      <trkpt lat="43.73221" lon="6.08325">
        <ele>462.666078</ele>
        <time>2022-05-26T10:21:56.944Z</time>
      </trkpt>
      <trkpt lat="43.73224" lon="6.08338">
        <ele>462.618027</ele>
        <time>2022-05-26T10:21:59.941Z</time>
      </trkpt>
      <trkpt lat="43.73234" lon="6.0834">
        <ele>462.563461</ele>
        <time>2022-05-26T10:22:23.934Z</time>
      </trkpt>
      <trkpt lat="43.73246" lon="6.08342">
        <ele>462.502897</ele>
        <time>2022-05-26T10:22:26.939Z</time>
      </trkpt>
      <trkpt lat="43.73257" lon="6.08353">
        <ele>462.430846</ele>
        <time>2022-05-26T10:22:29.940Z</time>
      </trkpt>
      <trkpt lat="43.73267" lon="6.08361">
        <ele>462.370344</ele>
        <time>2022-05-26T10:22:31.937Z</time>
      </trkpt>
      <trkpt lat="43.73276" lon="6.08364">
        <ele>462.321538</ele>
        <time>2022-05-26T10:22:33.942Z</time>
      </trkpt>
      <trkpt lat="43.73286" lon="6.08363">
        <ele>462.270913</ele>
        <time>2022-05-26T10:22:35.946Z</time>
      </trkpt>
      <trkpt lat="43.73294" lon="6.08358">
        <ele>462.224478</ele>
        <time>2022-05-26T10:22:37.941Z</time>
      </trkpt>
      <trkpt lat="43.73304" lon="6.08353">
        <ele>462.1681</ele>
        <time>2022-05-26T10:22:41.950Z</time>
      </trkpt>
      <trkpt lat="43.73313" lon="6.0835">
        <ele>462.108068</ele>
        <time>2022-05-26T10:22:51.943Z</time>
      </trkpt>
      <trkpt lat="43.73321" lon="6.08337">
        <ele>461.762744</ele>
        <time>2022-05-26T10:22:54.935Z</time>
      </trkpt>
      <trkpt lat="43.73327" lon="6.08323">
        <ele>461.42696</ele>
        <time>2022-05-26T10:22:56.937Z</time>
      </trkpt>
      <trkpt lat="43.73326" lon="6.08306">
        <ele>461.060422</ele>
        <time>2022-05-26T10:22:58.940Z</time>
      </trkpt>
      <trkpt lat="43.73322" lon="6.08292">
        <ele>460.753284</ele>
        <time>2022-05-26T10:23:00.937Z</time>
      </trkpt>
      <trkpt lat="43.73316" lon="6.08278">
        <ele>460.41394</ele>
        <time>2022-05-26T10:23:02.943Z</time>
      </trkpt>
      <trkpt lat="43.73313" lon="6.08265">
        <ele>460.114662</ele>
        <time>2022-05-26T10:23:05.941Z</time>
      </trkpt>
      <trkpt lat="43.73314" lon="6.08251">
        <ele>459.832832</ele>
        <time>2022-05-26T10:23:08.942Z</time>
      </trkpt>
      <trkpt lat="43.73321" lon="6.08238">
        <ele>459.496233</ele>
        <time>2022-05-26T10:23:11.941Z</time>
      </trkpt>
      <trkpt lat="43.73331" lon="6.08231">
        <ele>459.159482</ele>
        <time>2022-05-26T10:23:15.948Z</time>
      </trkpt>
      <trkpt lat="43.7334" lon="6.08227">
        <ele>458.892704</ele>
        <time>2022-05-26T10:23:18.943Z</time>
      </trkpt>
      <trkpt lat="43.7335" lon="6.08221">
        <ele>458.583244</ele>
        <time>2022-05-26T10:23:23.944Z</time>
      </trkpt>
      <trkpt lat="43.73359" lon="6.08224">
        <ele>458.304191</ele>
        <time>2022-05-26T10:23:27.939Z</time>
      </trkpt>
      <trkpt lat="43.7337" lon="6.08224">
        <ele>457.989311</ele>
        <time>2022-05-26T10:23:32.934Z</time>
      </trkpt>
      <trkpt lat="43.73381" lon="6.08221">
        <ele>457.680903</ele>
        <time>2022-05-26T10:23:37.936Z</time>
      </trkpt>
      <trkpt lat="43.73392" lon="6.0822">
        <ele>457.353085</ele>
        <time>2022-05-26T10:23:44.935Z</time>
      </trkpt>
      <trkpt lat="43.73403" lon="6.08215">
        <ele>457.027615</ele>
        <time>2022-05-26T10:23:48.940Z</time>
      </trkpt>
      <trkpt lat="43.73414" lon="6.08212">
        <ele>457.116495</ele>
        <time>2022-05-26T10:23:52.935Z</time>
      </trkpt>
      <trkpt lat="43.73425" lon="6.08209">
        <ele>457.385018</ele>
        <time>2022-05-26T10:23:56.941Z</time>
      </trkpt>
      <trkpt lat="43.73434" lon="6.08203">
        <ele>457.632558</ele>
        <time>2022-05-26T10:24:00.938Z</time>
      </trkpt>
      <trkpt lat="43.73443" lon="6.08197">
        <ele>457.874984</ele>
        <time>2022-05-26T10:24:04.945Z</time>
      </trkpt>
      <trkpt lat="43.73452" lon="6.0819">
        <ele>458.121907</ele>
        <time>2022-05-26T10:24:08.937Z</time>
      </trkpt>
      <trkpt lat="43.73462" lon="6.08182">
        <ele>458.401525</ele>
        <time>2022-05-26T10:24:12.937Z</time>
      </trkpt>
      <trkpt lat="43.73472" lon="6.08174">
        <ele>458.671417</ele>
        <time>2022-05-26T10:24:16.938Z</time>
      </trkpt>
      <trkpt lat="43.7348" lon="6.08166">
        <ele>458.913148</ele>
        <time>2022-05-26T10:24:19.940Z</time>
      </trkpt>
      <trkpt lat="43.73489" lon="6.0816">
        <ele>459.156375</ele>
        <time>2022-05-26T10:24:22.946Z</time>
      </trkpt>
      <trkpt lat="43.73497" lon="6.08153">
        <ele>459.384457</ele>
        <time>2022-05-26T10:24:25.938Z</time>
      </trkpt>
      <trkpt lat="43.73505" lon="6.08143">
        <ele>459.639421</ele>
        <time>2022-05-26T10:24:29.937Z</time>
      </trkpt>
      <trkpt lat="43.73514" lon="6.08134">
        <ele>459.908945</ele>
        <time>2022-05-26T10:24:34.940Z</time>
      </trkpt>
      <trkpt lat="43.7352" lon="6.08124">
        <ele>460.128158</ele>
        <time>2022-05-26T10:24:38.939Z</time>
      </trkpt>
      <trkpt lat="43.73524" lon="6.08112">
        <ele>460.349871</ele>
        <time>2022-05-26T10:24:42.935Z</time>
      </trkpt>
      <trkpt lat="43.7353" lon="6.08101">
        <ele>460.59566</ele>
        <time>2022-05-26T10:24:46.937Z</time>
      </trkpt>
      <trkpt lat="43.73539" lon="6.08091">
        <ele>460.859112</ele>
        <time>2022-05-26T10:24:49.936Z</time>
      </trkpt>
      <trkpt lat="43.7355" lon="6.08086">
        <ele>461.130488</ele>
        <time>2022-05-26T10:24:52.937Z</time>
      </trkpt>
      <trkpt lat="43.73561" lon="6.08082">
        <ele>461.335749</ele>
        <time>2022-05-26T10:24:56.936Z</time>
      </trkpt>
      <trkpt lat="43.73571" lon="6.08085">
        <ele>461.481786</ele>
        <time>2022-05-26T10:25:00.938Z</time>
      </trkpt>
      <trkpt lat="43.73581" lon="6.08087">
        <ele>461.616468</ele>
        <time>2022-05-26T10:25:04.938Z</time>
      </trkpt>
      <trkpt lat="43.73592" lon="6.08089">
        <ele>461.766334</ele>
        <time>2022-05-26T10:25:08.936Z</time>
      </trkpt>
      <trkpt lat="43.73602" lon="6.08093">
        <ele>461.91025</ele>
        <time>2022-05-26T10:25:12.939Z</time>
      </trkpt>
      <trkpt lat="43.73613" lon="6.08096">
        <ele>462.062757</ele>
        <time>2022-05-26T10:25:16.936Z</time>
      </trkpt>
      <trkpt lat="43.73624" lon="6.08098">
        <ele>462.208479</ele>
        <time>2022-05-26T10:25:20.937Z</time>
      </trkpt>
      <trkpt lat="43.73635" lon="6.08098">
        <ele>462.352158</ele>
        <time>2022-05-26T10:25:24.936Z</time>
      </trkpt>
      <trkpt lat="43.73645" lon="6.081">
        <ele>462.499329</ele>
        <time>2022-05-26T10:25:28.940Z</time>
      </trkpt>
      <trkpt lat="43.73656" lon="6.08101">
        <ele>462.648067</ele>
        <time>2022-05-26T10:25:33.933Z</time>
      </trkpt>
      <trkpt lat="43.73665" lon="6.08108">
        <ele>462.783515</ele>
        <time>2022-05-26T10:27:33.935Z</time>
      </trkpt>
      <trkpt lat="43.73674" lon="6.08115">
        <ele>462.924581</ele>
        <time>2022-05-26T10:27:38.934Z</time>
      </trkpt>
      <trkpt lat="43.73685" lon="6.08124">
        <ele>463.092836</ele>
        <time>2022-05-26T10:27:42.944Z</time>
      </trkpt>
      <trkpt lat="43.73692" lon="6.08133">
        <ele>463.227336</ele>
        <time>2022-05-26T10:27:45.936Z</time>
      </trkpt>
      <trkpt lat="43.73702" lon="6.0814">
        <ele>463.373625</ele>
        <time>2022-05-26T10:27:48.937Z</time>
      </trkpt>
      <trkpt lat="43.73715" lon="6.08147">
        <ele>463.564096</ele>
        <time>2022-05-26T10:27:51.943Z</time>
      </trkpt>
      <trkpt lat="43.73728" lon="6.08148">
        <ele>463.779033</ele>
        <time>2022-05-26T10:27:54.937Z</time>
      </trkpt>
      <trkpt lat="43.73738" lon="6.08149">
        <ele>463.97466</ele>
        <time>2022-05-26T10:27:56.944Z</time>
      </trkpt>
      <trkpt lat="43.73751" lon="6.08147">
        <ele>464.220515</ele>
        <time>2022-05-26T10:27:59.948Z</time>
      </trkpt>
      <trkpt lat="43.7376" lon="6.08145">
        <ele>464.405523</ele>
        <time>2022-05-26T10:28:01.939Z</time>
      </trkpt>
      <trkpt lat="43.73773" lon="6.08143">
        <ele>464.653934</ele>
        <time>2022-05-26T10:28:04.945Z</time>
      </trkpt>
      <trkpt lat="43.73785" lon="6.0814">
        <ele>464.895744</ele>
        <time>2022-05-26T10:28:07.936Z</time>
      </trkpt>
      <trkpt lat="43.73796" lon="6.08134">
        <ele>465.143583</ele>
        <time>2022-05-26T10:28:10.938Z</time>
      </trkpt>
      <trkpt lat="43.73804" lon="6.08127">
        <ele>465.321867</ele>
        <time>2022-05-26T10:28:12.936Z</time>
      </trkpt>
      <trkpt lat="43.73814" lon="6.08117">
        <ele>465.572961</ele>
        <time>2022-05-26T10:28:15.942Z</time>
      </trkpt>
      <trkpt lat="43.73823" lon="6.08103">
        <ele>465.833362</ele>
        <time>2022-05-26T10:28:18.939Z</time>
      </trkpt>
      <trkpt lat="43.73829" lon="6.08093">
        <ele>466.014951</ele>
        <time>2022-05-26T10:28:20.943Z</time>
      </trkpt>
      <trkpt lat="43.73833" lon="6.08082">
        <ele>466.199643</ele>
        <time>2022-05-26T10:28:22.939Z</time>
      </trkpt>
      <trkpt lat="43.73836" lon="6.08063">
        <ele>466.464963</ele>
        <time>2022-05-26T10:28:25.940Z</time>
      </trkpt>
      <trkpt lat="43.73839" lon="6.08045">
        <ele>466.732185</ele>
        <time>2022-05-26T10:28:28.943Z</time>
      </trkpt>
      <trkpt lat="43.7384" lon="6.08032">
        <ele>466.923614</ele>
        <time>2022-05-26T10:28:30.941Z</time>
      </trkpt>
      <trkpt lat="43.73841" lon="6.08016">
        <ele>467.156942</ele>
        <time>2022-05-26T10:28:33.941Z</time>
      </trkpt>
      <trkpt lat="43.73841" lon="6.08001">
        <ele>467.278517</ele>
        <time>2022-05-26T10:28:35.937Z</time>
      </trkpt>
      <trkpt lat="43.73842" lon="6.07986">
        <ele>467.361434</ele>
        <time>2022-05-26T10:28:38.942Z</time>
      </trkpt>
      <trkpt lat="43.73843" lon="6.07973">
        <ele>467.431425</ele>
        <time>2022-05-26T10:28:40.945Z</time>
      </trkpt>
      <trkpt lat="43.73842" lon="6.07958">
        <ele>467.51094</ele>
        <time>2022-05-26T10:28:42.944Z</time>
      </trkpt>
      <trkpt lat="43.73844" lon="6.07941">
        <ele>467.600967</ele>
        <time>2022-05-26T10:28:44.941Z</time>
      </trkpt>
      <trkpt lat="43.73847" lon="6.07924">
        <ele>467.695275</ele>
        <time>2022-05-26T10:28:46.943Z</time>
      </trkpt>
      <trkpt lat="43.7385" lon="6.07903">
        <ele>467.8062</ele>
        <time>2022-05-26T10:28:48.940Z</time>
      </trkpt>
      <trkpt lat="43.73856" lon="6.07888">
        <ele>467.900862</ele>
        <time>2022-05-26T10:28:50.940Z</time>
      </trkpt>
      <trkpt lat="43.73865" lon="6.07876">
        <ele>467.988894</ele>
        <time>2022-05-26T10:28:52.941Z</time>
      </trkpt>
      <trkpt lat="43.73873" lon="6.07865">
        <ele>468.074753</ele>
        <time>2022-05-26T10:28:54.937Z</time>
      </trkpt>
      <trkpt lat="43.73883" lon="6.0786">
        <ele>468.14952</ele>
        <time>2022-05-26T10:28:56.939Z</time>
      </trkpt>
      <trkpt lat="43.73892" lon="6.07855">
        <ele>468.220843</ele>
        <time>2022-05-26T10:28:58.939Z</time>
      </trkpt>
      <trkpt lat="43.73899" lon="6.07848">
        <ele>468.287945</ele>
        <time>2022-05-26T10:29:00.937Z</time>
      </trkpt>
      <trkpt lat="43.73909" lon="6.07839">
        <ele>468.374386</ele>
        <time>2022-05-26T10:29:03.943Z</time>
      </trkpt>
      <trkpt lat="43.73916" lon="6.07827">
        <ele>468.457442</ele>
        <time>2022-05-26T10:29:06.942Z</time>
      </trkpt>
      <trkpt lat="43.73921" lon="6.07811">
        <ele>468.549964</ele>
        <time>2022-05-26T10:29:09.941Z</time>
      </trkpt>
      <trkpt lat="43.73925" lon="6.07794">
        <ele>468.872347</ele>
        <time>2022-05-26T10:29:12.940Z</time>
      </trkpt>
      <trkpt lat="43.73927" lon="6.07781">
        <ele>469.140026</ele>
        <time>2022-05-26T10:29:14.938Z</time>
      </trkpt>
      <trkpt lat="43.7393" lon="6.07769">
        <ele>469.403946</ele>
        <time>2022-05-26T10:29:16.940Z</time>
      </trkpt>
      <trkpt lat="43.73933" lon="6.07755">
        <ele>469.679261</ele>
        <time>2022-05-26T10:29:18.937Z</time>
      </trkpt>
      <trkpt lat="43.73939" lon="6.07741">
        <ele>469.999131</ele>
        <time>2022-05-26T10:29:21.935Z</time>
      </trkpt>
      <trkpt lat="43.73941" lon="6.07728">
        <ele>470.269073</ele>
        <time>2022-05-26T10:29:23.942Z</time>
      </trkpt>
      <trkpt lat="43.73946" lon="6.07716">
        <ele>470.531182</ele>
        <time>2022-05-26T10:29:25.938Z</time>
      </trkpt>
      <trkpt lat="43.73953" lon="6.07703">
        <ele>470.848313</ele>
        <time>2022-05-26T10:29:27.940Z</time>
      </trkpt>
      <trkpt lat="43.73962" lon="6.07694">
        <ele>471.15314</ele>
        <time>2022-05-26T10:29:29.943Z</time>
      </trkpt>
      <trkpt lat="43.73972" lon="6.07692">
        <ele>471.434106</ele>
        <time>2022-05-26T10:29:31.954Z</time>
      </trkpt>
      <trkpt lat="43.73981" lon="6.07697">
        <ele>471.686584</ele>
        <time>2022-05-26T10:29:33.943Z</time>
      </trkpt>
      <trkpt lat="43.73989" lon="6.07705">
        <ele>471.963257</ele>
        <time>2022-05-26T10:29:35.943Z</time>
      </trkpt>
      <trkpt lat="43.73997" lon="6.07715">
        <ele>472.269641</ele>
        <time>2022-05-26T10:29:37.944Z</time>
      </trkpt>
      <trkpt lat="43.74002" lon="6.07726">
        <ele>472.517702</ele>
        <time>2022-05-26T10:29:39.938Z</time>
      </trkpt>
      <trkpt lat="43.74009" lon="6.07738">
        <ele>472.816896</ele>
        <time>2022-05-26T10:29:42.945Z</time>
      </trkpt>
      <trkpt lat="43.74013" lon="6.07749">
        <ele>473.067449</ele>
        <time>2022-05-26T10:29:45.939Z</time>
      </trkpt>
      <trkpt lat="43.74019" lon="6.0776">
        <ele>473.343018</ele>
        <time>2022-05-26T10:29:48.936Z</time>
      </trkpt>
      <trkpt lat="43.74027" lon="6.07769">
        <ele>473.241578</ele>
        <time>2022-05-26T10:29:51.938Z</time>
      </trkpt>
      <trkpt lat="43.74035" lon="6.07774">
        <ele>472.832681</ele>
        <time>2022-05-26T10:29:54.941Z</time>
      </trkpt>
      <trkpt lat="43.74045" lon="6.07774">
        <ele>472.40418</ele>
        <time>2022-05-26T10:29:57.938Z</time>
      </trkpt>
      <trkpt lat="43.74055" lon="6.07772">
        <ele>471.974</ele>
        <time>2022-05-26T10:30:00.940Z</time>
      </trkpt>
      <trkpt lat="43.74065" lon="6.07768">
        <ele>471.510166</ele>
        <time>2022-05-26T10:30:03.942Z</time>
      </trkpt>
      <trkpt lat="43.74075" lon="6.07764">
        <ele>471.05698</ele>
        <time>2022-05-26T10:30:06.940Z</time>
      </trkpt>
      <trkpt lat="43.74086" lon="6.07759">
        <ele>470.599659</ele>
        <time>2022-05-26T10:30:09.940Z</time>
      </trkpt>
      <trkpt lat="43.74098" lon="6.07754">
        <ele>470.02406</ele>
        <time>2022-05-26T10:30:12.938Z</time>
      </trkpt>
      <trkpt lat="43.74111" lon="6.0775">
        <ele>469.466818</ele>
        <time>2022-05-26T10:30:14.931Z</time>
      </trkpt>
      <trkpt lat="43.74124" lon="6.07742">
        <ele>468.837694</ele>
        <time>2022-05-26T10:30:16.940Z</time>
      </trkpt>
      <trkpt lat="43.7414" lon="6.07733">
        <ele>468.085664</ele>
        <time>2022-05-26T10:30:18.935Z</time>
      </trkpt>
      <trkpt lat="43.74149" lon="6.07728">
        <ele>467.683504</ele>
        <time>2022-05-26T10:30:19.943Z</time>
      </trkpt>
      <trkpt lat="43.74166" lon="6.07723">
        <ele>466.902915</ele>
        <time>2022-05-26T10:30:21.941Z</time>
      </trkpt>
      <trkpt lat="43.74177" lon="6.07726">
        <ele>466.426354</ele>
        <time>2022-05-26T10:30:22.941Z</time>
      </trkpt>
      <trkpt lat="43.74188" lon="6.07732">
        <ele>465.939923</ele>
        <time>2022-05-26T10:30:23.942Z</time>
      </trkpt>
      <trkpt lat="43.74197" lon="6.07739">
        <ele>465.633764</ele>
        <time>2022-05-26T10:30:24.938Z</time>
      </trkpt>
      <trkpt lat="43.74205" lon="6.07746">
        <ele>465.533183</ele>
        <time>2022-05-26T10:30:25.944Z</time>
      </trkpt>
      <trkpt lat="43.74215" lon="6.07753">
        <ele>465.418113</ele>
        <time>2022-05-26T10:30:26.942Z</time>
      </trkpt>
      <trkpt lat="43.74225" lon="6.07753">
        <ele>465.311514</ele>
        <time>2022-05-26T10:30:27.939Z</time>
      </trkpt>
      <trkpt lat="43.7424" lon="6.0775">
        <ele>465.151156</ele>
        <time>2022-05-26T10:30:29.942Z</time>
      </trkpt>
      <trkpt lat="43.74251" lon="6.07748">
        <ele>465.023915</ele>
        <time>2022-05-26T10:30:31.943Z</time>
      </trkpt>
      <trkpt lat="43.74261" lon="6.0775">
        <ele>464.915433</ele>
        <time>2022-05-26T10:30:33.941Z</time>
      </trkpt>
      <trkpt lat="43.74272" lon="6.07759">
        <ele>464.776127</ele>
        <time>2022-05-26T10:30:35.938Z</time>
      </trkpt>
      <trkpt lat="43.7428" lon="6.07771">
        <ele>464.654264</ele>
        <time>2022-05-26T10:30:37.939Z</time>
      </trkpt>
      <trkpt lat="43.74288" lon="6.07783">
        <ele>464.526341</ele>
        <time>2022-05-26T10:30:39.943Z</time>
      </trkpt>
      <trkpt lat="43.74296" lon="6.07796">
        <ele>464.393688</ele>
        <time>2022-05-26T10:30:41.943Z</time>
      </trkpt>
      <trkpt lat="43.74301" lon="6.0781">
        <ele>464.272595</ele>
        <time>2022-05-26T10:30:43.940Z</time>
      </trkpt>
      <trkpt lat="43.74308" lon="6.07822">
        <ele>464.150655</ele>
        <time>2022-05-26T10:30:45.940Z</time>
      </trkpt>
      <trkpt lat="43.74316" lon="6.07832">
        <ele>464.040832</ele>
        <time>2022-05-26T10:30:47.940Z</time>
      </trkpt>
      <trkpt lat="43.74324" lon="6.07839">
        <ele>463.935775</ele>
        <time>2022-05-26T10:30:49.942Z</time>
      </trkpt>
      <trkpt lat="43.74333" lon="6.07841">
        <ele>463.836565</ele>
        <time>2022-05-26T10:31:09.934Z</time>
      </trkpt>
      <trkpt lat="43.74341" lon="6.07845">
        <ele>463.759705</ele>
        <time>2022-05-26T10:31:54.939Z</time>
      </trkpt>
      <trkpt lat="43.74351" lon="6.07842">
        <ele>463.798</ele>
        <time>2022-05-26T10:31:57.943Z</time>
      </trkpt>
      <trkpt lat="43.74362" lon="6.07831">
        <ele>463.851366</ele>
        <time>2022-05-26T10:32:00.939Z</time>
      </trkpt>
      <trkpt lat="43.74371" lon="6.07824">
        <ele>463.895116</ele>
        <time>2022-05-26T10:32:02.944Z</time>
      </trkpt>
      <trkpt lat="43.74381" lon="6.07819">
        <ele>463.937417</ele>
        <time>2022-05-26T10:32:04.939Z</time>
      </trkpt>
      <trkpt lat="43.74392" lon="6.07815">
        <ele>463.98328</ele>
        <time>2022-05-26T10:32:06.932Z</time>
      </trkpt>
      <trkpt lat="43.74404" lon="6.07815">
        <ele>464.032202</ele>
        <time>2022-05-26T10:32:08.945Z</time>
      </trkpt>
      <trkpt lat="43.74415" lon="6.0782">
        <ele>464.077548</ele>
        <time>2022-05-26T10:32:10.943Z</time>
      </trkpt>
      <trkpt lat="43.74426" lon="6.07831">
        <ele>464.13044</ele>
        <time>2022-05-26T10:32:13.942Z</time>
      </trkpt>
      <trkpt lat="43.74434" lon="6.07841">
        <ele>464.174598</ele>
        <time>2022-05-26T10:32:15.941Z</time>
      </trkpt>
      <trkpt lat="43.74439" lon="6.07855">
        <ele>464.219013</ele>
        <time>2022-05-26T10:32:17.934Z</time>
      </trkpt>
      <trkpt lat="43.74441" lon="6.07868">
        <ele>464.257961</ele>
        <time>2022-05-26T10:32:19.933Z</time>
      </trkpt>
      <trkpt lat="43.74443" lon="6.07882">
        <ele>464.300442</ele>
        <time>2022-05-26T10:32:21.937Z</time>
      </trkpt>
      <trkpt lat="43.74443" lon="6.07898">
        <ele>464.34619</ele>
        <time>2022-05-26T10:32:23.935Z</time>
      </trkpt>
      <trkpt lat="43.74446" lon="6.07911">
        <ele>464.385654</ele>
        <time>2022-05-26T10:32:25.938Z</time>
      </trkpt>
      <trkpt lat="43.74449" lon="6.07924">
        <ele>464.424077</ele>
        <time>2022-05-26T10:32:27.939Z</time>
      </trkpt>
      <trkpt lat="43.74454" lon="6.07935">
        <ele>464.46296</ele>
        <time>2022-05-26T10:32:29.939Z</time>
      </trkpt>
      <trkpt lat="43.74462" lon="6.07945">
        <ele>464.389718</ele>
        <time>2022-05-26T10:32:31.938Z</time>
      </trkpt>
      <trkpt lat="43.7447" lon="6.07959">
        <ele>464.244633</ele>
        <time>2022-05-26T10:32:34.938Z</time>
      </trkpt>
      <trkpt lat="43.74477" lon="6.0797">
        <ele>464.124868</ele>
        <time>2022-05-26T10:32:36.935Z</time>
      </trkpt>
      <trkpt lat="43.74485" lon="6.07978">
        <ele>464.017831</ele>
        <time>2022-05-26T10:32:38.940Z</time>
      </trkpt>
      <trkpt lat="43.74491" lon="6.07988">
        <ele>463.908</ele>
        <time>2022-05-26T10:32:40.939Z</time>
      </trkpt>
      <trkpt lat="43.74497" lon="6.07999">
        <ele>463.802074</ele>
        <time>2022-05-26T10:32:42.935Z</time>
      </trkpt>
      <trkpt lat="43.74504" lon="6.08008">
        <ele>463.701344</ele>
        <time>2022-05-26T10:32:44.936Z</time>
      </trkpt>
      <trkpt lat="43.7451" lon="6.08017">
        <ele>463.593272</ele>
        <time>2022-05-26T10:32:46.937Z</time>
      </trkpt>
      <trkpt lat="43.7452" lon="6.08029">
        <ele>463.455861</ele>
        <time>2022-05-26T10:32:49.947Z</time>
      </trkpt>
      <trkpt lat="43.74529" lon="6.08033">
        <ele>463.349193</ele>
        <time>2022-05-26T10:32:51.937Z</time>
      </trkpt>
      <trkpt lat="43.74537" lon="6.08028">
        <ele>463.246128</ele>
        <time>2022-05-26T10:32:53.935Z</time>
      </trkpt>
      <trkpt lat="43.74547" lon="6.08025">
        <ele>463.132027</ele>
        <time>2022-05-26T10:32:55.945Z</time>
      </trkpt>
      <trkpt lat="43.74558" lon="6.08026">
        <ele>463.013332</ele>
        <time>2022-05-26T10:32:57.942Z</time>
      </trkpt>
      <trkpt lat="43.74567" lon="6.08032">
        <ele>462.905702</ele>
        <time>2022-05-26T10:32:59.935Z</time>
      </trkpt>
      <trkpt lat="43.74569" lon="6.08044">
        <ele>462.804044</ele>
        <time>2022-05-26T10:33:01.938Z</time>
      </trkpt>
      <trkpt lat="43.74572" lon="6.08056">
        <ele>462.698009</ele>
        <time>2022-05-26T10:33:03.944Z</time>
      </trkpt>
      <trkpt lat="43.74576" lon="6.08073">
        <ele>462.553921</ele>
        <time>2022-05-26T10:33:06.935Z</time>
      </trkpt>
      <trkpt lat="43.74579" lon="6.08085">
        <ele>462.450848</ele>
        <time>2022-05-26T10:33:08.936Z</time>
      </trkpt>
      <trkpt lat="43.74585" lon="6.08101">
        <ele>462.288457</ele>
        <time>2022-05-26T10:33:11.938Z</time>
      </trkpt>
      <trkpt lat="43.7459" lon="6.08115">
        <ele>462.131411</ele>
        <time>2022-05-26T10:33:14.937Z</time>
      </trkpt>
      <trkpt lat="43.74598" lon="6.08128">
        <ele>461.979546</ele>
        <time>2022-05-26T10:33:17.936Z</time>
      </trkpt>
      <trkpt lat="43.74607" lon="6.08138">
        <ele>461.825799</ele>
        <time>2022-05-26T10:33:20.938Z</time>
      </trkpt>
      <trkpt lat="43.74617" lon="6.08149">
        <ele>461.660437</ele>
        <time>2022-05-26T10:33:23.939Z</time>
      </trkpt>
      <trkpt lat="43.74626" lon="6.08157">
        <ele>461.523822</ele>
        <time>2022-05-26T10:33:25.936Z</time>
      </trkpt>
      <trkpt lat="43.74635" lon="6.08167">
        <ele>461.37898</ele>
        <time>2022-05-26T10:33:27.941Z</time>
      </trkpt>
      <trkpt lat="43.7464" lon="6.0818">
        <ele>461.233627</ele>
        <time>2022-05-26T10:33:29.945Z</time>
      </trkpt>
      <trkpt lat="43.74635" lon="6.08197">
        <ele>461.063078</ele>
        <time>2022-05-26T10:33:31.939Z</time>
      </trkpt>
      <trkpt lat="43.74625" lon="6.08207">
        <ele>460.904094</ele>
        <time>2022-05-26T10:33:33.934Z</time>
      </trkpt>
      <trkpt lat="43.74615" lon="6.08214">
        <ele>460.760499</ele>
        <time>2022-05-26T10:33:35.944Z</time>
      </trkpt>
      <trkpt lat="43.74607" lon="6.08223">
        <ele>460.623016</ele>
        <time>2022-05-26T10:33:37.937Z</time>
      </trkpt>
      <trkpt lat="43.74603" lon="6.08236">
        <ele>460.4998</ele>
        <time>2022-05-26T10:33:39.946Z</time>
      </trkpt>
      <trkpt lat="43.74602" lon="6.08249">
        <ele>460.376637</ele>
        <time>2022-05-26T10:33:41.942Z</time>
      </trkpt>
      <trkpt lat="43.74604" lon="6.08262">
        <ele>460.251849</ele>
        <time>2022-05-26T10:33:43.942Z</time>
      </trkpt>
      <trkpt lat="43.74607" lon="6.08274">
        <ele>460.168736</ele>
        <time>2022-05-26T10:33:45.944Z</time>
      </trkpt>
      <trkpt lat="43.74613" lon="6.0829">
        <ele>460.470849</ele>
        <time>2022-05-26T10:33:48.940Z</time>
      </trkpt>
      <trkpt lat="43.74623" lon="6.083">
        <ele>460.756023</ele>
        <time>2022-05-26T10:33:51.946Z</time>
      </trkpt>
      <trkpt lat="43.74632" lon="6.08305">
        <ele>460.990856</ele>
        <time>2022-05-26T10:33:53.939Z</time>
      </trkpt>
      <trkpt lat="43.74642" lon="6.08309">
        <ele>461.22325</ele>
        <time>2022-05-26T10:33:55.937Z</time>
      </trkpt>
      <trkpt lat="43.74651" lon="6.08319">
        <ele>461.483971</ele>
        <time>2022-05-26T10:33:57.937Z</time>
      </trkpt>
      <trkpt lat="43.74657" lon="6.08332">
        <ele>461.745761</ele>
        <time>2022-05-26T10:33:59.944Z</time>
      </trkpt>
      <trkpt lat="43.74659" lon="6.08346">
        <ele>461.980959</ele>
        <time>2022-05-26T10:34:01.943Z</time>
      </trkpt>
      <trkpt lat="43.74655" lon="6.08358">
        <ele>462.207607</ele>
        <time>2022-05-26T10:34:03.940Z</time>
      </trkpt>
      <trkpt lat="43.7465" lon="6.0837">
        <ele>462.43805</ele>
        <time>2022-05-26T10:34:05.937Z</time>
      </trkpt>
      <trkpt lat="43.74643" lon="6.08379">
        <ele>462.657984</ele>
        <time>2022-05-26T10:34:07.932Z</time>
      </trkpt>
      <trkpt lat="43.74632" lon="6.08389">
        <ele>462.959373</ele>
        <time>2022-05-26T10:34:10.936Z</time>
      </trkpt>
      <trkpt lat="43.74623" lon="6.08398">
        <ele>463.227379</ele>
        <time>2022-05-26T10:34:13.941Z</time>
      </trkpt>
      <trkpt lat="43.74612" lon="6.08408">
        <ele>463.516377</ele>
        <time>2022-05-26T10:34:16.938Z</time>
      </trkpt>
      <trkpt lat="43.74607" lon="6.08418">
        <ele>463.730169</ele>
        <time>2022-05-26T10:34:18.942Z</time>
      </trkpt>
      <trkpt lat="43.74599" lon="6.08429">
        <ele>463.98422</ele>
        <time>2022-05-26T10:34:22.938Z</time>
      </trkpt>
      <trkpt lat="43.74594" lon="6.0844">
        <ele>464.210007</ele>
        <time>2022-05-26T10:34:26.937Z</time>
      </trkpt>
      <trkpt lat="43.74592" lon="6.08453">
        <ele>464.658334</ele>
        <time>2022-05-26T10:34:29.939Z</time>
      </trkpt>
      <trkpt lat="43.74591" lon="6.08469">
        <ele>465.518787</ele>
        <time>2022-05-26T10:34:33.938Z</time>
      </trkpt>
      <trkpt lat="43.74593" lon="6.08484">
        <ele>466.322138</ele>
        <time>2022-05-26T10:34:37.936Z</time>
      </trkpt>
      <trkpt lat="43.74598" lon="6.08499">
        <ele>467.19069</ele>
        <time>2022-05-26T10:34:41.937Z</time>
      </trkpt>
      <trkpt lat="43.74605" lon="6.08511">
        <ele>468.019509</ele>
        <time>2022-05-26T10:34:45.942Z</time>
      </trkpt>
      <trkpt lat="43.74614" lon="6.08523">
        <ele>468.902304</ele>
        <time>2022-05-26T10:34:49.941Z</time>
      </trkpt>
      <trkpt lat="43.74622" lon="6.08529">
        <ele>469.587408</ele>
        <time>2022-05-26T10:34:52.937Z</time>
      </trkpt>
      <trkpt lat="43.74632" lon="6.08536">
        <ele>470.393131</ele>
        <time>2022-05-26T10:34:56.936Z</time>
      </trkpt>
      <trkpt lat="43.74642" lon="6.08541">
        <ele>471.118258</ele>
        <time>2022-05-26T10:35:00.946Z</time>
      </trkpt>
      <trkpt lat="43.74651" lon="6.08542">
        <ele>471.785773</ele>
        <time>2022-05-26T10:35:04.938Z</time>
      </trkpt>
      <trkpt lat="43.74662" lon="6.08546">
        <ele>472.612072</ele>
        <time>2022-05-26T10:35:08.942Z</time>
      </trkpt>
      <trkpt lat="43.74672" lon="6.08546">
        <ele>473.407585</ele>
        <time>2022-05-26T10:35:12.939Z</time>
      </trkpt>
      <trkpt lat="43.74683" lon="6.08544">
        <ele>474.206161</ele>
        <time>2022-05-26T10:35:16.942Z</time>
      </trkpt>
      <trkpt lat="43.74694" lon="6.08541">
        <ele>475.002079</ele>
        <time>2022-05-26T10:35:20.937Z</time>
      </trkpt>
      <trkpt lat="43.74703" lon="6.08536">
        <ele>475.715212</ele>
        <time>2022-05-26T10:35:24.937Z</time>
      </trkpt>
      <trkpt lat="43.74712" lon="6.08529">
        <ele>476.430015</ele>
        <time>2022-05-26T10:35:28.940Z</time>
      </trkpt>
      <trkpt lat="43.74719" lon="6.08521">
        <ele>477.135078</ele>
        <time>2022-05-26T10:35:32.940Z</time>
      </trkpt>
      <trkpt lat="43.74727" lon="6.08515">
        <ele>477.731575</ele>
        <time>2022-05-26T10:35:36.939Z</time>
      </trkpt>
      <trkpt lat="43.74736" lon="6.08509">
        <ele>478.310239</ele>
        <time>2022-05-26T10:35:40.941Z</time>
      </trkpt>
      <trkpt lat="43.74746" lon="6.08508">
        <ele>478.917412</ele>
        <time>2022-05-26T10:35:44.940Z</time>
      </trkpt>
      <trkpt lat="43.74757" lon="6.08509">
        <ele>479.569856</ele>
        <time>2022-05-26T10:35:48.941Z</time>
      </trkpt>
      <trkpt lat="43.74766" lon="6.08514">
        <ele>480.162663</ele>
        <time>2022-05-26T10:35:52.941Z</time>
      </trkpt>
      <trkpt lat="43.74775" lon="6.0852">
        <ele>480.749084</ele>
        <time>2022-05-26T10:35:56.942Z</time>
      </trkpt>
      <trkpt lat="43.74783" lon="6.08529">
        <ele>481.37693</ele>
        <time>2022-05-26T10:36:00.942Z</time>
      </trkpt>
      <trkpt lat="43.74789" lon="6.0854">
        <ele>481.973547</ele>
        <time>2022-05-26T10:36:04.934Z</time>
      </trkpt>
      <trkpt lat="43.74796" lon="6.08551">
        <ele>482.576244</ele>
        <time>2022-05-26T10:36:08.936Z</time>
      </trkpt>
      <trkpt lat="43.74802" lon="6.08559">
        <ele>483.124909</ele>
        <time>2022-05-26T10:36:12.941Z</time>
      </trkpt>
      <trkpt lat="43.74811" lon="6.08566">
        <ele>483.729222</ele>
        <time>2022-05-26T10:36:16.934Z</time>
      </trkpt>
      <trkpt lat="43.74821" lon="6.0857">
        <ele>484.301423</ele>
        <time>2022-05-26T10:36:20.941Z</time>
      </trkpt>
      <trkpt lat="43.7483" lon="6.08574">
        <ele>484.875938</ele>
        <time>2022-05-26T10:36:24.938Z</time>
      </trkpt>
      <trkpt lat="43.74839" lon="6.08577">
        <ele>485.46018</ele>
        <time>2022-05-26T10:36:28.940Z</time>
      </trkpt>
      <trkpt lat="43.7485" lon="6.08576">
        <ele>486.093647</ele>
        <time>2022-05-26T10:36:33.947Z</time>
      </trkpt>
      <trkpt lat="43.74861" lon="6.08573">
        <ele>486.744851</ele>
        <time>2022-05-26T10:36:38.940Z</time>
      </trkpt>
      <trkpt lat="43.7487" lon="6.08568">
        <ele>487.337905</ele>
        <time>2022-05-26T10:36:43.941Z</time>
      </trkpt>
      <trkpt lat="43.74878" lon="6.08562">
        <ele>487.912782</ele>
        <time>2022-05-26T10:36:48.938Z</time>
      </trkpt>
      <trkpt lat="43.74887" lon="6.08554">
        <ele>488.60233</ele>
        <time>2022-05-26T10:36:53.938Z</time>
      </trkpt>
      <trkpt lat="43.74895" lon="6.08546">
        <ele>489.322404</ele>
        <time>2022-05-26T10:36:58.943Z</time>
      </trkpt>
      <trkpt lat="43.74904" lon="6.08539">
        <ele>490.049533</ele>
        <time>2022-05-26T10:37:03.942Z</time>
      </trkpt>
      <trkpt lat="43.74914" lon="6.08533">
        <ele>490.851934</ele>
        <time>2022-05-26T10:37:08.941Z</time>
      </trkpt>
      <trkpt lat="43.74923" lon="6.08529">
        <ele>491.512773</ele>
        <time>2022-05-26T10:37:12.941Z</time>
      </trkpt>
      <trkpt lat="43.74932" lon="6.08527">
        <ele>492.170539</ele>
        <time>2022-05-26T10:37:16.941Z</time>
      </trkpt>
      <trkpt lat="43.74942" lon="6.08528">
        <ele>492.872881</ele>
        <time>2022-05-26T10:37:20.942Z</time>
      </trkpt>
      <trkpt lat="43.74952" lon="6.08529">
        <ele>493.567404</ele>
        <time>2022-05-26T10:37:24.941Z</time>
      </trkpt>
      <trkpt lat="43.74963" lon="6.08531">
        <ele>494.36885</ele>
        <time>2022-05-26T10:37:29.942Z</time>
      </trkpt>
      <trkpt lat="43.74974" lon="6.08532">
        <ele>495.186001</ele>
        <time>2022-05-26T10:37:34.942Z</time>
      </trkpt>
      <trkpt lat="43.74984" lon="6.08533">
        <ele>495.930473</ele>
        <time>2022-05-26T10:37:38.937Z</time>
      </trkpt>
      <trkpt lat="43.74994" lon="6.08532">
        <ele>496.616794</ele>
        <time>2022-05-26T10:37:43.942Z</time>
      </trkpt>
      <trkpt lat="43.75005" lon="6.08529">
        <ele>497.421253</ele>
        <time>2022-05-26T10:37:48.942Z</time>
      </trkpt>
      <trkpt lat="43.75015" lon="6.08526">
        <ele>498.16877</ele>
        <time>2022-05-26T10:37:52.940Z</time>
      </trkpt>
      <trkpt lat="43.75024" lon="6.08522">
        <ele>498.846653</ele>
        <time>2022-05-26T10:37:56.942Z</time>
      </trkpt>
      <trkpt lat="43.75033" lon="6.08518">
        <ele>499.50187</ele>
        <time>2022-05-26T10:38:00.937Z</time>
      </trkpt>
      <trkpt lat="43.75043" lon="6.08516">
        <ele>500.223306</ele>
        <time>2022-05-26T10:38:05.944Z</time>
      </trkpt>
      <trkpt lat="43.75053" lon="6.08514">
        <ele>500.97526</ele>
        <time>2022-05-26T10:38:09.935Z</time>
      </trkpt>
      <trkpt lat="43.75063" lon="6.08506">
        <ele>501.882247</ele>
        <time>2022-05-26T10:38:13.937Z</time>
      </trkpt>
      <trkpt lat="43.75072" lon="6.08501">
        <ele>502.72108</ele>
        <time>2022-05-26T10:38:17.940Z</time>
      </trkpt>
      <trkpt lat="43.75081" lon="6.08494">
        <ele>503.620513</ele>
        <time>2022-05-26T10:38:21.949Z</time>
      </trkpt>
      <trkpt lat="43.75092" lon="6.08491">
        <ele>504.544802</ele>
        <time>2022-05-26T10:38:26.939Z</time>
      </trkpt>
      <trkpt lat="43.75102" lon="6.08489">
        <ele>505.374762</ele>
        <time>2022-05-26T10:38:30.938Z</time>
      </trkpt>
      <trkpt lat="43.75113" lon="6.0849">
        <ele>506.295366</ele>
        <time>2022-05-26T10:38:34.939Z</time>
      </trkpt>
      <trkpt lat="43.75122" lon="6.08492">
        <ele>507.062968</ele>
        <time>2022-05-26T10:38:38.941Z</time>
      </trkpt>
      <trkpt lat="43.75131" lon="6.08495">
        <ele>507.900962</ele>
        <time>2022-05-26T10:38:43.942Z</time>
      </trkpt>
      <trkpt lat="43.7514" lon="6.08496">
        <ele>508.672595</ele>
        <time>2022-05-26T10:38:47.942Z</time>
      </trkpt>
      <trkpt lat="43.75151" lon="6.08498">
        <ele>509.578771</ele>
        <time>2022-05-26T10:38:52.941Z</time>
      </trkpt>
      <trkpt lat="43.7516" lon="6.08499">
        <ele>510.3762</ele>
        <time>2022-05-26T10:38:57.938Z</time>
      </trkpt>
      <trkpt lat="43.7517" lon="6.085">
        <ele>511.154328</ele>
        <time>2022-05-26T10:39:01.943Z</time>
      </trkpt>
      <trkpt lat="43.75179" lon="6.08501">
        <ele>511.945406</ele>
        <time>2022-05-26T10:39:05.938Z</time>
      </trkpt>
      <trkpt lat="43.75188" lon="6.08505">
        <ele>512.741469</ele>
        <time>2022-05-26T10:39:09.942Z</time>
      </trkpt>
      <trkpt lat="43.75198" lon="6.08513">
        <ele>513.712193</ele>
        <time>2022-05-26T10:39:13.941Z</time>
      </trkpt>
      <trkpt lat="43.75207" lon="6.0852">
        <ele>514.549619</ele>
        <time>2022-05-26T10:39:18.942Z</time>
      </trkpt>
      <trkpt lat="43.75214" lon="6.08529">
        <ele>515.358751</ele>
        <time>2022-05-26T10:39:23.941Z</time>
      </trkpt>
      <trkpt lat="43.75223" lon="6.08536">
        <ele>516.294091</ele>
        <time>2022-05-26T10:39:27.939Z</time>
      </trkpt>
      <trkpt lat="43.75233" lon="6.08541">
        <ele>517.412307</ele>
        <time>2022-05-26T10:39:31.937Z</time>
      </trkpt>
      <trkpt lat="43.75241" lon="6.08548">
        <ele>518.566392</ele>
        <time>2022-05-26T10:39:35.940Z</time>
      </trkpt>
      <trkpt lat="43.75249" lon="6.08556">
        <ele>519.663013</ele>
        <time>2022-05-26T10:39:39.937Z</time>
      </trkpt>
      <trkpt lat="43.75256" lon="6.08566">
        <ele>520.841111</ele>
        <time>2022-05-26T10:39:45.944Z</time>
      </trkpt>
      <trkpt lat="43.75264" lon="6.08576">
        <ele>521.960808</ele>
        <time>2022-05-26T10:39:51.942Z</time>
      </trkpt>
      <trkpt lat="43.75274" lon="6.08581">
        <ele>523.175223</ele>
        <time>2022-05-26T10:39:56.939Z</time>
      </trkpt>
      <trkpt lat="43.75277" lon="6.08593">
        <ele>524.27166</ele>
        <time>2022-05-26T10:40:03.944Z</time>
      </trkpt>
      <trkpt lat="43.75267" lon="6.08594">
        <ele>525.404941</ele>
        <time>2022-05-26T10:40:09.940Z</time>
      </trkpt>
      <trkpt lat="43.75259" lon="6.08591">
        <ele>526.432281</ele>
        <time>2022-05-26T10:40:14.944Z</time>
      </trkpt>
      <trkpt lat="43.75249" lon="6.08594">
        <ele>527.580654</ele>
        <time>2022-05-26T10:40:20.942Z</time>
      </trkpt>
      <trkpt lat="43.75239" lon="6.08598">
        <ele>528.765367</ele>
        <time>2022-05-26T10:40:25.945Z</time>
      </trkpt>
      <trkpt lat="43.75231" lon="6.08607">
        <ele>529.926516</ele>
        <time>2022-05-26T10:40:30.938Z</time>
      </trkpt>
      <trkpt lat="43.75223" lon="6.08615">
        <ele>531.025622</ele>
        <time>2022-05-26T10:40:36.942Z</time>
      </trkpt>
      <trkpt lat="43.75215" lon="6.08623">
        <ele>532.151821</ele>
        <time>2022-05-26T10:40:41.940Z</time>
      </trkpt>
      <trkpt lat="43.75207" lon="6.08632">
        <ele>533.302804</ele>
        <time>2022-05-26T10:40:47.941Z</time>
      </trkpt>
      <trkpt lat="43.75201" lon="6.08642">
        <ele>534.374952</ele>
        <time>2022-05-26T10:41:05.939Z</time>
      </trkpt>
      <trkpt lat="43.75197" lon="6.08666">
        <ele>536.41693</ele>
        <time>2022-05-26T10:43:11.944Z</time>
      </trkpt>
      <trkpt lat="43.75192" lon="6.08678">
        <ele>537.19227</ele>
        <time>2022-05-26T10:43:15.943Z</time>
      </trkpt>
      <trkpt lat="43.7519" lon="6.08691">
        <ele>537.901276</ele>
        <time>2022-05-26T10:43:20.936Z</time>
      </trkpt>
      <trkpt lat="43.75186" lon="6.08705">
        <ele>538.648489</ele>
        <time>2022-05-26T10:43:26.945Z</time>
      </trkpt>
      <trkpt lat="43.75181" lon="6.08716">
        <ele>539.31032</ele>
        <time>2022-05-26T10:43:30.946Z</time>
      </trkpt>
      <trkpt lat="43.75179" lon="6.08729">
        <ele>540.027803</ele>
        <time>2022-05-26T10:43:35.944Z</time>
      </trkpt>
      <trkpt lat="43.75177" lon="6.08743">
        <ele>540.781135</ele>
        <time>2022-05-26T10:43:39.936Z</time>
      </trkpt>
      <trkpt lat="43.75173" lon="6.08755">
        <ele>541.469139</ele>
        <time>2022-05-26T10:43:44.938Z</time>
      </trkpt>
      <trkpt lat="43.75167" lon="6.08767">
        <ele>542.196379</ele>
        <time>2022-05-26T10:43:49.941Z</time>
      </trkpt>
      <trkpt lat="43.75161" lon="6.08778">
        <ele>542.934701</ele>
        <time>2022-05-26T10:43:54.939Z</time>
      </trkpt>
      <trkpt lat="43.75155" lon="6.08787">
        <ele>543.634678</ele>
        <time>2022-05-26T10:43:58.942Z</time>
      </trkpt>
      <trkpt lat="43.75147" lon="6.08796">
        <ele>544.325816</ele>
        <time>2022-05-26T10:44:03.931Z</time>
      </trkpt>
      <trkpt lat="43.75138" lon="6.08804">
        <ele>545.112274</ele>
        <time>2022-05-26T10:44:08.938Z</time>
      </trkpt>
      <trkpt lat="43.75137" lon="6.08818">
        <ele>545.827147</ele>
        <time>2022-05-26T10:44:13.938Z</time>
      </trkpt>
      <trkpt lat="43.75146" lon="6.08815">
        <ele>546.52983</ele>
        <time>2022-05-26T10:44:18.939Z</time>
      </trkpt>
      <trkpt lat="43.75156" lon="6.08808">
        <ele>547.294336</ele>
        <time>2022-05-26T10:44:23.936Z</time>
      </trkpt>
      <trkpt lat="43.75163" lon="6.088">
        <ele>547.997692</ele>
        <time>2022-05-26T10:44:28.940Z</time>
      </trkpt>
      <trkpt lat="43.75161" lon="6.08813">
        <ele>548.666446</ele>
        <time>2022-05-26T10:44:35.936Z</time>
      </trkpt>
      <trkpt lat="43.75154" lon="6.08822">
        <ele>549.3579</ele>
        <time>2022-05-26T10:44:40.940Z</time>
      </trkpt>
      <trkpt lat="43.75146" lon="6.08832">
        <ele>549.965881</ele>
        <time>2022-05-26T10:44:45.939Z</time>
      </trkpt>
      <trkpt lat="43.7514" lon="6.08842">
        <ele>550.473876</ele>
        <time>2022-05-26T10:44:50.943Z</time>
      </trkpt>
      <trkpt lat="43.75134" lon="6.08853">
        <ele>550.957053</ele>
        <time>2022-05-26T10:44:56.937Z</time>
      </trkpt>
      <trkpt lat="43.75126" lon="6.08862">
        <ele>551.442877</ele>
        <time>2022-05-26T10:45:01.936Z</time>
      </trkpt>
      <trkpt lat="43.75121" lon="6.08873">
        <ele>551.93844</ele>
        <time>2022-05-26T10:45:06.943Z</time>
      </trkpt>
      <trkpt lat="43.75122" lon="6.08886">
        <ele>552.420294</ele>
        <time>2022-05-26T10:45:12.938Z</time>
      </trkpt>
      <trkpt lat="43.75124" lon="6.08899">
        <ele>552.88222</ele>
        <time>2022-05-26T10:45:18.936Z</time>
      </trkpt>
      <trkpt lat="43.75129" lon="6.08911">
        <ele>553.413742</ele>
        <time>2022-05-26T10:45:26.936Z</time>
      </trkpt>
      <trkpt lat="43.75133" lon="6.08899">
        <ele>553.896088</ele>
        <time>2022-05-26T10:45:40.939Z</time>
      </trkpt>
      <trkpt lat="43.75137" lon="6.08886">
        <ele>554.407027</ele>
        <time>2022-05-26T10:45:46.948Z</time>
      </trkpt>
      <trkpt lat="43.75142" lon="6.08875">
        <ele>554.863089</ele>
        <time>2022-05-26T10:45:52.943Z</time>
      </trkpt>
      <trkpt lat="43.75148" lon="6.08864">
        <ele>555.399698</ele>
        <time>2022-05-26T10:45:59.932Z</time>
      </trkpt>
      <trkpt lat="43.75157" lon="6.08857">
        <ele>555.923628</ele>
        <time>2022-05-26T10:46:05.941Z</time>
      </trkpt>
      <trkpt lat="43.75148" lon="6.08862">
        <ele>556.428</ele>
        <time>2022-05-26T10:46:20.940Z</time>
      </trkpt>
      <trkpt lat="43.75142" lon="6.08871">
        <ele>556.895866</ele>
        <time>2022-05-26T10:46:24.938Z</time>
      </trkpt>
      <trkpt lat="43.75139" lon="6.08885">
        <ele>557.410351</ele>
        <time>2022-05-26T10:46:28.940Z</time>
      </trkpt>
      <trkpt lat="43.75138" lon="6.08899">
        <ele>557.938769</ele>
        <time>2022-05-26T10:46:32.936Z</time>
      </trkpt>
      <trkpt lat="43.75145" lon="6.08906">
        <ele>558.399364</ele>
        <time>2022-05-26T10:46:48.933Z</time>
      </trkpt>
      <trkpt lat="43.7515" lon="6.08919">
        <ele>558.878406</ele>
        <time>2022-05-26T10:47:03.940Z</time>
      </trkpt>
      <trkpt lat="43.75161" lon="6.08924">
        <ele>559.341821</ele>
        <time>2022-05-26T10:47:11.930Z</time>
      </trkpt>
      <trkpt lat="43.75168" lon="6.08932">
        <ele>559.737211</ele>
        <time>2022-05-26T10:47:15.936Z</time>
      </trkpt>
      <trkpt lat="43.75178" lon="6.08931">
        <ele>560.126005</ele>
        <time>2022-05-26T10:47:21.932Z</time>
      </trkpt>
      <trkpt lat="43.75186" lon="6.08927">
        <ele>560.5027</ele>
        <time>2022-05-26T10:47:26.938Z</time>
      </trkpt>
      <trkpt lat="43.75194" lon="6.0892">
        <ele>560.894598</ele>
        <time>2022-05-26T10:47:32.929Z</time>
      </trkpt>
      <trkpt lat="43.752" lon="6.0891">
        <ele>561.283164</ele>
        <time>2022-05-26T10:47:40.928Z</time>
      </trkpt>
      <trkpt lat="43.75192" lon="6.08903">
        <ele>561.692837</ele>
        <time>2022-05-26T10:47:48.938Z</time>
      </trkpt>
      <trkpt lat="43.75181" lon="6.08903">
        <ele>562.118277</ele>
        <time>2022-05-26T10:47:52.940Z</time>
      </trkpt>
      <trkpt lat="43.75172" lon="6.08907">
        <ele>562.538821</ele>
        <time>2022-05-26T10:47:59.932Z</time>
      </trkpt>
      <trkpt lat="43.75162" lon="6.08902">
        <ele>562.979576</ele>
        <time>2022-05-26T10:48:16.934Z</time>
      </trkpt>
      <trkpt lat="43.75151" lon="6.08897">
        <ele>563.44381</ele>
        <time>2022-05-26T10:48:22.942Z</time>
      </trkpt>
      <trkpt lat="43.7516" lon="6.08906">
        <ele>563.901024</ele>
        <time>2022-05-26T10:49:14.935Z</time>
      </trkpt>
      <trkpt lat="43.7517" lon="6.08907">
        <ele>564.313653</ele>
        <time>2022-05-26T10:49:21.929Z</time>
      </trkpt>
      <trkpt lat="43.75179" lon="6.08904">
        <ele>564.709818</ele>
        <time>2022-05-26T10:49:26.935Z</time>
      </trkpt>
      <trkpt lat="43.75188" lon="6.08902">
        <ele>565.091284</ele>
        <time>2022-05-26T10:49:29.942Z</time>
      </trkpt>
      <trkpt lat="43.75198" lon="6.08905">
        <ele>565.49222</ele>
        <time>2022-05-26T10:49:32.940Z</time>
      </trkpt>
      <trkpt lat="43.75205" lon="6.08913">
        <ele>565.876682</ele>
        <time>2022-05-26T10:49:55.934Z</time>
      </trkpt>
      <trkpt lat="43.75213" lon="6.08904">
        <ele>565.996116</ele>
        <time>2022-05-26T10:50:01.938Z</time>
      </trkpt>
      <trkpt lat="43.75222" lon="6.08894">
        <ele>565.534295</ele>
        <time>2022-05-26T10:50:05.944Z</time>
      </trkpt>
      <trkpt lat="43.7523" lon="6.08882">
        <ele>565.086875</ele>
        <time>2022-05-26T10:50:08.945Z</time>
      </trkpt>
      <trkpt lat="43.75233" lon="6.0887">
        <ele>564.721051</ele>
        <time>2022-05-26T10:50:11.938Z</time>
      </trkpt>
      <trkpt lat="43.75234" lon="6.08854">
        <ele>564.263709</ele>
        <time>2022-05-26T10:50:15.943Z</time>
      </trkpt>
      <trkpt lat="43.75238" lon="6.0884">
        <ele>563.836435</ele>
        <time>2022-05-26T10:50:18.932Z</time>
      </trkpt>
      <trkpt lat="43.7524" lon="6.08827">
        <ele>563.451899</ele>
        <time>2022-05-26T10:51:24.936Z</time>
      </trkpt>
      <trkpt lat="43.75229" lon="6.08825">
        <ele>563.034263</ele>
        <time>2022-05-26T10:53:03.933Z</time>
      </trkpt>
      <trkpt lat="43.75219" lon="6.08824">
        <ele>562.608082</ele>
        <time>2022-05-26T10:53:07.937Z</time>
      </trkpt>
      <trkpt lat="43.75209" lon="6.08824">
        <ele>562.211259</ele>
        <time>2022-05-26T10:53:10.938Z</time>
      </trkpt>
      <trkpt lat="43.75199" lon="6.0883">
        <ele>561.778412</ele>
        <time>2022-05-26T10:53:15.944Z</time>
      </trkpt>
      <trkpt lat="43.75188" lon="6.08833">
        <ele>561.35389</ele>
        <time>2022-05-26T10:53:19.931Z</time>
      </trkpt>
      <trkpt lat="43.75179" lon="6.08838">
        <ele>560.992133</ele>
        <time>2022-05-26T10:53:21.934Z</time>
      </trkpt>
      <trkpt lat="43.75171" lon="6.08846">
        <ele>560.596311</ele>
        <time>2022-05-26T10:53:24.933Z</time>
      </trkpt>
      <trkpt lat="43.75162" lon="6.0885">
        <ele>560.202727</ele>
        <time>2022-05-26T10:53:27.937Z</time>
      </trkpt>
      <trkpt lat="43.75152" lon="6.08856">
        <ele>559.776975</ele>
        <time>2022-05-26T10:53:30.934Z</time>
      </trkpt>
      <trkpt lat="43.75141" lon="6.08861">
        <ele>559.335058</ele>
        <time>2022-05-26T10:53:33.930Z</time>
      </trkpt>
      <trkpt lat="43.75132" lon="6.08871">
        <ele>558.785465</ele>
        <time>2022-05-26T10:53:36.936Z</time>
      </trkpt>
      <trkpt lat="43.75133" lon="6.08884">
        <ele>558.260935</ele>
        <time>2022-05-26T10:53:38.938Z</time>
      </trkpt>
      <trkpt lat="43.75134" lon="6.089">
        <ele>557.559359</ele>
        <time>2022-05-26T10:53:41.933Z</time>
      </trkpt>
      <trkpt lat="43.75129" lon="6.08912">
        <ele>556.997405</ele>
        <time>2022-05-26T10:53:48.938Z</time>
      </trkpt>
      <trkpt lat="43.75121" lon="6.08903">
        <ele>556.380149</ele>
        <time>2022-05-26T10:53:52.938Z</time>
      </trkpt>
      <trkpt lat="43.75118" lon="6.0889">
        <ele>555.789691</ele>
        <time>2022-05-26T10:53:55.940Z</time>
      </trkpt>
      <trkpt lat="43.7512" lon="6.08877">
        <ele>555.204455</ele>
        <time>2022-05-26T10:53:58.936Z</time>
      </trkpt>
      <trkpt lat="43.75127" lon="6.08865">
        <ele>554.590449</ele>
        <time>2022-05-26T10:54:01.933Z</time>
      </trkpt>
      <trkpt lat="43.75132" lon="6.08853">
        <ele>553.988791</ele>
        <time>2022-05-26T10:54:04.939Z</time>
      </trkpt>
      <trkpt lat="43.7514" lon="6.08844">
        <ele>553.38985</ele>
        <time>2022-05-26T10:54:07.944Z</time>
      </trkpt>
      <trkpt lat="43.75152" lon="6.08834">
        <ele>552.602779</ele>
        <time>2022-05-26T10:54:10.941Z</time>
      </trkpt>
      <trkpt lat="43.75158" lon="6.08824">
        <ele>552.071002</ele>
        <time>2022-05-26T10:54:12.938Z</time>
      </trkpt>
      <trkpt lat="43.75165" lon="6.08816">
        <ele>551.507617</ele>
        <time>2022-05-26T10:54:15.943Z</time>
      </trkpt>
      <trkpt lat="43.75157" lon="6.08811">
        <ele>550.978041</ele>
        <time>2022-05-26T10:54:23.935Z</time>
      </trkpt>
      <trkpt lat="43.75148" lon="6.08818">
        <ele>550.385188</ele>
        <time>2022-05-26T10:54:25.934Z</time>
      </trkpt>
      <trkpt lat="43.75138" lon="6.08814">
        <ele>549.773407</ele>
        <time>2022-05-26T10:54:28.943Z</time>
      </trkpt>
      <trkpt lat="43.75145" lon="6.088">
        <ele>549.057812</ele>
        <time>2022-05-26T10:54:31.941Z</time>
      </trkpt>
      <trkpt lat="43.75153" lon="6.08791">
        <ele>548.297282</ele>
        <time>2022-05-26T10:54:33.939Z</time>
      </trkpt>
      <trkpt lat="43.75159" lon="6.08777">
        <ele>546.973303</ele>
        <time>2022-05-26T10:54:36.934Z</time>
      </trkpt>
      <trkpt lat="43.75158" lon="6.0876">
        <ele>545.534871</ele>
        <time>2022-05-26T10:54:39.939Z</time>
      </trkpt>
      <trkpt lat="43.75157" lon="6.08745">
        <ele>544.345084</ele>
        <time>2022-05-26T10:54:41.935Z</time>
      </trkpt>
      <trkpt lat="43.75154" lon="6.08731">
        <ele>543.122066</ele>
        <time>2022-05-26T10:54:43.935Z</time>
      </trkpt>
      <trkpt lat="43.75153" lon="6.08718">
        <ele>542.081743</ele>
        <time>2022-05-26T10:54:45.949Z</time>
      </trkpt>
      <trkpt lat="43.7515" lon="6.08703">
        <ele>540.846704</ele>
        <time>2022-05-26T10:54:47.931Z</time>
      </trkpt>
      <trkpt lat="43.75148" lon="6.08687">
        <ele>539.449175</ele>
        <time>2022-05-26T10:54:50.934Z</time>
      </trkpt>
      <trkpt lat="43.75146" lon="6.08674">
        <ele>538.399263</ele>
        <time>2022-05-26T10:54:53.939Z</time>
      </trkpt>
      <trkpt lat="43.7514" lon="6.08664">
        <ele>537.360235</ele>
        <time>2022-05-26T10:54:57.937Z</time>
      </trkpt>
      <trkpt lat="43.75132" lon="6.08654">
        <ele>536.07325</ele>
        <time>2022-05-26T10:55:01.943Z</time>
      </trkpt>
      <trkpt lat="43.75122" lon="6.08644">
        <ele>534.740267</ele>
        <time>2022-05-26T10:55:04.953Z</time>
      </trkpt>
      <trkpt lat="43.75112" lon="6.08639">
        <ele>533.563132</ele>
        <time>2022-05-26T10:55:06.939Z</time>
      </trkpt>
      <trkpt lat="43.75101" lon="6.08634">
        <ele>532.204554</ele>
        <time>2022-05-26T10:55:08.937Z</time>
      </trkpt>
      <trkpt lat="43.75092" lon="6.08631">
        <ele>531.183276</ele>
        <time>2022-05-26T10:55:10.941Z</time>
      </trkpt>
      <trkpt lat="43.75083" lon="6.08629">
        <ele>530.159177</ele>
        <time>2022-05-26T10:55:13.942Z</time>
      </trkpt>
      <trkpt lat="43.75074" lon="6.08636">
        <ele>528.970982</ele>
        <time>2022-05-26T10:55:32.931Z</time>
      </trkpt>
      <trkpt lat="43.7507" lon="6.08649">
        <ele>527.92655</ele>
        <time>2022-05-26T10:55:34.935Z</time>
      </trkpt>
      <trkpt lat="43.75064" lon="6.08659">
        <ele>526.977427</ele>
        <time>2022-05-26T10:55:36.938Z</time>
      </trkpt>
      <trkpt lat="43.75053" lon="6.0867">
        <ele>525.700633</ele>
        <time>2022-05-26T10:55:39.939Z</time>
      </trkpt>
      <trkpt lat="43.75046" lon="6.0868">
        <ele>524.718871</ele>
        <time>2022-05-26T10:55:41.933Z</time>
      </trkpt>
      <trkpt lat="43.75036" lon="6.0869">
        <ele>523.540643</ele>
        <time>2022-05-26T10:55:44.940Z</time>
      </trkpt>
      <trkpt lat="43.75028" lon="6.087">
        <ele>522.498323</ele>
        <time>2022-05-26T10:55:46.941Z</time>
      </trkpt>
      <trkpt lat="43.75018" lon="6.08713">
        <ele>521.189609</ele>
        <time>2022-05-26T10:55:48.937Z</time>
      </trkpt>
      <trkpt lat="43.75009" lon="6.0873">
        <ele>519.681571</ele>
        <time>2022-05-26T10:55:50.938Z</time>
      </trkpt>
      <trkpt lat="43.75001" lon="6.08747">
        <ele>518.330076</ele>
        <time>2022-05-26T10:55:52.946Z</time>
      </trkpt>
      <trkpt lat="43.74999" lon="6.08759">
        <ele>517.438325</ele>
        <time>2022-05-26T10:55:54.937Z</time>
      </trkpt>
      <trkpt lat="43.74996" lon="6.08772">
        <ele>516.49331</ele>
        <time>2022-05-26T10:55:56.939Z</time>
      </trkpt>
      <trkpt lat="43.74994" lon="6.08786">
        <ele>515.475257</ele>
        <time>2022-05-26T10:55:59.933Z</time>
      </trkpt>
      <trkpt lat="43.74994" lon="6.08803">
        <ele>514.283671</ele>
        <time>2022-05-26T10:56:02.939Z</time>
      </trkpt>
      <trkpt lat="43.74995" lon="6.08817">
        <ele>513.347752</ele>
        <time>2022-05-26T10:56:06.942Z</time>
      </trkpt>
      <trkpt lat="43.74992" lon="6.08829">
        <ele>512.481675</ele>
        <time>2022-05-26T10:56:11.928Z</time>
      </trkpt>
      <trkpt lat="43.74989" lon="6.0884">
        <ele>511.613364</ele>
        <time>2022-05-26T10:56:16.929Z</time>
      </trkpt>
      <trkpt lat="43.74979" lon="6.0885">
        <ele>510.654279</ele>
        <time>2022-05-26T10:56:20.938Z</time>
      </trkpt>
      <trkpt lat="43.74974" lon="6.08864">
        <ele>509.973718</ele>
        <time>2022-05-26T10:56:23.940Z</time>
      </trkpt>
      <trkpt lat="43.7497" lon="6.08876">
        <ele>509.37698</ele>
        <time>2022-05-26T10:56:25.941Z</time>
      </trkpt>
      <trkpt lat="43.74967" lon="6.08891">
        <ele>508.678404</ele>
        <time>2022-05-26T10:56:28.936Z</time>
      </trkpt>
      <trkpt lat="43.74967" lon="6.08905">
        <ele>508.049324</ele>
        <time>2022-05-26T10:56:32.940Z</time>
      </trkpt>
      <trkpt lat="43.74967" lon="6.08918">
        <ele>507.478221</ele>
        <time>2022-05-26T10:56:36.937Z</time>
      </trkpt>
      <trkpt lat="43.74964" lon="6.08933">
        <ele>506.791538</ele>
        <time>2022-05-26T10:56:40.939Z</time>
      </trkpt>
      <trkpt lat="43.74956" lon="6.0894">
        <ele>506.229343</ele>
        <time>2022-05-26T10:56:44.942Z</time>
      </trkpt>
      <trkpt lat="43.74949" lon="6.08949">
        <ele>505.607055</ele>
        <time>2022-05-26T10:56:55.940Z</time>
      </trkpt>
      <trkpt lat="43.74946" lon="6.08964">
        <ele>504.935757</ele>
        <time>2022-05-26T10:57:08.931Z</time>
      </trkpt>
      <trkpt lat="43.74939" lon="6.0898">
        <ele>504.108196</ele>
        <time>2022-05-26T10:57:12.937Z</time>
      </trkpt>
      <trkpt lat="43.74932" lon="6.08993">
        <ele>503.358288</ele>
        <time>2022-05-26T10:57:15.939Z</time>
      </trkpt>
      <trkpt lat="43.74926" lon="6.09007">
        <ele>502.646399</ele>
        <time>2022-05-26T10:57:18.940Z</time>
      </trkpt>
      <trkpt lat="43.74926" lon="6.0902">
        <ele>502.070833</ele>
        <time>2022-05-26T10:57:22.937Z</time>
      </trkpt>
      <trkpt lat="43.74927" lon="6.09034">
        <ele>501.447724</ele>
        <time>2022-05-26T10:57:47.934Z</time>
      </trkpt>
      <trkpt lat="43.74929" lon="6.09049">
        <ele>500.763708</ele>
        <time>2022-05-26T10:57:51.937Z</time>
      </trkpt>
      <trkpt lat="43.74927" lon="6.09066">
        <ele>499.999792</ele>
        <time>2022-05-26T10:57:54.941Z</time>
      </trkpt>
      <trkpt lat="43.7492" lon="6.09078">
        <ele>498.754445</ele>
        <time>2022-05-26T10:57:57.938Z</time>
      </trkpt>
      <trkpt lat="43.74916" lon="6.09092">
        <ele>497.332118</ele>
        <time>2022-05-26T10:58:00.935Z</time>
      </trkpt>
      <trkpt lat="43.74913" lon="6.09107">
        <ele>495.985075</ele>
        <time>2022-05-26T10:58:03.932Z</time>
      </trkpt>
      <trkpt lat="43.74911" lon="6.09122">
        <ele>494.607326</ele>
        <time>2022-05-26T10:58:07.933Z</time>
      </trkpt>
      <trkpt lat="43.74903" lon="6.09128">
        <ele>493.438813</ele>
        <time>2022-05-26T10:58:10.935Z</time>
      </trkpt>
      <trkpt lat="43.74893" lon="6.09129">
        <ele>492.313723</ele>
        <time>2022-05-26T10:58:12.938Z</time>
      </trkpt>
      <trkpt lat="43.74884" lon="6.09131">
        <ele>491.112514</ele>
        <time>2022-05-26T10:58:14.940Z</time>
      </trkpt>
      <trkpt lat="43.74874" lon="6.09137">
        <ele>489.736467</ele>
        <time>2022-05-26T10:58:17.936Z</time>
      </trkpt>
      <trkpt lat="43.74865" lon="6.09145">
        <ele>488.454855</ele>
        <time>2022-05-26T10:58:20.939Z</time>
      </trkpt>
      <trkpt lat="43.74855" lon="6.09149">
        <ele>487.1337</ele>
        <time>2022-05-26T10:58:23.938Z</time>
      </trkpt>
      <trkpt lat="43.74845" lon="6.09157">
        <ele>485.779191</ele>
        <time>2022-05-26T10:58:29.934Z</time>
      </trkpt>
      <trkpt lat="43.74834" lon="6.09158">
        <ele>484.428647</ele>
        <time>2022-05-26T10:58:34.941Z</time>
      </trkpt>
      <trkpt lat="43.74825" lon="6.09153">
        <ele>483.283969</ele>
        <time>2022-05-26T10:58:37.936Z</time>
      </trkpt>
      <trkpt lat="43.74812" lon="6.09152">
        <ele>481.663856</ele>
        <time>2022-05-26T10:58:40.939Z</time>
      </trkpt>
      <trkpt lat="43.74803" lon="6.09151">
        <ele>480.52644</ele>
        <time>2022-05-26T10:58:43.942Z</time>
      </trkpt>
      <trkpt lat="43.74796" lon="6.09159">
        <ele>479.409503</ele>
        <time>2022-05-26T10:58:47.935Z</time>
      </trkpt>
      <trkpt lat="43.74794" lon="6.09171">
        <ele>478.244862</ele>
        <time>2022-05-26T10:58:51.935Z</time>
      </trkpt>
      <trkpt lat="43.74793" lon="6.09187">
        <ele>478.196001</ele>
        <time>2022-05-26T10:58:55.938Z</time>
      </trkpt>
      <trkpt lat="43.7479" lon="6.09199">
        <ele>478.826183</ele>
        <time>2022-05-26T10:58:59.933Z</time>
      </trkpt>
      <trkpt lat="43.74796" lon="6.09208">
        <ele>479.47565</ele>
        <time>2022-05-26T10:59:21.941Z</time>
      </trkpt>
      <trkpt lat="43.74799" lon="6.09221">
        <ele>480.166466</ele>
        <time>2022-05-26T10:59:25.934Z</time>
      </trkpt>
      <trkpt lat="43.74803" lon="6.09234">
        <ele>480.875633</ele>
        <time>2022-05-26T10:59:29.933Z</time>
      </trkpt>
      <trkpt lat="43.74806" lon="6.09248">
        <ele>481.60941</ele>
        <time>2022-05-26T10:59:34.937Z</time>
      </trkpt>
      <trkpt lat="43.74811" lon="6.09259">
        <ele>482.254201</ele>
        <time>2022-05-26T10:59:38.936Z</time>
      </trkpt>
      <trkpt lat="43.74817" lon="6.09271">
        <ele>482.983811</ele>
        <time>2022-05-26T10:59:43.935Z</time>
      </trkpt>
      <trkpt lat="43.74818" lon="6.09284">
        <ele>483.651896</ele>
        <time>2022-05-26T10:59:48.934Z</time>
      </trkpt>
      <trkpt lat="43.74814" lon="6.09299">
        <ele>484.493688</ele>
        <time>2022-05-26T10:59:53.936Z</time>
      </trkpt>
      <trkpt lat="43.74809" lon="6.0931">
        <ele>485.157907</ele>
        <time>2022-05-26T10:59:56.936Z</time>
      </trkpt>
      <trkpt lat="43.74803" lon="6.09324">
        <ele>486.005279</ele>
        <time>2022-05-26T11:00:00.938Z</time>
      </trkpt>
      <trkpt lat="43.74801" lon="6.09339">
        <ele>486.755155</ele>
        <time>2022-05-26T11:00:04.949Z</time>
      </trkpt>
      <trkpt lat="43.74802" lon="6.09351">
        <ele>487.404772</ele>
        <time>2022-05-26T11:00:08.936Z</time>
      </trkpt>
      <trkpt lat="43.74802" lon="6.09366">
        <ele>488.163609</ele>
        <time>2022-05-26T11:00:12.940Z</time>
      </trkpt>
      <trkpt lat="43.74801" lon="6.09383">
        <ele>489.028312</ele>
        <time>2022-05-26T11:00:16.936Z</time>
      </trkpt>
      <trkpt lat="43.74801" lon="6.09401">
        <ele>489.938631</ele>
        <time>2022-05-26T11:00:19.939Z</time>
      </trkpt>
      <trkpt lat="43.74803" lon="6.09414">
        <ele>490.448265</ele>
        <time>2022-05-26T11:00:22.940Z</time>
      </trkpt>
      <trkpt lat="43.74806" lon="6.0943">
        <ele>490.778584</ele>
        <time>2022-05-26T11:00:26.937Z</time>
      </trkpt>
      <trkpt lat="43.74809" lon="6.09445">
        <ele>491.097421</ele>
        <time>2022-05-26T11:00:30.939Z</time>
      </trkpt>
      <trkpt lat="43.74812" lon="6.0946">
        <ele>491.420137</ele>
        <time>2022-05-26T11:00:34.936Z</time>
      </trkpt>
      <trkpt lat="43.74814" lon="6.09476">
        <ele>491.746472</ele>
        <time>2022-05-26T11:00:38.939Z</time>
      </trkpt>
      <trkpt lat="43.74816" lon="6.09489">
        <ele>492.029122</ele>
        <time>2022-05-26T11:00:41.938Z</time>
      </trkpt>
      <trkpt lat="43.74821" lon="6.09505">
        <ele>492.384261</ele>
        <time>2022-05-26T11:00:44.941Z</time>
      </trkpt>
      <trkpt lat="43.74825" lon="6.09517">
        <ele>492.638906</ele>
        <time>2022-05-26T11:00:46.938Z</time>
      </trkpt>
      <trkpt lat="43.7483" lon="6.09527">
        <ele>492.897354</ele>
        <time>2022-05-26T11:00:48.937Z</time>
      </trkpt>
      <trkpt lat="43.74834" lon="6.09539">
        <ele>493.15154</ele>
        <time>2022-05-26T11:00:50.935Z</time>
      </trkpt>
      <trkpt lat="43.74838" lon="6.09551">
        <ele>493.419886</ele>
        <time>2022-05-26T11:00:52.937Z</time>
      </trkpt>
      <trkpt lat="43.74843" lon="6.09567">
        <ele>493.774201</ele>
        <time>2022-05-26T11:00:55.938Z</time>
      </trkpt>
      <trkpt lat="43.74847" lon="6.09584">
        <ele>494.134948</ele>
        <time>2022-05-26T11:00:58.936Z</time>
      </trkpt>
      <trkpt lat="43.74851" lon="6.09599">
        <ele>494.468172</ele>
        <time>2022-05-26T11:01:01.935Z</time>
      </trkpt>
      <trkpt lat="43.74854" lon="6.09614">
        <ele>494.785621</ele>
        <time>2022-05-26T11:01:05.938Z</time>
      </trkpt>
      <trkpt lat="43.74858" lon="6.09629">
        <ele>495.105383</ele>
        <time>2022-05-26T11:01:10.935Z</time>
      </trkpt>
      <trkpt lat="43.74865" lon="6.0964">
        <ele>495.409722</ele>
        <time>2022-05-26T11:01:14.932Z</time>
      </trkpt>
      <trkpt lat="43.74873" lon="6.09653">
        <ele>495.514781</ele>
        <time>2022-05-26T11:01:18.935Z</time>
      </trkpt>
      <trkpt lat="43.7488" lon="6.09665">
        <ele>495.618572</ele>
        <time>2022-05-26T11:01:22.936Z</time>
      </trkpt>
      <trkpt lat="43.74887" lon="6.09677">
        <ele>495.714523</ele>
        <time>2022-05-26T11:01:25.935Z</time>
      </trkpt>
      <trkpt lat="43.74894" lon="6.09691">
        <ele>495.828698</ele>
        <time>2022-05-26T11:01:28.944Z</time>
      </trkpt>
      <trkpt lat="43.74903" lon="6.09702">
        <ele>495.928596</ele>
        <time>2022-05-26T11:01:30.937Z</time>
      </trkpt>
      <trkpt lat="43.74908" lon="6.09713">
        <ele>496.018166</ele>
        <time>2022-05-26T11:01:32.935Z</time>
      </trkpt>
      <trkpt lat="43.74916" lon="6.09723">
        <ele>496.111559</ele>
        <time>2022-05-26T11:01:34.934Z</time>
      </trkpt>
      <trkpt lat="43.74925" lon="6.09733">
        <ele>496.218955</ele>
        <time>2022-05-26T11:01:37.934Z</time>
      </trkpt>
      <trkpt lat="43.74935" lon="6.09743">
        <ele>496.322706</ele>
        <time>2022-05-26T11:01:41.938Z</time>
      </trkpt>
      <trkpt lat="43.74939" lon="6.09753">
        <ele>496.403058</ele>
        <time>2022-05-26T11:01:45.933Z</time>
      </trkpt>
      <trkpt lat="43.74937" lon="6.09766">
        <ele>496.486727</ele>
        <time>2022-05-26T11:01:48.936Z</time>
      </trkpt>
      <trkpt lat="43.74926" lon="6.0977">
        <ele>496.589494</ele>
        <time>2022-05-26T11:01:52.931Z</time>
      </trkpt>
      <trkpt lat="43.74917" lon="6.09775">
        <ele>496.675985</ele>
        <time>2022-05-26T11:01:55.940Z</time>
      </trkpt>
      <trkpt lat="43.74913" lon="6.09788">
        <ele>496.768463</ele>
        <time>2022-05-26T11:01:59.938Z</time>
      </trkpt>
      <trkpt lat="43.74916" lon="6.09802">
        <ele>496.863424</ele>
        <time>2022-05-26T11:02:05.933Z</time>
      </trkpt>
      <trkpt lat="43.74916" lon="6.09817">
        <ele>496.957104</ele>
        <time>2022-05-26T11:02:11.929Z</time>
      </trkpt>
      <trkpt lat="43.74917" lon="6.09831">
        <ele>497.057092</ele>
        <time>2022-05-26T11:02:17.934Z</time>
      </trkpt>
      <trkpt lat="43.7492" lon="6.09844">
        <ele>497.165247</ele>
        <time>2022-05-26T11:02:22.933Z</time>
      </trkpt>
      <trkpt lat="43.74924" lon="6.09856">
        <ele>497.274622</ele>
        <time>2022-05-26T11:02:27.932Z</time>
      </trkpt>
      <trkpt lat="43.7493" lon="6.09867">
        <ele>497.387075</ele>
        <time>2022-05-26T11:02:32.933Z</time>
      </trkpt>
      <trkpt lat="43.74936" lon="6.09878">
        <ele>497.495198</ele>
        <time>2022-05-26T11:02:38.934Z</time>
      </trkpt>
      <trkpt lat="43.74941" lon="6.09887">
        <ele>497.596496</ele>
        <time>2022-05-26T11:02:43.935Z</time>
      </trkpt>
      <trkpt lat="43.74947" lon="6.09898">
        <ele>497.701735</ele>
        <time>2022-05-26T11:02:48.930Z</time>
      </trkpt>
      <trkpt lat="43.74949" lon="6.09911">
        <ele>497.81351</ele>
        <time>2022-05-26T11:02:55.930Z</time>
      </trkpt>
      <trkpt lat="43.74938" lon="6.09917">
        <ele>497.944787</ele>
        <time>2022-05-26T11:03:00.943Z</time>
      </trkpt>
      <trkpt lat="43.74929" lon="6.09921">
        <ele>498.047371</ele>
        <time>2022-05-26T11:03:02.943Z</time>
      </trkpt>
      <trkpt lat="43.7492" lon="6.09927">
        <ele>498.163624</ele>
        <time>2022-05-26T11:03:04.938Z</time>
      </trkpt>
      <trkpt lat="43.74908" lon="6.09934">
        <ele>498.307769</ele>
        <time>2022-05-26T11:03:06.940Z</time>
      </trkpt>
      <trkpt lat="43.74894" lon="6.09941">
        <ele>498.475744</ele>
        <time>2022-05-26T11:03:08.945Z</time>
      </trkpt>
      <trkpt lat="43.7488" lon="6.09949">
        <ele>498.651458</ele>
        <time>2022-05-26T11:03:10.932Z</time>
      </trkpt>
      <trkpt lat="43.74865" lon="6.09959">
        <ele>498.836085</ele>
        <time>2022-05-26T11:03:12.933Z</time>
      </trkpt>
      <trkpt lat="43.74857" lon="6.09966">
        <ele>498.944136</ele>
        <time>2022-05-26T11:03:13.934Z</time>
      </trkpt>
      <trkpt lat="43.74849" lon="6.09973">
        <ele>498.971567</ele>
        <time>2022-05-26T11:03:14.937Z</time>
      </trkpt>
      <trkpt lat="43.74841" lon="6.0998">
        <ele>498.428275</ele>
        <time>2022-05-26T11:03:15.937Z</time>
      </trkpt>
      <trkpt lat="43.74825" lon="6.09989">
        <ele>497.404786</ele>
        <time>2022-05-26T11:03:17.933Z</time>
      </trkpt>
      <trkpt lat="43.74807" lon="6.09993">
        <ele>496.361072</ele>
        <time>2022-05-26T11:03:19.935Z</time>
      </trkpt>
      <trkpt lat="43.74798" lon="6.09996">
        <ele>495.777417</ele>
        <time>2022-05-26T11:03:20.937Z</time>
      </trkpt>
      <trkpt lat="43.74788" lon="6.09997">
        <ele>495.18135</ele>
        <time>2022-05-26T11:03:21.937Z</time>
      </trkpt>
      <trkpt lat="43.74778" lon="6.10002">
        <ele>494.580602</ele>
        <time>2022-05-26T11:03:22.945Z</time>
      </trkpt>
      <trkpt lat="43.74768" lon="6.10006">
        <ele>493.97941</ele>
        <time>2022-05-26T11:03:23.933Z</time>
      </trkpt>
      <trkpt lat="43.74758" lon="6.10009">
        <ele>493.401484</ele>
        <time>2022-05-26T11:03:24.934Z</time>
      </trkpt>
      <trkpt lat="43.74748" lon="6.10013">
        <ele>492.786576</ele>
        <time>2022-05-26T11:03:25.934Z</time>
      </trkpt>
      <trkpt lat="43.74738" lon="6.10015">
        <ele>492.194404</ele>
        <time>2022-05-26T11:03:26.934Z</time>
      </trkpt>
      <trkpt lat="43.74721" lon="6.10016">
        <ele>491.183293</ele>
        <time>2022-05-26T11:03:28.934Z</time>
      </trkpt>
      <trkpt lat="43.74705" lon="6.1002">
        <ele>490.212631</ele>
        <time>2022-05-26T11:03:30.934Z</time>
      </trkpt>
      <trkpt lat="43.74693" lon="6.10023">
        <ele>489.503072</ele>
        <time>2022-05-26T11:03:32.935Z</time>
      </trkpt>
      <trkpt lat="43.74682" lon="6.10026">
        <ele>488.849793</ele>
        <time>2022-05-26T11:03:34.943Z</time>
      </trkpt>
      <trkpt lat="43.74673" lon="6.1003">
        <ele>488.22143</ele>
        <time>2022-05-26T11:03:36.939Z</time>
      </trkpt>
      <trkpt lat="43.74669" lon="6.10042">
        <ele>487.456399</ele>
        <time>2022-05-26T11:03:38.940Z</time>
      </trkpt>
      <trkpt lat="43.74677" lon="6.10058">
        <ele>486.416288</ele>
        <time>2022-05-26T11:03:40.940Z</time>
      </trkpt>
      <trkpt lat="43.74686" lon="6.10072">
        <ele>485.335323</ele>
        <time>2022-05-26T11:03:42.933Z</time>
      </trkpt>
      <trkpt lat="43.74695" lon="6.10083">
        <ele>484.361289</ele>
        <time>2022-05-26T11:03:44.932Z</time>
      </trkpt>
      <trkpt lat="43.747" lon="6.10096">
        <ele>483.525281</ele>
        <time>2022-05-26T11:03:46.935Z</time>
      </trkpt>
      <trkpt lat="43.74699" lon="6.10111">
        <ele>482.649025</ele>
        <time>2022-05-26T11:03:48.938Z</time>
      </trkpt>
      <trkpt lat="43.74696" lon="6.10124">
        <ele>481.886414</ele>
        <time>2022-05-26T11:03:50.938Z</time>
      </trkpt>
      <trkpt lat="43.74693" lon="6.10137">
        <ele>481.113072</ele>
        <time>2022-05-26T11:03:54.935Z</time>
      </trkpt>
      <trkpt lat="43.74694" lon="6.10151">
        <ele>480.301307</ele>
        <time>2022-05-26T11:03:58.936Z</time>
      </trkpt>
      <trkpt lat="43.74694" lon="6.10165">
        <ele>479.511664</ele>
        <time>2022-05-26T11:04:02.939Z</time>
      </trkpt>
      <trkpt lat="43.74697" lon="6.10181">
        <ele>478.620471</ele>
        <time>2022-05-26T11:04:07.940Z</time>
      </trkpt>
      <trkpt lat="43.74695" lon="6.10195">
        <ele>477.786354</ele>
        <time>2022-05-26T11:04:12.938Z</time>
      </trkpt>
      <trkpt lat="43.74692" lon="6.10207">
        <ele>477.075609</ele>
        <time>2022-05-26T11:04:17.931Z</time>
      </trkpt>
      <trkpt lat="43.74687" lon="6.10218">
        <ele>476.330614</ele>
        <time>2022-05-26T11:04:21.935Z</time>
      </trkpt>
      <trkpt lat="43.74683" lon="6.10232">
        <ele>475.49023</ele>
        <time>2022-05-26T11:04:25.937Z</time>
      </trkpt>
      <trkpt lat="43.7468" lon="6.10245">
        <ele>474.709341</ele>
        <time>2022-05-26T11:04:29.937Z</time>
      </trkpt>
      <trkpt lat="43.74679" lon="6.1026">
        <ele>473.684868</ele>
        <time>2022-05-26T11:04:34.941Z</time>
      </trkpt>
      <trkpt lat="43.74677" lon="6.10274">
        <ele>472.692508</ele>
        <time>2022-05-26T11:04:38.944Z</time>
      </trkpt>
      <trkpt lat="43.74676" lon="6.10286">
        <ele>471.73862</ele>
        <time>2022-05-26T11:04:42.935Z</time>
      </trkpt>
      <trkpt lat="43.74669" lon="6.10299">
        <ele>470.615712</ele>
        <time>2022-05-26T11:04:46.937Z</time>
      </trkpt>
      <trkpt lat="43.74665" lon="6.10315">
        <ele>469.385065</ele>
        <time>2022-05-26T11:04:49.944Z</time>
      </trkpt>
      <trkpt lat="43.74662" lon="6.10331">
        <ele>468.125806</ele>
        <time>2022-05-26T11:04:52.943Z</time>
      </trkpt>
      <trkpt lat="43.74661" lon="6.10345">
        <ele>467.10293</ele>
        <time>2022-05-26T11:04:55.938Z</time>
      </trkpt>
      <trkpt lat="43.74661" lon="6.1036">
        <ele>466.017747</ele>
        <time>2022-05-26T11:04:58.934Z</time>
      </trkpt>
      <trkpt lat="43.74663" lon="6.10377">
        <ele>464.729415</ele>
        <time>2022-05-26T11:05:00.935Z</time>
      </trkpt>
      <trkpt lat="43.74665" lon="6.10394">
        <ele>463.465038</ele>
        <time>2022-05-26T11:05:02.937Z</time>
      </trkpt>
      <trkpt lat="43.74668" lon="6.10413">
        <ele>462.075351</ele>
        <time>2022-05-26T11:05:04.940Z</time>
      </trkpt>
      <trkpt lat="43.74668" lon="6.10425">
        <ele>461.166502</ele>
        <time>2022-05-26T11:05:06.940Z</time>
      </trkpt>
      <trkpt lat="43.74674" lon="6.10441">
        <ele>459.880568</ele>
        <time>2022-05-26T11:05:08.939Z</time>
      </trkpt>
      <trkpt lat="43.74675" lon="6.10455">
        <ele>458.790088</ele>
        <time>2022-05-26T11:05:10.937Z</time>
      </trkpt>
      <trkpt lat="43.74679" lon="6.10469">
        <ele>457.740933</ele>
        <time>2022-05-26T11:05:12.939Z</time>
      </trkpt>
      <trkpt lat="43.74683" lon="6.10483">
        <ele>456.623831</ele>
        <time>2022-05-26T11:05:14.942Z</time>
      </trkpt>
      <trkpt lat="43.7469" lon="6.10495">
        <ele>456.202463</ele>
        <time>2022-05-26T11:05:16.944Z</time>
      </trkpt>
      <trkpt lat="43.74693" lon="6.10513">
        <ele>456.412687</ele>
        <time>2022-05-26T11:05:19.940Z</time>
      </trkpt>
      <trkpt lat="43.74688" lon="6.10527">
        <ele>456.589014</ele>
        <time>2022-05-26T11:05:22.940Z</time>
      </trkpt>
      <trkpt lat="43.74681" lon="6.10537">
        <ele>456.744726</ele>
        <time>2022-05-26T11:05:25.944Z</time>
      </trkpt>
      <trkpt lat="43.74674" lon="6.10548">
        <ele>456.900775</ele>
        <time>2022-05-26T11:05:28.941Z</time>
      </trkpt>
      <trkpt lat="43.74671" lon="6.10561">
        <ele>457.058929</ele>
        <time>2022-05-26T11:05:32.943Z</time>
      </trkpt>
      <trkpt lat="43.74669" lon="6.10574">
        <ele>457.20887</ele>
        <time>2022-05-26T11:05:36.938Z</time>
      </trkpt>
      <trkpt lat="43.74669" lon="6.10589">
        <ele>457.371866</ele>
        <time>2022-05-26T11:05:40.944Z</time>
      </trkpt>
      <trkpt lat="43.74669" lon="6.10602">
        <ele>457.518293</ele>
        <time>2022-05-26T11:05:43.940Z</time>
      </trkpt>
      <trkpt lat="43.7467" lon="6.10615">
        <ele>457.667399</ele>
        <time>2022-05-26T11:05:46.942Z</time>
      </trkpt>
      <trkpt lat="43.74673" lon="6.10627">
        <ele>457.806097</ele>
        <time>2022-05-26T11:06:09.934Z</time>
      </trkpt>
      <trkpt lat="43.74684" lon="6.10649">
        <ele>458.101348</ele>
        <time>2022-05-26T11:09:35.935Z</time>
      </trkpt>
      <trkpt lat="43.74686" lon="6.10662">
        <ele>458.25043</ele>
        <time>2022-05-26T11:09:40.944Z</time>
      </trkpt>
      <trkpt lat="43.74693" lon="6.10672">
        <ele>458.399377</ele>
        <time>2022-05-26T11:09:47.934Z</time>
      </trkpt>
      <trkpt lat="43.74701" lon="6.10678">
        <ele>458.549498</ele>
        <time>2022-05-26T11:09:53.931Z</time>
      </trkpt>
      <trkpt lat="43.74709" lon="6.10685">
        <ele>458.697549</ele>
        <time>2022-05-26T11:10:18.946Z</time>
      </trkpt>
      <trkpt lat="43.74719" lon="6.10689">
        <ele>458.845074</ele>
        <time>2022-05-26T11:10:31.932Z</time>
      </trkpt>
      <trkpt lat="43.74732" lon="6.10692">
        <ele>459.10163</ele>
        <time>2022-05-26T11:11:42.952Z</time>
      </trkpt>
      <trkpt lat="43.74741" lon="6.10693">
        <ele>459.287966</ele>
        <time>2022-05-26T11:11:51.935Z</time>
      </trkpt>
      <trkpt lat="43.74755" lon="6.10704">
        <ele>459.596208</ele>
        <time>2022-05-26T11:12:11.937Z</time>
      </trkpt>
      <trkpt lat="43.74762" lon="6.10713">
        <ele>459.787738</ele>
        <time>2022-05-26T11:12:17.939Z</time>
      </trkpt>
      <trkpt lat="43.74771" lon="6.10715">
        <ele>459.967947</ele>
        <time>2022-05-26T11:12:21.936Z</time>
      </trkpt>
      <trkpt lat="43.74781" lon="6.10718">
        <ele>460.163404</ele>
        <time>2022-05-26T11:12:27.934Z</time>
      </trkpt>
      <trkpt lat="43.74791" lon="6.10716">
        <ele>460.371242</ele>
        <time>2022-05-26T11:12:33.933Z</time>
      </trkpt>
      <trkpt lat="43.74798" lon="6.10706">
        <ele>460.560745</ele>
        <time>2022-05-26T11:12:39.935Z</time>
      </trkpt>
      <trkpt lat="43.74808" lon="6.1071">
        <ele>460.770593</ele>
        <time>2022-05-26T11:12:45.936Z</time>
      </trkpt>
      <trkpt lat="43.74818" lon="6.10713">
        <ele>460.975391</ele>
        <time>2022-05-26T11:12:49.938Z</time>
      </trkpt>
      <trkpt lat="43.74829" lon="6.10715">
        <ele>461.193229</ele>
        <time>2022-05-26T11:12:53.938Z</time>
      </trkpt>
      <trkpt lat="43.74838" lon="6.10718">
        <ele>461.379068</ele>
        <time>2022-05-26T11:12:57.939Z</time>
      </trkpt>
      <trkpt lat="43.74847" lon="6.10724">
        <ele>461.575049</ele>
        <time>2022-05-26T11:13:02.939Z</time>
      </trkpt>
      <trkpt lat="43.74857" lon="6.10729">
        <ele>461.779434</ele>
        <time>2022-05-26T11:13:06.947Z</time>
      </trkpt>
      <trkpt lat="43.74865" lon="6.10734">
        <ele>461.963779</ele>
        <time>2022-05-26T11:13:10.939Z</time>
      </trkpt>
      <trkpt lat="43.74874" lon="6.1074">
        <ele>462.15023</ele>
        <time>2022-05-26T11:13:14.940Z</time>
      </trkpt>
      <trkpt lat="43.74883" lon="6.10749">
        <ele>462.381373</ele>
        <time>2022-05-26T11:13:18.939Z</time>
      </trkpt>
      <trkpt lat="43.74893" lon="6.10759">
        <ele>462.832982</ele>
        <time>2022-05-26T11:13:22.941Z</time>
      </trkpt>
      <trkpt lat="43.74901" lon="6.10767">
        <ele>463.286623</ele>
        <time>2022-05-26T11:13:25.938Z</time>
      </trkpt>
      <trkpt lat="43.74912" lon="6.10775">
        <ele>463.85956</ele>
        <time>2022-05-26T11:13:29.959Z</time>
      </trkpt>
      <trkpt lat="43.74922" lon="6.10779">
        <ele>464.330229</ele>
        <time>2022-05-26T11:13:31.939Z</time>
      </trkpt>
      <trkpt lat="43.74932" lon="6.10782">
        <ele>464.792191</ele>
        <time>2022-05-26T11:13:33.935Z</time>
      </trkpt>
      <trkpt lat="43.74941" lon="6.10788">
        <ele>465.274738</ele>
        <time>2022-05-26T11:13:36.938Z</time>
      </trkpt>
      <trkpt lat="43.74951" lon="6.10794">
        <ele>465.780166</ele>
        <time>2022-05-26T11:13:39.933Z</time>
      </trkpt>
      <trkpt lat="43.74961" lon="6.10797">
        <ele>466.221082</ele>
        <time>2022-05-26T11:13:42.938Z</time>
      </trkpt>
      <trkpt lat="43.74971" lon="6.108">
        <ele>466.692668</ele>
        <time>2022-05-26T11:13:45.938Z</time>
      </trkpt>
      <trkpt lat="43.74982" lon="6.10804">
        <ele>467.194813</ele>
        <time>2022-05-26T11:13:49.940Z</time>
      </trkpt>
      <trkpt lat="43.74994" lon="6.10804">
        <ele>467.767336</ele>
        <time>2022-05-26T11:13:53.953Z</time>
      </trkpt>
      <trkpt lat="43.75003" lon="6.10806">
        <ele>468.189177</ele>
        <time>2022-05-26T11:13:56.940Z</time>
      </trkpt>
      <trkpt lat="43.75012" lon="6.1081">
        <ele>468.615584</ele>
        <time>2022-05-26T11:14:02.940Z</time>
      </trkpt>
      <trkpt lat="43.75022" lon="6.1081">
        <ele>469.087436</ele>
        <time>2022-05-26T11:14:06.942Z</time>
      </trkpt>
      <trkpt lat="43.75032" lon="6.10812">
        <ele>469.533935</ele>
        <time>2022-05-26T11:14:10.943Z</time>
      </trkpt>
      <trkpt lat="43.7504" lon="6.10818">
        <ele>469.961699</ele>
        <time>2022-05-26T11:14:14.944Z</time>
      </trkpt>
      <trkpt lat="43.75048" lon="6.10826">
        <ele>470.397735</ele>
        <time>2022-05-26T11:14:18.930Z</time>
      </trkpt>
      <trkpt lat="43.75055" lon="6.10836">
        <ele>470.832549</ele>
        <time>2022-05-26T11:14:23.935Z</time>
      </trkpt>
      <trkpt lat="43.75064" lon="6.10845">
        <ele>471.216357</ele>
        <time>2022-05-26T11:14:28.939Z</time>
      </trkpt>
      <trkpt lat="43.75072" lon="6.1085">
        <ele>471.552146</ele>
        <time>2022-05-26T11:14:32.933Z</time>
      </trkpt>
      <trkpt lat="43.75082" lon="6.10857">
        <ele>471.964477</ele>
        <time>2022-05-26T11:14:37.941Z</time>
      </trkpt>
      <trkpt lat="43.75092" lon="6.10863">
        <ele>472.335353</ele>
        <time>2022-05-26T11:14:42.947Z</time>
      </trkpt>
      <trkpt lat="43.751" lon="6.1087">
        <ele>472.691342</ele>
        <time>2022-05-26T11:14:47.941Z</time>
      </trkpt>
      <trkpt lat="43.75105" lon="6.10883">
        <ele>473.070092</ele>
        <time>2022-05-26T11:14:52.937Z</time>
      </trkpt>
      <trkpt lat="43.75106" lon="6.10896">
        <ele>473.418757</ele>
        <time>2022-05-26T11:14:56.940Z</time>
      </trkpt>
      <trkpt lat="43.75106" lon="6.10909">
        <ele>473.774027</ele>
        <time>2022-05-26T11:15:01.943Z</time>
      </trkpt>
      <trkpt lat="43.75105" lon="6.10924">
        <ele>474.149018</ele>
        <time>2022-05-26T11:15:07.940Z</time>
      </trkpt>
      <trkpt lat="43.75113" lon="6.10936">
        <ele>474.56166</ele>
        <time>2022-05-26T11:15:43.940Z</time>
      </trkpt>
      <trkpt lat="43.7512" lon="6.10946">
        <ele>474.916684</ele>
        <time>2022-05-26T11:15:47.957Z</time>
      </trkpt>
      <trkpt lat="43.75128" lon="6.10955">
        <ele>475.300281</ele>
        <time>2022-05-26T11:15:51.942Z</time>
      </trkpt>
      <trkpt lat="43.75135" lon="6.10965">
        <ele>475.658158</ele>
        <time>2022-05-26T11:15:54.939Z</time>
      </trkpt>
      <trkpt lat="43.75134" lon="6.10979">
        <ele>476.021843</ele>
        <time>2022-05-26T11:15:58.943Z</time>
      </trkpt>
      <trkpt lat="43.75129" lon="6.10993">
        <ele>476.42086</ele>
        <time>2022-05-26T11:16:04.929Z</time>
      </trkpt>
      <trkpt lat="43.75128" lon="6.11008">
        <ele>476.819958</ele>
        <time>2022-05-26T11:16:10.933Z</time>
      </trkpt>
      <trkpt lat="43.75119" lon="6.11012">
        <ele>477.152036</ele>
        <time>2022-05-26T11:16:15.945Z</time>
      </trkpt>
      <trkpt lat="43.75109" lon="6.11011">
        <ele>478.116416</ele>
        <time>2022-05-26T11:16:20.948Z</time>
      </trkpt>
      <trkpt lat="43.751" lon="6.11013">
        <ele>479.101387</ele>
        <time>2022-05-26T11:16:25.940Z</time>
      </trkpt>
      <trkpt lat="43.75091" lon="6.11019">
        <ele>480.153712</ele>
        <time>2022-05-26T11:16:30.944Z</time>
      </trkpt>
      <trkpt lat="43.75085" lon="6.1103">
        <ele>481.218818</ele>
        <time>2022-05-26T11:16:36.934Z</time>
      </trkpt>
      <trkpt lat="43.75082" lon="6.11043">
        <ele>482.30241</ele>
        <time>2022-05-26T11:16:42.930Z</time>
      </trkpt>
      <trkpt lat="43.75087" lon="6.11054">
        <ele>483.304928</ele>
        <time>2022-05-26T11:16:49.937Z</time>
      </trkpt>
      <trkpt lat="43.75096" lon="6.11059">
        <ele>484.288009</ele>
        <time>2022-05-26T11:16:56.932Z</time>
      </trkpt>
      <trkpt lat="43.75102" lon="6.11071">
        <ele>485.390583</ele>
        <time>2022-05-26T11:17:03.933Z</time>
      </trkpt>
      <trkpt lat="43.75103" lon="6.11084">
        <ele>486.425247</ele>
        <time>2022-05-26T11:17:10.945Z</time>
      </trkpt>
      <trkpt lat="43.75103" lon="6.11098">
        <ele>487.508406</ele>
        <time>2022-05-26T11:17:17.936Z</time>
      </trkpt>
      <trkpt lat="43.75099" lon="6.11109">
        <ele>488.472778</ele>
        <time>2022-05-26T11:17:23.930Z</time>
      </trkpt>
      <trkpt lat="43.75092" lon="6.11118">
        <ele>489.437312</ele>
        <time>2022-05-26T11:17:29.932Z</time>
      </trkpt>
      <trkpt lat="43.75083" lon="6.11125">
        <ele>490.522583</ele>
        <time>2022-05-26T11:17:36.934Z</time>
      </trkpt>
      <trkpt lat="43.75075" lon="6.11132">
        <ele>491.58123</ele>
        <time>2022-05-26T11:17:43.931Z</time>
      </trkpt>
      <trkpt lat="43.75067" lon="6.11139">
        <ele>492.566304</ele>
        <time>2022-05-26T11:17:50.939Z</time>
      </trkpt>
      <trkpt lat="43.75058" lon="6.11144">
        <ele>493.57086</ele>
        <time>2022-05-26T11:17:55.932Z</time>
      </trkpt>
      <trkpt lat="43.75052" lon="6.11153">
        <ele>494.534309</ele>
        <time>2022-05-26T11:17:59.935Z</time>
      </trkpt>
      <trkpt lat="43.75044" lon="6.11159">
        <ele>495.528976</ele>
        <time>2022-05-26T11:18:04.938Z</time>
      </trkpt>
      <trkpt lat="43.75033" lon="6.11164">
        <ele>496.82685</ele>
        <time>2022-05-26T11:18:10.930Z</time>
      </trkpt>
      <trkpt lat="43.75025" lon="6.1117">
        <ele>498.119139</ele>
        <time>2022-05-26T11:18:15.938Z</time>
      </trkpt>
      <trkpt lat="43.75017" lon="6.11178">
        <ele>499.427368</ele>
        <time>2022-05-26T11:18:21.938Z</time>
      </trkpt>
      <trkpt lat="43.7501" lon="6.11187">
        <ele>500.729278</ele>
        <time>2022-05-26T11:18:27.928Z</time>
      </trkpt>
      <trkpt lat="43.75004" lon="6.11197">
        <ele>501.955757</ele>
        <time>2022-05-26T11:18:33.933Z</time>
      </trkpt>
      <trkpt lat="43.75004" lon="6.11212">
        <ele>503.322574</ele>
        <time>2022-05-26T11:18:40.933Z</time>
      </trkpt>
      <trkpt lat="43.75" lon="6.11225">
        <ele>504.775218</ele>
        <time>2022-05-26T11:18:46.938Z</time>
      </trkpt>
      <trkpt lat="43.74993" lon="6.11236">
        <ele>506.1728</ele>
        <time>2022-05-26T11:18:52.931Z</time>
      </trkpt>
      <trkpt lat="43.74986" lon="6.11245">
        <ele>507.430023</ele>
        <time>2022-05-26T11:18:57.930Z</time>
      </trkpt>
      <trkpt lat="43.7498" lon="6.11255">
        <ele>508.70345</ele>
        <time>2022-05-26T11:19:02.948Z</time>
      </trkpt>
      <trkpt lat="43.74973" lon="6.11265">
        <ele>510.058017</ele>
        <time>2022-05-26T11:19:08.935Z</time>
      </trkpt>
      <trkpt lat="43.74965" lon="6.11274">
        <ele>511.391731</ele>
        <time>2022-05-26T11:19:14.945Z</time>
      </trkpt>
      <trkpt lat="43.74958" lon="6.11282">
        <ele>512.60979</ele>
        <time>2022-05-26T11:19:19.933Z</time>
      </trkpt>
      <trkpt lat="43.74949" lon="6.11289">
        <ele>514.028537</ele>
        <time>2022-05-26T11:19:25.944Z</time>
      </trkpt>
      <trkpt lat="43.74939" lon="6.11293">
        <ele>515.420057</ele>
        <time>2022-05-26T11:19:31.931Z</time>
      </trkpt>
      <trkpt lat="43.74929" lon="6.11295">
        <ele>516.810065</ele>
        <time>2022-05-26T11:19:37.938Z</time>
      </trkpt>
      <trkpt lat="43.74919" lon="6.11298">
        <ele>518.226583</ele>
        <time>2022-05-26T11:19:43.935Z</time>
      </trkpt>
      <trkpt lat="43.7491" lon="6.11303">
        <ele>519.463751</ele>
        <time>2022-05-26T11:19:48.948Z</time>
      </trkpt>
      <trkpt lat="43.74901" lon="6.11311">
        <ele>520.588176</ele>
        <time>2022-05-26T11:19:54.936Z</time>
      </trkpt>
      <trkpt lat="43.74896" lon="6.11321">
        <ele>521.038446</ele>
        <time>2022-05-26T11:20:00.936Z</time>
      </trkpt>
      <trkpt lat="43.74892" lon="6.11342">
        <ele>521.773383</ele>
        <time>2022-05-26T11:21:26.928Z</time>
      </trkpt>
      <trkpt lat="43.74891" lon="6.11355">
        <ele>522.237431</ele>
        <time>2022-05-26T11:21:31.935Z</time>
      </trkpt>
      <trkpt lat="43.7489" lon="6.11368">
        <ele>522.71682</ele>
        <time>2022-05-26T11:21:36.942Z</time>
      </trkpt>
      <trkpt lat="43.74889" lon="6.11382">
        <ele>523.199695</ele>
        <time>2022-05-26T11:21:41.935Z</time>
      </trkpt>
      <trkpt lat="43.74889" lon="6.11397">
        <ele>523.706148</ele>
        <time>2022-05-26T11:21:46.937Z</time>
      </trkpt>
      <trkpt lat="43.74889" lon="6.11411">
        <ele>524.221041</ele>
        <time>2022-05-26T11:21:50.934Z</time>
      </trkpt>
      <trkpt lat="43.74889" lon="6.11426">
        <ele>524.730987</ele>
        <time>2022-05-26T11:21:54.935Z</time>
      </trkpt>
      <trkpt lat="43.74889" lon="6.11441">
        <ele>525.255461</ele>
        <time>2022-05-26T11:21:58.937Z</time>
      </trkpt>
      <trkpt lat="43.74889" lon="6.11456">
        <ele>525.76249</ele>
        <time>2022-05-26T11:22:02.939Z</time>
      </trkpt>
      <trkpt lat="43.7489" lon="6.11469">
        <ele>526.254111</ele>
        <time>2022-05-26T11:22:06.938Z</time>
      </trkpt>
      <trkpt lat="43.7489" lon="6.11483">
        <ele>526.736502</ele>
        <time>2022-05-26T11:22:11.934Z</time>
      </trkpt>
      <trkpt lat="43.7489" lon="6.11497">
        <ele>527.204934</ele>
        <time>2022-05-26T11:22:15.936Z</time>
      </trkpt>
      <trkpt lat="43.74892" lon="6.11512">
        <ele>527.740767</ele>
        <time>2022-05-26T11:22:19.934Z</time>
      </trkpt>
      <trkpt lat="43.7489" lon="6.11527">
        <ele>528.264149</ele>
        <time>2022-05-26T11:22:24.936Z</time>
      </trkpt>
      <trkpt lat="43.7489" lon="6.1154">
        <ele>528.74637</ele>
        <time>2022-05-26T11:22:30.926Z</time>
      </trkpt>
      <trkpt lat="43.74888" lon="6.11553">
        <ele>529.23855</ele>
        <time>2022-05-26T11:22:36.941Z</time>
      </trkpt>
      <trkpt lat="43.74887" lon="6.11566">
        <ele>529.926377</ele>
        <time>2022-05-26T11:22:43.929Z</time>
      </trkpt>
      <trkpt lat="43.74887" lon="6.11579">
        <ele>530.611248</ele>
        <time>2022-05-26T11:22:48.928Z</time>
      </trkpt>
      <trkpt lat="43.74887" lon="6.11592">
        <ele>531.32238</ele>
        <time>2022-05-26T11:22:53.930Z</time>
      </trkpt>
      <trkpt lat="43.74889" lon="6.11605">
        <ele>532.056298</ele>
        <time>2022-05-26T11:22:59.928Z</time>
      </trkpt>
      <trkpt lat="43.74888" lon="6.11619">
        <ele>532.813135</ele>
        <time>2022-05-26T11:23:04.936Z</time>
      </trkpt>
      <trkpt lat="43.7489" lon="6.11633">
        <ele>533.600143</ele>
        <time>2022-05-26T11:23:09.931Z</time>
      </trkpt>
      <trkpt lat="43.74892" lon="6.11646">
        <ele>534.287766</ele>
        <time>2022-05-26T11:23:13.933Z</time>
      </trkpt>
      <trkpt lat="43.74894" lon="6.11659">
        <ele>535.025937</ele>
        <time>2022-05-26T11:23:17.935Z</time>
      </trkpt>
      <trkpt lat="43.74898" lon="6.11672">
        <ele>535.779525</ele>
        <time>2022-05-26T11:23:22.933Z</time>
      </trkpt>
      <trkpt lat="43.74903" lon="6.11684">
        <ele>536.52056</ele>
        <time>2022-05-26T11:23:27.930Z</time>
      </trkpt>
      <trkpt lat="43.74908" lon="6.11695">
        <ele>537.242597</ele>
        <time>2022-05-26T11:23:32.933Z</time>
      </trkpt>
      <trkpt lat="43.74913" lon="6.11709">
        <ele>538.041473</ele>
        <time>2022-05-26T11:23:37.933Z</time>
      </trkpt>
      <trkpt lat="43.74917" lon="6.11722">
        <ele>538.840349</ele>
        <time>2022-05-26T11:23:42.934Z</time>
      </trkpt>
      <trkpt lat="43.74923" lon="6.11733">
        <ele>539.569589</ele>
        <time>2022-05-26T11:23:47.931Z</time>
      </trkpt>
      <trkpt lat="43.74926" lon="6.11745">
        <ele>540.236582</ele>
        <time>2022-05-26T11:23:51.937Z</time>
      </trkpt>
      <trkpt lat="43.74931" lon="6.11757">
        <ele>540.958589</ele>
        <time>2022-05-26T11:23:55.933Z</time>
      </trkpt>
      <trkpt lat="43.74936" lon="6.11769">
        <ele>541.738624</ele>
        <time>2022-05-26T11:23:59.935Z</time>
      </trkpt>
      <trkpt lat="43.74942" lon="6.11781">
        <ele>542.502707</ele>
        <time>2022-05-26T11:24:03.937Z</time>
      </trkpt>
      <trkpt lat="43.74948" lon="6.11794">
        <ele>542.866589</ele>
        <time>2022-05-26T11:24:07.932Z</time>
      </trkpt>
      <trkpt lat="43.74954" lon="6.11808">
        <ele>543.196727</ele>
        <time>2022-05-26T11:24:11.933Z</time>
      </trkpt>
      <trkpt lat="43.74959" lon="6.1182">
        <ele>543.501729</ele>
        <time>2022-05-26T11:24:15.933Z</time>
      </trkpt>
      <trkpt lat="43.74964" lon="6.11837">
        <ele>543.883261</ele>
        <time>2022-05-26T11:24:58.939Z</time>
      </trkpt>
      <trkpt lat="43.74971" lon="6.11847">
        <ele>544.175633</ele>
        <time>2022-05-26T11:25:02.931Z</time>
      </trkpt>
      <trkpt lat="43.74976" lon="6.11858">
        <ele>544.452377</ele>
        <time>2022-05-26T11:25:07.926Z</time>
      </trkpt>
      <trkpt lat="43.7498" lon="6.11871">
        <ele>544.756722</ele>
        <time>2022-05-26T11:25:13.927Z</time>
      </trkpt>
      <trkpt lat="43.74983" lon="6.11884">
        <ele>545.03458</ele>
        <time>2022-05-26T11:25:19.926Z</time>
      </trkpt>
      <trkpt lat="43.74988" lon="6.11895">
        <ele>545.297949</ele>
        <time>2022-05-26T11:25:25.938Z</time>
      </trkpt>
      <trkpt lat="43.74989" lon="6.11907">
        <ele>545.562203</ele>
        <time>2022-05-26T11:25:31.937Z</time>
      </trkpt>
      <trkpt lat="43.74992" lon="6.11919">
        <ele>545.826168</ele>
        <time>2022-05-26T11:25:36.930Z</time>
      </trkpt>
      <trkpt lat="43.74993" lon="6.11934">
        <ele>546.141613</ele>
        <time>2022-05-26T11:25:42.929Z</time>
      </trkpt>
      <trkpt lat="43.74995" lon="6.1195">
        <ele>546.481521</ele>
        <time>2022-05-26T11:25:46.933Z</time>
      </trkpt>
      <trkpt lat="43.74999" lon="6.11963">
        <ele>546.774648</ele>
        <time>2022-05-26T11:25:49.931Z</time>
      </trkpt>
      <trkpt lat="43.75004" lon="6.11974">
        <ele>547.044485</ele>
        <time>2022-05-26T11:25:52.936Z</time>
      </trkpt>
      <trkpt lat="43.75007" lon="6.11986">
        <ele>547.326181</ele>
        <time>2022-05-26T11:25:55.933Z</time>
      </trkpt>
      <trkpt lat="43.7501" lon="6.11999">
        <ele>547.608134</ele>
        <time>2022-05-26T11:25:58.934Z</time>
      </trkpt>
      <trkpt lat="43.75013" lon="6.12014">
        <ele>547.884515</ele>
        <time>2022-05-26T11:26:01.937Z</time>
      </trkpt>
      <trkpt lat="43.75014" lon="6.12027">
        <ele>548.084043</ele>
        <time>2022-05-26T11:26:04.934Z</time>
      </trkpt>
      <trkpt lat="43.75016" lon="6.12042">
        <ele>548.296358</ele>
        <time>2022-05-26T11:26:07.937Z</time>
      </trkpt>
      <trkpt lat="43.7502" lon="6.12058">
        <ele>548.539269</ele>
        <time>2022-05-26T11:26:11.934Z</time>
      </trkpt>
      <trkpt lat="43.75023" lon="6.1207">
        <ele>548.72415</ele>
        <time>2022-05-26T11:26:14.933Z</time>
      </trkpt>
      <trkpt lat="43.75027" lon="6.12083">
        <ele>548.932185</ele>
        <time>2022-05-26T11:26:18.939Z</time>
      </trkpt>
      <trkpt lat="43.7503" lon="6.12097">
        <ele>549.143684</ele>
        <time>2022-05-26T11:26:22.941Z</time>
      </trkpt>
      <trkpt lat="43.75033" lon="6.12111">
        <ele>549.358578</ele>
        <time>2022-05-26T11:26:26.939Z</time>
      </trkpt>
      <trkpt lat="43.75037" lon="6.12124">
        <ele>549.557747</ele>
        <time>2022-05-26T11:26:30.935Z</time>
      </trkpt>
      <trkpt lat="43.7504" lon="6.12138">
        <ele>549.772721</ele>
        <time>2022-05-26T11:26:35.937Z</time>
      </trkpt>
      <trkpt lat="43.75042" lon="6.1215">
        <ele>549.954716</ele>
        <time>2022-05-26T11:26:40.934Z</time>
      </trkpt>
      <trkpt lat="43.75048" lon="6.12163">
        <ele>550.172492</ele>
        <time>2022-05-26T11:26:46.938Z</time>
      </trkpt>
      <trkpt lat="43.75052" lon="6.12178">
        <ele>550.397153</ele>
        <time>2022-05-26T11:26:51.933Z</time>
      </trkpt>
      <trkpt lat="43.75054" lon="6.1219">
        <ele>550.585168</ele>
        <time>2022-05-26T11:26:55.934Z</time>
      </trkpt>
      <trkpt lat="43.75055" lon="6.12204">
        <ele>550.780185</ele>
        <time>2022-05-26T11:26:59.936Z</time>
      </trkpt>
      <trkpt lat="43.75056" lon="6.12217">
        <ele>550.978267</ele>
        <time>2022-05-26T11:27:02.940Z</time>
      </trkpt>
      <trkpt lat="43.75058" lon="6.12233">
        <ele>551.215996</ele>
        <time>2022-05-26T11:27:05.937Z</time>
      </trkpt>
      <trkpt lat="43.75061" lon="6.12249">
        <ele>551.561504</ele>
        <time>2022-05-26T11:27:08.944Z</time>
      </trkpt>
      <trkpt lat="43.75061" lon="6.12265">
        <ele>552.185291</ele>
        <time>2022-05-26T11:27:11.934Z</time>
      </trkpt>
      <trkpt lat="43.75064" lon="6.12281">
        <ele>552.844273</ele>
        <time>2022-05-26T11:27:14.941Z</time>
      </trkpt>
      <trkpt lat="43.75067" lon="6.12295">
        <ele>553.404913</ele>
        <time>2022-05-26T11:27:17.933Z</time>
      </trkpt>
      <trkpt lat="43.75069" lon="6.12312">
        <ele>554.09081</ele>
        <time>2022-05-26T11:27:21.937Z</time>
      </trkpt>
      <trkpt lat="43.75072" lon="6.12324">
        <ele>554.594825</ele>
        <time>2022-05-26T11:27:24.932Z</time>
      </trkpt>
      <trkpt lat="43.75073" lon="6.12338">
        <ele>555.149859</ele>
        <time>2022-05-26T11:27:29.934Z</time>
      </trkpt>
      <trkpt lat="43.75075" lon="6.1235">
        <ele>555.651892</ele>
        <time>2022-05-26T11:27:33.931Z</time>
      </trkpt>
      <trkpt lat="43.75074" lon="6.12364">
        <ele>556.214818</ele>
        <time>2022-05-26T11:27:38.932Z</time>
      </trkpt>
      <trkpt lat="43.75069" lon="6.12376">
        <ele>556.768893</ele>
        <time>2022-05-26T11:27:44.934Z</time>
      </trkpt>
      <trkpt lat="43.75063" lon="6.12386">
        <ele>557.284154</ele>
        <time>2022-05-26T11:27:50.935Z</time>
      </trkpt>
      <trkpt lat="43.75059" lon="6.12399">
        <ele>557.82777</ele>
        <time>2022-05-26T11:27:57.931Z</time>
      </trkpt>
      <trkpt lat="43.75055" lon="6.1241">
        <ele>558.332043</ele>
        <time>2022-05-26T11:28:02.932Z</time>
      </trkpt>
      <trkpt lat="43.75052" lon="6.12424">
        <ele>558.898706</ele>
        <time>2022-05-26T11:28:08.931Z</time>
      </trkpt>
      <trkpt lat="43.75051" lon="6.12439">
        <ele>559.482842</ele>
        <time>2022-05-26T11:28:14.933Z</time>
      </trkpt>
      <trkpt lat="43.75052" lon="6.12452">
        <ele>560.020078</ele>
        <time>2022-05-26T11:28:19.932Z</time>
      </trkpt>
      <trkpt lat="43.75054" lon="6.12466">
        <ele>560.570085</ele>
        <time>2022-05-26T11:28:24.934Z</time>
      </trkpt>
      <trkpt lat="43.75059" lon="6.12479">
        <ele>561.193557</ele>
        <time>2022-05-26T11:28:30.940Z</time>
      </trkpt>
      <trkpt lat="43.75063" lon="6.12494">
        <ele>561.855674</ele>
        <time>2022-05-26T11:28:34.934Z</time>
      </trkpt>
      <trkpt lat="43.75057" lon="6.12518">
        <ele>563.031241</ele>
        <time>2022-05-26T11:30:49.931Z</time>
      </trkpt>
      <trkpt lat="43.75053" lon="6.12531">
        <ele>563.662038</ele>
        <time>2022-05-26T11:30:55.933Z</time>
      </trkpt>
      <trkpt lat="43.75051" lon="6.12545">
        <ele>564.304986</ele>
        <time>2022-05-26T11:31:00.935Z</time>
      </trkpt>
      <trkpt lat="43.75047" lon="6.12558">
        <ele>564.981988</ele>
        <time>2022-05-26T11:31:05.934Z</time>
      </trkpt>
      <trkpt lat="43.75043" lon="6.12573">
        <ele>565.675767</ele>
        <time>2022-05-26T11:31:10.934Z</time>
      </trkpt>
      <trkpt lat="43.75039" lon="6.12585">
        <ele>566.280371</ele>
        <time>2022-05-26T11:31:15.941Z</time>
      </trkpt>
      <trkpt lat="43.75033" lon="6.12594">
        <ele>566.85322</ele>
        <time>2022-05-26T11:31:21.931Z</time>
      </trkpt>
      <trkpt lat="43.75029" lon="6.12606">
        <ele>567.455712</ele>
        <time>2022-05-26T11:31:26.929Z</time>
      </trkpt>
      <trkpt lat="43.75024" lon="6.12617">
        <ele>568.029176</ele>
        <time>2022-05-26T11:31:34.937Z</time>
      </trkpt>
      <trkpt lat="43.75021" lon="6.12628">
        <ele>568.594522</ele>
        <time>2022-05-26T11:31:41.931Z</time>
      </trkpt>
      <trkpt lat="43.75017" lon="6.1264">
        <ele>569.162689</ele>
        <time>2022-05-26T11:31:48.941Z</time>
      </trkpt>
      <trkpt lat="43.75015" lon="6.12652">
        <ele>569.742774</ele>
        <time>2022-05-26T11:31:55.936Z</time>
      </trkpt>
      <trkpt lat="43.75012" lon="6.12664">
        <ele>570.314075</ele>
        <time>2022-05-26T11:32:01.936Z</time>
      </trkpt>
      <trkpt lat="43.7501" lon="6.12677">
        <ele>570.930156</ele>
        <time>2022-05-26T11:32:07.932Z</time>
      </trkpt>
      <trkpt lat="43.75009" lon="6.12692">
        <ele>571.585498</ele>
        <time>2022-05-26T11:32:14.927Z</time>
      </trkpt>
      <trkpt lat="43.75007" lon="6.12705">
        <ele>572.192934</ele>
        <time>2022-05-26T11:32:20.934Z</time>
      </trkpt>
      <trkpt lat="43.75008" lon="6.12718">
        <ele>572.745208</ele>
        <time>2022-05-26T11:32:27.928Z</time>
      </trkpt>
      <trkpt lat="43.7501" lon="6.1273">
        <ele>573.203247</ele>
        <time>2022-05-26T11:32:33.935Z</time>
      </trkpt>
      <trkpt lat="43.7501" lon="6.12743">
        <ele>573.6766</ele>
        <time>2022-05-26T11:32:40.934Z</time>
      </trkpt>
      <trkpt lat="43.75008" lon="6.12756">
        <ele>574.165657</ele>
        <time>2022-05-26T11:32:46.935Z</time>
      </trkpt>
      <trkpt lat="43.75005" lon="6.12767">
        <ele>574.621379</ele>
        <time>2022-05-26T11:32:51.942Z</time>
      </trkpt>
      <trkpt lat="43.75" lon="6.12779">
        <ele>575.122851</ele>
        <time>2022-05-26T11:32:57.926Z</time>
      </trkpt>
      <trkpt lat="43.74995" lon="6.1279">
        <ele>575.594726</ele>
        <time>2022-05-26T11:33:04.935Z</time>
      </trkpt>
      <trkpt lat="43.74991" lon="6.12802">
        <ele>576.075498</ele>
        <time>2022-05-26T11:33:10.934Z</time>
      </trkpt>
      <trkpt lat="43.74986" lon="6.12814">
        <ele>576.594686</ele>
        <time>2022-05-26T11:33:16.936Z</time>
      </trkpt>
      <trkpt lat="43.7498" lon="6.12844">
        <ele>577.733451</ele>
        <time>2022-05-26T11:33:59.937Z</time>
      </trkpt>
      <trkpt lat="43.74981" lon="6.12856">
        <ele>578.194754</ele>
        <time>2022-05-26T11:34:02.930Z</time>
      </trkpt>
      <trkpt lat="43.7498" lon="6.1287">
        <ele>578.692871</ele>
        <time>2022-05-26T11:34:05.936Z</time>
      </trkpt>
      <trkpt lat="43.74979" lon="6.12885">
        <ele>579.258786</ele>
        <time>2022-05-26T11:34:08.934Z</time>
      </trkpt>
      <trkpt lat="43.74979" lon="6.12899">
        <ele>579.78334</ele>
        <time>2022-05-26T11:34:10.931Z</time>
      </trkpt>
      <trkpt lat="43.74979" lon="6.12914">
        <ele>580.318822</ele>
        <time>2022-05-26T11:34:12.931Z</time>
      </trkpt>
      <trkpt lat="43.74978" lon="6.12936">
        <ele>581.123308</ele>
        <time>2022-05-26T11:34:14.932Z</time>
      </trkpt>
      <trkpt lat="43.74976" lon="6.12949">
        <ele>581.622605</ele>
        <time>2022-05-26T11:34:15.925Z</time>
      </trkpt>
      <trkpt lat="43.74977" lon="6.12962">
        <ele>581.234432</ele>
        <time>2022-05-26T11:34:16.935Z</time>
      </trkpt>
      <trkpt lat="43.74978" lon="6.12977">
        <ele>580.342818</ele>
        <time>2022-05-26T11:34:18.934Z</time>
      </trkpt>
      <trkpt lat="43.74977" lon="6.12996">
        <ele>579.250291</ele>
        <time>2022-05-26T11:34:20.932Z</time>
      </trkpt>
      <trkpt lat="43.74978" lon="6.13014">
        <ele>578.207134</ele>
        <time>2022-05-26T11:34:22.929Z</time>
      </trkpt>
      <trkpt lat="43.74979" lon="6.13031">
        <ele>577.273396</ele>
        <time>2022-05-26T11:34:24.928Z</time>
      </trkpt>
      <trkpt lat="43.74979" lon="6.13048">
        <ele>576.274513</ele>
        <time>2022-05-26T11:34:26.932Z</time>
      </trkpt>
      <trkpt lat="43.74979" lon="6.13063">
        <ele>575.451967</ele>
        <time>2022-05-26T11:34:28.926Z</time>
      </trkpt>
      <trkpt lat="43.74979" lon="6.13077">
        <ele>574.618576</ele>
        <time>2022-05-26T11:34:30.931Z</time>
      </trkpt>
      <trkpt lat="43.7498" lon="6.13094">
        <ele>573.637134</ele>
        <time>2022-05-26T11:34:32.933Z</time>
      </trkpt>
      <trkpt lat="43.74981" lon="6.1311">
        <ele>572.717618</ele>
        <time>2022-05-26T11:34:34.930Z</time>
      </trkpt>
      <trkpt lat="43.74981" lon="6.13129">
        <ele>571.661627</ele>
        <time>2022-05-26T11:34:36.927Z</time>
      </trkpt>
      <trkpt lat="43.7498" lon="6.13151">
        <ele>570.382837</ele>
        <time>2022-05-26T11:34:38.930Z</time>
      </trkpt>
      <trkpt lat="43.7498" lon="6.13166">
        <ele>569.52534</ele>
        <time>2022-05-26T11:34:40.927Z</time>
      </trkpt>
      <trkpt lat="43.7498" lon="6.13181">
        <ele>568.697656</ele>
        <time>2022-05-26T11:34:42.931Z</time>
      </trkpt>
      <trkpt lat="43.74974" lon="6.13195">
        <ele>567.759147</ele>
        <time>2022-05-26T11:34:46.937Z</time>
      </trkpt>
      <trkpt lat="43.74969" lon="6.13181">
        <ele>566.760918</ele>
        <time>2022-05-26T11:34:50.931Z</time>
      </trkpt>
      <trkpt lat="43.7497" lon="6.13166">
        <ele>565.843696</ele>
        <time>2022-05-26T11:34:52.934Z</time>
      </trkpt>
      <trkpt lat="43.74966" lon="6.13154">
        <ele>565.004877</ele>
        <time>2022-05-26T11:34:54.938Z</time>
      </trkpt>
      <trkpt lat="43.74961" lon="6.13143">
        <ele>564.198077</ele>
        <time>2022-05-26T11:34:56.938Z</time>
      </trkpt>
      <trkpt lat="43.74957" lon="6.13132">
        <ele>563.394908</ele>
        <time>2022-05-26T11:34:58.936Z</time>
      </trkpt>
      <trkpt lat="43.74951" lon="6.13118">
        <ele>562.422177</ele>
        <time>2022-05-26T11:35:01.933Z</time>
      </trkpt>
      <trkpt lat="43.74943" lon="6.13112">
        <ele>561.598754</ele>
        <time>2022-05-26T11:35:04.930Z</time>
      </trkpt>
      <trkpt lat="43.74937" lon="6.13122">
        <ele>560.802283</ele>
        <time>2022-05-26T11:35:07.941Z</time>
      </trkpt>
      <trkpt lat="43.74934" lon="6.13135">
        <ele>559.959421</ele>
        <time>2022-05-26T11:35:09.934Z</time>
      </trkpt>
      <trkpt lat="43.7493" lon="6.13151">
        <ele>558.866274</ele>
        <time>2022-05-26T11:35:12.929Z</time>
      </trkpt>
      <trkpt lat="43.74926" lon="6.1317">
        <ele>557.630643</ele>
        <time>2022-05-26T11:35:15.930Z</time>
      </trkpt>
      <trkpt lat="43.74922" lon="6.13186">
        <ele>556.563953</ele>
        <time>2022-05-26T11:35:17.929Z</time>
      </trkpt>
      <trkpt lat="43.74918" lon="6.13202">
        <ele>555.514794</ele>
        <time>2022-05-26T11:35:19.934Z</time>
      </trkpt>
      <trkpt lat="43.74917" lon="6.13215">
        <ele>554.704986</ele>
        <time>2022-05-26T11:35:21.932Z</time>
      </trkpt>
      <trkpt lat="43.74921" lon="6.13228">
        <ele>553.83224</ele>
        <time>2022-05-26T11:35:23.933Z</time>
      </trkpt>
      <trkpt lat="43.74926" lon="6.1324">
        <ele>552.953374</ele>
        <time>2022-05-26T11:35:26.927Z</time>
      </trkpt>
      <trkpt lat="43.74932" lon="6.13249">
        <ele>552.167194</ele>
        <time>2022-05-26T11:35:29.928Z</time>
      </trkpt>
      <trkpt lat="43.74942" lon="6.13257">
        <ele>551.948481</ele>
        <time>2022-05-26T11:35:33.933Z</time>
      </trkpt>
      <trkpt lat="43.74949" lon="6.13269">
        <ele>551.909578</ele>
        <time>2022-05-26T11:35:37.931Z</time>
      </trkpt>
      <trkpt lat="43.74953" lon="6.13281">
        <ele>551.878265</ele>
        <time>2022-05-26T11:35:40.933Z</time>
      </trkpt>
      <trkpt lat="43.74956" lon="6.13296">
        <ele>551.841577</ele>
        <time>2022-05-26T11:35:44.936Z</time>
      </trkpt>
      <trkpt lat="43.74954" lon="6.13312">
        <ele>551.802863</ele>
        <time>2022-05-26T11:35:48.926Z</time>
      </trkpt>
      <trkpt lat="43.74953" lon="6.13325">
        <ele>551.77117</ele>
        <time>2022-05-26T11:35:51.934Z</time>
      </trkpt>
      <trkpt lat="43.7495" lon="6.13337">
        <ele>551.739822</ele>
        <time>2022-05-26T11:35:54.932Z</time>
      </trkpt>
      <trkpt lat="43.74948" lon="6.1335">
        <ele>551.708568</ele>
        <time>2022-05-26T11:35:57.931Z</time>
      </trkpt>
      <trkpt lat="43.74946" lon="6.13364">
        <ele>551.674312</ele>
        <time>2022-05-26T11:36:00.929Z</time>
      </trkpt>
      <trkpt lat="43.74944" lon="6.13376">
        <ele>551.642746</ele>
        <time>2022-05-26T11:36:03.933Z</time>
      </trkpt>
      <trkpt lat="43.74942" lon="6.13389">
        <ele>551.610754</ele>
        <time>2022-05-26T11:36:06.933Z</time>
      </trkpt>
      <trkpt lat="43.7494" lon="6.13405">
        <ele>551.571687</ele>
        <time>2022-05-26T11:36:09.935Z</time>
      </trkpt>
      <trkpt lat="43.74938" lon="6.13423">
        <ele>551.52772</ele>
        <time>2022-05-26T11:36:12.932Z</time>
      </trkpt>
      <trkpt lat="43.74936" lon="6.13435">
        <ele>551.497302</ele>
        <time>2022-05-26T11:36:14.933Z</time>
      </trkpt>
      <trkpt lat="43.74934" lon="6.13447">
        <ele>551.467301</ele>
        <time>2022-05-26T11:36:16.933Z</time>
      </trkpt>
      <trkpt lat="43.74931" lon="6.13462">
        <ele>551.430239</ele>
        <time>2022-05-26T11:36:18.939Z</time>
      </trkpt>
      <trkpt lat="43.7493" lon="6.13477">
        <ele>551.394308</ele>
        <time>2022-05-26T11:36:20.932Z</time>
      </trkpt>
      <trkpt lat="43.74928" lon="6.13492">
        <ele>551.268524</ele>
        <time>2022-05-26T11:36:22.931Z</time>
      </trkpt>
      <trkpt lat="43.74925" lon="6.13507">
        <ele>551.055582</ele>
        <time>2022-05-26T11:36:24.933Z</time>
      </trkpt>
      <trkpt lat="43.74923" lon="6.13522">
        <ele>550.853272</ele>
        <time>2022-05-26T11:36:26.936Z</time>
      </trkpt>
      <trkpt lat="43.74921" lon="6.13539">
        <ele>550.617366</ele>
        <time>2022-05-26T11:36:28.936Z</time>
      </trkpt>
      <trkpt lat="43.74917" lon="6.13555">
        <ele>550.386118</ele>
        <time>2022-05-26T11:36:30.933Z</time>
      </trkpt>
      <trkpt lat="43.74914" lon="6.1357">
        <ele>550.172203</ele>
        <time>2022-05-26T11:36:32.933Z</time>
      </trkpt>
      <trkpt lat="43.74911" lon="6.13585">
        <ele>549.954819</ele>
        <time>2022-05-26T11:36:34.936Z</time>
      </trkpt>
      <trkpt lat="43.74909" lon="6.13601">
        <ele>549.739322</ele>
        <time>2022-05-26T11:36:36.937Z</time>
      </trkpt>
      <trkpt lat="43.74906" lon="6.13615">
        <ele>549.542213</ele>
        <time>2022-05-26T11:36:38.938Z</time>
      </trkpt>
      <trkpt lat="43.74904" lon="6.1363">
        <ele>549.328354</ele>
        <time>2022-05-26T11:36:40.928Z</time>
      </trkpt>
      <trkpt lat="43.74903" lon="6.13645">
        <ele>549.117787</ele>
        <time>2022-05-26T11:36:42.931Z</time>
      </trkpt>
      <trkpt lat="43.74905" lon="6.13659">
        <ele>548.924177</ele>
        <time>2022-05-26T11:36:44.930Z</time>
      </trkpt>
      <trkpt lat="43.74908" lon="6.13673">
        <ele>548.729544</ele>
        <time>2022-05-26T11:36:46.930Z</time>
      </trkpt>
      <trkpt lat="43.74913" lon="6.13684">
        <ele>548.547172</ele>
        <time>2022-05-26T11:36:48.933Z</time>
      </trkpt>
      <trkpt lat="43.74924" lon="6.13699">
        <ele>548.266347</ele>
        <time>2022-05-26T11:36:51.935Z</time>
      </trkpt>
      <trkpt lat="43.74933" lon="6.13707">
        <ele>548.061892</ele>
        <time>2022-05-26T11:36:53.938Z</time>
      </trkpt>
      <trkpt lat="43.74941" lon="6.13712">
        <ele>547.90093</ele>
        <time>2022-05-26T11:36:55.932Z</time>
      </trkpt>
      <trkpt lat="43.74954" lon="6.13717">
        <ele>547.69722</ele>
        <time>2022-05-26T11:36:58.948Z</time>
      </trkpt>
      <trkpt lat="43.74964" lon="6.13717">
        <ele>547.553558</ele>
        <time>2022-05-26T11:37:00.936Z</time>
      </trkpt>
      <trkpt lat="43.74976" lon="6.13713">
        <ele>547.355489</ele>
        <time>2022-05-26T11:37:03.936Z</time>
      </trkpt>
      <trkpt lat="43.74986" lon="6.13708">
        <ele>547.19257</ele>
        <time>2022-05-26T11:37:05.936Z</time>
      </trkpt>
      <trkpt lat="43.74995" lon="6.13703">
        <ele>547.040616</ele>
        <time>2022-05-26T11:37:07.938Z</time>
      </trkpt>
      <trkpt lat="43.75002" lon="6.13695">
        <ele>546.895594</ele>
        <time>2022-05-26T11:37:09.932Z</time>
      </trkpt>
      <trkpt lat="43.75009" lon="6.13686">
        <ele>546.75367</ele>
        <time>2022-05-26T11:37:11.940Z</time>
      </trkpt>
      <trkpt lat="43.75016" lon="6.13676">
        <ele>546.600672</ele>
        <time>2022-05-26T11:37:13.941Z</time>
      </trkpt>
      <trkpt lat="43.75022" lon="6.13666">
        <ele>546.453128</ele>
        <time>2022-05-26T11:37:15.937Z</time>
      </trkpt>
      <trkpt lat="43.75029" lon="6.13656">
        <ele>546.30095</ele>
        <time>2022-05-26T11:37:17.941Z</time>
      </trkpt>
      <trkpt lat="43.75036" lon="6.13648">
        <ele>546.154024</ele>
        <time>2022-05-26T11:37:19.942Z</time>
      </trkpt>
      <trkpt lat="43.75043" lon="6.13637">
        <ele>545.998036</ele>
        <time>2022-05-26T11:37:21.935Z</time>
      </trkpt>
      <trkpt lat="43.7505" lon="6.13627">
        <ele>545.8372</ele>
        <time>2022-05-26T11:37:23.937Z</time>
      </trkpt>
      <trkpt lat="43.75058" lon="6.13615">
        <ele>545.655824</ele>
        <time>2022-05-26T11:37:25.940Z</time>
      </trkpt>
      <trkpt lat="43.75066" lon="6.13603">
        <ele>545.471522</ele>
        <time>2022-05-26T11:37:27.934Z</time>
      </trkpt>
      <trkpt lat="43.75074" lon="6.13592">
        <ele>545.300478</ele>
        <time>2022-05-26T11:37:29.936Z</time>
      </trkpt>
      <trkpt lat="43.75082" lon="6.13581">
        <ele>545.206965</ele>
        <time>2022-05-26T11:37:31.931Z</time>
      </trkpt>
      <trkpt lat="43.7509" lon="6.13571">
        <ele>545.230585</ele>
        <time>2022-05-26T11:37:33.937Z</time>
      </trkpt>
      <trkpt lat="43.75099" lon="6.13559">
        <ele>545.256637</ele>
        <time>2022-05-26T11:37:35.930Z</time>
      </trkpt>
      <trkpt lat="43.75106" lon="6.13547">
        <ele>545.28102</ele>
        <time>2022-05-26T11:37:37.930Z</time>
      </trkpt>
      <trkpt lat="43.75113" lon="6.13537">
        <ele>545.302164</ele>
        <time>2022-05-26T11:37:39.928Z</time>
      </trkpt>
      <trkpt lat="43.75121" lon="6.13527">
        <ele>545.324737</ele>
        <time>2022-05-26T11:37:41.929Z</time>
      </trkpt>
      <trkpt lat="43.75128" lon="6.13516">
        <ele>545.347029</ele>
        <time>2022-05-26T11:37:43.934Z</time>
      </trkpt>
      <trkpt lat="43.75135" lon="6.13505">
        <ele>545.36986</ele>
        <time>2022-05-26T11:37:45.937Z</time>
      </trkpt>
      <trkpt lat="43.75143" lon="6.13494">
        <ele>545.3945</ele>
        <time>2022-05-26T11:37:47.938Z</time>
      </trkpt>
      <trkpt lat="43.7515" lon="6.13484">
        <ele>545.417016</ele>
        <time>2022-05-26T11:37:49.935Z</time>
      </trkpt>
      <trkpt lat="43.75158" lon="6.13474">
        <ele>545.439589</ele>
        <time>2022-05-26T11:37:51.936Z</time>
      </trkpt>
      <trkpt lat="43.75166" lon="6.13464">
        <ele>545.462162</ele>
        <time>2022-05-26T11:37:53.936Z</time>
      </trkpt>
      <trkpt lat="43.75173" lon="6.13453">
        <ele>545.485017</ele>
        <time>2022-05-26T11:37:55.935Z</time>
      </trkpt>
      <trkpt lat="43.75182" lon="6.13445">
        <ele>545.507129</ele>
        <time>2022-05-26T11:37:57.935Z</time>
      </trkpt>
      <trkpt lat="43.75191" lon="6.13438">
        <ele>545.529361</ele>
        <time>2022-05-26T11:37:59.937Z</time>
      </trkpt>
      <trkpt lat="43.75199" lon="6.1343">
        <ele>545.551119</ele>
        <time>2022-05-26T11:38:01.941Z</time>
      </trkpt>
      <trkpt lat="43.75207" lon="6.13424">
        <ele>545.571372</ele>
        <time>2022-05-26T11:38:03.940Z</time>
      </trkpt>
      <trkpt lat="43.75216" lon="6.13418">
        <ele>545.600575</ele>
        <time>2022-05-26T11:38:05.941Z</time>
      </trkpt>
      <trkpt lat="43.75224" lon="6.13413">
        <ele>545.638063</ele>
        <time>2022-05-26T11:38:07.935Z</time>
      </trkpt>
      <trkpt lat="43.75234" lon="6.13407">
        <ele>545.679045</ele>
        <time>2022-05-26T11:38:09.933Z</time>
      </trkpt>
      <trkpt lat="43.75245" lon="6.13403">
        <ele>545.724501</ele>
        <time>2022-05-26T11:38:11.932Z</time>
      </trkpt>
      <trkpt lat="43.75253" lon="6.134">
        <ele>545.76136</ele>
        <time>2022-05-26T11:38:13.943Z</time>
      </trkpt>
      <trkpt lat="43.75267" lon="6.13396">
        <ele>545.817399</ele>
        <time>2022-05-26T11:38:16.936Z</time>
      </trkpt>
      <trkpt lat="43.75276" lon="6.13393">
        <ele>545.854447</ele>
        <time>2022-05-26T11:38:18.946Z</time>
      </trkpt>
      <trkpt lat="43.75288" lon="6.1339">
        <ele>545.907067</ele>
        <time>2022-05-26T11:38:21.937Z</time>
      </trkpt>
      <trkpt lat="43.75297" lon="6.13387">
        <ele>545.94451</ele>
        <time>2022-05-26T11:38:23.937Z</time>
      </trkpt>
      <trkpt lat="43.75311" lon="6.13383">
        <ele>545.999694</ele>
        <time>2022-05-26T11:38:26.943Z</time>
      </trkpt>
      <trkpt lat="43.7532" lon="6.13381">
        <ele>546.037811</ele>
        <time>2022-05-26T11:38:28.937Z</time>
      </trkpt>
      <trkpt lat="43.75329" lon="6.13378">
        <ele>546.07664</ele>
        <time>2022-05-26T11:38:30.941Z</time>
      </trkpt>
      <trkpt lat="43.75339" lon="6.13374">
        <ele>546.11764</ele>
        <time>2022-05-26T11:38:32.936Z</time>
      </trkpt>
      <trkpt lat="43.75348" lon="6.13368">
        <ele>546.160032</ele>
        <time>2022-05-26T11:38:34.939Z</time>
      </trkpt>
      <trkpt lat="43.75356" lon="6.13359">
        <ele>546.200825</ele>
        <time>2022-05-26T11:38:36.937Z</time>
      </trkpt>
      <trkpt lat="43.75365" lon="6.13349">
        <ele>546.245769</ele>
        <time>2022-05-26T11:38:38.936Z</time>
      </trkpt>
      <trkpt lat="43.75372" lon="6.13339">
        <ele>546.288363</ele>
        <time>2022-05-26T11:38:40.938Z</time>
      </trkpt>
      <trkpt lat="43.75378" lon="6.13327">
        <ele>546.251282</ele>
        <time>2022-05-26T11:38:42.948Z</time>
      </trkpt>
      <trkpt lat="43.75384" lon="6.13315">
        <ele>546.097185</ele>
        <time>2022-05-26T11:38:44.937Z</time>
      </trkpt>
      <trkpt lat="43.7539" lon="6.13303">
        <ele>545.934609</ele>
        <time>2022-05-26T11:38:46.935Z</time>
      </trkpt>
      <trkpt lat="43.75396" lon="6.1329">
        <ele>545.774588</ele>
        <time>2022-05-26T11:38:48.940Z</time>
      </trkpt>
      <trkpt lat="43.75402" lon="6.13278">
        <ele>545.623242</ele>
        <time>2022-05-26T11:38:50.937Z</time>
      </trkpt>
      <trkpt lat="43.75407" lon="6.13265">
        <ele>545.464754</ele>
        <time>2022-05-26T11:38:52.937Z</time>
      </trkpt>
      <trkpt lat="43.75413" lon="6.13252">
        <ele>545.306033</ele>
        <time>2022-05-26T11:38:54.938Z</time>
      </trkpt>
      <trkpt lat="43.75419" lon="6.13239">
        <ele>545.136579</ele>
        <time>2022-05-26T11:38:56.945Z</time>
      </trkpt>
      <trkpt lat="43.75425" lon="6.13224">
        <ele>544.951404</ele>
        <time>2022-05-26T11:38:58.932Z</time>
      </trkpt>
      <trkpt lat="43.75433" lon="6.1321">
        <ele>544.775989</ele>
        <time>2022-05-26T11:39:00.932Z</time>
      </trkpt>
      <trkpt lat="43.75439" lon="6.13195">
        <ele>544.590815</ele>
        <time>2022-05-26T11:39:02.933Z</time>
      </trkpt>
      <trkpt lat="43.75445" lon="6.1318">
        <ele>544.413112</ele>
        <time>2022-05-26T11:39:04.934Z</time>
      </trkpt>
      <trkpt lat="43.75453" lon="6.13168">
        <ele>544.239552</ele>
        <time>2022-05-26T11:39:06.931Z</time>
      </trkpt>
      <trkpt lat="43.7546" lon="6.13154">
        <ele>544.059855</ele>
        <time>2022-05-26T11:39:08.933Z</time>
      </trkpt>
      <trkpt lat="43.75468" lon="6.13144">
        <ele>543.90164</ele>
        <time>2022-05-26T11:39:10.948Z</time>
      </trkpt>
      <trkpt lat="43.75477" lon="6.13135">
        <ele>543.739719</ele>
        <time>2022-05-26T11:39:12.941Z</time>
      </trkpt>
      <trkpt lat="43.75487" lon="6.13132">
        <ele>543.562669</ele>
        <time>2022-05-26T11:39:14.943Z</time>
      </trkpt>
      <trkpt lat="43.75498" lon="6.13131">
        <ele>543.384344</ele>
        <time>2022-05-26T11:39:16.943Z</time>
      </trkpt>
      <trkpt lat="43.75508" lon="6.13132">
        <ele>543.207659</ele>
        <time>2022-05-26T11:39:18.940Z</time>
      </trkpt>
      <trkpt lat="43.75518" lon="6.13138">
        <ele>543.007889</ele>
        <time>2022-05-26T11:39:20.938Z</time>
      </trkpt>
      <trkpt lat="43.75527" lon="6.13145">
        <ele>542.834958</ele>
        <time>2022-05-26T11:39:22.938Z</time>
      </trkpt>
      <trkpt lat="43.75536" lon="6.13154">
        <ele>542.648047</ele>
        <time>2022-05-26T11:39:24.943Z</time>
      </trkpt>
      <trkpt lat="43.75541" lon="6.13165">
        <ele>542.488128</ele>
        <time>2022-05-26T11:39:26.944Z</time>
      </trkpt>
      <trkpt lat="43.75546" lon="6.13176">
        <ele>542.32322</ele>
        <time>2022-05-26T11:39:28.939Z</time>
      </trkpt>
      <trkpt lat="43.75548" lon="6.1319">
        <ele>542.148848</ele>
        <time>2022-05-26T11:39:30.941Z</time>
      </trkpt>
      <trkpt lat="43.75549" lon="6.13203">
        <ele>541.983203</ele>
        <time>2022-05-26T11:39:32.936Z</time>
      </trkpt>
      <trkpt lat="43.75549" lon="6.13216">
        <ele>541.818452</ele>
        <time>2022-05-26T11:39:34.937Z</time>
      </trkpt>
      <trkpt lat="43.75551" lon="6.13233">
        <ele>541.605729</ele>
        <time>2022-05-26T11:39:37.937Z</time>
      </trkpt>
      <trkpt lat="43.75551" lon="6.13245">
        <ele>541.450818</ele>
        <time>2022-05-26T11:39:39.933Z</time>
      </trkpt>
      <trkpt lat="43.7555" lon="6.13258">
        <ele>541.294775</ele>
        <time>2022-05-26T11:39:41.938Z</time>
      </trkpt>
      <trkpt lat="43.7555" lon="6.13274">
        <ele>541.086345</ele>
        <time>2022-05-26T11:39:44.938Z</time>
      </trkpt>
      <trkpt lat="43.7555" lon="6.1329">
        <ele>540.896634</ele>
        <time>2022-05-26T11:39:47.940Z</time>
      </trkpt>
      <trkpt lat="43.7555" lon="6.13305">
        <ele>540.704428</ele>
        <time>2022-05-26T11:39:50.946Z</time>
      </trkpt>
      <trkpt lat="43.7555" lon="6.1332">
        <ele>540.875034</ele>
        <time>2022-05-26T11:39:53.936Z</time>
      </trkpt>
      <trkpt lat="43.75549" lon="6.13335">
        <ele>541.757252</ele>
        <time>2022-05-26T11:39:56.937Z</time>
      </trkpt>
      <trkpt lat="43.75549" lon="6.1335">
        <ele>542.678026</ele>
        <time>2022-05-26T11:39:59.935Z</time>
      </trkpt>
      <trkpt lat="43.75549" lon="6.13366">
        <ele>543.64108</ele>
        <time>2022-05-26T11:40:02.934Z</time>
      </trkpt>
      <trkpt lat="43.7555" lon="6.13381">
        <ele>544.581218</ele>
        <time>2022-05-26T11:40:05.938Z</time>
      </trkpt>
      <trkpt lat="43.7555" lon="6.13399">
        <ele>545.647233</ele>
        <time>2022-05-26T11:40:08.938Z</time>
      </trkpt>
      <trkpt lat="43.7555" lon="6.13417">
        <ele>546.732552</ele>
        <time>2022-05-26T11:40:11.936Z</time>
      </trkpt>
      <trkpt lat="43.75551" lon="6.13432">
        <ele>547.654547</ele>
        <time>2022-05-26T11:40:14.942Z</time>
      </trkpt>
      <trkpt lat="43.75551" lon="6.13445">
        <ele>548.448375</ele>
        <time>2022-05-26T11:40:17.939Z</time>
      </trkpt>
      <trkpt lat="43.75551" lon="6.13461">
        <ele>549.405483</ele>
        <time>2022-05-26T11:40:21.931Z</time>
      </trkpt>
      <trkpt lat="43.75551" lon="6.13474">
        <ele>550.175097</ele>
        <time>2022-05-26T11:40:24.933Z</time>
      </trkpt>
      <trkpt lat="43.75554" lon="6.13489">
        <ele>551.141139</ele>
        <time>2022-05-26T11:40:28.936Z</time>
      </trkpt>
      <trkpt lat="43.75557" lon="6.13501">
        <ele>551.918737</ele>
        <time>2022-05-26T11:40:31.939Z</time>
      </trkpt>
      <trkpt lat="43.75562" lon="6.13515">
        <ele>552.838742</ele>
        <time>2022-05-26T11:40:35.936Z</time>
      </trkpt>
      <trkpt lat="43.75567" lon="6.13527">
        <ele>553.687253</ele>
        <time>2022-05-26T11:40:39.930Z</time>
      </trkpt>
      <trkpt lat="43.75574" lon="6.13539">
        <ele>554.591173</ele>
        <time>2022-05-26T11:40:43.935Z</time>
      </trkpt>
      <trkpt lat="43.7558" lon="6.13548">
        <ele>555.363876</ele>
        <time>2022-05-26T11:40:47.933Z</time>
      </trkpt>
      <trkpt lat="43.75586" lon="6.13559">
        <ele>556.105411</ele>
        <time>2022-05-26T11:40:51.936Z</time>
      </trkpt>
      <trkpt lat="43.75593" lon="6.13569">
        <ele>556.780077</ele>
        <time>2022-05-26T11:40:55.936Z</time>
      </trkpt>
      <trkpt lat="43.756" lon="6.13578">
        <ele>557.434793</ele>
        <time>2022-05-26T11:40:59.936Z</time>
      </trkpt>
      <trkpt lat="43.7561" lon="6.13587">
        <ele>558.18962</ele>
        <time>2022-05-26T11:41:04.939Z</time>
      </trkpt>
      <trkpt lat="43.75618" lon="6.13593">
        <ele>558.861542</ele>
        <time>2022-05-26T11:41:08.944Z</time>
      </trkpt>
      <trkpt lat="43.75627" lon="6.13603">
        <ele>559.629932</ele>
        <time>2022-05-26T11:41:13.934Z</time>
      </trkpt>
      <trkpt lat="43.75635" lon="6.13613">
        <ele>560.377649</ele>
        <time>2022-05-26T11:41:18.935Z</time>
      </trkpt>
      <trkpt lat="43.75642" lon="6.13625">
        <ele>561.086593</ele>
        <time>2022-05-26T11:41:23.934Z</time>
      </trkpt>
      <trkpt lat="43.75651" lon="6.13634">
        <ele>561.83114</ele>
        <time>2022-05-26T11:41:28.932Z</time>
      </trkpt>
      <trkpt lat="43.75657" lon="6.13647">
        <ele>562.583221</ele>
        <time>2022-05-26T11:41:33.930Z</time>
      </trkpt>
      <trkpt lat="43.75663" lon="6.13659">
        <ele>563.310777</ele>
        <time>2022-05-26T11:41:38.934Z</time>
      </trkpt>
      <trkpt lat="43.75669" lon="6.13671">
        <ele>564.00236</ele>
        <time>2022-05-26T11:41:43.927Z</time>
      </trkpt>
      <trkpt lat="43.75676" lon="6.13681">
        <ele>564.672134</ele>
        <time>2022-05-26T11:41:48.931Z</time>
      </trkpt>
      <trkpt lat="43.75682" lon="6.13691">
        <ele>565.335244</ele>
        <time>2022-05-26T11:41:53.937Z</time>
      </trkpt>
      <trkpt lat="43.75689" lon="6.13702">
        <ele>566.024901</ele>
        <time>2022-05-26T11:41:58.933Z</time>
      </trkpt>
      <trkpt lat="43.75693" lon="6.13714">
        <ele>566.66397</ele>
        <time>2022-05-26T11:42:03.931Z</time>
      </trkpt>
      <trkpt lat="43.75697" lon="6.13725">
        <ele>567.295003</ele>
        <time>2022-05-26T11:42:08.940Z</time>
      </trkpt>
      <trkpt lat="43.75704" lon="6.13735">
        <ele>567.921776</ele>
        <time>2022-05-26T11:42:13.940Z</time>
      </trkpt>
      <trkpt lat="43.75711" lon="6.13746">
        <ele>568.720453</ele>
        <time>2022-05-26T11:42:18.944Z</time>
      </trkpt>
      <trkpt lat="43.75717" lon="6.13758">
        <ele>569.513677</ele>
        <time>2022-05-26T11:42:23.941Z</time>
      </trkpt>
      <trkpt lat="43.75724" lon="6.13769">
        <ele>570.285511</ele>
        <time>2022-05-26T11:42:28.936Z</time>
      </trkpt>
      <trkpt lat="43.75729" lon="6.13781">
        <ele>571.033484</ele>
        <time>2022-05-26T11:42:33.940Z</time>
      </trkpt>
      <trkpt lat="43.75735" lon="6.13791">
        <ele>571.724195</ele>
        <time>2022-05-26T11:42:38.938Z</time>
      </trkpt>
      <trkpt lat="43.75742" lon="6.138">
        <ele>572.438501</ele>
        <time>2022-05-26T11:42:43.941Z</time>
      </trkpt>
      <trkpt lat="43.75747" lon="6.13813">
        <ele>573.213287</ele>
        <time>2022-05-26T11:42:48.939Z</time>
      </trkpt>
      <trkpt lat="43.75752" lon="6.13824">
        <ele>573.920172</ele>
        <time>2022-05-26T11:42:53.934Z</time>
      </trkpt>
      <trkpt lat="43.75757" lon="6.13836">
        <ele>574.638569</ele>
        <time>2022-05-26T11:42:58.938Z</time>
      </trkpt>
      <trkpt lat="43.75762" lon="6.13846">
        <ele>575.331067</ele>
        <time>2022-05-26T11:43:03.931Z</time>
      </trkpt>
      <trkpt lat="43.75768" lon="6.13858">
        <ele>576.071194</ele>
        <time>2022-05-26T11:43:08.935Z</time>
      </trkpt>
      <trkpt lat="43.75774" lon="6.13868">
        <ele>576.778217</ele>
        <time>2022-05-26T11:43:13.937Z</time>
      </trkpt>
      <trkpt lat="43.7578" lon="6.13879">
        <ele>577.496749</ele>
        <time>2022-05-26T11:43:18.942Z</time>
      </trkpt>
      <trkpt lat="43.75785" lon="6.1389">
        <ele>578.225075</ele>
        <time>2022-05-26T11:43:23.937Z</time>
      </trkpt>
      <trkpt lat="43.75792" lon="6.13902">
        <ele>579.034857</ele>
        <time>2022-05-26T11:43:28.939Z</time>
      </trkpt>
      <trkpt lat="43.75798" lon="6.13913">
        <ele>579.754818</ele>
        <time>2022-05-26T11:43:33.934Z</time>
      </trkpt>
      <trkpt lat="43.75804" lon="6.13923">
        <ele>580.464626</ele>
        <time>2022-05-26T11:43:38.939Z</time>
      </trkpt>
      <trkpt lat="43.75813" lon="6.13932">
        <ele>581.277766</ele>
        <time>2022-05-26T11:43:43.935Z</time>
      </trkpt>
      <trkpt lat="43.75818" lon="6.13942">
        <ele>581.89737</ele>
        <time>2022-05-26T11:43:47.934Z</time>
      </trkpt>
      <trkpt lat="43.75827" lon="6.13952">
        <ele>582.628974</ele>
        <time>2022-05-26T11:43:52.933Z</time>
      </trkpt>
      <trkpt lat="43.75831" lon="6.13963">
        <ele>583.265471</ele>
        <time>2022-05-26T11:44:31.936Z</time>
      </trkpt>
      <trkpt lat="43.7583" lon="6.13977">
        <ele>583.923698</ele>
        <time>2022-05-26T11:44:35.938Z</time>
      </trkpt>
      <trkpt lat="43.75829" lon="6.13993">
        <ele>584.705642</ele>
        <time>2022-05-26T11:44:40.931Z</time>
      </trkpt>
      <trkpt lat="43.75828" lon="6.14005">
        <ele>585.325309</ele>
        <time>2022-05-26T11:44:44.930Z</time>
      </trkpt>
      <trkpt lat="43.75825" lon="6.14017">
        <ele>585.942826</ele>
        <time>2022-05-26T11:44:48.931Z</time>
      </trkpt>
      <trkpt lat="43.75819" lon="6.14029">
        <ele>586.630022</ele>
        <time>2022-05-26T11:44:52.932Z</time>
      </trkpt>
      <trkpt lat="43.75811" lon="6.14036">
        <ele>587.274293</ele>
        <time>2022-05-26T11:44:56.930Z</time>
      </trkpt>
      <trkpt lat="43.75801" lon="6.1404">
        <ele>587.958722</ele>
        <time>2022-05-26T11:45:01.934Z</time>
      </trkpt>
      <trkpt lat="43.75791" lon="6.14041">
        <ele>588.657833</ele>
        <time>2022-05-26T11:45:06.936Z</time>
      </trkpt>
      <trkpt lat="43.7578" lon="6.14038">
        <ele>589.4006</ele>
        <time>2022-05-26T11:45:11.933Z</time>
      </trkpt>
      <trkpt lat="43.7577" lon="6.14033">
        <ele>590.105737</ele>
        <time>2022-05-26T11:45:16.930Z</time>
      </trkpt>
      <trkpt lat="43.75761" lon="6.14029">
        <ele>590.745439</ele>
        <time>2022-05-26T11:45:21.932Z</time>
      </trkpt>
      <trkpt lat="43.75752" lon="6.14027">
        <ele>591.396649</ele>
        <time>2022-05-26T11:45:25.934Z</time>
      </trkpt>
      <trkpt lat="43.75741" lon="6.14023">
        <ele>592.157598</ele>
        <time>2022-05-26T11:45:30.937Z</time>
      </trkpt>
      <trkpt lat="43.75732" lon="6.14018">
        <ele>592.829133</ele>
        <time>2022-05-26T11:45:34.934Z</time>
      </trkpt>
      <trkpt lat="43.75723" lon="6.14013">
        <ele>593.502569</ele>
        <time>2022-05-26T11:45:38.925Z</time>
      </trkpt>
      <trkpt lat="43.75714" lon="6.14009">
        <ele>594.27089</ele>
        <time>2022-05-26T11:45:42.929Z</time>
      </trkpt>
      <trkpt lat="43.75704" lon="6.14005">
        <ele>595.119904</ele>
        <time>2022-05-26T11:45:46.924Z</time>
      </trkpt>
      <trkpt lat="43.75695" lon="6.14002">
        <ele>595.871827</ele>
        <time>2022-05-26T11:45:50.922Z</time>
      </trkpt>
      <trkpt lat="43.75684" lon="6.13998">
        <ele>596.728975</ele>
        <time>2022-05-26T11:45:55.925Z</time>
      </trkpt>
      <trkpt lat="43.75675" lon="6.13993">
        <ele>597.531355</ele>
        <time>2022-05-26T11:46:00.924Z</time>
      </trkpt>
      <trkpt lat="43.75665" lon="6.13988">
        <ele>598.345292</ele>
        <time>2022-05-26T11:46:05.936Z</time>
      </trkpt>
      <trkpt lat="43.75656" lon="6.13986">
        <ele>599.137794</ele>
        <time>2022-05-26T11:46:10.930Z</time>
      </trkpt>
      <trkpt lat="43.75645" lon="6.13982">
        <ele>600.002776</ele>
        <time>2022-05-26T11:46:14.929Z</time>
      </trkpt>
      <trkpt lat="43.75636" lon="6.1398">
        <ele>600.783029</ele>
        <time>2022-05-26T11:46:19.933Z</time>
      </trkpt>
      <trkpt lat="43.75626" lon="6.13977">
        <ele>601.562317</ele>
        <time>2022-05-26T11:46:23.931Z</time>
      </trkpt>
      <trkpt lat="43.75617" lon="6.13972">
        <ele>602.350735</ele>
        <time>2022-05-26T11:46:27.930Z</time>
      </trkpt>
      <trkpt lat="43.75608" lon="6.13969">
        <ele>603.080887</ele>
        <time>2022-05-26T11:46:31.933Z</time>
      </trkpt>
      <trkpt lat="43.75598" lon="6.13965">
        <ele>603.917788</ele>
        <time>2022-05-26T11:46:36.932Z</time>
      </trkpt>
      <trkpt lat="43.75589" lon="6.13962">
        <ele>604.646248</ele>
        <time>2022-05-26T11:46:40.934Z</time>
      </trkpt>
      <trkpt lat="43.7558" lon="6.1396">
        <ele>605.401843</ele>
        <time>2022-05-26T11:46:44.929Z</time>
      </trkpt>
      <trkpt lat="43.7557" lon="6.13963">
        <ele>606.217351</ele>
        <time>2022-05-26T11:46:49.932Z</time>
      </trkpt>
      <trkpt lat="43.75561" lon="6.13971">
        <ele>607.051063</ele>
        <time>2022-05-26T11:46:54.932Z</time>
      </trkpt>
      <trkpt lat="43.75556" lon="6.13982">
        <ele>607.835872</ele>
        <time>2022-05-26T11:46:58.930Z</time>
      </trkpt>
      <trkpt lat="43.7555" lon="6.13994">
        <ele>608.576503</ele>
        <time>2022-05-26T11:47:02.931Z</time>
      </trkpt>
      <trkpt lat="43.75544" lon="6.14006">
        <ele>609.317135</ele>
        <time>2022-05-26T11:47:06.933Z</time>
      </trkpt>
      <trkpt lat="43.75537" lon="6.14019">
        <ele>610.103103</ele>
        <time>2022-05-26T11:47:10.931Z</time>
      </trkpt>
      <trkpt lat="43.75531" lon="6.1403">
        <ele>610.835647</ele>
        <time>2022-05-26T11:47:14.930Z</time>
      </trkpt>
      <trkpt lat="43.75524" lon="6.14041">
        <ele>611.60315</ele>
        <time>2022-05-26T11:47:19.930Z</time>
      </trkpt>
      <trkpt lat="43.7552" lon="6.14054">
        <ele>612.311812</ele>
        <time>2022-05-26T11:47:24.931Z</time>
      </trkpt>
      <trkpt lat="43.75521" lon="6.14068">
        <ele>613.060451</ele>
        <time>2022-05-26T11:47:29.937Z</time>
      </trkpt>
      <trkpt lat="43.75526" lon="6.14078">
        <ele>613.705177</ele>
        <time>2022-05-26T11:47:33.933Z</time>
      </trkpt>
      <trkpt lat="43.75534" lon="6.14085">
        <ele>614.374044</ele>
        <time>2022-05-26T11:47:38.933Z</time>
      </trkpt>
      <trkpt lat="43.75545" lon="6.14082">
        <ele>615.161745</ele>
        <time>2022-05-26T11:47:43.935Z</time>
      </trkpt>
      <trkpt lat="43.75553" lon="6.14073">
        <ele>615.88921</ele>
        <time>2022-05-26T11:47:48.931Z</time>
      </trkpt>
      <trkpt lat="43.75559" lon="6.14063">
        <ele>616.580906</ele>
        <time>2022-05-26T11:47:53.935Z</time>
      </trkpt>
      <trkpt lat="43.75563" lon="6.1405">
        <ele>617.307702</ele>
        <time>2022-05-26T11:47:58.936Z</time>
      </trkpt>
      <trkpt lat="43.7557" lon="6.14037">
        <ele>618.081278</ele>
        <time>2022-05-26T11:48:03.937Z</time>
      </trkpt>
      <trkpt lat="43.75578" lon="6.14028">
        <ele>618.8452</ele>
        <time>2022-05-26T11:48:08.931Z</time>
      </trkpt>
      <trkpt lat="43.75587" lon="6.14025">
        <ele>619.537176</ele>
        <time>2022-05-26T11:48:13.936Z</time>
      </trkpt>
      <trkpt lat="43.75597" lon="6.14022">
        <ele>620.225893</ele>
        <time>2022-05-26T11:48:18.925Z</time>
      </trkpt>
      <trkpt lat="43.75607" lon="6.14026">
        <ele>620.874431</ele>
        <time>2022-05-26T11:48:23.933Z</time>
      </trkpt>
      <trkpt lat="43.75617" lon="6.14029">
        <ele>621.438844</ele>
        <time>2022-05-26T11:48:27.933Z</time>
      </trkpt>
      <trkpt lat="43.75626" lon="6.14033">
        <ele>622.024226</ele>
        <time>2022-05-26T11:48:32.934Z</time>
      </trkpt>
      <trkpt lat="43.75636" lon="6.14041">
        <ele>622.630346</ele>
        <time>2022-05-26T11:48:37.931Z</time>
      </trkpt>
      <trkpt lat="43.75645" lon="6.1405">
        <ele>623.257629</ele>
        <time>2022-05-26T11:48:42.936Z</time>
      </trkpt>
      <trkpt lat="43.75652" lon="6.14057">
        <ele>623.772901</ele>
        <time>2022-05-26T11:48:46.933Z</time>
      </trkpt>
      <trkpt lat="43.7566" lon="6.14065">
        <ele>624.349661</ele>
        <time>2022-05-26T11:48:51.934Z</time>
      </trkpt>
      <trkpt lat="43.75668" lon="6.14073">
        <ele>624.904422</ele>
        <time>2022-05-26T11:48:56.934Z</time>
      </trkpt>
      <trkpt lat="43.75674" lon="6.14084">
        <ele>625.479034</ele>
        <time>2022-05-26T11:49:02.925Z</time>
      </trkpt>
      <trkpt lat="43.75681" lon="6.14094">
        <ele>626.036548</ele>
        <time>2022-05-26T11:49:07.934Z</time>
      </trkpt>
      <trkpt lat="43.75689" lon="6.14104">
        <ele>626.625376</ele>
        <time>2022-05-26T11:49:12.931Z</time>
      </trkpt>
      <trkpt lat="43.75696" lon="6.14112">
        <ele>627.150573</ele>
        <time>2022-05-26T11:49:17.929Z</time>
      </trkpt>
      <trkpt lat="43.75704" lon="6.1412">
        <ele>627.740461</ele>
        <time>2022-05-26T11:49:22.934Z</time>
      </trkpt>
      <trkpt lat="43.75711" lon="6.14129">
        <ele>628.259962</ele>
        <time>2022-05-26T11:49:26.935Z</time>
      </trkpt>
      <trkpt lat="43.75718" lon="6.1414">
        <ele>628.866603</ele>
        <time>2022-05-26T11:49:31.934Z</time>
      </trkpt>
      <trkpt lat="43.75725" lon="6.1415">
        <ele>629.44575</ele>
        <time>2022-05-26T11:49:36.931Z</time>
      </trkpt>
      <trkpt lat="43.75733" lon="6.14161">
        <ele>630.075985</ele>
        <time>2022-05-26T11:49:41.935Z</time>
      </trkpt>
      <trkpt lat="43.75741" lon="6.14171">
        <ele>630.646815</ele>
        <time>2022-05-26T11:49:45.931Z</time>
      </trkpt>
      <trkpt lat="43.75747" lon="6.14182">
        <ele>631.153147</ele>
        <time>2022-05-26T11:49:50.935Z</time>
      </trkpt>
      <trkpt lat="43.75752" lon="6.14193">
        <ele>631.591742</ele>
        <time>2022-05-26T11:49:54.936Z</time>
      </trkpt>
      <trkpt lat="43.75758" lon="6.14205">
        <ele>632.09252</ele>
        <time>2022-05-26T11:49:59.929Z</time>
      </trkpt>
      <trkpt lat="43.75765" lon="6.14217">
        <ele>632.615068</ele>
        <time>2022-05-26T11:50:04.931Z</time>
      </trkpt>
      <trkpt lat="43.75771" lon="6.14226">
        <ele>633.051859</ele>
        <time>2022-05-26T11:50:08.929Z</time>
      </trkpt>
      <trkpt lat="43.75779" lon="6.14237">
        <ele>633.555865</ele>
        <time>2022-05-26T11:50:13.933Z</time>
      </trkpt>
      <trkpt lat="43.75785" lon="6.14247">
        <ele>634.022642</ele>
        <time>2022-05-26T11:50:19.923Z</time>
      </trkpt>
      <trkpt lat="43.75792" lon="6.14255">
        <ele>634.448638</ele>
        <time>2022-05-26T11:50:25.926Z</time>
      </trkpt>
      <trkpt lat="43.75804" lon="6.14276">
        <ele>635.370944</ele>
        <time>2022-05-26T11:51:58.936Z</time>
      </trkpt>
      <trkpt lat="43.75814" lon="6.14285">
        <ele>635.953411</ele>
        <time>2022-05-26T11:52:02.932Z</time>
      </trkpt>
      <trkpt lat="43.75821" lon="6.14294">
        <ele>636.40167</ele>
        <time>2022-05-26T11:52:05.937Z</time>
      </trkpt>
      <trkpt lat="43.75829" lon="6.14304">
        <ele>636.897695</ele>
        <time>2022-05-26T11:52:08.934Z</time>
      </trkpt>
      <trkpt lat="43.75837" lon="6.14315">
        <ele>637.416475</ele>
        <time>2022-05-26T11:52:11.935Z</time>
      </trkpt>
      <trkpt lat="43.75845" lon="6.14328">
        <ele>638.020125</ele>
        <time>2022-05-26T11:52:14.943Z</time>
      </trkpt>
      <trkpt lat="43.75853" lon="6.1434">
        <ele>638.595815</ele>
        <time>2022-05-26T11:52:17.943Z</time>
      </trkpt>
      <trkpt lat="43.75861" lon="6.14353">
        <ele>639.161459</ele>
        <time>2022-05-26T11:52:20.936Z</time>
      </trkpt>
      <trkpt lat="43.75868" lon="6.14367">
        <ele>639.158199</ele>
        <time>2022-05-26T11:52:23.930Z</time>
      </trkpt>
      <trkpt lat="43.75875" lon="6.14382">
        <ele>639.115338</ele>
        <time>2022-05-26T11:52:26.937Z</time>
      </trkpt>
      <trkpt lat="43.75879" lon="6.144">
        <ele>639.070169</ele>
        <time>2022-05-26T11:52:29.942Z</time>
      </trkpt>
      <trkpt lat="43.75884" lon="6.14418">
        <ele>639.023502</ele>
        <time>2022-05-26T11:52:32.938Z</time>
      </trkpt>
      <trkpt lat="43.75888" lon="6.1443">
        <ele>638.990812</ele>
        <time>2022-05-26T11:52:34.936Z</time>
      </trkpt>
      <trkpt lat="43.75892" lon="6.14443">
        <ele>638.956798</ele>
        <time>2022-05-26T11:52:36.940Z</time>
      </trkpt>
      <trkpt lat="43.75896" lon="6.14459">
        <ele>638.916605</ele>
        <time>2022-05-26T11:52:38.934Z</time>
      </trkpt>
      <trkpt lat="43.759" lon="6.14475">
        <ele>638.875173</ele>
        <time>2022-05-26T11:52:40.935Z</time>
      </trkpt>
      <trkpt lat="43.75904" lon="6.14491">
        <ele>638.835751</ele>
        <time>2022-05-26T11:52:42.935Z</time>
      </trkpt>
      <trkpt lat="43.75909" lon="6.14507">
        <ele>638.794396</ele>
        <time>2022-05-26T11:52:44.934Z</time>
      </trkpt>
      <trkpt lat="43.75915" lon="6.14523">
        <ele>638.749998</ele>
        <time>2022-05-26T11:52:46.939Z</time>
      </trkpt>
      <trkpt lat="43.75922" lon="6.14537">
        <ele>638.707629</ele>
        <time>2022-05-26T11:52:48.932Z</time>
      </trkpt>
      <trkpt lat="43.75931" lon="6.14552">
        <ele>638.66342</ele>
        <time>2022-05-26T11:52:50.938Z</time>
      </trkpt>
      <trkpt lat="43.7594" lon="6.14566">
        <ele>638.616519</ele>
        <time>2022-05-26T11:52:52.939Z</time>
      </trkpt>
      <trkpt lat="43.75951" lon="6.1458">
        <ele>638.39588</ele>
        <time>2022-05-26T11:52:54.931Z</time>
      </trkpt>
      <trkpt lat="43.75962" lon="6.14592">
        <ele>638.075056</ele>
        <time>2022-05-26T11:52:56.933Z</time>
      </trkpt>
      <trkpt lat="43.75975" lon="6.14605">
        <ele>637.730497</ele>
        <time>2022-05-26T11:52:58.934Z</time>
      </trkpt>
      <trkpt lat="43.75989" lon="6.14617">
        <ele>637.363001</ele>
        <time>2022-05-26T11:53:00.938Z</time>
      </trkpt>
      <trkpt lat="43.76002" lon="6.14633">
        <ele>636.972519</ele>
        <time>2022-05-26T11:53:02.934Z</time>
      </trkpt>
      <trkpt lat="43.76012" lon="6.14654">
        <ele>636.563677</ele>
        <time>2022-05-26T11:53:04.936Z</time>
      </trkpt>
      <trkpt lat="43.76014" lon="6.14678">
        <ele>636.176013</ele>
        <time>2022-05-26T11:53:06.942Z</time>
      </trkpt>
      <trkpt lat="43.76013" lon="6.14691">
        <ele>635.973358</ele>
        <time>2022-05-26T11:53:07.933Z</time>
      </trkpt>
      <trkpt lat="43.76006" lon="6.14713">
        <ele>635.587384</ele>
        <time>2022-05-26T11:53:09.934Z</time>
      </trkpt>
      <trkpt lat="43.76002" lon="6.14733">
        <ele>635.256597</ele>
        <time>2022-05-26T11:53:11.934Z</time>
      </trkpt>
      <trkpt lat="43.76002" lon="6.1475">
        <ele>634.97678</ele>
        <time>2022-05-26T11:53:13.941Z</time>
      </trkpt>
      <trkpt lat="43.76008" lon="6.14765">
        <ele>634.69893</ele>
        <time>2022-05-26T11:53:15.926Z</time>
      </trkpt>
      <trkpt lat="43.76016" lon="6.14776">
        <ele>635.005176</ele>
        <time>2022-05-26T11:53:17.924Z</time>
      </trkpt>
      <trkpt lat="43.76025" lon="6.14784">
        <ele>635.571457</ele>
        <time>2022-05-26T11:53:19.938Z</time>
      </trkpt>
      <trkpt lat="43.76034" lon="6.1479">
        <ele>636.157376</ele>
        <time>2022-05-26T11:53:21.937Z</time>
      </trkpt>
      <trkpt lat="43.76042" lon="6.14801">
        <ele>636.779052</ele>
        <time>2022-05-26T11:53:24.925Z</time>
      </trkpt>
      <trkpt lat="43.7605" lon="6.14808">
        <ele>637.346109</ele>
        <time>2022-05-26T11:53:26.935Z</time>
      </trkpt>
      <trkpt lat="43.76058" lon="6.14821">
        <ele>638.023988</ele>
        <time>2022-05-26T11:53:29.925Z</time>
      </trkpt>
      <trkpt lat="43.76064" lon="6.14834">
        <ele>638.650331</ele>
        <time>2022-05-26T11:53:32.947Z</time>
      </trkpt>
      <trkpt lat="43.76069" lon="6.14846">
        <ele>639.264442</ele>
        <time>2022-05-26T11:53:35.926Z</time>
      </trkpt>
      <trkpt lat="43.76077" lon="6.14856">
        <ele>639.834657</ele>
        <time>2022-05-26T11:53:38.942Z</time>
      </trkpt>
      <trkpt lat="43.76087" lon="6.14859">
        <ele>640.44373</ele>
        <time>2022-05-26T11:53:41.941Z</time>
      </trkpt>
      <trkpt lat="43.76096" lon="6.14853">
        <ele>641.018998</ele>
        <time>2022-05-26T11:53:44.935Z</time>
      </trkpt>
      <trkpt lat="43.76099" lon="6.1484">
        <ele>641.594618</ele>
        <time>2022-05-26T11:53:47.932Z</time>
      </trkpt>
      <trkpt lat="43.76094" lon="6.14826">
        <ele>642.201992</ele>
        <time>2022-05-26T11:53:50.940Z</time>
      </trkpt>
      <trkpt lat="43.76087" lon="6.14814">
        <ele>642.869471</ele>
        <time>2022-05-26T11:53:53.939Z</time>
      </trkpt>
      <trkpt lat="43.76079" lon="6.14801">
        <ele>643.533374</ele>
        <time>2022-05-26T11:53:56.943Z</time>
      </trkpt>
      <trkpt lat="43.76073" lon="6.1479">
        <ele>644.116463</ele>
        <time>2022-05-26T11:53:59.941Z</time>
      </trkpt>
      <trkpt lat="43.76067" lon="6.14778">
        <ele>644.692908</ele>
        <time>2022-05-26T11:54:02.941Z</time>
      </trkpt>
      <trkpt lat="43.76062" lon="6.14766">
        <ele>645.396451</ele>
        <time>2022-05-26T11:54:05.939Z</time>
      </trkpt>
      <trkpt lat="43.76056" lon="6.14754">
        <ele>646.143621</ele>
        <time>2022-05-26T11:54:08.942Z</time>
      </trkpt>
      <trkpt lat="43.76052" lon="6.14743">
        <ele>646.83755</ele>
        <time>2022-05-26T11:54:11.938Z</time>
      </trkpt>
      <trkpt lat="43.76047" lon="6.1473">
        <ele>647.587306</ele>
        <time>2022-05-26T11:54:14.929Z</time>
      </trkpt>
      <trkpt lat="43.76047" lon="6.14717">
        <ele>648.318565</ele>
        <time>2022-05-26T11:54:17.944Z</time>
      </trkpt>
      <trkpt lat="43.76058" lon="6.14712">
        <ele>649.153291</ele>
        <time>2022-05-26T11:54:21.930Z</time>
      </trkpt>
      <trkpt lat="43.76062" lon="6.14723">
        <ele>649.850614</ele>
        <time>2022-05-26T11:54:24.938Z</time>
      </trkpt>
      <trkpt lat="43.76064" lon="6.14736">
        <ele>650.50566</ele>
        <time>2022-05-26T11:54:27.940Z</time>
      </trkpt>
      <trkpt lat="43.76067" lon="6.1475">
        <ele>651.304184</ele>
        <time>2022-05-26T11:54:31.938Z</time>
      </trkpt>
      <trkpt lat="43.76074" lon="6.14761">
        <ele>652.079379</ele>
        <time>2022-05-26T11:54:36.940Z</time>
      </trkpt>
      <trkpt lat="43.76083" lon="6.1477">
        <ele>652.857988</ele>
        <time>2022-05-26T11:54:41.933Z</time>
      </trkpt>
      <trkpt lat="43.76091" lon="6.14777">
        <ele>653.582781</ele>
        <time>2022-05-26T11:54:46.933Z</time>
      </trkpt>
      <trkpt lat="43.761" lon="6.14785">
        <ele>654.347182</ele>
        <time>2022-05-26T11:54:51.926Z</time>
      </trkpt>
      <trkpt lat="43.76109" lon="6.14791">
        <ele>655.061426</ele>
        <time>2022-05-26T11:54:56.941Z</time>
      </trkpt>
      <trkpt lat="43.76118" lon="6.14795">
        <ele>655.773884</ele>
        <time>2022-05-26T11:55:01.928Z</time>
      </trkpt>
      <trkpt lat="43.76127" lon="6.148">
        <ele>656.453269</ele>
        <time>2022-05-26T11:55:06.941Z</time>
      </trkpt>
      <trkpt lat="43.76137" lon="6.14803">
        <ele>657.189974</ele>
        <time>2022-05-26T11:55:11.939Z</time>
      </trkpt>
      <trkpt lat="43.76147" lon="6.14801">
        <ele>657.921079</ele>
        <time>2022-05-26T11:55:16.935Z</time>
      </trkpt>
      <trkpt lat="43.76154" lon="6.14793">
        <ele>658.67891</ele>
        <time>2022-05-26T11:55:21.934Z</time>
      </trkpt>
      <trkpt lat="43.76153" lon="6.14779">
        <ele>659.42167</ele>
        <time>2022-05-26T11:55:27.938Z</time>
      </trkpt>
      <trkpt lat="43.76147" lon="6.14769">
        <ele>660.187487</ele>
        <time>2022-05-26T11:55:32.935Z</time>
      </trkpt>
      <trkpt lat="43.76139" lon="6.14763">
        <ele>660.909232</ele>
        <time>2022-05-26T11:55:36.938Z</time>
      </trkpt>
      <trkpt lat="43.76129" lon="6.1476">
        <ele>661.675086</ele>
        <time>2022-05-26T11:55:40.944Z</time>
      </trkpt>
      <trkpt lat="43.76118" lon="6.14757">
        <ele>662.539898</ele>
        <time>2022-05-26T11:55:45.936Z</time>
      </trkpt>
      <trkpt lat="43.76109" lon="6.14751">
        <ele>663.296918</ele>
        <time>2022-05-26T11:55:50.937Z</time>
      </trkpt>
      <trkpt lat="43.76102" lon="6.14741">
        <ele>664.070083</ele>
        <time>2022-05-26T11:55:55.938Z</time>
      </trkpt>
      <trkpt lat="43.76097" lon="6.1473">
        <ele>664.800395</ele>
        <time>2022-05-26T11:56:00.936Z</time>
      </trkpt>
      <trkpt lat="43.76096" lon="6.14715">
        <ele>665.62237</ele>
        <time>2022-05-26T11:56:06.939Z</time>
      </trkpt>
      <trkpt lat="43.76094" lon="6.14701">
        <ele>666.413662</ele>
        <time>2022-05-26T11:56:12.930Z</time>
      </trkpt>
      <trkpt lat="43.76094" lon="6.14688">
        <ele>667.161195</ele>
        <time>2022-05-26T11:56:17.942Z</time>
      </trkpt>
      <trkpt lat="43.76093" lon="6.14675">
        <ele>667.865576</ele>
        <time>2022-05-26T11:56:22.944Z</time>
      </trkpt>
      <trkpt lat="43.76093" lon="6.1466">
        <ele>668.696653</ele>
        <time>2022-05-26T11:56:28.947Z</time>
      </trkpt>
      <trkpt lat="43.76093" lon="6.14646">
        <ele>669.511021</ele>
        <time>2022-05-26T11:56:33.941Z</time>
      </trkpt>
      <trkpt lat="43.76092" lon="6.14631">
        <ele>670.348843</ele>
        <time>2022-05-26T11:56:39.926Z</time>
      </trkpt>
      <trkpt lat="43.7609" lon="6.14618">
        <ele>671.058748</ele>
        <time>2022-05-26T11:56:44.928Z</time>
      </trkpt>
      <trkpt lat="43.76087" lon="6.14605">
        <ele>671.854114</ele>
        <time>2022-05-26T11:56:51.937Z</time>
      </trkpt>
      <trkpt lat="43.76083" lon="6.14592">
        <ele>672.625842</ele>
        <time>2022-05-26T11:56:56.931Z</time>
      </trkpt>
      <trkpt lat="43.76078" lon="6.1458">
        <ele>673.421943</ele>
        <time>2022-05-26T11:57:02.928Z</time>
      </trkpt>
      <trkpt lat="43.76074" lon="6.14567">
        <ele>674.23124</ele>
        <time>2022-05-26T11:57:08.936Z</time>
      </trkpt>
      <trkpt lat="43.76071" lon="6.14554">
        <ele>675.024972</ele>
        <time>2022-05-26T11:57:14.931Z</time>
      </trkpt>
      <trkpt lat="43.76072" lon="6.14542">
        <ele>675.738786</ele>
        <time>2022-05-26T11:57:19.935Z</time>
      </trkpt>
      <trkpt lat="43.76075" lon="6.14529">
        <ele>676.519312</ele>
        <time>2022-05-26T11:57:25.924Z</time>
      </trkpt>
      <trkpt lat="43.76085" lon="6.14528">
        <ele>677.29915</ele>
        <time>2022-05-26T11:57:31.934Z</time>
      </trkpt>
      <trkpt lat="43.76091" lon="6.14538">
        <ele>678.01959</ele>
        <time>2022-05-26T11:57:37.927Z</time>
      </trkpt>
      <trkpt lat="43.76094" lon="6.14552">
        <ele>678.860525</ele>
        <time>2022-05-26T11:57:43.943Z</time>
      </trkpt>
      <trkpt lat="43.76096" lon="6.14564">
        <ele>679.608077</ele>
        <time>2022-05-26T11:57:48.931Z</time>
      </trkpt>
      <trkpt lat="43.76099" lon="6.14578">
        <ele>680.433133</ele>
        <time>2022-05-26T11:57:54.930Z</time>
      </trkpt>
      <trkpt lat="43.76102" lon="6.14592">
        <ele>681.267173</ele>
        <time>2022-05-26T11:58:00.928Z</time>
      </trkpt>
      <trkpt lat="43.76106" lon="6.14606">
        <ele>682.090521</ele>
        <time>2022-05-26T11:58:06.926Z</time>
      </trkpt>
      <trkpt lat="43.7611" lon="6.1462">
        <ele>682.95151</ele>
        <time>2022-05-26T11:58:12.938Z</time>
      </trkpt>
      <trkpt lat="43.76113" lon="6.14631">
        <ele>683.661796</ele>
        <time>2022-05-26T11:58:17.935Z</time>
      </trkpt>
      <trkpt lat="43.76117" lon="6.14645">
        <ele>684.507993</ele>
        <time>2022-05-26T11:58:23.925Z</time>
      </trkpt>
      <trkpt lat="43.76121" lon="6.14657">
        <ele>685.2367</ele>
        <time>2022-05-26T11:58:28.933Z</time>
      </trkpt>
      <trkpt lat="43.76124" lon="6.14671">
        <ele>686.07405</ele>
        <time>2022-05-26T11:58:34.935Z</time>
      </trkpt>
      <trkpt lat="43.76129" lon="6.14683">
        <ele>686.532211</ele>
        <time>2022-05-26T11:58:39.946Z</time>
      </trkpt>
      <trkpt lat="43.76136" lon="6.14694">
        <ele>687.01106</ele>
        <time>2022-05-26T11:58:44.938Z</time>
      </trkpt>
      <trkpt lat="43.76146" lon="6.14701">
        <ele>687.526306</ele>
        <time>2022-05-26T11:58:49.939Z</time>
      </trkpt>
      <trkpt lat="43.76157" lon="6.14706">
        <ele>688.016754</ele>
        <time>2022-05-26T11:58:53.932Z</time>
      </trkpt>
      <trkpt lat="43.76166" lon="6.14708">
        <ele>688.452346</ele>
        <time>2022-05-26T11:58:57.942Z</time>
      </trkpt>
      <trkpt lat="43.76175" lon="6.14711">
        <ele>688.890109</ele>
        <time>2022-05-26T11:59:01.942Z</time>
      </trkpt>
      <trkpt lat="43.76185" lon="6.14714">
        <ele>689.335177</ele>
        <time>2022-05-26T11:59:05.935Z</time>
      </trkpt>
      <trkpt lat="43.76195" lon="6.14718">
        <ele>689.784966</ele>
        <time>2022-05-26T11:59:09.942Z</time>
      </trkpt>
      <trkpt lat="43.76206" lon="6.14722">
        <ele>690.304503</ele>
        <time>2022-05-26T11:59:13.932Z</time>
      </trkpt>
      <trkpt lat="43.76216" lon="6.14728">
        <ele>690.819456</ele>
        <time>2022-05-26T11:59:17.939Z</time>
      </trkpt>
      <trkpt lat="43.76226" lon="6.14735">
        <ele>691.307115</ele>
        <time>2022-05-26T11:59:21.940Z</time>
      </trkpt>
      <trkpt lat="43.76234" lon="6.14744">
        <ele>691.794628</ele>
        <time>2022-05-26T11:59:25.941Z</time>
      </trkpt>
      <trkpt lat="43.76244" lon="6.14754">
        <ele>692.337659</ele>
        <time>2022-05-26T11:59:29.940Z</time>
      </trkpt>
      <trkpt lat="43.76253" lon="6.14763">
        <ele>692.851906</ele>
        <time>2022-05-26T11:59:33.935Z</time>
      </trkpt>
      <trkpt lat="43.76263" lon="6.14772">
        <ele>693.383054</ele>
        <time>2022-05-26T11:59:37.939Z</time>
      </trkpt>
      <trkpt lat="43.76271" lon="6.14777">
        <ele>693.797996</ele>
        <time>2022-05-26T11:59:40.937Z</time>
      </trkpt>
      <trkpt lat="43.76281" lon="6.14782">
        <ele>694.185527</ele>
        <time>2022-05-26T11:59:44.941Z</time>
      </trkpt>
      <trkpt lat="43.7629" lon="6.14785">
        <ele>694.117553</ele>
        <time>2022-05-26T11:59:47.941Z</time>
      </trkpt>
      <trkpt lat="43.763" lon="6.14788">
        <ele>694.047142</ele>
        <time>2022-05-26T11:59:51.943Z</time>
      </trkpt>
      <trkpt lat="43.76309" lon="6.1479">
        <ele>693.979168</ele>
        <time>2022-05-26T11:59:55.936Z</time>
      </trkpt>
      <trkpt lat="43.76318" lon="6.14792">
        <ele>693.908262</ele>
        <time>2022-05-26T11:59:59.942Z</time>
      </trkpt>
      <trkpt lat="43.76327" lon="6.14795">
        <ele>693.840753</ele>
        <time>2022-05-26T12:00:03.934Z</time>
      </trkpt>
      <trkpt lat="43.76338" lon="6.14799">
        <ele>693.756527</ele>
        <time>2022-05-26T12:00:08.940Z</time>
      </trkpt>
      <trkpt lat="43.76347" lon="6.14807">
        <ele>693.679529</ele>
        <time>2022-05-26T12:00:12.939Z</time>
      </trkpt>
      <trkpt lat="43.76356" lon="6.14812">
        <ele>693.609177</ele>
        <time>2022-05-26T12:00:16.929Z</time>
      </trkpt>
      <trkpt lat="43.76366" lon="6.14816">
        <ele>693.531612</ele>
        <time>2022-05-26T12:00:20.934Z</time>
      </trkpt>
      <trkpt lat="43.76376" lon="6.14818">
        <ele>693.459551</ele>
        <time>2022-05-26T12:00:25.942Z</time>
      </trkpt>
      <trkpt lat="43.76387" lon="6.14822">
        <ele>693.376148</ele>
        <time>2022-05-26T12:00:29.942Z</time>
      </trkpt>
      <trkpt lat="43.76397" lon="6.14826">
        <ele>693.295329</ele>
        <time>2022-05-26T12:00:33.936Z</time>
      </trkpt>
      <trkpt lat="43.76408" lon="6.14829">
        <ele>693.215742</ele>
        <time>2022-05-26T12:00:36.936Z</time>
      </trkpt>
      <trkpt lat="43.76418" lon="6.14831">
        <ele>693.142134</ele>
        <time>2022-05-26T12:00:39.927Z</time>
      </trkpt>
      <trkpt lat="43.76428" lon="6.14835">
        <ele>693.0652</ele>
        <time>2022-05-26T12:00:42.934Z</time>
      </trkpt>
      <trkpt lat="43.76437" lon="6.14839">
        <ele>692.996368</ele>
        <time>2022-05-26T12:00:45.935Z</time>
      </trkpt>
      <trkpt lat="43.76449" lon="6.14843">
        <ele>692.908168</ele>
        <time>2022-05-26T12:00:49.951Z</time>
      </trkpt>
      <trkpt lat="43.76459" lon="6.14846">
        <ele>692.984553</ele>
        <time>2022-05-26T12:00:52.939Z</time>
      </trkpt>
      <trkpt lat="43.7647" lon="6.14849">
        <ele>693.194584</ele>
        <time>2022-05-26T12:00:55.937Z</time>
      </trkpt>
      <trkpt lat="43.76482" lon="6.14852">
        <ele>693.429196</ele>
        <time>2022-05-26T12:00:58.939Z</time>
      </trkpt>
      <trkpt lat="43.76493" lon="6.14853">
        <ele>693.647948</ele>
        <time>2022-05-26T12:01:01.936Z</time>
      </trkpt>
      <trkpt lat="43.76504" lon="6.14854">
        <ele>693.853646</ele>
        <time>2022-05-26T12:01:04.940Z</time>
      </trkpt>
      <trkpt lat="43.76514" lon="6.14856">
        <ele>694.042813</ele>
        <time>2022-05-26T12:01:07.935Z</time>
      </trkpt>
      <trkpt lat="43.76524" lon="6.14859">
        <ele>694.226923</ele>
        <time>2022-05-26T12:01:10.938Z</time>
      </trkpt>
      <trkpt lat="43.76533" lon="6.14864">
        <ele>694.410205</ele>
        <time>2022-05-26T12:01:13.943Z</time>
      </trkpt>
      <trkpt lat="43.76542" lon="6.14873">
        <ele>694.628671</ele>
        <time>2022-05-26T12:01:16.935Z</time>
      </trkpt>
      <trkpt lat="43.76551" lon="6.14887">
        <ele>694.874607</ele>
        <time>2022-05-26T12:01:19.941Z</time>
      </trkpt>
      <trkpt lat="43.76558" lon="6.149">
        <ele>695.093931</ele>
        <time>2022-05-26T12:01:22.934Z</time>
      </trkpt>
      <trkpt lat="43.76564" lon="6.1491">
        <ele>695.270312</ele>
        <time>2022-05-26T12:01:25.940Z</time>
      </trkpt>
      <trkpt lat="43.76569" lon="6.14924">
        <ele>695.485221</ele>
        <time>2022-05-26T12:01:28.938Z</time>
      </trkpt>
      <trkpt lat="43.76576" lon="6.14938">
        <ele>695.714443</ele>
        <time>2022-05-26T12:01:31.944Z</time>
      </trkpt>
      <trkpt lat="43.76583" lon="6.14948">
        <ele>695.904493</ele>
        <time>2022-05-26T12:01:34.939Z</time>
      </trkpt>
      <trkpt lat="43.76589" lon="6.14958">
        <ele>696.080563</ele>
        <time>2022-05-26T12:01:37.945Z</time>
      </trkpt>
      <trkpt lat="43.76596" lon="6.14967">
        <ele>696.257203</ele>
        <time>2022-05-26T12:01:40.927Z</time>
      </trkpt>
      <trkpt lat="43.76603" lon="6.14976">
        <ele>696.222403</ele>
        <time>2022-05-26T12:01:43.938Z</time>
      </trkpt>
      <trkpt lat="43.76609" lon="6.14986">
        <ele>696.184109</ele>
        <time>2022-05-26T12:01:46.940Z</time>
      </trkpt>
      <trkpt lat="43.76616" lon="6.14995">
        <ele>696.14513</ele>
        <time>2022-05-26T12:01:49.942Z</time>
      </trkpt>
      <trkpt lat="43.76623" lon="6.15005">
        <ele>696.104463</ele>
        <time>2022-05-26T12:01:52.937Z</time>
      </trkpt>
      <trkpt lat="43.7663" lon="6.15015">
        <ele>696.064983</ele>
        <time>2022-05-26T12:01:55.943Z</time>
      </trkpt>
      <trkpt lat="43.76638" lon="6.15027">
        <ele>696.018599</ele>
        <time>2022-05-26T12:01:59.942Z</time>
      </trkpt>
      <trkpt lat="43.76645" lon="6.15038">
        <ele>695.974278</ele>
        <time>2022-05-26T12:02:03.940Z</time>
      </trkpt>
      <trkpt lat="43.76652" lon="6.15047">
        <ele>695.935984</ele>
        <time>2022-05-26T12:02:06.935Z</time>
      </trkpt>
      <trkpt lat="43.76658" lon="6.15058">
        <ele>695.895089</ele>
        <time>2022-05-26T12:02:09.940Z</time>
      </trkpt>
      <trkpt lat="43.76665" lon="6.15071">
        <ele>695.849809</ele>
        <time>2022-05-26T12:02:12.935Z</time>
      </trkpt>
      <trkpt lat="43.76672" lon="6.15083">
        <ele>695.804426</ele>
        <time>2022-05-26T12:02:15.942Z</time>
      </trkpt>
      <trkpt lat="43.76679" lon="6.15096">
        <ele>695.756504</ele>
        <time>2022-05-26T12:02:18.926Z</time>
      </trkpt>
      <trkpt lat="43.76685" lon="6.15107">
        <ele>695.715702</ele>
        <time>2022-05-26T12:02:21.930Z</time>
      </trkpt>
      <trkpt lat="43.76691" lon="6.1512">
        <ele>695.671334</ele>
        <time>2022-05-26T12:02:24.936Z</time>
      </trkpt>
      <trkpt lat="43.76701" lon="6.15132">
        <ele>695.620032</ele>
        <time>2022-05-26T12:02:27.943Z</time>
      </trkpt>
      <trkpt lat="43.76709" lon="6.15145">
        <ele>695.56902</ele>
        <time>2022-05-26T12:02:30.936Z</time>
      </trkpt>
      <trkpt lat="43.76716" lon="6.15156">
        <ele>695.586523</ele>
        <time>2022-05-26T12:02:33.941Z</time>
      </trkpt>
      <trkpt lat="43.76725" lon="6.15165">
        <ele>695.84236</ele>
        <time>2022-05-26T12:02:36.938Z</time>
      </trkpt>
      <trkpt lat="43.76735" lon="6.15172">
        <ele>696.106463</ele>
        <time>2022-05-26T12:02:39.938Z</time>
      </trkpt>
      <trkpt lat="43.76745" lon="6.1518">
        <ele>696.361853</ele>
        <time>2022-05-26T12:02:42.934Z</time>
      </trkpt>
      <trkpt lat="43.76753" lon="6.15191">
        <ele>696.621457</ele>
        <time>2022-05-26T12:02:45.936Z</time>
      </trkpt>
      <trkpt lat="43.7676" lon="6.15205">
        <ele>696.891362</ele>
        <time>2022-05-26T12:02:48.939Z</time>
      </trkpt>
      <trkpt lat="43.76767" lon="6.15218">
        <ele>697.147794</ele>
        <time>2022-05-26T12:02:51.944Z</time>
      </trkpt>
      <trkpt lat="43.76773" lon="6.15231">
        <ele>697.411092</ele>
        <time>2022-05-26T12:02:54.946Z</time>
      </trkpt>
      <trkpt lat="43.76779" lon="6.15242">
        <ele>697.636974</ele>
        <time>2022-05-26T12:02:57.941Z</time>
      </trkpt>
      <trkpt lat="43.76785" lon="6.15253">
        <ele>697.867066</ele>
        <time>2022-05-26T12:03:00.936Z</time>
      </trkpt>
      <trkpt lat="43.76793" lon="6.15265">
        <ele>698.121342</ele>
        <time>2022-05-26T12:03:03.940Z</time>
      </trkpt>
      <trkpt lat="43.768" lon="6.15277">
        <ele>698.382458</ele>
        <time>2022-05-26T12:03:06.939Z</time>
      </trkpt>
      <trkpt lat="43.76807" lon="6.1529">
        <ele>698.652205</ele>
        <time>2022-05-26T12:03:09.942Z</time>
      </trkpt>
      <trkpt lat="43.76815" lon="6.15303">
        <ele>698.928402</ele>
        <time>2022-05-26T12:03:12.936Z</time>
      </trkpt>
      <trkpt lat="43.76824" lon="6.15316">
        <ele>699.222736</ele>
        <time>2022-05-26T12:03:15.943Z</time>
      </trkpt>
      <trkpt lat="43.76831" lon="6.15328">
        <ele>699.474611</ele>
        <time>2022-05-26T12:03:18.942Z</time>
      </trkpt>
      <trkpt lat="43.76837" lon="6.15339">
        <ele>699.687847</ele>
        <time>2022-05-26T12:03:21.932Z</time>
      </trkpt>
      <trkpt lat="43.76844" lon="6.15355">
        <ele>699.931889</ele>
        <time>2022-05-26T12:03:24.930Z</time>
      </trkpt>
      <trkpt lat="43.76849" lon="6.15366">
        <ele>700.097852</ele>
        <time>2022-05-26T12:03:26.932Z</time>
      </trkpt>
      <trkpt lat="43.76855" lon="6.15377">
        <ele>700.270322</ele>
        <time>2022-05-26T12:03:28.936Z</time>
      </trkpt>
      <trkpt lat="43.76859" lon="6.15389">
        <ele>700.445753</ele>
        <time>2022-05-26T12:03:30.939Z</time>
      </trkpt>
      <trkpt lat="43.76863" lon="6.15402">
        <ele>700.634759</ele>
        <time>2022-05-26T12:03:32.938Z</time>
      </trkpt>
      <trkpt lat="43.76867" lon="6.15414">
        <ele>700.805346</ele>
        <time>2022-05-26T12:03:34.943Z</time>
      </trkpt>
      <trkpt lat="43.76872" lon="6.15431">
        <ele>701.044554</ele>
        <time>2022-05-26T12:03:37.938Z</time>
      </trkpt>
      <trkpt lat="43.76877" lon="6.15443">
        <ele>701.226992</ele>
        <time>2022-05-26T12:03:39.931Z</time>
      </trkpt>
      <trkpt lat="43.7688" lon="6.15456">
        <ele>701.405995</ele>
        <time>2022-05-26T12:03:41.944Z</time>
      </trkpt>
      <trkpt lat="43.76884" lon="6.15474">
        <ele>701.644439</ele>
        <time>2022-05-26T12:03:44.937Z</time>
      </trkpt>
      <trkpt lat="43.76886" lon="6.15487">
        <ele>701.820249</ele>
        <time>2022-05-26T12:03:46.934Z</time>
      </trkpt>
      <trkpt lat="43.76889" lon="6.15501">
        <ele>702.006619</ele>
        <time>2022-05-26T12:03:48.936Z</time>
      </trkpt>
      <trkpt lat="43.76891" lon="6.15514">
        <ele>702.190379</ele>
        <time>2022-05-26T12:03:50.940Z</time>
      </trkpt>
      <trkpt lat="43.76894" lon="6.15528">
        <ele>702.368983</ele>
        <time>2022-05-26T12:03:52.940Z</time>
      </trkpt>
      <trkpt lat="43.76896" lon="6.15542">
        <ele>702.556137</ele>
        <time>2022-05-26T12:03:54.937Z</time>
      </trkpt>
      <trkpt lat="43.76899" lon="6.15555">
        <ele>702.743765</ele>
        <time>2022-05-26T12:03:56.939Z</time>
      </trkpt>
      <trkpt lat="43.76901" lon="6.1557">
        <ele>702.95136</ele>
        <time>2022-05-26T12:03:58.933Z</time>
      </trkpt>
      <trkpt lat="43.76904" lon="6.15585">
        <ele>703.177786</ele>
        <time>2022-05-26T12:04:00.937Z</time>
      </trkpt>
      <trkpt lat="43.76906" lon="6.15598">
        <ele>703.366484</ele>
        <time>2022-05-26T12:04:02.938Z</time>
      </trkpt>
      <trkpt lat="43.76909" lon="6.15611">
        <ele>703.56913</ele>
        <time>2022-05-26T12:04:04.939Z</time>
      </trkpt>
      <trkpt lat="43.76911" lon="6.15624">
        <ele>703.771376</ele>
        <time>2022-05-26T12:04:06.936Z</time>
      </trkpt>
      <trkpt lat="43.76914" lon="6.15637">
        <ele>703.96459</ele>
        <time>2022-05-26T12:04:08.939Z</time>
      </trkpt>
      <trkpt lat="43.76917" lon="6.1565">
        <ele>704.162755</ele>
        <time>2022-05-26T12:04:10.938Z</time>
      </trkpt>
      <trkpt lat="43.7692" lon="6.15663">
        <ele>704.357078</ele>
        <time>2022-05-26T12:04:12.938Z</time>
      </trkpt>
      <trkpt lat="43.76923" lon="6.15676">
        <ele>704.558798</ele>
        <time>2022-05-26T12:04:14.938Z</time>
      </trkpt>
      <trkpt lat="43.76925" lon="6.15689">
        <ele>704.757109</ele>
        <time>2022-05-26T12:04:16.941Z</time>
      </trkpt>
      <trkpt lat="43.76929" lon="6.15701">
        <ele>704.952462</ele>
        <time>2022-05-26T12:04:18.937Z</time>
      </trkpt>
      <trkpt lat="43.76932" lon="6.15715">
        <ele>705.160605</ele>
        <time>2022-05-26T12:04:20.935Z</time>
      </trkpt>
      <trkpt lat="43.76935" lon="6.15727">
        <ele>705.355957</ele>
        <time>2022-05-26T12:04:22.938Z</time>
      </trkpt>
      <trkpt lat="43.76938" lon="6.15739">
        <ele>705.54728</ele>
        <time>2022-05-26T12:04:24.937Z</time>
      </trkpt>
      <trkpt lat="43.76942" lon="6.15753">
        <ele>705.752416</ele>
        <time>2022-05-26T12:04:26.936Z</time>
      </trkpt>
      <trkpt lat="43.76944" lon="6.15766">
        <ele>705.952719</ele>
        <time>2022-05-26T12:04:28.939Z</time>
      </trkpt>
      <trkpt lat="43.76947" lon="6.15778">
        <ele>706.134406</ele>
        <time>2022-05-26T12:04:30.940Z</time>
      </trkpt>
      <trkpt lat="43.76952" lon="6.15794">
        <ele>706.396279</ele>
        <time>2022-05-26T12:04:33.942Z</time>
      </trkpt>
      <trkpt lat="43.76955" lon="6.15806">
        <ele>706.499454</ele>
        <time>2022-05-26T12:04:35.950Z</time>
      </trkpt>
      <trkpt lat="43.76959" lon="6.15817">
        <ele>706.439458</ele>
        <time>2022-05-26T12:04:37.942Z</time>
      </trkpt>
      <trkpt lat="43.76964" lon="6.15834">
        <ele>706.352936</ele>
        <time>2022-05-26T12:04:40.931Z</time>
      </trkpt>
      <trkpt lat="43.76967" lon="6.15846">
        <ele>706.290588</ele>
        <time>2022-05-26T12:04:42.940Z</time>
      </trkpt>
      <trkpt lat="43.76971" lon="6.15858">
        <ele>706.229231</ele>
        <time>2022-05-26T12:04:44.939Z</time>
      </trkpt>
      <trkpt lat="43.76975" lon="6.15871">
        <ele>706.163786</ele>
        <time>2022-05-26T12:04:46.940Z</time>
      </trkpt>
      <trkpt lat="43.7698" lon="6.15884">
        <ele>706.094138</ele>
        <time>2022-05-26T12:04:48.938Z</time>
      </trkpt>
      <trkpt lat="43.76985" lon="6.15895">
        <ele>706.028085</ele>
        <time>2022-05-26T12:04:50.937Z</time>
      </trkpt>
      <trkpt lat="43.7699" lon="6.15906">
        <ele>705.9666</ele>
        <time>2022-05-26T12:04:52.941Z</time>
      </trkpt>
      <trkpt lat="43.76995" lon="6.15916">
        <ele>705.905312</ele>
        <time>2022-05-26T12:04:54.938Z</time>
      </trkpt>
      <trkpt lat="43.77003" lon="6.1593">
        <ele>705.822763</ele>
        <time>2022-05-26T12:04:57.933Z</time>
      </trkpt>
      <trkpt lat="43.77011" lon="6.15941">
        <ele>705.750243</ele>
        <time>2022-05-26T12:04:59.936Z</time>
      </trkpt>
      <trkpt lat="43.77017" lon="6.15952">
        <ele>705.681668</ele>
        <time>2022-05-26T12:05:01.939Z</time>
      </trkpt>
      <trkpt lat="43.77022" lon="6.15965">
        <ele>705.612945</ele>
        <time>2022-05-26T12:05:03.934Z</time>
      </trkpt>
      <trkpt lat="43.77029" lon="6.15975">
        <ele>705.544754</ele>
        <time>2022-05-26T12:05:05.934Z</time>
      </trkpt>
      <trkpt lat="43.77035" lon="6.15986">
        <ele>705.480405</ele>
        <time>2022-05-26T12:05:07.940Z</time>
      </trkpt>
      <trkpt lat="43.77042" lon="6.15999">
        <ele>705.405982</ele>
        <time>2022-05-26T12:05:09.940Z</time>
      </trkpt>
      <trkpt lat="43.77047" lon="6.1601">
        <ele>705.341273</ele>
        <time>2022-05-26T12:05:11.939Z</time>
      </trkpt>
      <trkpt lat="43.77054" lon="6.16019">
        <ele>705.407117</ele>
        <time>2022-05-26T12:05:13.942Z</time>
      </trkpt>
      <trkpt lat="43.77059" lon="6.1603">
        <ele>705.505492</ele>
        <time>2022-05-26T12:05:15.950Z</time>
      </trkpt>
      <trkpt lat="43.77066" lon="6.1604">
        <ele>705.609883</ele>
        <time>2022-05-26T12:05:17.938Z</time>
      </trkpt>
      <trkpt lat="43.77072" lon="6.16052">
        <ele>705.712341</ele>
        <time>2022-05-26T12:05:19.938Z</time>
      </trkpt>
      <trkpt lat="43.77078" lon="6.16063">
        <ele>705.814204</ele>
        <time>2022-05-26T12:05:21.941Z</time>
      </trkpt>
      <trkpt lat="43.77084" lon="6.16079">
        <ele>705.948963</ele>
        <time>2022-05-26T12:05:24.937Z</time>
      </trkpt>
      <trkpt lat="43.7709" lon="6.1609">
        <ele>706.040764</ele>
        <time>2022-05-26T12:05:26.942Z</time>
      </trkpt>
      <trkpt lat="43.77095" lon="6.161">
        <ele>706.134979</ele>
        <time>2022-05-26T12:05:28.935Z</time>
      </trkpt>
      <trkpt lat="43.77101" lon="6.16109">
        <ele>706.225408</ele>
        <time>2022-05-26T12:05:30.936Z</time>
      </trkpt>
      <trkpt lat="43.77108" lon="6.16119">
        <ele>706.324668</ele>
        <time>2022-05-26T12:05:32.939Z</time>
      </trkpt>
      <trkpt lat="43.77114" lon="6.16131">
        <ele>706.427729</ele>
        <time>2022-05-26T12:05:34.936Z</time>
      </trkpt>
      <trkpt lat="43.77119" lon="6.16141">
        <ele>706.521306</ele>
        <time>2022-05-26T12:05:36.941Z</time>
      </trkpt>
      <trkpt lat="43.77127" lon="6.16155">
        <ele>706.654068</ele>
        <time>2022-05-26T12:05:39.936Z</time>
      </trkpt>
      <trkpt lat="43.77134" lon="6.16165">
        <ele>706.749244</ele>
        <time>2022-05-26T12:05:41.945Z</time>
      </trkpt>
      <trkpt lat="43.7714" lon="6.16175">
        <ele>706.847669</ele>
        <time>2022-05-26T12:05:43.939Z</time>
      </trkpt>
      <trkpt lat="43.77147" lon="6.16184">
        <ele>706.947268</ele>
        <time>2022-05-26T12:05:45.941Z</time>
      </trkpt>
      <trkpt lat="43.77154" lon="6.16194">
        <ele>707.045851</ele>
        <time>2022-05-26T12:05:47.941Z</time>
      </trkpt>
      <trkpt lat="43.7716" lon="6.16204">
        <ele>707.142461</ele>
        <time>2022-05-26T12:05:49.946Z</time>
      </trkpt>
      <trkpt lat="43.77166" lon="6.16214">
        <ele>707.072991</ele>
        <time>2022-05-26T12:05:51.942Z</time>
      </trkpt>
      <trkpt lat="43.77175" lon="6.16227">
        <ele>706.954339</ele>
        <time>2022-05-26T12:05:54.936Z</time>
      </trkpt>
      <trkpt lat="43.77182" lon="6.16236">
        <ele>706.868358</ele>
        <time>2022-05-26T12:05:56.937Z</time>
      </trkpt>
      <trkpt lat="43.77189" lon="6.16245">
        <ele>706.779673</ele>
        <time>2022-05-26T12:05:58.938Z</time>
      </trkpt>
      <trkpt lat="43.77199" lon="6.16255">
        <ele>706.665638</ele>
        <time>2022-05-26T12:06:01.939Z</time>
      </trkpt>
      <trkpt lat="43.77211" lon="6.16261">
        <ele>706.550379</ele>
        <time>2022-05-26T12:06:04.940Z</time>
      </trkpt>
      <trkpt lat="43.77221" lon="6.16256">
        <ele>706.459688</ele>
        <time>2022-05-26T12:06:06.943Z</time>
      </trkpt>
      <trkpt lat="43.7723" lon="6.1625">
        <ele>706.362272</ele>
        <time>2022-05-26T12:06:08.939Z</time>
      </trkpt>
      <trkpt lat="43.7724" lon="6.16241">
        <ele>706.257295</ele>
        <time>2022-05-26T12:06:10.938Z</time>
      </trkpt>
      <trkpt lat="43.77249" lon="6.16233">
        <ele>706.157033</ele>
        <time>2022-05-26T12:06:12.937Z</time>
      </trkpt>
      <trkpt lat="43.77258" lon="6.16226">
        <ele>706.064416</ele>
        <time>2022-05-26T12:06:14.941Z</time>
      </trkpt>
      <trkpt lat="43.77266" lon="6.16219">
        <ele>705.980342</ele>
        <time>2022-05-26T12:06:16.937Z</time>
      </trkpt>
      <trkpt lat="43.77275" lon="6.16213">
        <ele>705.890513</ele>
        <time>2022-05-26T12:06:18.940Z</time>
      </trkpt>
      <trkpt lat="43.77284" lon="6.16207">
        <ele>705.798611</ele>
        <time>2022-05-26T12:06:20.939Z</time>
      </trkpt>
      <trkpt lat="43.77292" lon="6.16201">
        <ele>705.710869</ele>
        <time>2022-05-26T12:06:22.942Z</time>
      </trkpt>
      <trkpt lat="43.77303" lon="6.16194">
        <ele>705.603242</ele>
        <time>2022-05-26T12:06:25.937Z</time>
      </trkpt>
      <trkpt lat="43.77314" lon="6.16186">
        <ele>705.509824</ele>
        <time>2022-05-26T12:06:28.934Z</time>
      </trkpt>
      <trkpt lat="43.77324" lon="6.16178">
        <ele>705.509824</ele>
        <time>2022-05-26T12:06:31.943Z</time>
      </trkpt>
      <trkpt lat="43.77335" lon="6.16168">
        <ele>705.509824</ele>
        <time>2022-05-26T12:06:34.939Z</time>
      </trkpt>
      <trkpt lat="43.77345" lon="6.1616">
        <ele>705.509824</ele>
        <time>2022-05-26T12:06:37.942Z</time>
      </trkpt>
      <trkpt lat="43.77352" lon="6.1615">
        <ele>705.509824</ele>
        <time>2022-05-26T12:06:40.937Z</time>
      </trkpt>
      <trkpt lat="43.77351" lon="6.16134">
        <ele>705.509824</ele>
        <time>2022-05-26T12:06:44.932Z</time>
      </trkpt>
      <trkpt lat="43.77347" lon="6.1612">
        <ele>705.509824</ele>
        <time>2022-05-26T12:06:48.937Z</time>
      </trkpt>
      <trkpt lat="43.77345" lon="6.16108">
        <ele>705.509824</ele>
        <time>2022-05-26T12:06:53.932Z</time>
      </trkpt>
      <trkpt lat="43.77349" lon="6.16096">
        <ele>705.509824</ele>
        <time>2022-05-26T12:06:58.932Z</time>
      </trkpt>
      <trkpt lat="43.77356" lon="6.16087">
        <ele>705.509824</ele>
        <time>2022-05-26T12:07:01.935Z</time>
      </trkpt>
      <trkpt lat="43.77365" lon="6.16081">
        <ele>705.509824</ele>
        <time>2022-05-26T12:07:04.932Z</time>
      </trkpt>
      <trkpt lat="43.77372" lon="6.16074">
        <ele>705.509824</ele>
        <time>2022-05-26T12:07:07.934Z</time>
      </trkpt>
      <trkpt lat="43.77382" lon="6.16068">
        <ele>705.509824</ele>
        <time>2022-05-26T12:07:11.933Z</time>
      </trkpt>
      <trkpt lat="43.77391" lon="6.16065">
        <ele>705.509824</ele>
        <time>2022-05-26T12:07:34.930Z</time>
      </trkpt>
      <trkpt lat="43.77393" lon="6.1607">
        <ele>705.509824</ele>
        <time>2022-05-26T12:10:25.782Z</time>
      </trkpt>
    </trkseg>
  </trk>
</gpx>